<?xml version="1.0" encoding="UTF-8" standalone="no" ?>
<gpx xmlns="http://www.topografix.com/GPX/1/1" xmlns:xsi="http://www.w3.org/2001/XMLSchema-instance" xsi:schemaLocation="http://www.topografix.com/GPX/1/1 http://www.topografix.com/GPX/1/1/gpx.xsd" version="1.1" creator="VisuGPX - https://www.visugpx.com">
  <metadata>
    <name>La Regordane - La Bastide Puylaurent &gt; Villefort</name>
    <desc><![CDATA[3ème étape]]></desc>
  </metadata>
  <trk>
    <name><![CDATA[La Regordane - La Bastide Puylaurent > Villefort_1]]></name>
    <trkseg>
      <trkpt lat="44.5913" lon="3.90522">
        <ele>927.161254</ele>
        <time>2013-05-10T06:34:13Z</time>
      </trkpt>
      <trkpt lat="44.5913" lon="3.90523">
        <ele>927.361267</ele>
        <time>2013-05-10T06:34:14Z</time>
      </trkpt>
      <trkpt lat="44.59118" lon="3.90537">
        <ele>940.8</ele>
        <time>2013-05-10T06:34:25Z</time>
      </trkpt>
      <trkpt lat="44.59113" lon="3.90548">
        <ele>945.3</ele>
        <time>2013-05-10T06:34:33Z</time>
      </trkpt>
      <trkpt lat="44.59106" lon="3.90555">
        <ele>947.4</ele>
        <time>2013-05-10T06:34:53Z</time>
      </trkpt>
      <trkpt lat="44.59101" lon="3.90554">
        <ele>948.8</ele>
        <time>2013-05-10T06:35:06Z</time>
      </trkpt>
      <trkpt lat="44.59093" lon="3.90552">
        <ele>949.3</ele>
        <time>2013-05-10T06:35:12Z</time>
      </trkpt>
      <trkpt lat="44.59085" lon="3.9055">
        <ele>949.6</ele>
        <time>2013-05-10T06:35:15Z</time>
      </trkpt>
      <trkpt lat="44.59084" lon="3.9055">
        <ele>949.7</ele>
        <time>2013-05-10T06:35:16Z</time>
      </trkpt>
      <trkpt lat="44.5907" lon="3.90549">
        <ele>950.4</ele>
        <time>2013-05-10T06:35:26Z</time>
      </trkpt>
      <trkpt lat="44.59061" lon="3.90551">
        <ele>951</ele>
        <time>2013-05-10T06:35:32Z</time>
      </trkpt>
      <trkpt lat="44.59055" lon="3.9055">
        <ele>951.1</ele>
        <time>2013-05-10T06:35:34Z</time>
      </trkpt>
      <trkpt lat="44.59047" lon="3.90549">
        <ele>951.4</ele>
        <time>2013-05-10T06:35:37Z</time>
      </trkpt>
      <trkpt lat="44.59039" lon="3.90552">
        <ele>951.8</ele>
        <time>2013-05-10T06:35:42Z</time>
      </trkpt>
      <trkpt lat="44.5903" lon="3.90553">
        <ele>952.3</ele>
        <time>2013-05-10T06:35:49Z</time>
      </trkpt>
      <trkpt lat="44.59023" lon="3.90554">
        <ele>952.8</ele>
        <time>2013-05-10T06:35:54Z</time>
      </trkpt>
      <trkpt lat="44.59027" lon="3.90564">
        <ele>953.1</ele>
        <time>2013-05-10T06:36:00Z</time>
      </trkpt>
      <trkpt lat="44.59026" lon="3.90572">
        <ele>953.6</ele>
        <time>2013-05-10T06:36:08Z</time>
      </trkpt>
      <trkpt lat="44.59038" lon="3.90582">
        <ele>953.5</ele>
        <time>2013-05-10T06:36:09Z</time>
      </trkpt>
      <trkpt lat="44.59035" lon="3.90593">
        <ele>953.9</ele>
        <time>2013-05-10T06:36:20Z</time>
      </trkpt>
      <trkpt lat="44.59034" lon="3.90595">
        <ele>953.9</ele>
        <time>2013-05-10T06:36:21Z</time>
      </trkpt>
      <trkpt lat="44.59018" lon="3.90594">
        <ele>954.5</ele>
        <time>2013-05-10T06:36:37Z</time>
      </trkpt>
      <trkpt lat="44.59009" lon="3.90597">
        <ele>955.1</ele>
        <time>2013-05-10T06:36:47Z</time>
      </trkpt>
      <trkpt lat="44.59002" lon="3.90604">
        <ele>955.5</ele>
        <time>2013-05-10T06:36:58Z</time>
      </trkpt>
      <trkpt lat="44.58994" lon="3.90608">
        <ele>955.8</ele>
        <time>2013-05-10T06:37:07Z</time>
      </trkpt>
      <trkpt lat="44.58987" lon="3.90613">
        <ele>956.1</ele>
        <time>2013-05-10T06:37:16Z</time>
      </trkpt>
      <trkpt lat="44.58979" lon="3.90618">
        <ele>956.2</ele>
        <time>2013-05-10T06:37:24Z</time>
      </trkpt>
      <trkpt lat="44.58978" lon="3.90619">
        <ele>956.1</ele>
        <time>2013-05-10T06:37:25Z</time>
      </trkpt>
      <trkpt lat="44.58965" lon="3.90626">
        <ele>956.1</ele>
        <time>2013-05-10T06:37:38Z</time>
      </trkpt>
      <trkpt lat="44.58957" lon="3.90628">
        <ele>956.1</ele>
        <time>2013-05-10T06:37:47Z</time>
      </trkpt>
      <trkpt lat="44.58948" lon="3.90628">
        <ele>956.2</ele>
        <time>2013-05-10T06:37:57Z</time>
      </trkpt>
      <trkpt lat="44.5894" lon="3.90626">
        <ele>956.2</ele>
        <time>2013-05-10T06:38:05Z</time>
      </trkpt>
      <trkpt lat="44.58931" lon="3.90625">
        <ele>956.3</ele>
        <time>2013-05-10T06:38:15Z</time>
      </trkpt>
      <trkpt lat="44.58922" lon="3.90625">
        <ele>956.3</ele>
        <time>2013-05-10T06:38:23Z</time>
      </trkpt>
      <trkpt lat="44.58914" lon="3.90628">
        <ele>956.3</ele>
        <time>2013-05-10T06:38:32Z</time>
      </trkpt>
      <trkpt lat="44.58913" lon="3.90629">
        <ele>956.4</ele>
        <time>2013-05-10T06:38:33Z</time>
      </trkpt>
      <trkpt lat="44.58896" lon="3.90626">
        <ele>956.5</ele>
        <time>2013-05-10T06:38:52Z</time>
      </trkpt>
      <trkpt lat="44.58888" lon="3.90626">
        <ele>956.5</ele>
        <time>2013-05-10T06:39:01Z</time>
      </trkpt>
      <trkpt lat="44.5888" lon="3.90623">
        <ele>956.7</ele>
        <time>2013-05-10T06:39:08Z</time>
      </trkpt>
      <trkpt lat="44.58872" lon="3.90627">
        <ele>956.8</ele>
        <time>2013-05-10T06:39:18Z</time>
      </trkpt>
      <trkpt lat="44.58864" lon="3.90625">
        <ele>956.9</ele>
        <time>2013-05-10T06:39:26Z</time>
      </trkpt>
      <trkpt lat="44.58856" lon="3.90629">
        <ele>957.1</ele>
        <time>2013-05-10T06:39:36Z</time>
      </trkpt>
      <trkpt lat="44.58854" lon="3.90627">
        <ele>957.1</ele>
        <time>2013-05-10T06:39:37Z</time>
      </trkpt>
      <trkpt lat="44.58843" lon="3.9063">
        <ele>957.3</ele>
        <time>2013-05-10T06:39:45Z</time>
      </trkpt>
      <trkpt lat="44.58838" lon="3.9064">
        <ele>957.4</ele>
        <time>2013-05-10T06:39:50Z</time>
      </trkpt>
      <trkpt lat="44.5883" lon="3.90642">
        <ele>957.6</ele>
        <time>2013-05-10T06:40:00Z</time>
      </trkpt>
      <trkpt lat="44.58826" lon="3.90652">
        <ele>957.7</ele>
        <time>2013-05-10T06:40:08Z</time>
      </trkpt>
      <trkpt lat="44.58819" lon="3.90656">
        <ele>957.8</ele>
        <time>2013-05-10T06:40:15Z</time>
      </trkpt>
      <trkpt lat="44.5881" lon="3.90659">
        <ele>958</ele>
        <time>2013-05-10T06:40:24Z</time>
      </trkpt>
      <trkpt lat="44.58804" lon="3.90666">
        <ele>958.1</ele>
        <time>2013-05-10T06:40:29Z</time>
      </trkpt>
      <trkpt lat="44.58795" lon="3.90669">
        <ele>958.2</ele>
        <time>2013-05-10T06:40:36Z</time>
      </trkpt>
      <trkpt lat="44.58788" lon="3.90663">
        <ele>958.3</ele>
        <time>2013-05-10T06:40:43Z</time>
      </trkpt>
      <trkpt lat="44.58787" lon="3.90663">
        <ele>958.3</ele>
        <time>2013-05-10T06:40:44Z</time>
      </trkpt>
      <trkpt lat="44.5877" lon="3.90661">
        <ele>958.8</ele>
        <time>2013-05-10T06:41:02Z</time>
      </trkpt>
      <trkpt lat="44.58762" lon="3.90664">
        <ele>959</ele>
        <time>2013-05-10T06:41:11Z</time>
      </trkpt>
      <trkpt lat="44.58754" lon="3.90666">
        <ele>959.2</ele>
        <time>2013-05-10T06:41:18Z</time>
      </trkpt>
      <trkpt lat="44.58747" lon="3.90673">
        <ele>959.5</ele>
        <time>2013-05-10T06:41:27Z</time>
      </trkpt>
      <trkpt lat="44.5874" lon="3.90679">
        <ele>959.8</ele>
        <time>2013-05-10T06:41:35Z</time>
      </trkpt>
      <trkpt lat="44.58733" lon="3.90686">
        <ele>960.3</ele>
        <time>2013-05-10T06:41:43Z</time>
      </trkpt>
      <trkpt lat="44.58724" lon="3.90688">
        <ele>961.1</ele>
        <time>2013-05-10T06:41:53Z</time>
      </trkpt>
      <trkpt lat="44.58723" lon="3.90689">
        <ele>961.1</ele>
        <time>2013-05-10T06:41:54Z</time>
      </trkpt>
      <trkpt lat="44.58709" lon="3.907">
        <ele>962</ele>
        <time>2013-05-10T06:42:09Z</time>
      </trkpt>
      <trkpt lat="44.58701" lon="3.90703">
        <ele>962.4</ele>
        <time>2013-05-10T06:42:15Z</time>
      </trkpt>
      <trkpt lat="44.58693" lon="3.90704">
        <ele>962.9</ele>
        <time>2013-05-10T06:42:21Z</time>
      </trkpt>
      <trkpt lat="44.58684" lon="3.90706">
        <ele>963.8</ele>
        <time>2013-05-10T06:42:30Z</time>
      </trkpt>
      <trkpt lat="44.58676" lon="3.90708">
        <ele>964.7</ele>
        <time>2013-05-10T06:42:37Z</time>
      </trkpt>
      <trkpt lat="44.5867" lon="3.90716">
        <ele>965</ele>
        <time>2013-05-10T06:42:40Z</time>
      </trkpt>
      <trkpt lat="44.58662" lon="3.90719">
        <ele>965.8</ele>
        <time>2013-05-10T06:42:49Z</time>
      </trkpt>
      <trkpt lat="44.58654" lon="3.90717">
        <ele>966.6</ele>
        <time>2013-05-10T06:42:58Z</time>
      </trkpt>
      <trkpt lat="44.58653" lon="3.90716">
        <ele>966.6</ele>
        <time>2013-05-10T06:42:59Z</time>
      </trkpt>
      <trkpt lat="44.58639" lon="3.90707">
        <ele>967.7</ele>
        <time>2013-05-10T06:43:15Z</time>
      </trkpt>
      <trkpt lat="44.58631" lon="3.90703">
        <ele>968.5</ele>
        <time>2013-05-10T06:43:26Z</time>
      </trkpt>
      <trkpt lat="44.58623" lon="3.90705">
        <ele>969.2</ele>
        <time>2013-05-10T06:43:35Z</time>
      </trkpt>
      <trkpt lat="44.58616" lon="3.90698">
        <ele>969.9</ele>
        <time>2013-05-10T06:43:43Z</time>
      </trkpt>
      <trkpt lat="44.5861" lon="3.90689">
        <ele>970.5</ele>
        <time>2013-05-10T06:43:50Z</time>
      </trkpt>
      <trkpt lat="44.58603" lon="3.90682">
        <ele>971.4</ele>
        <time>2013-05-10T06:43:59Z</time>
      </trkpt>
      <trkpt lat="44.58602" lon="3.90682">
        <ele>971.5</ele>
        <time>2013-05-10T06:44:00Z</time>
      </trkpt>
      <trkpt lat="44.58586" lon="3.90681">
        <ele>973.1</ele>
        <time>2013-05-10T06:44:17Z</time>
      </trkpt>
      <trkpt lat="44.58578" lon="3.9068">
        <ele>973.7</ele>
        <time>2013-05-10T06:44:24Z</time>
      </trkpt>
      <trkpt lat="44.58571" lon="3.90673">
        <ele>974.3</ele>
        <time>2013-05-10T06:44:29Z</time>
      </trkpt>
      <trkpt lat="44.58564" lon="3.90667">
        <ele>974.9</ele>
        <time>2013-05-10T06:44:35Z</time>
      </trkpt>
      <trkpt lat="44.58556" lon="3.90667">
        <ele>976.1</ele>
        <time>2013-05-10T06:44:45Z</time>
      </trkpt>
      <trkpt lat="44.58547" lon="3.90666">
        <ele>977.4</ele>
        <time>2013-05-10T06:44:57Z</time>
      </trkpt>
      <trkpt lat="44.58539" lon="3.90662">
        <ele>978.3</ele>
        <time>2013-05-10T06:45:05Z</time>
      </trkpt>
      <trkpt lat="44.58538" lon="3.90661">
        <ele>978.4</ele>
        <time>2013-05-10T06:45:06Z</time>
      </trkpt>
      <trkpt lat="44.58526" lon="3.90646">
        <ele>980.3</ele>
        <time>2013-05-10T06:45:21Z</time>
      </trkpt>
      <trkpt lat="44.58518" lon="3.90638">
        <ele>981.3</ele>
        <time>2013-05-10T06:45:29Z</time>
      </trkpt>
      <trkpt lat="44.58511" lon="3.90632">
        <ele>982.2</ele>
        <time>2013-05-10T06:45:37Z</time>
      </trkpt>
      <trkpt lat="44.58502" lon="3.90632">
        <ele>982.9</ele>
        <time>2013-05-10T06:45:44Z</time>
      </trkpt>
      <trkpt lat="44.58495" lon="3.90632">
        <ele>983.5</ele>
        <time>2013-05-10T06:45:50Z</time>
      </trkpt>
      <trkpt lat="44.58486" lon="3.9063">
        <ele>984.4</ele>
        <time>2013-05-10T06:45:55Z</time>
      </trkpt>
      <trkpt lat="44.58481" lon="3.90621">
        <ele>985.3</ele>
        <time>2013-05-10T06:46:00Z</time>
      </trkpt>
      <trkpt lat="44.58472" lon="3.90618">
        <ele>987</ele>
        <time>2013-05-10T06:46:09Z</time>
      </trkpt>
      <trkpt lat="44.58472" lon="3.90618">
        <ele>987.1</ele>
        <time>2013-05-10T06:46:10Z</time>
      </trkpt>
      <trkpt lat="44.58458" lon="3.90605">
        <ele>990.4</ele>
        <time>2013-05-10T06:46:32Z</time>
      </trkpt>
      <trkpt lat="44.58452" lon="3.90596">
        <ele>991</ele>
        <time>2013-05-10T06:46:37Z</time>
      </trkpt>
      <trkpt lat="44.58448" lon="3.90589">
        <ele>991.7</ele>
        <time>2013-05-10T06:46:43Z</time>
      </trkpt>
      <trkpt lat="44.58442" lon="3.90583">
        <ele>992.2</ele>
        <time>2013-05-10T06:46:48Z</time>
      </trkpt>
      <trkpt lat="44.58436" lon="3.90575">
        <ele>992.7</ele>
        <time>2013-05-10T06:46:52Z</time>
      </trkpt>
      <trkpt lat="44.5843" lon="3.90567">
        <ele>993.4</ele>
        <time>2013-05-10T06:46:57Z</time>
      </trkpt>
      <trkpt lat="44.58424" lon="3.90559">
        <ele>994</ele>
        <time>2013-05-10T06:47:01Z</time>
      </trkpt>
      <trkpt lat="44.58417" lon="3.90552">
        <ele>995</ele>
        <time>2013-05-10T06:47:08Z</time>
      </trkpt>
      <trkpt lat="44.58409" lon="3.9055">
        <ele>996.4</ele>
        <time>2013-05-10T06:47:20Z</time>
      </trkpt>
      <trkpt lat="44.58407" lon="3.90549">
        <ele>996.5</ele>
        <time>2013-05-10T06:47:21Z</time>
      </trkpt>
      <trkpt lat="44.58396" lon="3.90533">
        <ele>998</ele>
        <time>2013-05-10T06:47:37Z</time>
      </trkpt>
      <trkpt lat="44.5839" lon="3.90526">
        <ele>998.8</ele>
        <time>2013-05-10T06:47:46Z</time>
      </trkpt>
      <trkpt lat="44.58383" lon="3.90518">
        <ele>999.7</ele>
        <time>2013-05-10T06:47:53Z</time>
      </trkpt>
      <trkpt lat="44.58377" lon="3.90511">
        <ele>1000.3</ele>
        <time>2013-05-10T06:47:59Z</time>
      </trkpt>
      <trkpt lat="44.58371" lon="3.90504">
        <ele>1000.8</ele>
        <time>2013-05-10T06:48:05Z</time>
      </trkpt>
      <trkpt lat="44.58365" lon="3.90496">
        <ele>1001.4</ele>
        <time>2013-05-10T06:48:10Z</time>
      </trkpt>
      <trkpt lat="44.58357" lon="3.90491">
        <ele>1001.9</ele>
        <time>2013-05-10T06:48:18Z</time>
      </trkpt>
      <trkpt lat="44.5835" lon="3.90485">
        <ele>1002.3</ele>
        <time>2013-05-10T06:48:24Z</time>
      </trkpt>
      <trkpt lat="44.58348" lon="3.90484">
        <ele>1002.4</ele>
        <time>2013-05-10T06:48:25Z</time>
      </trkpt>
      <trkpt lat="44.58336" lon="3.90474">
        <ele>1003.4</ele>
        <time>2013-05-10T06:48:38Z</time>
      </trkpt>
      <trkpt lat="44.58329" lon="3.90467">
        <ele>1004.5</ele>
        <time>2013-05-10T06:48:50Z</time>
      </trkpt>
      <trkpt lat="44.58321" lon="3.90461">
        <ele>1005.1</ele>
        <time>2013-05-10T06:48:58Z</time>
      </trkpt>
      <trkpt lat="44.58315" lon="3.90452">
        <ele>1005.7</ele>
        <time>2013-05-10T06:49:04Z</time>
      </trkpt>
      <trkpt lat="44.58309" lon="3.90448">
        <ele>1006.2</ele>
        <time>2013-05-10T06:49:10Z</time>
      </trkpt>
      <trkpt lat="44.58304" lon="3.90438">
        <ele>1007.4</ele>
        <time>2013-05-10T06:49:12Z</time>
      </trkpt>
      <trkpt lat="44.58297" lon="3.90444">
        <ele>1009.6</ele>
        <time>2013-05-10T06:49:25Z</time>
      </trkpt>
      <trkpt lat="44.58296" lon="3.90445">
        <ele>1009.7</ele>
        <time>2013-05-10T06:49:26Z</time>
      </trkpt>
      <trkpt lat="44.58299" lon="3.9046">
        <ele>1012.4</ele>
        <time>2013-05-10T06:49:48Z</time>
      </trkpt>
      <trkpt lat="44.58296" lon="3.90477">
        <ele>1018</ele>
        <time>2013-05-10T06:49:49Z</time>
      </trkpt>
      <trkpt lat="44.58292" lon="3.90487">
        <ele>1022.9</ele>
        <time>2013-05-10T06:49:54Z</time>
      </trkpt>
      <trkpt lat="44.58284" lon="3.90482">
        <ele>1025.8</ele>
        <time>2013-05-10T06:50:41Z</time>
      </trkpt>
      <trkpt lat="44.58284" lon="3.90481">
        <ele>1025.8</ele>
        <time>2013-05-10T06:50:42Z</time>
      </trkpt>
      <trkpt lat="44.58279" lon="3.90492">
        <ele>1028.6</ele>
        <time>2013-05-10T06:51:58Z</time>
      </trkpt>
      <trkpt lat="44.58279" lon="3.90492">
        <ele>1028.7</ele>
        <time>2013-05-10T06:51:59Z</time>
      </trkpt>
      <trkpt lat="44.58291" lon="3.90501">
        <ele>1029.2</ele>
        <time>2013-05-10T06:52:24Z</time>
      </trkpt>
      <trkpt lat="44.58296" lon="3.90511">
        <ele>1029.5</ele>
        <time>2013-05-10T06:53:04Z</time>
      </trkpt>
      <trkpt lat="44.58296" lon="3.90513">
        <ele>1029.5</ele>
        <time>2013-05-10T06:53:05Z</time>
      </trkpt>
      <trkpt lat="44.58305" lon="3.9053">
        <ele>1029.3</ele>
        <time>2013-05-10T06:53:20Z</time>
      </trkpt>
      <trkpt lat="44.58308" lon="3.90541">
        <ele>1029.2</ele>
        <time>2013-05-10T06:53:30Z</time>
      </trkpt>
      <trkpt lat="44.58309" lon="3.9055">
        <ele>1029</ele>
        <time>2013-05-10T06:53:44Z</time>
      </trkpt>
      <trkpt lat="44.58307" lon="3.90561">
        <ele>1028.9</ele>
        <time>2013-05-10T06:53:48Z</time>
      </trkpt>
      <trkpt lat="44.58307" lon="3.90573">
        <ele>1028.7</ele>
        <time>2013-05-10T06:53:55Z</time>
      </trkpt>
      <trkpt lat="44.58307" lon="3.90583">
        <ele>1028.6</ele>
        <time>2013-05-10T06:53:58Z</time>
      </trkpt>
      <trkpt lat="44.58307" lon="3.90594">
        <ele>1028.4</ele>
        <time>2013-05-10T06:54:03Z</time>
      </trkpt>
      <trkpt lat="44.58304" lon="3.90605">
        <ele>1028.3</ele>
        <time>2013-05-10T06:54:13Z</time>
      </trkpt>
      <trkpt lat="44.58305" lon="3.90608">
        <ele>1028.2</ele>
        <time>2013-05-10T06:54:14Z</time>
      </trkpt>
      <trkpt lat="44.58303" lon="3.90629">
        <ele>1027.6</ele>
        <time>2013-05-10T06:54:28Z</time>
      </trkpt>
      <trkpt lat="44.58303" lon="3.90642">
        <ele>1027.4</ele>
        <time>2013-05-10T06:54:37Z</time>
      </trkpt>
      <trkpt lat="44.58302" lon="3.90649">
        <ele>1027.1</ele>
        <time>2013-05-10T06:54:54Z</time>
      </trkpt>
      <trkpt lat="44.58302" lon="3.90664">
        <ele>1026.8</ele>
        <time>2013-05-10T06:54:55Z</time>
      </trkpt>
      <trkpt lat="44.58301" lon="3.90677">
        <ele>1027</ele>
        <time>2013-05-10T06:55:01Z</time>
      </trkpt>
      <trkpt lat="44.58301" lon="3.90688">
        <ele>1026.9</ele>
        <time>2013-05-10T06:55:08Z</time>
      </trkpt>
      <trkpt lat="44.58304" lon="3.90699">
        <ele>1026.7</ele>
        <time>2013-05-10T06:55:18Z</time>
      </trkpt>
      <trkpt lat="44.58303" lon="3.90703">
        <ele>1026.5</ele>
        <time>2013-05-10T06:55:19Z</time>
      </trkpt>
      <trkpt lat="44.58302" lon="3.90716">
        <ele>1026.2</ele>
        <time>2013-05-10T06:55:25Z</time>
      </trkpt>
      <trkpt lat="44.583" lon="3.90728">
        <ele>1025.9</ele>
        <time>2013-05-10T06:55:29Z</time>
      </trkpt>
      <trkpt lat="44.58298" lon="3.90737">
        <ele>1025.8</ele>
        <time>2013-05-10T06:55:33Z</time>
      </trkpt>
      <trkpt lat="44.58295" lon="3.90748">
        <ele>1025.5</ele>
        <time>2013-05-10T06:55:41Z</time>
      </trkpt>
      <trkpt lat="44.5829" lon="3.90756">
        <ele>1025.5</ele>
        <time>2013-05-10T06:55:47Z</time>
      </trkpt>
      <trkpt lat="44.58289" lon="3.90767">
        <ele>1025.4</ele>
        <time>2013-05-10T06:55:52Z</time>
      </trkpt>
      <trkpt lat="44.58289" lon="3.90779">
        <ele>1025</ele>
        <time>2013-05-10T06:56:00Z</time>
      </trkpt>
      <trkpt lat="44.58288" lon="3.90792">
        <ele>1024.2</ele>
        <time>2013-05-10T06:56:06Z</time>
      </trkpt>
      <trkpt lat="44.58289" lon="3.90803">
        <ele>1023.8</ele>
        <time>2013-05-10T06:56:16Z</time>
      </trkpt>
      <trkpt lat="44.58292" lon="3.90809">
        <ele>1023.5</ele>
        <time>2013-05-10T06:56:27Z</time>
      </trkpt>
      <trkpt lat="44.58288" lon="3.90825">
        <ele>1024.7</ele>
        <time>2013-05-10T06:56:28Z</time>
      </trkpt>
      <trkpt lat="44.58287" lon="3.90834">
        <ele>1025.8</ele>
        <time>2013-05-10T06:56:50Z</time>
      </trkpt>
      <trkpt lat="44.58289" lon="3.90846">
        <ele>1024.5</ele>
        <time>2013-05-10T06:56:53Z</time>
      </trkpt>
      <trkpt lat="44.58291" lon="3.90858">
        <ele>1023.7</ele>
        <time>2013-05-10T06:57:06Z</time>
      </trkpt>
      <trkpt lat="44.58287" lon="3.90868">
        <ele>1023.2</ele>
        <time>2013-05-10T06:57:10Z</time>
      </trkpt>
      <trkpt lat="44.58283" lon="3.90879">
        <ele>1022.4</ele>
        <time>2013-05-10T06:57:20Z</time>
      </trkpt>
      <trkpt lat="44.58279" lon="3.90884">
        <ele>1022.1</ele>
        <time>2013-05-10T06:57:33Z</time>
      </trkpt>
      <trkpt lat="44.58277" lon="3.90889">
        <ele>1022.3</ele>
        <time>2013-05-10T06:57:34Z</time>
      </trkpt>
      <trkpt lat="44.58266" lon="3.90879">
        <ele>1022.5</ele>
        <time>2013-05-10T06:57:57Z</time>
      </trkpt>
      <trkpt lat="44.5826" lon="3.9087">
        <ele>1022.9</ele>
        <time>2013-05-10T06:58:04Z</time>
      </trkpt>
      <trkpt lat="44.58255" lon="3.9086">
        <ele>1023.1</ele>
        <time>2013-05-10T06:58:08Z</time>
      </trkpt>
      <trkpt lat="44.58253" lon="3.90849">
        <ele>1023.3</ele>
        <time>2013-05-10T06:58:15Z</time>
      </trkpt>
      <trkpt lat="44.58248" lon="3.9084">
        <ele>1023.6</ele>
        <time>2013-05-10T06:58:20Z</time>
      </trkpt>
      <trkpt lat="44.58239" lon="3.90816">
        <ele>1023.9</ele>
        <time>2013-05-10T06:58:22Z</time>
      </trkpt>
      <trkpt lat="44.58243" lon="3.90806">
        <ele>1021.5</ele>
        <time>2013-05-10T06:58:33Z</time>
      </trkpt>
      <trkpt lat="44.58241" lon="3.90795">
        <ele>1023.6</ele>
        <time>2013-05-10T06:58:44Z</time>
      </trkpt>
      <trkpt lat="44.58242" lon="3.90793">
        <ele>1023.8</ele>
        <time>2013-05-10T06:58:45Z</time>
      </trkpt>
      <trkpt lat="44.58239" lon="3.90776">
        <ele>1024.3</ele>
        <time>2013-05-10T06:58:54Z</time>
      </trkpt>
      <trkpt lat="44.58238" lon="3.90765">
        <ele>1024.6</ele>
        <time>2013-05-10T06:58:58Z</time>
      </trkpt>
      <trkpt lat="44.5824" lon="3.90754">
        <ele>1024.9</ele>
        <time>2013-05-10T06:59:05Z</time>
      </trkpt>
      <trkpt lat="44.58239" lon="3.90742">
        <ele>1025.1</ele>
        <time>2013-05-10T06:59:11Z</time>
      </trkpt>
      <trkpt lat="44.58237" lon="3.9073">
        <ele>1024.8</ele>
        <time>2013-05-10T06:59:20Z</time>
      </trkpt>
      <trkpt lat="44.58238" lon="3.90718">
        <ele>1024.8</ele>
        <time>2013-05-10T06:59:25Z</time>
      </trkpt>
      <trkpt lat="44.58238" lon="3.90706">
        <ele>1024.6</ele>
        <time>2013-05-10T06:59:32Z</time>
      </trkpt>
      <trkpt lat="44.58236" lon="3.90696">
        <ele>1024.5</ele>
        <time>2013-05-10T06:59:38Z</time>
      </trkpt>
      <trkpt lat="44.58237" lon="3.90685">
        <ele>1024.8</ele>
        <time>2013-05-10T06:59:45Z</time>
      </trkpt>
      <trkpt lat="44.58237" lon="3.90683">
        <ele>1024.9</ele>
        <time>2013-05-10T06:59:46Z</time>
      </trkpt>
      <trkpt lat="44.58224" lon="3.90671">
        <ele>1025</ele>
        <time>2013-05-10T06:59:57Z</time>
      </trkpt>
      <trkpt lat="44.58217" lon="3.90666">
        <ele>1025.1</ele>
        <time>2013-05-10T07:00:04Z</time>
      </trkpt>
      <trkpt lat="44.58208" lon="3.90664">
        <ele>1024.1</ele>
        <time>2013-05-10T07:00:11Z</time>
      </trkpt>
      <trkpt lat="44.58201" lon="3.90669">
        <ele>1023.6</ele>
        <time>2013-05-10T07:00:32Z</time>
      </trkpt>
      <trkpt lat="44.58193" lon="3.90665">
        <ele>1026.5</ele>
        <time>2013-05-10T07:00:41Z</time>
      </trkpt>
      <trkpt lat="44.58184" lon="3.90666">
        <ele>1027.3</ele>
        <time>2013-05-10T07:00:51Z</time>
      </trkpt>
      <trkpt lat="44.58183" lon="3.90666">
        <ele>1027.3</ele>
        <time>2013-05-10T07:00:52Z</time>
      </trkpt>
      <trkpt lat="44.58167" lon="3.90666">
        <ele>1027.3</ele>
        <time>2013-05-10T07:01:04Z</time>
      </trkpt>
      <trkpt lat="44.5816" lon="3.9066">
        <ele>1027.1</ele>
        <time>2013-05-10T07:01:12Z</time>
      </trkpt>
      <trkpt lat="44.58154" lon="3.90652">
        <ele>1026.9</ele>
        <time>2013-05-10T07:01:21Z</time>
      </trkpt>
      <trkpt lat="44.58149" lon="3.90643">
        <ele>1026.8</ele>
        <time>2013-05-10T07:01:30Z</time>
      </trkpt>
      <trkpt lat="44.58146" lon="3.9064">
        <ele>1026.9</ele>
        <time>2013-05-10T07:01:35Z</time>
      </trkpt>
      <trkpt lat="44.58139" lon="3.90633">
        <ele>1027.4</ele>
        <time>2013-05-10T07:01:36Z</time>
      </trkpt>
      <trkpt lat="44.58134" lon="3.90627">
        <ele>1027.9</ele>
        <time>2013-05-10T07:01:41Z</time>
      </trkpt>
      <trkpt lat="44.58128" lon="3.9062">
        <ele>1028.1</ele>
        <time>2013-05-10T07:01:44Z</time>
      </trkpt>
      <trkpt lat="44.5812" lon="3.90617">
        <ele>1028.4</ele>
        <time>2013-05-10T07:01:49Z</time>
      </trkpt>
      <trkpt lat="44.58112" lon="3.90615">
        <ele>1028.3</ele>
        <time>2013-05-10T07:01:55Z</time>
      </trkpt>
      <trkpt lat="44.58111" lon="3.90615">
        <ele>1028.4</ele>
        <time>2013-05-10T07:01:56Z</time>
      </trkpt>
      <trkpt lat="44.58096" lon="3.90609">
        <ele>1028.8</ele>
        <time>2013-05-10T07:02:07Z</time>
      </trkpt>
      <trkpt lat="44.58089" lon="3.9061">
        <ele>1029.2</ele>
        <time>2013-05-10T07:02:13Z</time>
      </trkpt>
      <trkpt lat="44.5808" lon="3.90609">
        <ele>1029.4</ele>
        <time>2013-05-10T07:02:19Z</time>
      </trkpt>
      <trkpt lat="44.58073" lon="3.90609">
        <ele>1029.3</ele>
        <time>2013-05-10T07:02:23Z</time>
      </trkpt>
      <trkpt lat="44.58064" lon="3.90609">
        <ele>1029.2</ele>
        <time>2013-05-10T07:02:28Z</time>
      </trkpt>
      <trkpt lat="44.58056" lon="3.90607">
        <ele>1029.6</ele>
        <time>2013-05-10T07:02:35Z</time>
      </trkpt>
      <trkpt lat="44.5805" lon="3.90606">
        <ele>1030.3</ele>
        <time>2013-05-10T07:02:40Z</time>
      </trkpt>
      <trkpt lat="44.58041" lon="3.90605">
        <ele>1030.5</ele>
        <time>2013-05-10T07:02:46Z</time>
      </trkpt>
      <trkpt lat="44.58033" lon="3.90608">
        <ele>1031</ele>
        <time>2013-05-10T07:02:52Z</time>
      </trkpt>
      <trkpt lat="44.58025" lon="3.90609">
        <ele>1031.6</ele>
        <time>2013-05-10T07:02:58Z</time>
      </trkpt>
      <trkpt lat="44.58023" lon="3.90609">
        <ele>1031.6</ele>
        <time>2013-05-10T07:02:59Z</time>
      </trkpt>
      <trkpt lat="44.58009" lon="3.90613">
        <ele>1032.5</ele>
        <time>2013-05-10T07:03:13Z</time>
      </trkpt>
      <trkpt lat="44.58001" lon="3.90617">
        <ele>1032.6</ele>
        <time>2013-05-10T07:03:26Z</time>
      </trkpt>
      <trkpt lat="44.57999" lon="3.90629">
        <ele>1034.1</ele>
        <time>2013-05-10T07:03:29Z</time>
      </trkpt>
      <trkpt lat="44.57997" lon="3.90641">
        <ele>1034.2</ele>
        <time>2013-05-10T07:03:56Z</time>
      </trkpt>
      <trkpt lat="44.57997" lon="3.90652">
        <ele>1034.3</ele>
        <time>2013-05-10T07:04:04Z</time>
      </trkpt>
      <trkpt lat="44.57998" lon="3.90655">
        <ele>1034.4</ele>
        <time>2013-05-10T07:04:05Z</time>
      </trkpt>
      <trkpt lat="44.58008" lon="3.9067">
        <ele>1034.5</ele>
        <time>2013-05-10T07:04:14Z</time>
      </trkpt>
      <trkpt lat="44.58014" lon="3.9068">
        <ele>1034.9</ele>
        <time>2013-05-10T07:04:20Z</time>
      </trkpt>
      <trkpt lat="44.58014" lon="3.90691">
        <ele>1032</ele>
        <time>2013-05-10T07:04:24Z</time>
      </trkpt>
      <trkpt lat="44.58013" lon="3.90703">
        <ele>1029.8</ele>
        <time>2013-05-10T07:04:29Z</time>
      </trkpt>
      <trkpt lat="44.58015" lon="3.90714">
        <ele>1029.4</ele>
        <time>2013-05-10T07:04:35Z</time>
      </trkpt>
      <trkpt lat="44.5802" lon="3.90725">
        <ele>1028.8</ele>
        <time>2013-05-10T07:04:42Z</time>
      </trkpt>
      <trkpt lat="44.58025" lon="3.90732">
        <ele>1028.6</ele>
        <time>2013-05-10T07:04:47Z</time>
      </trkpt>
      <trkpt lat="44.58033" lon="3.90738">
        <ele>1028.6</ele>
        <time>2013-05-10T07:04:51Z</time>
      </trkpt>
      <trkpt lat="44.58035" lon="3.90748">
        <ele>1028.8</ele>
        <time>2013-05-10T07:04:58Z</time>
      </trkpt>
      <trkpt lat="44.58041" lon="3.90756">
        <ele>1028.3</ele>
        <time>2013-05-10T07:05:04Z</time>
      </trkpt>
      <trkpt lat="44.58042" lon="3.90768">
        <ele>1027.9</ele>
        <time>2013-05-10T07:05:12Z</time>
      </trkpt>
      <trkpt lat="44.58042" lon="3.90769">
        <ele>1027.9</ele>
        <time>2013-05-10T07:05:13Z</time>
      </trkpt>
      <trkpt lat="44.58036" lon="3.90788">
        <ele>1027.4</ele>
        <time>2013-05-10T07:05:22Z</time>
      </trkpt>
      <trkpt lat="44.58035" lon="3.90799">
        <ele>1027.1</ele>
        <time>2013-05-10T07:05:30Z</time>
      </trkpt>
      <trkpt lat="44.58031" lon="3.90808">
        <ele>1026.8</ele>
        <time>2013-05-10T07:05:36Z</time>
      </trkpt>
      <trkpt lat="44.58026" lon="3.90818">
        <ele>1026.6</ele>
        <time>2013-05-10T07:05:43Z</time>
      </trkpt>
      <trkpt lat="44.5802" lon="3.90826">
        <ele>1026.4</ele>
        <time>2013-05-10T07:05:51Z</time>
      </trkpt>
      <trkpt lat="44.58011" lon="3.90827">
        <ele>1026.6</ele>
        <time>2013-05-10T07:05:59Z</time>
      </trkpt>
      <trkpt lat="44.58004" lon="3.90831">
        <ele>1027.3</ele>
        <time>2013-05-10T07:06:03Z</time>
      </trkpt>
      <trkpt lat="44.57997" lon="3.90836">
        <ele>1027.7</ele>
        <time>2013-05-10T07:06:09Z</time>
      </trkpt>
      <trkpt lat="44.57988" lon="3.90841">
        <ele>1028.1</ele>
        <time>2013-05-10T07:06:16Z</time>
      </trkpt>
      <trkpt lat="44.57986" lon="3.90843">
        <ele>1028.1</ele>
        <time>2013-05-10T07:06:17Z</time>
      </trkpt>
      <trkpt lat="44.57973" lon="3.90849">
        <ele>1028.3</ele>
        <time>2013-05-10T07:06:30Z</time>
      </trkpt>
      <trkpt lat="44.57965" lon="3.90849">
        <ele>1028.2</ele>
        <time>2013-05-10T07:06:37Z</time>
      </trkpt>
      <trkpt lat="44.57958" lon="3.90852">
        <ele>1028.5</ele>
        <time>2013-05-10T07:06:41Z</time>
      </trkpt>
      <trkpt lat="44.57951" lon="3.90855">
        <ele>1029</ele>
        <time>2013-05-10T07:06:44Z</time>
      </trkpt>
      <trkpt lat="44.57945" lon="3.90861">
        <ele>1029.3</ele>
        <time>2013-05-10T07:06:49Z</time>
      </trkpt>
      <trkpt lat="44.57939" lon="3.90866">
        <ele>1029.5</ele>
        <time>2013-05-10T07:06:54Z</time>
      </trkpt>
      <trkpt lat="44.57931" lon="3.90872">
        <ele>1029.7</ele>
        <time>2013-05-10T07:06:58Z</time>
      </trkpt>
      <trkpt lat="44.57924" lon="3.90877">
        <ele>1029.8</ele>
        <time>2013-05-10T07:07:05Z</time>
      </trkpt>
      <trkpt lat="44.57915" lon="3.9088">
        <ele>1029.9</ele>
        <time>2013-05-10T07:07:13Z</time>
      </trkpt>
      <trkpt lat="44.57908" lon="3.90877">
        <ele>1029.9</ele>
        <time>2013-05-10T07:07:18Z</time>
      </trkpt>
      <trkpt lat="44.57906" lon="3.90877">
        <ele>1029.9</ele>
        <time>2013-05-10T07:07:19Z</time>
      </trkpt>
      <trkpt lat="44.57893" lon="3.9088">
        <ele>1030.1</ele>
        <time>2013-05-10T07:07:28Z</time>
      </trkpt>
      <trkpt lat="44.57885" lon="3.90884">
        <ele>1030.3</ele>
        <time>2013-05-10T07:07:34Z</time>
      </trkpt>
      <trkpt lat="44.57878" lon="3.90887">
        <ele>1030.4</ele>
        <time>2013-05-10T07:07:37Z</time>
      </trkpt>
      <trkpt lat="44.57869" lon="3.90886">
        <ele>1030.5</ele>
        <time>2013-05-10T07:07:41Z</time>
      </trkpt>
      <trkpt lat="44.57861" lon="3.90882">
        <ele>1030.7</ele>
        <time>2013-05-10T07:07:48Z</time>
      </trkpt>
      <trkpt lat="44.57854" lon="3.90877">
        <ele>1030.6</ele>
        <time>2013-05-10T07:07:58Z</time>
      </trkpt>
      <trkpt lat="44.57845" lon="3.90875">
        <ele>1030.7</ele>
        <time>2013-05-10T07:08:10Z</time>
      </trkpt>
      <trkpt lat="44.57838" lon="3.90875">
        <ele>1030.5</ele>
        <time>2013-05-10T07:08:23Z</time>
      </trkpt>
      <trkpt lat="44.57836" lon="3.90869">
        <ele>1030.6</ele>
        <time>2013-05-10T07:08:24Z</time>
      </trkpt>
      <trkpt lat="44.57828" lon="3.90863">
        <ele>1030</ele>
        <time>2013-05-10T07:08:28Z</time>
      </trkpt>
      <trkpt lat="44.5782" lon="3.90859">
        <ele>1029.2</ele>
        <time>2013-05-10T07:08:33Z</time>
      </trkpt>
      <trkpt lat="44.57812" lon="3.90856">
        <ele>1028</ele>
        <time>2013-05-10T07:08:37Z</time>
      </trkpt>
      <trkpt lat="44.57805" lon="3.90851">
        <ele>1025.9</ele>
        <time>2013-05-10T07:08:41Z</time>
      </trkpt>
      <trkpt lat="44.57799" lon="3.90842">
        <ele>1024.3</ele>
        <time>2013-05-10T07:08:45Z</time>
      </trkpt>
      <trkpt lat="44.57793" lon="3.90835">
        <ele>1023.8</ele>
        <time>2013-05-10T07:08:50Z</time>
      </trkpt>
      <trkpt lat="44.57786" lon="3.90828">
        <ele>1022.8</ele>
        <time>2013-05-10T07:08:57Z</time>
      </trkpt>
      <trkpt lat="44.57779" lon="3.90822">
        <ele>1022</ele>
        <time>2013-05-10T07:09:03Z</time>
      </trkpt>
      <trkpt lat="44.57771" lon="3.90818">
        <ele>1021.4</ele>
        <time>2013-05-10T07:09:10Z</time>
      </trkpt>
      <trkpt lat="44.57766" lon="3.90809">
        <ele>1019.9</ele>
        <time>2013-05-10T07:09:18Z</time>
      </trkpt>
      <trkpt lat="44.5776" lon="3.90802">
        <ele>1019.1</ele>
        <time>2013-05-10T07:09:25Z</time>
      </trkpt>
      <trkpt lat="44.57759" lon="3.908">
        <ele>1018.7</ele>
        <time>2013-05-10T07:09:26Z</time>
      </trkpt>
      <trkpt lat="44.57748" lon="3.90789">
        <ele>1018.2</ele>
        <time>2013-05-10T07:09:35Z</time>
      </trkpt>
      <trkpt lat="44.57741" lon="3.90781">
        <ele>1018.3</ele>
        <time>2013-05-10T07:09:40Z</time>
      </trkpt>
      <trkpt lat="44.57739" lon="3.9077">
        <ele>1017.8</ele>
        <time>2013-05-10T07:09:48Z</time>
      </trkpt>
      <trkpt lat="44.57736" lon="3.90759">
        <ele>1017.8</ele>
        <time>2013-05-10T07:09:56Z</time>
      </trkpt>
      <trkpt lat="44.57731" lon="3.9075">
        <ele>1017.8</ele>
        <time>2013-05-10T07:10:06Z</time>
      </trkpt>
      <trkpt lat="44.57728" lon="3.90739">
        <ele>1017.8</ele>
        <time>2013-05-10T07:10:13Z</time>
      </trkpt>
      <trkpt lat="44.57728" lon="3.90727">
        <ele>1017.6</ele>
        <time>2013-05-10T07:10:20Z</time>
      </trkpt>
      <trkpt lat="44.57727" lon="3.90715">
        <ele>1017.3</ele>
        <time>2013-05-10T07:10:28Z</time>
      </trkpt>
      <trkpt lat="44.57727" lon="3.90713">
        <ele>1017.2</ele>
        <time>2013-05-10T07:10:29Z</time>
      </trkpt>
      <trkpt lat="44.57722" lon="3.90692">
        <ele>1017.6</ele>
        <time>2013-05-10T07:10:41Z</time>
      </trkpt>
      <trkpt lat="44.57719" lon="3.90681">
        <ele>1017.2</ele>
        <time>2013-05-10T07:10:48Z</time>
      </trkpt>
      <trkpt lat="44.57717" lon="3.90669">
        <ele>1016.8</ele>
        <time>2013-05-10T07:10:54Z</time>
      </trkpt>
      <trkpt lat="44.57716" lon="3.90658">
        <ele>1016.1</ele>
        <time>2013-05-10T07:11:00Z</time>
      </trkpt>
      <trkpt lat="44.57712" lon="3.90647">
        <ele>1015.8</ele>
        <time>2013-05-10T07:11:07Z</time>
      </trkpt>
      <trkpt lat="44.57707" lon="3.90639">
        <ele>1015.8</ele>
        <time>2013-05-10T07:11:14Z</time>
      </trkpt>
      <trkpt lat="44.57703" lon="3.9063">
        <ele>1015.6</ele>
        <time>2013-05-10T07:11:19Z</time>
      </trkpt>
      <trkpt lat="44.57698" lon="3.90621">
        <ele>1015.1</ele>
        <time>2013-05-10T07:11:25Z</time>
      </trkpt>
      <trkpt lat="44.57694" lon="3.9061">
        <ele>1014.2</ele>
        <time>2013-05-10T07:11:32Z</time>
      </trkpt>
      <trkpt lat="44.57692" lon="3.90609">
        <ele>1014.1</ele>
        <time>2013-05-10T07:11:33Z</time>
      </trkpt>
      <trkpt lat="44.5768" lon="3.906">
        <ele>1013.4</ele>
        <time>2013-05-10T07:11:43Z</time>
      </trkpt>
      <trkpt lat="44.57672" lon="3.90596">
        <ele>1012.9</ele>
        <time>2013-05-10T07:11:49Z</time>
      </trkpt>
      <trkpt lat="44.57664" lon="3.90593">
        <ele>1012.6</ele>
        <time>2013-05-10T07:11:57Z</time>
      </trkpt>
      <trkpt lat="44.57656" lon="3.9059">
        <ele>1013.3</ele>
        <time>2013-05-10T07:12:04Z</time>
      </trkpt>
      <trkpt lat="44.5765" lon="3.90597">
        <ele>1013.4</ele>
        <time>2013-05-10T07:12:10Z</time>
      </trkpt>
      <trkpt lat="44.57644" lon="3.90607">
        <ele>1013.8</ele>
        <time>2013-05-10T07:12:25Z</time>
      </trkpt>
      <trkpt lat="44.57643" lon="3.90616">
        <ele>1014.9</ele>
        <time>2013-05-10T07:12:42Z</time>
      </trkpt>
      <trkpt lat="44.57643" lon="3.9062">
        <ele>1015.1</ele>
        <time>2013-05-10T07:12:43Z</time>
      </trkpt>
      <trkpt lat="44.5764" lon="3.90639">
        <ele>1016.1</ele>
        <time>2013-05-10T07:12:54Z</time>
      </trkpt>
      <trkpt lat="44.57639" lon="3.9065">
        <ele>1016.1</ele>
        <time>2013-05-10T07:13:01Z</time>
      </trkpt>
      <trkpt lat="44.57637" lon="3.90662">
        <ele>1016.6</ele>
        <time>2013-05-10T07:13:24Z</time>
      </trkpt>
      <trkpt lat="44.57633" lon="3.90671">
        <ele>1016.7</ele>
        <time>2013-05-10T07:13:29Z</time>
      </trkpt>
      <trkpt lat="44.57629" lon="3.90681">
        <ele>1016.6</ele>
        <time>2013-05-10T07:13:35Z</time>
      </trkpt>
      <trkpt lat="44.57624" lon="3.90691">
        <ele>1016.4</ele>
        <time>2013-05-10T07:13:42Z</time>
      </trkpt>
      <trkpt lat="44.5762" lon="3.90701">
        <ele>1016.4</ele>
        <time>2013-05-10T07:13:49Z</time>
      </trkpt>
      <trkpt lat="44.57619" lon="3.90702">
        <ele>1016.5</ele>
        <time>2013-05-10T07:13:50Z</time>
      </trkpt>
      <trkpt lat="44.5761" lon="3.9072">
        <ele>1016.4</ele>
        <time>2013-05-10T07:14:05Z</time>
      </trkpt>
      <trkpt lat="44.57606" lon="3.90729">
        <ele>1016.5</ele>
        <time>2013-05-10T07:14:10Z</time>
      </trkpt>
      <trkpt lat="44.57602" lon="3.90739">
        <ele>1016.7</ele>
        <time>2013-05-10T07:14:16Z</time>
      </trkpt>
      <trkpt lat="44.57598" lon="3.9075">
        <ele>1016.7</ele>
        <time>2013-05-10T07:14:22Z</time>
      </trkpt>
      <trkpt lat="44.57592" lon="3.90758">
        <ele>1016.7</ele>
        <time>2013-05-10T07:14:28Z</time>
      </trkpt>
      <trkpt lat="44.57587" lon="3.90767">
        <ele>1017.3</ele>
        <time>2013-05-10T07:14:39Z</time>
      </trkpt>
      <trkpt lat="44.57582" lon="3.90776">
        <ele>1017.2</ele>
        <time>2013-05-10T07:14:47Z</time>
      </trkpt>
      <trkpt lat="44.57574" lon="3.90783">
        <ele>1017.6</ele>
        <time>2013-05-10T07:15:02Z</time>
      </trkpt>
      <trkpt lat="44.57573" lon="3.90783">
        <ele>1017.5</ele>
        <time>2013-05-10T07:15:03Z</time>
      </trkpt>
      <trkpt lat="44.57558" lon="3.90786">
        <ele>1017</ele>
        <time>2013-05-10T07:15:13Z</time>
      </trkpt>
      <trkpt lat="44.57549" lon="3.90787">
        <ele>1017.7</ele>
        <time>2013-05-10T07:15:31Z</time>
      </trkpt>
      <trkpt lat="44.57542" lon="3.90782">
        <ele>1017.5</ele>
        <time>2013-05-10T07:15:41Z</time>
      </trkpt>
      <trkpt lat="44.57537" lon="3.90774">
        <ele>1017.2</ele>
        <time>2013-05-10T07:15:46Z</time>
      </trkpt>
      <trkpt lat="44.57532" lon="3.90766">
        <ele>1016.8</ele>
        <time>2013-05-10T07:15:50Z</time>
      </trkpt>
      <trkpt lat="44.57527" lon="3.90758">
        <ele>1016.6</ele>
        <time>2013-05-10T07:15:55Z</time>
      </trkpt>
      <trkpt lat="44.57522" lon="3.90749">
        <ele>1016.6</ele>
        <time>2013-05-10T07:16:00Z</time>
      </trkpt>
      <trkpt lat="44.57516" lon="3.90742">
        <ele>1016.5</ele>
        <time>2013-05-10T07:16:06Z</time>
      </trkpt>
      <trkpt lat="44.57515" lon="3.90741">
        <ele>1016.5</ele>
        <time>2013-05-10T07:16:07Z</time>
      </trkpt>
      <trkpt lat="44.57503" lon="3.90728">
        <ele>1015.8</ele>
        <time>2013-05-10T07:16:23Z</time>
      </trkpt>
      <trkpt lat="44.57496" lon="3.90722">
        <ele>1015.1</ele>
        <time>2013-05-10T07:16:28Z</time>
      </trkpt>
      <trkpt lat="44.57488" lon="3.90715">
        <ele>1014.1</ele>
        <time>2013-05-10T07:16:34Z</time>
      </trkpt>
      <trkpt lat="44.57481" lon="3.90711">
        <ele>1013.6</ele>
        <time>2013-05-10T07:16:40Z</time>
      </trkpt>
      <trkpt lat="44.57473" lon="3.90708">
        <ele>1013.1</ele>
        <time>2013-05-10T07:16:47Z</time>
      </trkpt>
      <trkpt lat="44.57466" lon="3.90704">
        <ele>1012.8</ele>
        <time>2013-05-10T07:16:54Z</time>
      </trkpt>
      <trkpt lat="44.57457" lon="3.907">
        <ele>1012.4</ele>
        <time>2013-05-10T07:17:00Z</time>
      </trkpt>
      <trkpt lat="44.5745" lon="3.90698">
        <ele>1012</ele>
        <time>2013-05-10T07:17:06Z</time>
      </trkpt>
      <trkpt lat="44.57443" lon="3.90694">
        <ele>1011.7</ele>
        <time>2013-05-10T07:17:11Z</time>
      </trkpt>
      <trkpt lat="44.57441" lon="3.90694">
        <ele>1011.7</ele>
        <time>2013-05-10T07:17:12Z</time>
      </trkpt>
      <trkpt lat="44.57425" lon="3.90693">
        <ele>1010.9</ele>
        <time>2013-05-10T07:17:25Z</time>
      </trkpt>
      <trkpt lat="44.57417" lon="3.90696">
        <ele>1011</ele>
        <time>2013-05-10T07:17:32Z</time>
      </trkpt>
      <trkpt lat="44.57409" lon="3.90698">
        <ele>1011.1</ele>
        <time>2013-05-10T07:17:38Z</time>
      </trkpt>
      <trkpt lat="44.57401" lon="3.907">
        <ele>1010.7</ele>
        <time>2013-05-10T07:17:45Z</time>
      </trkpt>
      <trkpt lat="44.57393" lon="3.90705">
        <ele>1010.6</ele>
        <time>2013-05-10T07:17:52Z</time>
      </trkpt>
      <trkpt lat="44.57385" lon="3.90706">
        <ele>1011.1</ele>
        <time>2013-05-10T07:17:59Z</time>
      </trkpt>
      <trkpt lat="44.57378" lon="3.9071">
        <ele>1011.5</ele>
        <time>2013-05-10T07:18:04Z</time>
      </trkpt>
      <trkpt lat="44.57371" lon="3.90717">
        <ele>1011.6</ele>
        <time>2013-05-10T07:18:10Z</time>
      </trkpt>
      <trkpt lat="44.57363" lon="3.90722">
        <ele>1011.2</ele>
        <time>2013-05-10T07:18:17Z</time>
      </trkpt>
      <trkpt lat="44.57362" lon="3.90721">
        <ele>1011.1</ele>
        <time>2013-05-10T07:18:18Z</time>
      </trkpt>
      <trkpt lat="44.57347" lon="3.90729">
        <ele>1010.4</ele>
        <time>2013-05-10T07:18:31Z</time>
      </trkpt>
      <trkpt lat="44.57339" lon="3.90733">
        <ele>1010.2</ele>
        <time>2013-05-10T07:18:40Z</time>
      </trkpt>
      <trkpt lat="44.57336" lon="3.90744">
        <ele>1010</ele>
        <time>2013-05-10T07:18:52Z</time>
      </trkpt>
      <trkpt lat="44.57335" lon="3.90755">
        <ele>1009.9</ele>
        <time>2013-05-10T07:18:58Z</time>
      </trkpt>
      <trkpt lat="44.57333" lon="3.90765">
        <ele>1009.5</ele>
        <time>2013-05-10T07:19:02Z</time>
      </trkpt>
      <trkpt lat="44.57334" lon="3.90775">
        <ele>1009.6</ele>
        <time>2013-05-10T07:19:06Z</time>
      </trkpt>
      <trkpt lat="44.57338" lon="3.90787">
        <ele>1009.9</ele>
        <time>2013-05-10T07:19:11Z</time>
      </trkpt>
      <trkpt lat="44.57339" lon="3.90799">
        <ele>1009.9</ele>
        <time>2013-05-10T07:19:18Z</time>
      </trkpt>
      <trkpt lat="44.57339" lon="3.90801">
        <ele>1009.9</ele>
        <time>2013-05-10T07:19:19Z</time>
      </trkpt>
      <trkpt lat="44.57347" lon="3.90817">
        <ele>1009.5</ele>
        <time>2013-05-10T07:19:29Z</time>
      </trkpt>
      <trkpt lat="44.57351" lon="3.90826">
        <ele>1009</ele>
        <time>2013-05-10T07:19:35Z</time>
      </trkpt>
      <trkpt lat="44.57359" lon="3.90831">
        <ele>1008.9</ele>
        <time>2013-05-10T07:19:41Z</time>
      </trkpt>
      <trkpt lat="44.57363" lon="3.90841">
        <ele>1009.6</ele>
        <time>2013-05-10T07:19:49Z</time>
      </trkpt>
      <trkpt lat="44.57369" lon="3.9085">
        <ele>1010.4</ele>
        <time>2013-05-10T07:19:57Z</time>
      </trkpt>
      <trkpt lat="44.57374" lon="3.9086">
        <ele>1011</ele>
        <time>2013-05-10T07:20:04Z</time>
      </trkpt>
      <trkpt lat="44.57378" lon="3.90871">
        <ele>1011.5</ele>
        <time>2013-05-10T07:20:12Z</time>
      </trkpt>
      <trkpt lat="44.57383" lon="3.90879">
        <ele>1012.4</ele>
        <time>2013-05-10T07:20:21Z</time>
      </trkpt>
      <trkpt lat="44.57385" lon="3.90881">
        <ele>1012.4</ele>
        <time>2013-05-10T07:20:22Z</time>
      </trkpt>
      <trkpt lat="44.5739" lon="3.909">
        <ele>1012.5</ele>
        <time>2013-05-10T07:20:37Z</time>
      </trkpt>
      <trkpt lat="44.57389" lon="3.90911">
        <ele>1012</ele>
        <time>2013-05-10T07:20:43Z</time>
      </trkpt>
      <trkpt lat="44.57391" lon="3.90922">
        <ele>1011.7</ele>
        <time>2013-05-10T07:20:50Z</time>
      </trkpt>
      <trkpt lat="44.57391" lon="3.90933">
        <ele>1011.5</ele>
        <time>2013-05-10T07:20:55Z</time>
      </trkpt>
      <trkpt lat="44.57388" lon="3.90945">
        <ele>1011.5</ele>
        <time>2013-05-10T07:21:00Z</time>
      </trkpt>
      <trkpt lat="44.57388" lon="3.90957">
        <ele>1011.7</ele>
        <time>2013-05-10T07:21:05Z</time>
      </trkpt>
      <trkpt lat="44.5739" lon="3.90968">
        <ele>1012.1</ele>
        <time>2013-05-10T07:21:12Z</time>
      </trkpt>
      <trkpt lat="44.57392" lon="3.90979">
        <ele>1012</ele>
        <time>2013-05-10T07:21:19Z</time>
      </trkpt>
      <trkpt lat="44.57393" lon="3.9099">
        <ele>1011.7</ele>
        <time>2013-05-10T07:21:23Z</time>
      </trkpt>
      <trkpt lat="44.57393" lon="3.90993">
        <ele>1011.6</ele>
        <time>2013-05-10T07:21:24Z</time>
      </trkpt>
      <trkpt lat="44.5739" lon="3.91012">
        <ele>1011.3</ele>
        <time>2013-05-10T07:21:31Z</time>
      </trkpt>
      <trkpt lat="44.57389" lon="3.91023">
        <ele>1011.3</ele>
        <time>2013-05-10T07:21:38Z</time>
      </trkpt>
      <trkpt lat="44.57391" lon="3.91034">
        <ele>1011.1</ele>
        <time>2013-05-10T07:21:45Z</time>
      </trkpt>
      <trkpt lat="44.57395" lon="3.91045">
        <ele>1010.7</ele>
        <time>2013-05-10T07:21:53Z</time>
      </trkpt>
      <trkpt lat="44.57399" lon="3.91056">
        <ele>1010.2</ele>
        <time>2013-05-10T07:22:03Z</time>
      </trkpt>
      <trkpt lat="44.57397" lon="3.91067">
        <ele>1009.5</ele>
        <time>2013-05-10T07:22:08Z</time>
      </trkpt>
      <trkpt lat="44.57396" lon="3.91079">
        <ele>1008.5</ele>
        <time>2013-05-10T07:22:15Z</time>
      </trkpt>
      <trkpt lat="44.5739" lon="3.91089">
        <ele>1007.6</ele>
        <time>2013-05-10T07:22:27Z</time>
      </trkpt>
      <trkpt lat="44.57389" lon="3.91089">
        <ele>1007.6</ele>
        <time>2013-05-10T07:22:28Z</time>
      </trkpt>
      <trkpt lat="44.57379" lon="3.91106">
        <ele>1008.1</ele>
        <time>2013-05-10T07:22:41Z</time>
      </trkpt>
      <trkpt lat="44.57374" lon="3.91116">
        <ele>1009.1</ele>
        <time>2013-05-10T07:22:47Z</time>
      </trkpt>
      <trkpt lat="44.57367" lon="3.91123">
        <ele>1009.7</ele>
        <time>2013-05-10T07:22:52Z</time>
      </trkpt>
      <trkpt lat="44.57361" lon="3.91129">
        <ele>1010.6</ele>
        <time>2013-05-10T07:22:58Z</time>
      </trkpt>
      <trkpt lat="44.57354" lon="3.91136">
        <ele>1010.8</ele>
        <time>2013-05-10T07:23:04Z</time>
      </trkpt>
      <trkpt lat="44.57347" lon="3.91142">
        <ele>1011.6</ele>
        <time>2013-05-10T07:23:18Z</time>
      </trkpt>
      <trkpt lat="44.5734" lon="3.91139">
        <ele>1011.9</ele>
        <time>2013-05-10T07:24:09Z</time>
      </trkpt>
      <trkpt lat="44.57336" lon="3.9114">
        <ele>1012.5</ele>
        <time>2013-05-10T07:24:10Z</time>
      </trkpt>
      <trkpt lat="44.57341" lon="3.91125">
        <ele>1013.5</ele>
        <time>2013-05-10T07:25:59Z</time>
      </trkpt>
      <trkpt lat="44.5734" lon="3.91111">
        <ele>1013.4</ele>
        <time>2013-05-10T07:26:11Z</time>
      </trkpt>
      <trkpt lat="44.57339" lon="3.91099">
        <ele>1013.1</ele>
        <time>2013-05-10T07:26:22Z</time>
      </trkpt>
      <trkpt lat="44.57339" lon="3.91087">
        <ele>1013.3</ele>
        <time>2013-05-10T07:26:34Z</time>
      </trkpt>
      <trkpt lat="44.57333" lon="3.91081">
        <ele>1013.2</ele>
        <time>2013-05-10T07:26:43Z</time>
      </trkpt>
      <trkpt lat="44.57328" lon="3.91071">
        <ele>1013.2</ele>
        <time>2013-05-10T07:26:55Z</time>
      </trkpt>
      <trkpt lat="44.57324" lon="3.9106">
        <ele>1013.2</ele>
        <time>2013-05-10T07:27:06Z</time>
      </trkpt>
      <trkpt lat="44.57325" lon="3.91059">
        <ele>1013.3</ele>
        <time>2013-05-10T07:27:07Z</time>
      </trkpt>
      <trkpt lat="44.57318" lon="3.91038">
        <ele>1013.2</ele>
        <time>2013-05-10T07:27:24Z</time>
      </trkpt>
      <trkpt lat="44.57312" lon="3.91029">
        <ele>1013.3</ele>
        <time>2013-05-10T07:27:31Z</time>
      </trkpt>
      <trkpt lat="44.57307" lon="3.9102">
        <ele>1013.5</ele>
        <time>2013-05-10T07:27:38Z</time>
      </trkpt>
      <trkpt lat="44.57306" lon="3.91008">
        <ele>1013.9</ele>
        <time>2013-05-10T07:27:44Z</time>
      </trkpt>
      <trkpt lat="44.57306" lon="3.90996">
        <ele>1014</ele>
        <time>2013-05-10T07:27:52Z</time>
      </trkpt>
      <trkpt lat="44.57302" lon="3.90984">
        <ele>1014.1</ele>
        <time>2013-05-10T07:28:01Z</time>
      </trkpt>
      <trkpt lat="44.57295" lon="3.90979">
        <ele>1014.3</ele>
        <time>2013-05-10T07:28:08Z</time>
      </trkpt>
      <trkpt lat="44.57294" lon="3.90978">
        <ele>1014.3</ele>
        <time>2013-05-10T07:28:09Z</time>
      </trkpt>
      <trkpt lat="44.57281" lon="3.90964">
        <ele>1014.5</ele>
        <time>2013-05-10T07:28:26Z</time>
      </trkpt>
      <trkpt lat="44.57276" lon="3.90955">
        <ele>1014.6</ele>
        <time>2013-05-10T07:28:33Z</time>
      </trkpt>
      <trkpt lat="44.57269" lon="3.90947">
        <ele>1014.7</ele>
        <time>2013-05-10T07:28:41Z</time>
      </trkpt>
      <trkpt lat="44.57262" lon="3.90942">
        <ele>1014.8</ele>
        <time>2013-05-10T07:28:48Z</time>
      </trkpt>
      <trkpt lat="44.57257" lon="3.90932">
        <ele>1015</ele>
        <time>2013-05-10T07:28:59Z</time>
      </trkpt>
      <trkpt lat="44.57251" lon="3.90923">
        <ele>1015.2</ele>
        <time>2013-05-10T07:29:05Z</time>
      </trkpt>
      <trkpt lat="44.57244" lon="3.90916">
        <ele>1015.4</ele>
        <time>2013-05-10T07:29:12Z</time>
      </trkpt>
      <trkpt lat="44.57243" lon="3.90915">
        <ele>1015.4</ele>
        <time>2013-05-10T07:29:13Z</time>
      </trkpt>
      <trkpt lat="44.57231" lon="3.90903">
        <ele>1015.9</ele>
        <time>2013-05-10T07:29:24Z</time>
      </trkpt>
      <trkpt lat="44.57225" lon="3.90894">
        <ele>1016.6</ele>
        <time>2013-05-10T07:29:30Z</time>
      </trkpt>
      <trkpt lat="44.57218" lon="3.90888">
        <ele>1017</ele>
        <time>2013-05-10T07:29:37Z</time>
      </trkpt>
      <trkpt lat="44.5721" lon="3.90882">
        <ele>1018.1</ele>
        <time>2013-05-10T07:29:45Z</time>
      </trkpt>
      <trkpt lat="44.57203" lon="3.90876">
        <ele>1018.8</ele>
        <time>2013-05-10T07:29:54Z</time>
      </trkpt>
      <trkpt lat="44.572" lon="3.90865">
        <ele>1019.5</ele>
        <time>2013-05-10T07:30:04Z</time>
      </trkpt>
      <trkpt lat="44.57195" lon="3.90857">
        <ele>1019.9</ele>
        <time>2013-05-10T07:30:12Z</time>
      </trkpt>
      <trkpt lat="44.57187" lon="3.90857">
        <ele>1020.2</ele>
        <time>2013-05-10T07:30:17Z</time>
      </trkpt>
      <trkpt lat="44.57186" lon="3.90856">
        <ele>1020.3</ele>
        <time>2013-05-10T07:30:18Z</time>
      </trkpt>
      <trkpt lat="44.57171" lon="3.90853">
        <ele>1021.1</ele>
        <time>2013-05-10T07:30:29Z</time>
      </trkpt>
      <trkpt lat="44.57163" lon="3.90852">
        <ele>1021.8</ele>
        <time>2013-05-10T07:30:37Z</time>
      </trkpt>
      <trkpt lat="44.57155" lon="3.90849">
        <ele>1022.5</ele>
        <time>2013-05-10T07:30:45Z</time>
      </trkpt>
      <trkpt lat="44.57149" lon="3.90842">
        <ele>1023.1</ele>
        <time>2013-05-10T07:30:55Z</time>
      </trkpt>
      <trkpt lat="44.5714" lon="3.9084">
        <ele>1023.6</ele>
        <time>2013-05-10T07:31:03Z</time>
      </trkpt>
      <trkpt lat="44.57132" lon="3.9084">
        <ele>1025</ele>
        <time>2013-05-10T07:31:15Z</time>
      </trkpt>
      <trkpt lat="44.57124" lon="3.9084">
        <ele>1025.9</ele>
        <time>2013-05-10T07:31:23Z</time>
      </trkpt>
      <trkpt lat="44.57123" lon="3.90839">
        <ele>1026</ele>
        <time>2013-05-10T07:31:24Z</time>
      </trkpt>
      <trkpt lat="44.57109" lon="3.90829">
        <ele>1027.4</ele>
        <time>2013-05-10T07:31:38Z</time>
      </trkpt>
      <trkpt lat="44.57105" lon="3.90818">
        <ele>1028.4</ele>
        <time>2013-05-10T07:31:49Z</time>
      </trkpt>
      <trkpt lat="44.57097" lon="3.90812">
        <ele>1030.1</ele>
        <time>2013-05-10T07:31:58Z</time>
      </trkpt>
      <trkpt lat="44.5709" lon="3.90806">
        <ele>1032.3</ele>
        <time>2013-05-10T07:32:07Z</time>
      </trkpt>
      <trkpt lat="44.57083" lon="3.90801">
        <ele>1033.8</ele>
        <time>2013-05-10T07:32:16Z</time>
      </trkpt>
      <trkpt lat="44.57076" lon="3.90796">
        <ele>1035.2</ele>
        <time>2013-05-10T07:32:22Z</time>
      </trkpt>
      <trkpt lat="44.57068" lon="3.90793">
        <ele>1037.4</ele>
        <time>2013-05-10T07:32:33Z</time>
      </trkpt>
      <trkpt lat="44.57067" lon="3.90793">
        <ele>1037.6</ele>
        <time>2013-05-10T07:32:34Z</time>
      </trkpt>
      <trkpt lat="44.57053" lon="3.90786">
        <ele>1039.2</ele>
        <time>2013-05-10T07:32:43Z</time>
      </trkpt>
      <trkpt lat="44.57045" lon="3.90781">
        <ele>1040.6</ele>
        <time>2013-05-10T07:32:51Z</time>
      </trkpt>
      <trkpt lat="44.57038" lon="3.90775">
        <ele>1042.2</ele>
        <time>2013-05-10T07:33:02Z</time>
      </trkpt>
      <trkpt lat="44.57031" lon="3.90768">
        <ele>1043.5</ele>
        <time>2013-05-10T07:33:11Z</time>
      </trkpt>
      <trkpt lat="44.57022" lon="3.90766">
        <ele>1044.8</ele>
        <time>2013-05-10T07:33:19Z</time>
      </trkpt>
      <trkpt lat="44.57014" lon="3.9076">
        <ele>1046.3</ele>
        <time>2013-05-10T07:33:27Z</time>
      </trkpt>
      <trkpt lat="44.57006" lon="3.90757">
        <ele>1047.2</ele>
        <time>2013-05-10T07:33:34Z</time>
      </trkpt>
      <trkpt lat="44.57004" lon="3.90757">
        <ele>1047.3</ele>
        <time>2013-05-10T07:33:35Z</time>
      </trkpt>
      <trkpt lat="44.56996" lon="3.90741">
        <ele>1049.1</ele>
        <time>2013-05-10T07:33:45Z</time>
      </trkpt>
      <trkpt lat="44.56989" lon="3.90733">
        <ele>1049.9</ele>
        <time>2013-05-10T07:33:51Z</time>
      </trkpt>
      <trkpt lat="44.56982" lon="3.90728">
        <ele>1051.8</ele>
        <time>2013-05-10T07:33:58Z</time>
      </trkpt>
      <trkpt lat="44.56975" lon="3.90723">
        <ele>1054.2</ele>
        <time>2013-05-10T07:34:06Z</time>
      </trkpt>
      <trkpt lat="44.56968" lon="3.90715">
        <ele>1056.4</ele>
        <time>2013-05-10T07:34:16Z</time>
      </trkpt>
      <trkpt lat="44.5696" lon="3.90712">
        <ele>1057.7</ele>
        <time>2013-05-10T07:34:24Z</time>
      </trkpt>
      <trkpt lat="44.56953" lon="3.90705">
        <ele>1058.9</ele>
        <time>2013-05-10T07:34:32Z</time>
      </trkpt>
      <trkpt lat="44.56946" lon="3.90698">
        <ele>1059.9</ele>
        <time>2013-05-10T07:34:41Z</time>
      </trkpt>
      <trkpt lat="44.56945" lon="3.90697">
        <ele>1060</ele>
        <time>2013-05-10T07:34:42Z</time>
      </trkpt>
      <trkpt lat="44.56932" lon="3.90685">
        <ele>1062.7</ele>
        <time>2013-05-10T07:34:57Z</time>
      </trkpt>
      <trkpt lat="44.56924" lon="3.90679">
        <ele>1064.3</ele>
        <time>2013-05-10T07:35:06Z</time>
      </trkpt>
      <trkpt lat="44.56916" lon="3.90672">
        <ele>1066</ele>
        <time>2013-05-10T07:35:14Z</time>
      </trkpt>
      <trkpt lat="44.56908" lon="3.90669">
        <ele>1067.1</ele>
        <time>2013-05-10T07:35:20Z</time>
      </trkpt>
      <trkpt lat="44.569" lon="3.90664">
        <ele>1068.6</ele>
        <time>2013-05-10T07:35:29Z</time>
      </trkpt>
      <trkpt lat="44.56892" lon="3.90664">
        <ele>1070.4</ele>
        <time>2013-05-10T07:35:39Z</time>
      </trkpt>
      <trkpt lat="44.56884" lon="3.90663">
        <ele>1071.5</ele>
        <time>2013-05-10T07:35:46Z</time>
      </trkpt>
      <trkpt lat="44.56882" lon="3.90663">
        <ele>1071.7</ele>
        <time>2013-05-10T07:35:47Z</time>
      </trkpt>
      <trkpt lat="44.56867" lon="3.90665">
        <ele>1073.5</ele>
        <time>2013-05-10T07:35:59Z</time>
      </trkpt>
      <trkpt lat="44.56858" lon="3.90669">
        <ele>1074.6</ele>
        <time>2013-05-10T07:36:05Z</time>
      </trkpt>
      <trkpt lat="44.5685" lon="3.90668">
        <ele>1075.6</ele>
        <time>2013-05-10T07:36:13Z</time>
      </trkpt>
      <trkpt lat="44.56843" lon="3.90676">
        <ele>1078.5</ele>
        <time>2013-05-10T07:36:42Z</time>
      </trkpt>
      <trkpt lat="44.56838" lon="3.90667">
        <ele>1078</ele>
        <time>2013-05-10T07:37:16Z</time>
      </trkpt>
      <trkpt lat="44.56837" lon="3.90667">
        <ele>1078</ele>
        <time>2013-05-10T07:37:17Z</time>
      </trkpt>
      <trkpt lat="44.56822" lon="3.90665">
        <ele>1077</ele>
        <time>2013-05-10T07:37:32Z</time>
      </trkpt>
      <trkpt lat="44.56814" lon="3.90667">
        <ele>1076.7</ele>
        <time>2013-05-10T07:37:39Z</time>
      </trkpt>
      <trkpt lat="44.56806" lon="3.90663">
        <ele>1076.1</ele>
        <time>2013-05-10T07:37:46Z</time>
      </trkpt>
      <trkpt lat="44.56797" lon="3.90662">
        <ele>1075.1</ele>
        <time>2013-05-10T07:37:58Z</time>
      </trkpt>
      <trkpt lat="44.56789" lon="3.90664">
        <ele>1074.7</ele>
        <time>2013-05-10T07:38:06Z</time>
      </trkpt>
      <trkpt lat="44.56781" lon="3.90667">
        <ele>1074.5</ele>
        <time>2013-05-10T07:38:13Z</time>
      </trkpt>
      <trkpt lat="44.56773" lon="3.90672">
        <ele>1073.8</ele>
        <time>2013-05-10T07:38:21Z</time>
      </trkpt>
      <trkpt lat="44.56772" lon="3.90672">
        <ele>1073.9</ele>
        <time>2013-05-10T07:38:22Z</time>
      </trkpt>
      <trkpt lat="44.56756" lon="3.90675">
        <ele>1074.4</ele>
        <time>2013-05-10T07:38:38Z</time>
      </trkpt>
      <trkpt lat="44.56749" lon="3.90682">
        <ele>1074.5</ele>
        <time>2013-05-10T07:38:44Z</time>
      </trkpt>
      <trkpt lat="44.56741" lon="3.90688">
        <ele>1074.8</ele>
        <time>2013-05-10T07:38:51Z</time>
      </trkpt>
      <trkpt lat="44.56734" lon="3.90693">
        <ele>1075.1</ele>
        <time>2013-05-10T07:38:56Z</time>
      </trkpt>
      <trkpt lat="44.56728" lon="3.907">
        <ele>1075.3</ele>
        <time>2013-05-10T07:39:03Z</time>
      </trkpt>
      <trkpt lat="44.5672" lon="3.90703">
        <ele>1075.8</ele>
        <time>2013-05-10T07:39:10Z</time>
      </trkpt>
      <trkpt lat="44.56712" lon="3.90705">
        <ele>1075.8</ele>
        <time>2013-05-10T07:39:16Z</time>
      </trkpt>
      <trkpt lat="44.56705" lon="3.90709">
        <ele>1075.9</ele>
        <time>2013-05-10T07:39:23Z</time>
      </trkpt>
      <trkpt lat="44.56704" lon="3.9071">
        <ele>1075.9</ele>
        <time>2013-05-10T07:39:24Z</time>
      </trkpt>
      <trkpt lat="44.56689" lon="3.90721">
        <ele>1075.4</ele>
        <time>2013-05-10T07:39:39Z</time>
      </trkpt>
      <trkpt lat="44.56681" lon="3.90722">
        <ele>1074.9</ele>
        <time>2013-05-10T07:39:49Z</time>
      </trkpt>
      <trkpt lat="44.56673" lon="3.90725">
        <ele>1074.4</ele>
        <time>2013-05-10T07:39:58Z</time>
      </trkpt>
      <trkpt lat="44.56665" lon="3.9073">
        <ele>1074.4</ele>
        <time>2013-05-10T07:40:06Z</time>
      </trkpt>
      <trkpt lat="44.56659" lon="3.90739">
        <ele>1074.6</ele>
        <time>2013-05-10T07:40:13Z</time>
      </trkpt>
      <trkpt lat="44.56653" lon="3.90746">
        <ele>1074.9</ele>
        <time>2013-05-10T07:40:19Z</time>
      </trkpt>
      <trkpt lat="44.56647" lon="3.90752">
        <ele>1075</ele>
        <time>2013-05-10T07:40:25Z</time>
      </trkpt>
      <trkpt lat="44.56646" lon="3.90755">
        <ele>1074.9</ele>
        <time>2013-05-10T07:40:26Z</time>
      </trkpt>
      <trkpt lat="44.56632" lon="3.90756">
        <ele>1074.4</ele>
        <time>2013-05-10T07:40:57Z</time>
      </trkpt>
      <trkpt lat="44.56624" lon="3.90758">
        <ele>1074.7</ele>
        <time>2013-05-10T07:41:03Z</time>
      </trkpt>
      <trkpt lat="44.56617" lon="3.90762">
        <ele>1074.9</ele>
        <time>2013-05-10T07:41:08Z</time>
      </trkpt>
      <trkpt lat="44.5661" lon="3.90769">
        <ele>1075</ele>
        <time>2013-05-10T07:41:13Z</time>
      </trkpt>
      <trkpt lat="44.56603" lon="3.90775">
        <ele>1075</ele>
        <time>2013-05-10T07:41:20Z</time>
      </trkpt>
      <trkpt lat="44.56595" lon="3.90776">
        <ele>1074.9</ele>
        <time>2013-05-10T07:41:29Z</time>
      </trkpt>
      <trkpt lat="44.56594" lon="3.90776">
        <ele>1075</ele>
        <time>2013-05-10T07:41:30Z</time>
      </trkpt>
      <trkpt lat="44.56578" lon="3.90779">
        <ele>1075.1</ele>
        <time>2013-05-10T07:41:44Z</time>
      </trkpt>
      <trkpt lat="44.5657" lon="3.90776">
        <ele>1074.6</ele>
        <time>2013-05-10T07:41:51Z</time>
      </trkpt>
      <trkpt lat="44.56562" lon="3.90777">
        <ele>1074.5</ele>
        <time>2013-05-10T07:41:58Z</time>
      </trkpt>
      <trkpt lat="44.56553" lon="3.90777">
        <ele>1074</ele>
        <time>2013-05-10T07:42:06Z</time>
      </trkpt>
      <trkpt lat="44.56545" lon="3.90776">
        <ele>1073.6</ele>
        <time>2013-05-10T07:42:15Z</time>
      </trkpt>
      <trkpt lat="44.56537" lon="3.90776">
        <ele>1073.3</ele>
        <time>2013-05-10T07:42:21Z</time>
      </trkpt>
      <trkpt lat="44.56529" lon="3.9077">
        <ele>1073.7</ele>
        <time>2013-05-10T07:42:30Z</time>
      </trkpt>
      <trkpt lat="44.56528" lon="3.9077">
        <ele>1073.8</ele>
        <time>2013-05-10T07:42:31Z</time>
      </trkpt>
      <trkpt lat="44.56512" lon="3.9077">
        <ele>1073.7</ele>
        <time>2013-05-10T07:43:20Z</time>
      </trkpt>
      <trkpt lat="44.56504" lon="3.90773">
        <ele>1073.8</ele>
        <time>2013-05-10T07:43:27Z</time>
      </trkpt>
      <trkpt lat="44.56496" lon="3.90774">
        <ele>1074.4</ele>
        <time>2013-05-10T07:43:33Z</time>
      </trkpt>
      <trkpt lat="44.56495" lon="3.90773">
        <ele>1074.4</ele>
        <time>2013-05-10T07:43:34Z</time>
      </trkpt>
      <trkpt lat="44.5648" lon="3.90776">
        <ele>1073.3</ele>
        <time>2013-05-10T07:43:51Z</time>
      </trkpt>
      <trkpt lat="44.56472" lon="3.90777">
        <ele>1072.8</ele>
        <time>2013-05-10T07:43:59Z</time>
      </trkpt>
      <trkpt lat="44.56463" lon="3.90777">
        <ele>1072.3</ele>
        <time>2013-05-10T07:44:05Z</time>
      </trkpt>
      <trkpt lat="44.56455" lon="3.90771">
        <ele>1072.3</ele>
        <time>2013-05-10T07:44:13Z</time>
      </trkpt>
      <trkpt lat="44.56448" lon="3.90767">
        <ele>1072.4</ele>
        <time>2013-05-10T07:44:20Z</time>
      </trkpt>
      <trkpt lat="44.5644" lon="3.90766">
        <ele>1072.4</ele>
        <time>2013-05-10T07:44:26Z</time>
      </trkpt>
      <trkpt lat="44.56432" lon="3.90765">
        <ele>1072</ele>
        <time>2013-05-10T07:44:32Z</time>
      </trkpt>
      <trkpt lat="44.56424" lon="3.90764">
        <ele>1071.1</ele>
        <time>2013-05-10T07:44:40Z</time>
      </trkpt>
      <trkpt lat="44.56423" lon="3.90764">
        <ele>1071</ele>
        <time>2013-05-10T07:44:41Z</time>
      </trkpt>
      <trkpt lat="44.56408" lon="3.90763">
        <ele>1071.1</ele>
        <time>2013-05-10T07:44:55Z</time>
      </trkpt>
      <trkpt lat="44.564" lon="3.90762">
        <ele>1071</ele>
        <time>2013-05-10T07:45:02Z</time>
      </trkpt>
      <trkpt lat="44.56392" lon="3.90755">
        <ele>1071.1</ele>
        <time>2013-05-10T07:45:08Z</time>
      </trkpt>
      <trkpt lat="44.56386" lon="3.90751">
        <ele>1070.9</ele>
        <time>2013-05-10T07:45:14Z</time>
      </trkpt>
      <trkpt lat="44.56377" lon="3.9075">
        <ele>1070.7</ele>
        <time>2013-05-10T07:45:21Z</time>
      </trkpt>
      <trkpt lat="44.5637" lon="3.90745">
        <ele>1070.5</ele>
        <time>2013-05-10T07:45:28Z</time>
      </trkpt>
      <trkpt lat="44.56361" lon="3.90743">
        <ele>1070.7</ele>
        <time>2013-05-10T07:45:35Z</time>
      </trkpt>
      <trkpt lat="44.56353" lon="3.90742">
        <ele>1071.7</ele>
        <time>2013-05-10T07:45:45Z</time>
      </trkpt>
      <trkpt lat="44.56352" lon="3.90742">
        <ele>1071.7</ele>
        <time>2013-05-10T07:45:46Z</time>
      </trkpt>
      <trkpt lat="44.56337" lon="3.90744">
        <ele>1071.3</ele>
        <time>2013-05-10T07:45:57Z</time>
      </trkpt>
      <trkpt lat="44.5633" lon="3.90737">
        <ele>1072.4</ele>
        <time>2013-05-10T07:46:04Z</time>
      </trkpt>
      <trkpt lat="44.56322" lon="3.90736">
        <ele>1073.1</ele>
        <time>2013-05-10T07:46:13Z</time>
      </trkpt>
      <trkpt lat="44.56314" lon="3.9074">
        <ele>1073.2</ele>
        <time>2013-05-10T07:46:20Z</time>
      </trkpt>
      <trkpt lat="44.56305" lon="3.90741">
        <ele>1073.3</ele>
        <time>2013-05-10T07:46:26Z</time>
      </trkpt>
      <trkpt lat="44.56297" lon="3.90742">
        <ele>1073.3</ele>
        <time>2013-05-10T07:46:31Z</time>
      </trkpt>
      <trkpt lat="44.56289" lon="3.9074">
        <ele>1073.3</ele>
        <time>2013-05-10T07:46:37Z</time>
      </trkpt>
      <trkpt lat="44.56281" lon="3.90739">
        <ele>1073.9</ele>
        <time>2013-05-10T07:46:43Z</time>
      </trkpt>
      <trkpt lat="44.56273" lon="3.9074">
        <ele>1074.3</ele>
        <time>2013-05-10T07:46:49Z</time>
      </trkpt>
      <trkpt lat="44.56271" lon="3.90741">
        <ele>1074.4</ele>
        <time>2013-05-10T07:46:50Z</time>
      </trkpt>
      <trkpt lat="44.56257" lon="3.90744">
        <ele>1074.8</ele>
        <time>2013-05-10T07:47:05Z</time>
      </trkpt>
      <trkpt lat="44.56248" lon="3.90746">
        <ele>1075</ele>
        <time>2013-05-10T07:47:12Z</time>
      </trkpt>
      <trkpt lat="44.56239" lon="3.90746">
        <ele>1075.4</ele>
        <time>2013-05-10T07:47:19Z</time>
      </trkpt>
      <trkpt lat="44.56231" lon="3.90746">
        <ele>1075.8</ele>
        <time>2013-05-10T07:47:28Z</time>
      </trkpt>
      <trkpt lat="44.56222" lon="3.90745">
        <ele>1076</ele>
        <time>2013-05-10T07:47:35Z</time>
      </trkpt>
      <trkpt lat="44.56213" lon="3.90741">
        <ele>1076.1</ele>
        <time>2013-05-10T07:47:44Z</time>
      </trkpt>
      <trkpt lat="44.56205" lon="3.9074">
        <ele>1076.2</ele>
        <time>2013-05-10T07:47:52Z</time>
      </trkpt>
      <trkpt lat="44.56204" lon="3.9074">
        <ele>1076.2</ele>
        <time>2013-05-10T07:47:53Z</time>
      </trkpt>
      <trkpt lat="44.56188" lon="3.90737">
        <ele>1076.2</ele>
        <time>2013-05-10T07:48:10Z</time>
      </trkpt>
      <trkpt lat="44.5618" lon="3.90738">
        <ele>1076.5</ele>
        <time>2013-05-10T07:48:26Z</time>
      </trkpt>
      <trkpt lat="44.56172" lon="3.90736">
        <ele>1076.6</ele>
        <time>2013-05-10T07:48:34Z</time>
      </trkpt>
      <trkpt lat="44.56164" lon="3.90732">
        <ele>1076.7</ele>
        <time>2013-05-10T07:48:40Z</time>
      </trkpt>
      <trkpt lat="44.56156" lon="3.9073">
        <ele>1076.9</ele>
        <time>2013-05-10T07:48:47Z</time>
      </trkpt>
      <trkpt lat="44.56148" lon="3.90727">
        <ele>1076.7</ele>
        <time>2013-05-10T07:48:55Z</time>
      </trkpt>
      <trkpt lat="44.56147" lon="3.90728">
        <ele>1076.7</ele>
        <time>2013-05-10T07:48:56Z</time>
      </trkpt>
      <trkpt lat="44.56132" lon="3.90732">
        <ele>1076.5</ele>
        <time>2013-05-10T07:49:12Z</time>
      </trkpt>
      <trkpt lat="44.56124" lon="3.90729">
        <ele>1076.5</ele>
        <time>2013-05-10T07:49:19Z</time>
      </trkpt>
      <trkpt lat="44.56116" lon="3.90729">
        <ele>1076.8</ele>
        <time>2013-05-10T07:49:25Z</time>
      </trkpt>
      <trkpt lat="44.56107" lon="3.9073">
        <ele>1077.4</ele>
        <time>2013-05-10T07:49:32Z</time>
      </trkpt>
      <trkpt lat="44.56099" lon="3.90729">
        <ele>1078</ele>
        <time>2013-05-10T07:49:43Z</time>
      </trkpt>
      <trkpt lat="44.5609" lon="3.90727">
        <ele>1080.8</ele>
        <time>2013-05-10T07:51:36Z</time>
      </trkpt>
      <trkpt lat="44.5609" lon="3.90728">
        <ele>1080.8</ele>
        <time>2013-05-10T07:51:37Z</time>
      </trkpt>
      <trkpt lat="44.56076" lon="3.9073">
        <ele>1081.4</ele>
        <time>2013-05-10T07:52:07Z</time>
      </trkpt>
      <trkpt lat="44.56068" lon="3.90729">
        <ele>1081.7</ele>
        <time>2013-05-10T07:52:15Z</time>
      </trkpt>
      <trkpt lat="44.5606" lon="3.90725">
        <ele>1081.8</ele>
        <time>2013-05-10T07:52:22Z</time>
      </trkpt>
      <trkpt lat="44.56052" lon="3.90727">
        <ele>1081.6</ele>
        <time>2013-05-10T07:52:30Z</time>
      </trkpt>
      <trkpt lat="44.56044" lon="3.90725">
        <ele>1081.5</ele>
        <time>2013-05-10T07:52:37Z</time>
      </trkpt>
      <trkpt lat="44.56043" lon="3.90725">
        <ele>1081.6</ele>
        <time>2013-05-10T07:52:38Z</time>
      </trkpt>
      <trkpt lat="44.56027" lon="3.90724">
        <ele>1081.7</ele>
        <time>2013-05-10T07:52:54Z</time>
      </trkpt>
      <trkpt lat="44.56019" lon="3.90722">
        <ele>1082</ele>
        <time>2013-05-10T07:53:02Z</time>
      </trkpt>
      <trkpt lat="44.5601" lon="3.9072">
        <ele>1082.1</ele>
        <time>2013-05-10T07:53:10Z</time>
      </trkpt>
      <trkpt lat="44.56002" lon="3.90716">
        <ele>1081.7</ele>
        <time>2013-05-10T07:53:33Z</time>
      </trkpt>
      <trkpt lat="44.55994" lon="3.9072">
        <ele>1082.7</ele>
        <time>2013-05-10T07:54:11Z</time>
      </trkpt>
      <trkpt lat="44.55993" lon="3.9072">
        <ele>1082.6</ele>
        <time>2013-05-10T07:54:12Z</time>
      </trkpt>
      <trkpt lat="44.55978" lon="3.90721">
        <ele>1081.7</ele>
        <time>2013-05-10T07:54:29Z</time>
      </trkpt>
      <trkpt lat="44.5597" lon="3.9072">
        <ele>1081.7</ele>
        <time>2013-05-10T07:54:36Z</time>
      </trkpt>
      <trkpt lat="44.55961" lon="3.90722">
        <ele>1081.6</ele>
        <time>2013-05-10T07:54:41Z</time>
      </trkpt>
      <trkpt lat="44.55954" lon="3.90725">
        <ele>1081.8</ele>
        <time>2013-05-10T07:54:47Z</time>
      </trkpt>
      <trkpt lat="44.55945" lon="3.90725">
        <ele>1082.1</ele>
        <time>2013-05-10T07:54:56Z</time>
      </trkpt>
      <trkpt lat="44.55938" lon="3.90719">
        <ele>1081.6</ele>
        <time>2013-05-10T07:55:04Z</time>
      </trkpt>
      <trkpt lat="44.55929" lon="3.90717">
        <ele>1081.5</ele>
        <time>2013-05-10T07:55:11Z</time>
      </trkpt>
      <trkpt lat="44.55921" lon="3.90716">
        <ele>1081.5</ele>
        <time>2013-05-10T07:55:20Z</time>
      </trkpt>
      <trkpt lat="44.5592" lon="3.90717">
        <ele>1081.5</ele>
        <time>2013-05-10T07:55:21Z</time>
      </trkpt>
      <trkpt lat="44.55907" lon="3.90722">
        <ele>1081</ele>
        <time>2013-05-10T07:55:33Z</time>
      </trkpt>
      <trkpt lat="44.55898" lon="3.90722">
        <ele>1080.9</ele>
        <time>2013-05-10T07:55:39Z</time>
      </trkpt>
      <trkpt lat="44.5589" lon="3.90725">
        <ele>1080.8</ele>
        <time>2013-05-10T07:55:44Z</time>
      </trkpt>
      <trkpt lat="44.55881" lon="3.90724">
        <ele>1080.8</ele>
        <time>2013-05-10T07:55:54Z</time>
      </trkpt>
      <trkpt lat="44.55873" lon="3.90725">
        <ele>1080.6</ele>
        <time>2013-05-10T07:56:04Z</time>
      </trkpt>
      <trkpt lat="44.55867" lon="3.90729">
        <ele>1080.4</ele>
        <time>2013-05-10T07:56:18Z</time>
      </trkpt>
      <trkpt lat="44.55859" lon="3.90734">
        <ele>1081</ele>
        <time>2013-05-10T07:56:25Z</time>
      </trkpt>
      <trkpt lat="44.55858" lon="3.90733">
        <ele>1081.2</ele>
        <time>2013-05-10T07:56:26Z</time>
      </trkpt>
      <trkpt lat="44.55846" lon="3.90748">
        <ele>1082</ele>
        <time>2013-05-10T07:56:58Z</time>
      </trkpt>
      <trkpt lat="44.5584" lon="3.90757">
        <ele>1081.7</ele>
        <time>2013-05-10T07:57:08Z</time>
      </trkpt>
      <trkpt lat="44.55833" lon="3.90762">
        <ele>1082.1</ele>
        <time>2013-05-10T07:57:40Z</time>
      </trkpt>
      <trkpt lat="44.55832" lon="3.90764">
        <ele>1082.1</ele>
        <time>2013-05-10T07:57:41Z</time>
      </trkpt>
      <trkpt lat="44.55832" lon="3.90762">
        <ele>1079.6</ele>
        <time>2013-05-10T08:02:31Z</time>
      </trkpt>
      <trkpt lat="44.55833" lon="3.90762">
        <ele>1079.6</ele>
        <time>2013-05-10T08:02:32Z</time>
      </trkpt>
      <trkpt lat="44.55836" lon="3.90762">
        <ele>1079.6</ele>
        <time>2013-05-10T08:02:49Z</time>
      </trkpt>
      <trkpt lat="44.5583" lon="3.9077">
        <ele>1079.5</ele>
        <time>2013-05-10T08:02:52Z</time>
      </trkpt>
      <trkpt lat="44.55824" lon="3.90763">
        <ele>1079.3</ele>
        <time>2013-05-10T08:03:31Z</time>
      </trkpt>
      <trkpt lat="44.55827" lon="3.9077">
        <ele>1080.1</ele>
        <time>2013-05-10T08:04:07Z</time>
      </trkpt>
      <trkpt lat="44.55828" lon="3.90774">
        <ele>1080.3</ele>
        <time>2013-05-10T08:04:08Z</time>
      </trkpt>
      <trkpt lat="44.55816" lon="3.90776">
        <ele>1083.7</ele>
        <time>2013-05-10T08:06:42Z</time>
      </trkpt>
      <trkpt lat="44.55814" lon="3.90785">
        <ele>1082.8</ele>
        <time>2013-05-10T08:08:04Z</time>
      </trkpt>
      <trkpt lat="44.55804" lon="3.90801">
        <ele>1082.6</ele>
        <time>2013-05-10T08:08:25Z</time>
      </trkpt>
      <trkpt lat="44.55799" lon="3.90807">
        <ele>1082.5</ele>
        <time>2013-05-10T08:08:32Z</time>
      </trkpt>
      <trkpt lat="44.55793" lon="3.90813">
        <ele>1082.5</ele>
        <time>2013-05-10T08:08:36Z</time>
      </trkpt>
      <trkpt lat="44.55786" lon="3.90821">
        <ele>1082.1</ele>
        <time>2013-05-10T08:08:50Z</time>
      </trkpt>
      <trkpt lat="44.55783" lon="3.9083">
        <ele>1082</ele>
        <time>2013-05-10T08:09:14Z</time>
      </trkpt>
      <trkpt lat="44.55779" lon="3.90835">
        <ele>1081.8</ele>
        <time>2013-05-10T08:09:15Z</time>
      </trkpt>
      <trkpt lat="44.5577" lon="3.90843">
        <ele>1081.8</ele>
        <time>2013-05-10T08:09:23Z</time>
      </trkpt>
      <trkpt lat="44.55765" lon="3.90851">
        <ele>1081.4</ele>
        <time>2013-05-10T08:09:30Z</time>
      </trkpt>
      <trkpt lat="44.55765" lon="3.90864">
        <ele>1080.2</ele>
        <time>2013-05-10T08:09:42Z</time>
      </trkpt>
      <trkpt lat="44.55763" lon="3.90875">
        <ele>1079.9</ele>
        <time>2013-05-10T08:09:50Z</time>
      </trkpt>
      <trkpt lat="44.55755" lon="3.90881">
        <ele>1079</ele>
        <time>2013-05-10T08:09:59Z</time>
      </trkpt>
      <trkpt lat="44.55749" lon="3.90885">
        <ele>1078.8</ele>
        <time>2013-05-10T08:10:04Z</time>
      </trkpt>
      <trkpt lat="44.55742" lon="3.9089">
        <ele>1078.7</ele>
        <time>2013-05-10T08:10:08Z</time>
      </trkpt>
      <trkpt lat="44.55737" lon="3.90898">
        <ele>1078.3</ele>
        <time>2013-05-10T08:10:14Z</time>
      </trkpt>
      <trkpt lat="44.55729" lon="3.90902">
        <ele>1078.1</ele>
        <time>2013-05-10T08:10:24Z</time>
      </trkpt>
      <trkpt lat="44.55728" lon="3.90902">
        <ele>1078.1</ele>
        <time>2013-05-10T08:10:25Z</time>
      </trkpt>
      <trkpt lat="44.55715" lon="3.90917">
        <ele>1078</ele>
        <time>2013-05-10T08:10:39Z</time>
      </trkpt>
      <trkpt lat="44.55708" lon="3.90925">
        <ele>1077.3</ele>
        <time>2013-05-10T08:10:50Z</time>
      </trkpt>
      <trkpt lat="44.55702" lon="3.90933">
        <ele>1077.4</ele>
        <time>2013-05-10T08:11:00Z</time>
      </trkpt>
      <trkpt lat="44.55695" lon="3.90937">
        <ele>1077</ele>
        <time>2013-05-10T08:11:07Z</time>
      </trkpt>
      <trkpt lat="44.55688" lon="3.90945">
        <ele>1077</ele>
        <time>2013-05-10T08:11:19Z</time>
      </trkpt>
      <trkpt lat="44.55684" lon="3.90955">
        <ele>1076.9</ele>
        <time>2013-05-10T08:11:26Z</time>
      </trkpt>
      <trkpt lat="44.55683" lon="3.90957">
        <ele>1076.9</ele>
        <time>2013-05-10T08:11:27Z</time>
      </trkpt>
      <trkpt lat="44.55669" lon="3.90967">
        <ele>1077</ele>
        <time>2013-05-10T08:11:40Z</time>
      </trkpt>
      <trkpt lat="44.55662" lon="3.90971">
        <ele>1076.7</ele>
        <time>2013-05-10T08:11:46Z</time>
      </trkpt>
      <trkpt lat="44.55654" lon="3.90973">
        <ele>1076.7</ele>
        <time>2013-05-10T08:11:56Z</time>
      </trkpt>
      <trkpt lat="44.55646" lon="3.90976">
        <ele>1076.3</ele>
        <time>2013-05-10T08:12:03Z</time>
      </trkpt>
      <trkpt lat="44.55639" lon="3.90984">
        <ele>1075.6</ele>
        <time>2013-05-10T08:12:14Z</time>
      </trkpt>
      <trkpt lat="44.55636" lon="3.90993">
        <ele>1074.7</ele>
        <time>2013-05-10T08:12:21Z</time>
      </trkpt>
      <trkpt lat="44.55631" lon="3.90999">
        <ele>1074.6</ele>
        <time>2013-05-10T08:12:23Z</time>
      </trkpt>
      <trkpt lat="44.55626" lon="3.91009">
        <ele>1073.8</ele>
        <time>2013-05-10T08:12:30Z</time>
      </trkpt>
      <trkpt lat="44.55627" lon="3.9101">
        <ele>1073.7</ele>
        <time>2013-05-10T08:12:31Z</time>
      </trkpt>
      <trkpt lat="44.55616" lon="3.91023">
        <ele>1072.1</ele>
        <time>2013-05-10T08:12:45Z</time>
      </trkpt>
      <trkpt lat="44.55609" lon="3.91028">
        <ele>1071.7</ele>
        <time>2013-05-10T08:12:50Z</time>
      </trkpt>
      <trkpt lat="44.55602" lon="3.91036">
        <ele>1071.3</ele>
        <time>2013-05-10T08:12:57Z</time>
      </trkpt>
      <trkpt lat="44.55596" lon="3.91044">
        <ele>1070.4</ele>
        <time>2013-05-10T08:13:07Z</time>
      </trkpt>
      <trkpt lat="44.55588" lon="3.91048">
        <ele>1069.8</ele>
        <time>2013-05-10T08:13:15Z</time>
      </trkpt>
      <trkpt lat="44.55581" lon="3.91054">
        <ele>1069.5</ele>
        <time>2013-05-10T08:13:22Z</time>
      </trkpt>
      <trkpt lat="44.55574" lon="3.91061">
        <ele>1068.6</ele>
        <time>2013-05-10T08:13:29Z</time>
      </trkpt>
      <trkpt lat="44.55568" lon="3.91069">
        <ele>1068.2</ele>
        <time>2013-05-10T08:13:35Z</time>
      </trkpt>
      <trkpt lat="44.55565" lon="3.91071">
        <ele>1068</ele>
        <time>2013-05-10T08:13:36Z</time>
      </trkpt>
      <trkpt lat="44.55553" lon="3.91075">
        <ele>1067.5</ele>
        <time>2013-05-10T08:14:02Z</time>
      </trkpt>
      <trkpt lat="44.55545" lon="3.9108">
        <ele>1067.8</ele>
        <time>2013-05-10T08:14:11Z</time>
      </trkpt>
      <trkpt lat="44.5554" lon="3.91087">
        <ele>1067.7</ele>
        <time>2013-05-10T08:14:17Z</time>
      </trkpt>
      <trkpt lat="44.55535" lon="3.91094">
        <ele>1067.6</ele>
        <time>2013-05-10T08:14:19Z</time>
      </trkpt>
      <trkpt lat="44.55531" lon="3.91101">
        <ele>1067.5</ele>
        <time>2013-05-10T08:14:22Z</time>
      </trkpt>
      <trkpt lat="44.55526" lon="3.91106">
        <ele>1066.4</ele>
        <time>2013-05-10T08:14:30Z</time>
      </trkpt>
      <trkpt lat="44.5552" lon="3.91114">
        <ele>1063.2</ele>
        <time>2013-05-10T08:14:47Z</time>
      </trkpt>
      <trkpt lat="44.5552" lon="3.91116">
        <ele>1063.1</ele>
        <time>2013-05-10T08:14:48Z</time>
      </trkpt>
      <trkpt lat="44.55505" lon="3.91126">
        <ele>1061.6</ele>
        <time>2013-05-10T08:15:08Z</time>
      </trkpt>
      <trkpt lat="44.55498" lon="3.91133">
        <ele>1060.6</ele>
        <time>2013-05-10T08:15:18Z</time>
      </trkpt>
      <trkpt lat="44.55489" lon="3.91135">
        <ele>1059.8</ele>
        <time>2013-05-10T08:15:27Z</time>
      </trkpt>
      <trkpt lat="44.55482" lon="3.91141">
        <ele>1058.7</ele>
        <time>2013-05-10T08:15:34Z</time>
      </trkpt>
      <trkpt lat="44.55474" lon="3.91146">
        <ele>1057.8</ele>
        <time>2013-05-10T08:15:41Z</time>
      </trkpt>
      <trkpt lat="44.55466" lon="3.91146">
        <ele>1056.9</ele>
        <time>2013-05-10T08:15:51Z</time>
      </trkpt>
      <trkpt lat="44.55465" lon="3.91147">
        <ele>1056.8</ele>
        <time>2013-05-10T08:15:52Z</time>
      </trkpt>
      <trkpt lat="44.55451" lon="3.91144">
        <ele>1055.9</ele>
        <time>2013-05-10T08:16:03Z</time>
      </trkpt>
      <trkpt lat="44.55445" lon="3.91135">
        <ele>1055.9</ele>
        <time>2013-05-10T08:16:12Z</time>
      </trkpt>
      <trkpt lat="44.55445" lon="3.91123">
        <ele>1055.5</ele>
        <time>2013-05-10T08:16:18Z</time>
      </trkpt>
      <trkpt lat="44.55441" lon="3.91112">
        <ele>1055.2</ele>
        <time>2013-05-10T08:16:25Z</time>
      </trkpt>
      <trkpt lat="44.55442" lon="3.91101">
        <ele>1053.6</ele>
        <time>2013-05-10T08:16:38Z</time>
      </trkpt>
      <trkpt lat="44.55444" lon="3.9109">
        <ele>1052.7</ele>
        <time>2013-05-10T08:16:46Z</time>
      </trkpt>
      <trkpt lat="44.55442" lon="3.91078">
        <ele>1051.8</ele>
        <time>2013-05-10T08:17:02Z</time>
      </trkpt>
      <trkpt lat="44.55441" lon="3.91077">
        <ele>1051.8</ele>
        <time>2013-05-10T08:17:03Z</time>
      </trkpt>
      <trkpt lat="44.55443" lon="3.91054">
        <ele>1051.7</ele>
        <time>2013-05-10T08:17:30Z</time>
      </trkpt>
      <trkpt lat="44.55444" lon="3.91043">
        <ele>1051.5</ele>
        <time>2013-05-10T08:17:37Z</time>
      </trkpt>
      <trkpt lat="44.55447" lon="3.91031">
        <ele>1051.3</ele>
        <time>2013-05-10T08:17:43Z</time>
      </trkpt>
      <trkpt lat="44.55448" lon="3.91019">
        <ele>1051</ele>
        <time>2013-05-10T08:17:51Z</time>
      </trkpt>
      <trkpt lat="44.55445" lon="3.91008">
        <ele>1050.4</ele>
        <time>2013-05-10T08:18:03Z</time>
      </trkpt>
      <trkpt lat="44.55445" lon="3.91006">
        <ele>1050.3</ele>
        <time>2013-05-10T08:18:04Z</time>
      </trkpt>
      <trkpt lat="44.55451" lon="3.90989">
        <ele>1049.3</ele>
        <time>2013-05-10T08:18:18Z</time>
      </trkpt>
      <trkpt lat="44.55452" lon="3.90979">
        <ele>1048.7</ele>
        <time>2013-05-10T08:18:25Z</time>
      </trkpt>
      <trkpt lat="44.55449" lon="3.90969">
        <ele>1047.4</ele>
        <time>2013-05-10T08:18:36Z</time>
      </trkpt>
      <trkpt lat="44.55445" lon="3.90957">
        <ele>1045.9</ele>
        <time>2013-05-10T08:18:44Z</time>
      </trkpt>
      <trkpt lat="44.5544" lon="3.9095">
        <ele>1045.4</ele>
        <time>2013-05-10T08:18:49Z</time>
      </trkpt>
      <trkpt lat="44.55434" lon="3.90944">
        <ele>1045</ele>
        <time>2013-05-10T08:18:53Z</time>
      </trkpt>
      <trkpt lat="44.55427" lon="3.90939">
        <ele>1044.7</ele>
        <time>2013-05-10T08:18:57Z</time>
      </trkpt>
      <trkpt lat="44.55421" lon="3.9093">
        <ele>1044.2</ele>
        <time>2013-05-10T08:19:03Z</time>
      </trkpt>
      <trkpt lat="44.55415" lon="3.90921">
        <ele>1043.5</ele>
        <time>2013-05-10T08:19:09Z</time>
      </trkpt>
      <trkpt lat="44.55414" lon="3.90919">
        <ele>1043.3</ele>
        <time>2013-05-10T08:19:10Z</time>
      </trkpt>
      <trkpt lat="44.55402" lon="3.90905">
        <ele>1041.5</ele>
        <time>2013-05-10T08:19:25Z</time>
      </trkpt>
      <trkpt lat="44.55398" lon="3.90896">
        <ele>1040.6</ele>
        <time>2013-05-10T08:19:34Z</time>
      </trkpt>
      <trkpt lat="44.55391" lon="3.90889">
        <ele>1039.5</ele>
        <time>2013-05-10T08:19:44Z</time>
      </trkpt>
      <trkpt lat="44.55385" lon="3.9088">
        <ele>1038.6</ele>
        <time>2013-05-10T08:19:51Z</time>
      </trkpt>
      <trkpt lat="44.55381" lon="3.90871">
        <ele>1037.2</ele>
        <time>2013-05-10T08:20:00Z</time>
      </trkpt>
      <trkpt lat="44.55376" lon="3.90863">
        <ele>1036.6</ele>
        <time>2013-05-10T08:20:06Z</time>
      </trkpt>
      <trkpt lat="44.55369" lon="3.90857">
        <ele>1036.1</ele>
        <time>2013-05-10T08:20:12Z</time>
      </trkpt>
      <trkpt lat="44.55367" lon="3.90855">
        <ele>1035.9</ele>
        <time>2013-05-10T08:20:13Z</time>
      </trkpt>
      <trkpt lat="44.55355" lon="3.90846">
        <ele>1034.6</ele>
        <time>2013-05-10T08:20:26Z</time>
      </trkpt>
      <trkpt lat="44.55347" lon="3.90843">
        <ele>1033.1</ele>
        <time>2013-05-10T08:20:38Z</time>
      </trkpt>
      <trkpt lat="44.55339" lon="3.90845">
        <ele>1032.5</ele>
        <time>2013-05-10T08:20:43Z</time>
      </trkpt>
      <trkpt lat="44.55331" lon="3.90846">
        <ele>1030.6</ele>
        <time>2013-05-10T08:20:52Z</time>
      </trkpt>
      <trkpt lat="44.55324" lon="3.90853">
        <ele>1029.6</ele>
        <time>2013-05-10T08:20:57Z</time>
      </trkpt>
      <trkpt lat="44.55317" lon="3.90858">
        <ele>1028.6</ele>
        <time>2013-05-10T08:21:02Z</time>
      </trkpt>
      <trkpt lat="44.55309" lon="3.90863">
        <ele>1026.7</ele>
        <time>2013-05-10T08:21:09Z</time>
      </trkpt>
      <trkpt lat="44.55302" lon="3.90869">
        <ele>1025.7</ele>
        <time>2013-05-10T08:21:14Z</time>
      </trkpt>
      <trkpt lat="44.55301" lon="3.9087">
        <ele>1025.5</ele>
        <time>2013-05-10T08:21:15Z</time>
      </trkpt>
      <trkpt lat="44.55286" lon="3.90878">
        <ele>1023</ele>
        <time>2013-05-10T08:21:29Z</time>
      </trkpt>
      <trkpt lat="44.55279" lon="3.90878">
        <ele>1021.3</ele>
        <time>2013-05-10T08:21:39Z</time>
      </trkpt>
      <trkpt lat="44.55271" lon="3.90882">
        <ele>1020</ele>
        <time>2013-05-10T08:21:46Z</time>
      </trkpt>
      <trkpt lat="44.55264" lon="3.90888">
        <ele>1018.9</ele>
        <time>2013-05-10T08:21:54Z</time>
      </trkpt>
      <trkpt lat="44.55257" lon="3.90891">
        <ele>1017.5</ele>
        <time>2013-05-10T08:22:00Z</time>
      </trkpt>
      <trkpt lat="44.5525" lon="3.90896">
        <ele>1016.6</ele>
        <time>2013-05-10T08:22:06Z</time>
      </trkpt>
      <trkpt lat="44.55243" lon="3.909">
        <ele>1014.6</ele>
        <time>2013-05-10T08:22:15Z</time>
      </trkpt>
      <trkpt lat="44.55242" lon="3.90902">
        <ele>1014.3</ele>
        <time>2013-05-10T08:22:16Z</time>
      </trkpt>
      <trkpt lat="44.55228" lon="3.90912">
        <ele>1013.1</ele>
        <time>2013-05-10T08:22:26Z</time>
      </trkpt>
      <trkpt lat="44.55221" lon="3.90917">
        <ele>1012.2</ele>
        <time>2013-05-10T08:22:31Z</time>
      </trkpt>
      <trkpt lat="44.55213" lon="3.90923">
        <ele>1010.9</ele>
        <time>2013-05-10T08:22:37Z</time>
      </trkpt>
      <trkpt lat="44.55205" lon="3.90927">
        <ele>1010.1</ele>
        <time>2013-05-10T08:22:42Z</time>
      </trkpt>
      <trkpt lat="44.55198" lon="3.90935">
        <ele>1008.1</ele>
        <time>2013-05-10T08:22:52Z</time>
      </trkpt>
      <trkpt lat="44.5519" lon="3.9094">
        <ele>1005.9</ele>
        <time>2013-05-10T08:23:03Z</time>
      </trkpt>
      <trkpt lat="44.55183" lon="3.90943">
        <ele>1003.6</ele>
        <time>2013-05-10T08:23:12Z</time>
      </trkpt>
      <trkpt lat="44.55176" lon="3.90949">
        <ele>1002.3</ele>
        <time>2013-05-10T08:23:19Z</time>
      </trkpt>
      <trkpt lat="44.55175" lon="3.9095">
        <ele>1002.1</ele>
        <time>2013-05-10T08:23:20Z</time>
      </trkpt>
      <trkpt lat="44.55161" lon="3.90959">
        <ele>999.7</ele>
        <time>2013-05-10T08:23:36Z</time>
      </trkpt>
      <trkpt lat="44.55154" lon="3.90965">
        <ele>998.9</ele>
        <time>2013-05-10T08:23:43Z</time>
      </trkpt>
      <trkpt lat="44.55146" lon="3.90971">
        <ele>997.8</ele>
        <time>2013-05-10T08:23:52Z</time>
      </trkpt>
      <trkpt lat="44.55138" lon="3.90975">
        <ele>997.1</ele>
        <time>2013-05-10T08:23:57Z</time>
      </trkpt>
      <trkpt lat="44.5513" lon="3.9098">
        <ele>996</ele>
        <time>2013-05-10T08:24:03Z</time>
      </trkpt>
      <trkpt lat="44.55123" lon="3.90986">
        <ele>994.7</ele>
        <time>2013-05-10T08:24:11Z</time>
      </trkpt>
      <trkpt lat="44.55116" lon="3.90993">
        <ele>993.9</ele>
        <time>2013-05-10T08:24:17Z</time>
      </trkpt>
      <trkpt lat="44.55108" lon="3.90995">
        <ele>992</ele>
        <time>2013-05-10T08:24:28Z</time>
      </trkpt>
      <trkpt lat="44.55107" lon="3.90995">
        <ele>991.8</ele>
        <time>2013-05-10T08:24:29Z</time>
      </trkpt>
      <trkpt lat="44.55095" lon="3.91008">
        <ele>989</ele>
        <time>2013-05-10T08:24:43Z</time>
      </trkpt>
      <trkpt lat="44.55089" lon="3.91016">
        <ele>988.3</ele>
        <time>2013-05-10T08:24:47Z</time>
      </trkpt>
      <trkpt lat="44.55082" lon="3.91023">
        <ele>987.1</ele>
        <time>2013-05-10T08:24:52Z</time>
      </trkpt>
      <trkpt lat="44.55076" lon="3.91032">
        <ele>986.5</ele>
        <time>2013-05-10T08:24:56Z</time>
      </trkpt>
      <trkpt lat="44.55068" lon="3.91036">
        <ele>985.1</ele>
        <time>2013-05-10T08:25:04Z</time>
      </trkpt>
      <trkpt lat="44.5506" lon="3.91038">
        <ele>983.8</ele>
        <time>2013-05-10T08:25:12Z</time>
      </trkpt>
      <trkpt lat="44.55052" lon="3.91039">
        <ele>982.3</ele>
        <time>2013-05-10T08:25:26Z</time>
      </trkpt>
      <trkpt lat="44.55044" lon="3.91041">
        <ele>981.9</ele>
        <time>2013-05-10T08:25:35Z</time>
      </trkpt>
      <trkpt lat="44.55043" lon="3.91042">
        <ele>981.9</ele>
        <time>2013-05-10T08:25:36Z</time>
      </trkpt>
      <trkpt lat="44.5503" lon="3.91041">
        <ele>981.2</ele>
        <time>2013-05-10T08:26:08Z</time>
      </trkpt>
      <trkpt lat="44.55024" lon="3.91048">
        <ele>981.1</ele>
        <time>2013-05-10T08:26:09Z</time>
      </trkpt>
      <trkpt lat="44.55021" lon="3.91053">
        <ele>981.1</ele>
        <time>2013-05-10T08:26:11Z</time>
      </trkpt>
      <trkpt lat="44.55015" lon="3.9106">
        <ele>981</ele>
        <time>2013-05-10T08:26:13Z</time>
      </trkpt>
      <trkpt lat="44.55009" lon="3.91067">
        <ele>981</ele>
        <time>2013-05-10T08:26:15Z</time>
      </trkpt>
      <trkpt lat="44.55002" lon="3.91076">
        <ele>980.8</ele>
        <time>2013-05-10T08:26:19Z</time>
      </trkpt>
      <trkpt lat="44.54997" lon="3.91084">
        <ele>980.7</ele>
        <time>2013-05-10T08:26:22Z</time>
      </trkpt>
      <trkpt lat="44.54989" lon="3.91085">
        <ele>980.5</ele>
        <time>2013-05-10T08:26:47Z</time>
      </trkpt>
      <trkpt lat="44.54986" lon="3.91085">
        <ele>980.5</ele>
        <time>2013-05-10T08:26:48Z</time>
      </trkpt>
      <trkpt lat="44.54973" lon="3.91097">
        <ele>980.7</ele>
        <time>2013-05-10T08:27:13Z</time>
      </trkpt>
      <trkpt lat="44.54979" lon="3.91088">
        <ele>980.8</ele>
        <time>2013-05-10T08:27:21Z</time>
      </trkpt>
      <trkpt lat="44.54972" lon="3.91093">
        <ele>981</ele>
        <time>2013-05-10T08:27:26Z</time>
      </trkpt>
      <trkpt lat="44.54967" lon="3.911">
        <ele>981.1</ele>
        <time>2013-05-10T08:27:28Z</time>
      </trkpt>
      <trkpt lat="44.54966" lon="3.91103">
        <ele>981.2</ele>
        <time>2013-05-10T08:27:31Z</time>
      </trkpt>
      <trkpt lat="44.54961" lon="3.9111">
        <ele>981.3</ele>
        <time>2013-05-10T08:27:32Z</time>
      </trkpt>
      <trkpt lat="44.54956" lon="3.91117">
        <ele>981.4</ele>
        <time>2013-05-10T08:27:34Z</time>
      </trkpt>
      <trkpt lat="44.54948" lon="3.91124">
        <ele>981.5</ele>
        <time>2013-05-10T08:27:37Z</time>
      </trkpt>
      <trkpt lat="44.54941" lon="3.9113">
        <ele>981.6</ele>
        <time>2013-05-10T08:27:41Z</time>
      </trkpt>
      <trkpt lat="44.54934" lon="3.91134">
        <ele>981.8</ele>
        <time>2013-05-10T08:27:46Z</time>
      </trkpt>
      <trkpt lat="44.54926" lon="3.91139">
        <ele>982.2</ele>
        <time>2013-05-10T08:28:12Z</time>
      </trkpt>
      <trkpt lat="44.54925" lon="3.9114">
        <ele>982.2</ele>
        <time>2013-05-10T08:28:13Z</time>
      </trkpt>
      <trkpt lat="44.54922" lon="3.91138">
        <ele>978.8</ele>
        <time>2013-05-10T08:28:31Z</time>
      </trkpt>
      <trkpt lat="44.54916" lon="3.91129">
        <ele>976.6</ele>
        <time>2013-05-10T08:28:58Z</time>
      </trkpt>
      <trkpt lat="44.54908" lon="3.91129">
        <ele>975.8</ele>
        <time>2013-05-10T08:29:08Z</time>
      </trkpt>
      <trkpt lat="44.54899" lon="3.91133">
        <ele>974.8</ele>
        <time>2013-05-10T08:29:18Z</time>
      </trkpt>
      <trkpt lat="44.54899" lon="3.91133">
        <ele>974.7</ele>
        <time>2013-05-10T08:29:19Z</time>
      </trkpt>
      <trkpt lat="44.54885" lon="3.91147">
        <ele>973.4</ele>
        <time>2013-05-10T08:29:30Z</time>
      </trkpt>
      <trkpt lat="44.54877" lon="3.91152">
        <ele>973.2</ele>
        <time>2013-05-10T08:29:34Z</time>
      </trkpt>
      <trkpt lat="44.54871" lon="3.91157">
        <ele>972.8</ele>
        <time>2013-05-10T08:29:37Z</time>
      </trkpt>
      <trkpt lat="44.54867" lon="3.9116">
        <ele>972.6</ele>
        <time>2013-05-10T08:29:39Z</time>
      </trkpt>
      <trkpt lat="44.5486" lon="3.91163">
        <ele>972.4</ele>
        <time>2013-05-10T08:29:41Z</time>
      </trkpt>
      <trkpt lat="44.54853" lon="3.9117">
        <ele>972.1</ele>
        <time>2013-05-10T08:29:45Z</time>
      </trkpt>
      <trkpt lat="44.54847" lon="3.91179">
        <ele>971.8</ele>
        <time>2013-05-10T08:29:50Z</time>
      </trkpt>
      <trkpt lat="44.54841" lon="3.91187">
        <ele>971.7</ele>
        <time>2013-05-10T08:30:06Z</time>
      </trkpt>
      <trkpt lat="44.54834" lon="3.91194">
        <ele>971.7</ele>
        <time>2013-05-10T08:30:11Z</time>
      </trkpt>
      <trkpt lat="44.54829" lon="3.91199">
        <ele>971.8</ele>
        <time>2013-05-10T08:30:14Z</time>
      </trkpt>
      <trkpt lat="44.54822" lon="3.91206">
        <ele>971.7</ele>
        <time>2013-05-10T08:30:18Z</time>
      </trkpt>
      <trkpt lat="44.54817" lon="3.91212">
        <ele>971.7</ele>
        <time>2013-05-10T08:30:21Z</time>
      </trkpt>
      <trkpt lat="44.54815" lon="3.91214">
        <ele>971.7</ele>
        <time>2013-05-10T08:30:22Z</time>
      </trkpt>
      <trkpt lat="44.54805" lon="3.91226">
        <ele>972</ele>
        <time>2013-05-10T08:30:33Z</time>
      </trkpt>
      <trkpt lat="44.54796" lon="3.91227">
        <ele>972.1</ele>
        <time>2013-05-10T08:30:46Z</time>
      </trkpt>
      <trkpt lat="44.54789" lon="3.91234">
        <ele>972</ele>
        <time>2013-05-10T08:30:50Z</time>
      </trkpt>
      <trkpt lat="44.54783" lon="3.91239">
        <ele>971.9</ele>
        <time>2013-05-10T08:30:53Z</time>
      </trkpt>
      <trkpt lat="44.54776" lon="3.91246">
        <ele>971.8</ele>
        <time>2013-05-10T08:30:56Z</time>
      </trkpt>
      <trkpt lat="44.54769" lon="3.91252">
        <ele>971.8</ele>
        <time>2013-05-10T08:30:59Z</time>
      </trkpt>
      <trkpt lat="44.54762" lon="3.9126">
        <ele>971.7</ele>
        <time>2013-05-10T08:31:03Z</time>
      </trkpt>
      <trkpt lat="44.54754" lon="3.91263">
        <ele>971.3</ele>
        <time>2013-05-10T08:31:15Z</time>
      </trkpt>
      <trkpt lat="44.54745" lon="3.91265">
        <ele>971</ele>
        <time>2013-05-10T08:31:27Z</time>
      </trkpt>
      <trkpt lat="44.54744" lon="3.91266">
        <ele>971</ele>
        <time>2013-05-10T08:31:28Z</time>
      </trkpt>
      <trkpt lat="44.54731" lon="3.91276">
        <ele>970.5</ele>
        <time>2013-05-10T08:31:37Z</time>
      </trkpt>
      <trkpt lat="44.54724" lon="3.91284">
        <ele>970.3</ele>
        <time>2013-05-10T08:31:45Z</time>
      </trkpt>
      <trkpt lat="44.54721" lon="3.91295">
        <ele>968.8</ele>
        <time>2013-05-10T08:31:55Z</time>
      </trkpt>
      <trkpt lat="44.54713" lon="3.91291">
        <ele>964.3</ele>
        <time>2013-05-10T08:32:06Z</time>
      </trkpt>
      <trkpt lat="44.54706" lon="3.91293">
        <ele>962.4</ele>
        <time>2013-05-10T08:32:13Z</time>
      </trkpt>
      <trkpt lat="44.54698" lon="3.91296">
        <ele>961.2</ele>
        <time>2013-05-10T08:32:18Z</time>
      </trkpt>
      <trkpt lat="44.5469" lon="3.91298">
        <ele>960.3</ele>
        <time>2013-05-10T08:32:24Z</time>
      </trkpt>
      <trkpt lat="44.54682" lon="3.91304">
        <ele>959.2</ele>
        <time>2013-05-10T08:32:30Z</time>
      </trkpt>
      <trkpt lat="44.54681" lon="3.91304">
        <ele>959.1</ele>
        <time>2013-05-10T08:32:31Z</time>
      </trkpt>
      <trkpt lat="44.54667" lon="3.91315">
        <ele>957.7</ele>
        <time>2013-05-10T08:32:40Z</time>
      </trkpt>
      <trkpt lat="44.5466" lon="3.91319">
        <ele>956.3</ele>
        <time>2013-05-10T08:32:47Z</time>
      </trkpt>
      <trkpt lat="44.54652" lon="3.91324">
        <ele>954.4</ele>
        <time>2013-05-10T08:32:55Z</time>
      </trkpt>
      <trkpt lat="44.54643" lon="3.91327">
        <ele>952</ele>
        <time>2013-05-10T08:33:04Z</time>
      </trkpt>
      <trkpt lat="44.54636" lon="3.91333">
        <ele>949.2</ele>
        <time>2013-05-10T08:33:24Z</time>
      </trkpt>
      <trkpt lat="44.54627" lon="3.91335">
        <ele>949.1</ele>
        <time>2013-05-10T08:33:28Z</time>
      </trkpt>
      <trkpt lat="44.54621" lon="3.9134">
        <ele>948.6</ele>
        <time>2013-05-10T08:33:35Z</time>
      </trkpt>
      <trkpt lat="44.54619" lon="3.91342">
        <ele>948.5</ele>
        <time>2013-05-10T08:33:36Z</time>
      </trkpt>
      <trkpt lat="44.54604" lon="3.91346">
        <ele>947.4</ele>
        <time>2013-05-10T08:33:57Z</time>
      </trkpt>
      <trkpt lat="44.54596" lon="3.91349">
        <ele>947.7</ele>
        <time>2013-05-10T08:34:02Z</time>
      </trkpt>
      <trkpt lat="44.54588" lon="3.91354">
        <ele>947.7</ele>
        <time>2013-05-10T08:34:06Z</time>
      </trkpt>
      <trkpt lat="44.54583" lon="3.91358">
        <ele>947.6</ele>
        <time>2013-05-10T08:34:08Z</time>
      </trkpt>
      <trkpt lat="44.54575" lon="3.91361">
        <ele>947.5</ele>
        <time>2013-05-10T08:34:11Z</time>
      </trkpt>
      <trkpt lat="44.54567" lon="3.91367">
        <ele>947.2</ele>
        <time>2013-05-10T08:34:15Z</time>
      </trkpt>
      <trkpt lat="44.54562" lon="3.91373">
        <ele>946.7</ele>
        <time>2013-05-10T08:34:19Z</time>
      </trkpt>
      <trkpt lat="44.54555" lon="3.91382">
        <ele>946.4</ele>
        <time>2013-05-10T08:34:26Z</time>
      </trkpt>
      <trkpt lat="44.54549" lon="3.91373">
        <ele>946.1</ele>
        <time>2013-05-10T08:34:46Z</time>
      </trkpt>
      <trkpt lat="44.54547" lon="3.91374">
        <ele>946</ele>
        <time>2013-05-10T08:34:47Z</time>
      </trkpt>
      <trkpt lat="44.54533" lon="3.91379">
        <ele>945.6</ele>
        <time>2013-05-10T08:35:07Z</time>
      </trkpt>
      <trkpt lat="44.54526" lon="3.91384">
        <ele>946</ele>
        <time>2013-05-10T08:35:19Z</time>
      </trkpt>
      <trkpt lat="44.54519" lon="3.91389">
        <ele>945.9</ele>
        <time>2013-05-10T08:35:23Z</time>
      </trkpt>
      <trkpt lat="44.54513" lon="3.91396">
        <ele>945.8</ele>
        <time>2013-05-10T08:35:27Z</time>
      </trkpt>
      <trkpt lat="44.54507" lon="3.91402">
        <ele>946</ele>
        <time>2013-05-10T08:35:34Z</time>
      </trkpt>
      <trkpt lat="44.54498" lon="3.91402">
        <ele>945.8</ele>
        <time>2013-05-10T08:35:41Z</time>
      </trkpt>
      <trkpt lat="44.54495" lon="3.91391">
        <ele>945.8</ele>
        <time>2013-05-10T08:35:59Z</time>
      </trkpt>
      <trkpt lat="44.54493" lon="3.91391">
        <ele>945.8</ele>
        <time>2013-05-10T08:36:00Z</time>
      </trkpt>
      <trkpt lat="44.54481" lon="3.91401">
        <ele>945.7</ele>
        <time>2013-05-10T08:36:28Z</time>
      </trkpt>
      <trkpt lat="44.54484" lon="3.91412">
        <ele>945.6</ele>
        <time>2013-05-10T08:36:37Z</time>
      </trkpt>
      <trkpt lat="44.54485" lon="3.91424">
        <ele>945.6</ele>
        <time>2013-05-10T08:36:46Z</time>
      </trkpt>
      <trkpt lat="44.54484" lon="3.91436">
        <ele>945.6</ele>
        <time>2013-05-10T08:36:57Z</time>
      </trkpt>
      <trkpt lat="44.54477" lon="3.91442">
        <ele>945.5</ele>
        <time>2013-05-10T08:37:12Z</time>
      </trkpt>
      <trkpt lat="44.54476" lon="3.91445">
        <ele>945.5</ele>
        <time>2013-05-10T08:37:13Z</time>
      </trkpt>
      <trkpt lat="44.54466" lon="3.91456">
        <ele>945.3</ele>
        <time>2013-05-10T08:37:18Z</time>
      </trkpt>
      <trkpt lat="44.54461" lon="3.91461">
        <ele>945.3</ele>
        <time>2013-05-10T08:37:20Z</time>
      </trkpt>
      <trkpt lat="44.54456" lon="3.91471">
        <ele>945.1</ele>
        <time>2013-05-10T08:37:25Z</time>
      </trkpt>
      <trkpt lat="44.5445" lon="3.91481">
        <ele>945</ele>
        <time>2013-05-10T08:37:35Z</time>
      </trkpt>
      <trkpt lat="44.54445" lon="3.91491">
        <ele>944.9</ele>
        <time>2013-05-10T08:37:40Z</time>
      </trkpt>
      <trkpt lat="44.54441" lon="3.91498">
        <ele>944.8</ele>
        <time>2013-05-10T08:37:47Z</time>
      </trkpt>
      <trkpt lat="44.54438" lon="3.91509">
        <ele>944.8</ele>
        <time>2013-05-10T08:37:51Z</time>
      </trkpt>
      <trkpt lat="44.54433" lon="3.91518">
        <ele>944.7</ele>
        <time>2013-05-10T08:37:55Z</time>
      </trkpt>
      <trkpt lat="44.54428" lon="3.91527">
        <ele>944.4</ele>
        <time>2013-05-10T08:38:02Z</time>
      </trkpt>
      <trkpt lat="44.54421" lon="3.91534">
        <ele>944.1</ele>
        <time>2013-05-10T08:38:07Z</time>
      </trkpt>
      <trkpt lat="44.54419" lon="3.91546">
        <ele>944.6</ele>
        <time>2013-05-10T08:38:57Z</time>
      </trkpt>
      <trkpt lat="44.54418" lon="3.91546">
        <ele>944.6</ele>
        <time>2013-05-10T08:38:58Z</time>
      </trkpt>
      <trkpt lat="44.54412" lon="3.91569">
        <ele>944.9</ele>
        <time>2013-05-10T08:39:20Z</time>
      </trkpt>
      <trkpt lat="44.54407" lon="3.91579">
        <ele>945</ele>
        <time>2013-05-10T08:39:30Z</time>
      </trkpt>
      <trkpt lat="44.54402" lon="3.91585">
        <ele>945</ele>
        <time>2013-05-10T08:39:35Z</time>
      </trkpt>
      <trkpt lat="44.54396" lon="3.91592">
        <ele>944.9</ele>
        <time>2013-05-10T08:39:41Z</time>
      </trkpt>
      <trkpt lat="44.54389" lon="3.91598">
        <ele>945.5</ele>
        <time>2013-05-10T08:39:50Z</time>
      </trkpt>
      <trkpt lat="44.54383" lon="3.91605">
        <ele>945.4</ele>
        <time>2013-05-10T08:39:55Z</time>
      </trkpt>
      <trkpt lat="44.54377" lon="3.91614">
        <ele>945.4</ele>
        <time>2013-05-10T08:40:05Z</time>
      </trkpt>
      <trkpt lat="44.54376" lon="3.91614">
        <ele>945.4</ele>
        <time>2013-05-10T08:40:06Z</time>
      </trkpt>
      <trkpt lat="44.54364" lon="3.91624">
        <ele>946.1</ele>
        <time>2013-05-10T08:40:31Z</time>
      </trkpt>
      <trkpt lat="44.54361" lon="3.91632">
        <ele>945.8</ele>
        <time>2013-05-10T08:40:44Z</time>
      </trkpt>
      <trkpt lat="44.54355" lon="3.91639">
        <ele>945.5</ele>
        <time>2013-05-10T08:40:47Z</time>
      </trkpt>
      <trkpt lat="44.54348" lon="3.91647">
        <ele>945.5</ele>
        <time>2013-05-10T08:40:54Z</time>
      </trkpt>
      <trkpt lat="44.54342" lon="3.91654">
        <ele>945.3</ele>
        <time>2013-05-10T08:40:59Z</time>
      </trkpt>
      <trkpt lat="44.54336" lon="3.91659">
        <ele>945.3</ele>
        <time>2013-05-10T08:41:04Z</time>
      </trkpt>
      <trkpt lat="44.5433" lon="3.91667">
        <ele>944.8</ele>
        <time>2013-05-10T08:41:12Z</time>
      </trkpt>
      <trkpt lat="44.54329" lon="3.91668">
        <ele>944.8</ele>
        <time>2013-05-10T08:41:13Z</time>
      </trkpt>
      <trkpt lat="44.54316" lon="3.91678">
        <ele>944.4</ele>
        <time>2013-05-10T08:41:24Z</time>
      </trkpt>
      <trkpt lat="44.54309" lon="3.91683">
        <ele>944.2</ele>
        <time>2013-05-10T08:41:29Z</time>
      </trkpt>
      <trkpt lat="44.54302" lon="3.91689">
        <ele>944.7</ele>
        <time>2013-05-10T08:41:34Z</time>
      </trkpt>
      <trkpt lat="44.54293" lon="3.91693">
        <ele>945.5</ele>
        <time>2013-05-10T08:41:39Z</time>
      </trkpt>
      <trkpt lat="44.54286" lon="3.917">
        <ele>945.3</ele>
        <time>2013-05-10T08:41:46Z</time>
      </trkpt>
      <trkpt lat="44.54279" lon="3.91706">
        <ele>945.5</ele>
        <time>2013-05-10T08:41:54Z</time>
      </trkpt>
      <trkpt lat="44.54272" lon="3.91711">
        <ele>946.2</ele>
        <time>2013-05-10T08:42:01Z</time>
      </trkpt>
      <trkpt lat="44.54264" lon="3.91713">
        <ele>948.7</ele>
        <time>2013-05-10T08:42:36Z</time>
      </trkpt>
      <trkpt lat="44.54262" lon="3.91711">
        <ele>949.2</ele>
        <time>2013-05-10T08:42:37Z</time>
      </trkpt>
      <trkpt lat="44.54247" lon="3.91714">
        <ele>950.3</ele>
        <time>2013-05-10T08:42:49Z</time>
      </trkpt>
      <trkpt lat="44.5424" lon="3.91715">
        <ele>950.6</ele>
        <time>2013-05-10T08:42:55Z</time>
      </trkpt>
      <trkpt lat="44.54233" lon="3.91715">
        <ele>950.4</ele>
        <time>2013-05-10T08:43:00Z</time>
      </trkpt>
      <trkpt lat="44.54224" lon="3.91719">
        <ele>950</ele>
        <time>2013-05-10T08:43:08Z</time>
      </trkpt>
      <trkpt lat="44.54216" lon="3.91725">
        <ele>949.7</ele>
        <time>2013-05-10T08:43:24Z</time>
      </trkpt>
      <trkpt lat="44.54209" lon="3.91731">
        <ele>949.4</ele>
        <time>2013-05-10T08:43:29Z</time>
      </trkpt>
      <trkpt lat="44.542" lon="3.91733">
        <ele>948.4</ele>
        <time>2013-05-10T08:43:44Z</time>
      </trkpt>
      <trkpt lat="44.54199" lon="3.91734">
        <ele>948.4</ele>
        <time>2013-05-10T08:43:45Z</time>
      </trkpt>
      <trkpt lat="44.5419" lon="3.91751">
        <ele>948.4</ele>
        <time>2013-05-10T08:44:00Z</time>
      </trkpt>
      <trkpt lat="44.54183" lon="3.91758">
        <ele>948.1</ele>
        <time>2013-05-10T08:44:09Z</time>
      </trkpt>
      <trkpt lat="44.54176" lon="3.91751">
        <ele>947.5</ele>
        <time>2013-05-10T08:44:32Z</time>
      </trkpt>
      <trkpt lat="44.54167" lon="3.9175">
        <ele>947.5</ele>
        <time>2013-05-10T08:44:37Z</time>
      </trkpt>
      <trkpt lat="44.54159" lon="3.91747">
        <ele>947.3</ele>
        <time>2013-05-10T08:44:42Z</time>
      </trkpt>
      <trkpt lat="44.5415" lon="3.9175">
        <ele>946.9</ele>
        <time>2013-05-10T08:44:48Z</time>
      </trkpt>
      <trkpt lat="44.54149" lon="3.9175">
        <ele>946.8</ele>
        <time>2013-05-10T08:44:49Z</time>
      </trkpt>
      <trkpt lat="44.54137" lon="3.91753">
        <ele>946.2</ele>
        <time>2013-05-10T08:44:58Z</time>
      </trkpt>
      <trkpt lat="44.54129" lon="3.91753">
        <ele>946.6</ele>
        <time>2013-05-10T08:45:04Z</time>
      </trkpt>
      <trkpt lat="44.54121" lon="3.91754">
        <ele>946.5</ele>
        <time>2013-05-10T08:45:11Z</time>
      </trkpt>
      <trkpt lat="44.54113" lon="3.91757">
        <ele>946.6</ele>
        <time>2013-05-10T08:45:17Z</time>
      </trkpt>
      <trkpt lat="44.54105" lon="3.91762">
        <ele>946.3</ele>
        <time>2013-05-10T08:45:23Z</time>
      </trkpt>
      <trkpt lat="44.54097" lon="3.91767">
        <ele>946.2</ele>
        <time>2013-05-10T08:45:33Z</time>
      </trkpt>
      <trkpt lat="44.54088" lon="3.91772">
        <ele>945.8</ele>
        <time>2013-05-10T08:45:42Z</time>
      </trkpt>
      <trkpt lat="44.5408" lon="3.91771">
        <ele>945.4</ele>
        <time>2013-05-10T08:45:49Z</time>
      </trkpt>
      <trkpt lat="44.54078" lon="3.91772">
        <ele>945.3</ele>
        <time>2013-05-10T08:45:50Z</time>
      </trkpt>
      <trkpt lat="44.54063" lon="3.91778">
        <ele>946.3</ele>
        <time>2013-05-10T08:46:01Z</time>
      </trkpt>
      <trkpt lat="44.54055" lon="3.91778">
        <ele>946.3</ele>
        <time>2013-05-10T08:46:11Z</time>
      </trkpt>
      <trkpt lat="44.54048" lon="3.91781">
        <ele>946.1</ele>
        <time>2013-05-10T08:46:15Z</time>
      </trkpt>
      <trkpt lat="44.5404" lon="3.91788">
        <ele>946.1</ele>
        <time>2013-05-10T08:46:21Z</time>
      </trkpt>
      <trkpt lat="44.54031" lon="3.91791">
        <ele>945.9</ele>
        <time>2013-05-10T08:46:31Z</time>
      </trkpt>
      <trkpt lat="44.54023" lon="3.91795">
        <ele>946.2</ele>
        <time>2013-05-10T08:46:38Z</time>
      </trkpt>
      <trkpt lat="44.54016" lon="3.91799">
        <ele>946.6</ele>
        <time>2013-05-10T08:46:43Z</time>
      </trkpt>
      <trkpt lat="44.54007" lon="3.91801">
        <ele>947</ele>
        <time>2013-05-10T08:46:56Z</time>
      </trkpt>
      <trkpt lat="44.54006" lon="3.91802">
        <ele>947</ele>
        <time>2013-05-10T08:46:57Z</time>
      </trkpt>
      <trkpt lat="44.53992" lon="3.91807">
        <ele>947.4</ele>
        <time>2013-05-10T08:47:10Z</time>
      </trkpt>
      <trkpt lat="44.53984" lon="3.91813">
        <ele>947.6</ele>
        <time>2013-05-10T08:47:14Z</time>
      </trkpt>
      <trkpt lat="44.53976" lon="3.91818">
        <ele>947.8</ele>
        <time>2013-05-10T08:47:19Z</time>
      </trkpt>
      <trkpt lat="44.53968" lon="3.91822">
        <ele>947.9</ele>
        <time>2013-05-10T08:47:24Z</time>
      </trkpt>
      <trkpt lat="44.5396" lon="3.91825">
        <ele>948.3</ele>
        <time>2013-05-10T08:47:32Z</time>
      </trkpt>
      <trkpt lat="44.53953" lon="3.9183">
        <ele>948.4</ele>
        <time>2013-05-10T08:47:37Z</time>
      </trkpt>
      <trkpt lat="44.53944" lon="3.91834">
        <ele>948.7</ele>
        <time>2013-05-10T08:47:47Z</time>
      </trkpt>
      <trkpt lat="44.53936" lon="3.91836">
        <ele>948.8</ele>
        <time>2013-05-10T08:47:55Z</time>
      </trkpt>
      <trkpt lat="44.5393" lon="3.91844">
        <ele>949.1</ele>
        <time>2013-05-10T08:48:05Z</time>
      </trkpt>
      <trkpt lat="44.53928" lon="3.91845">
        <ele>949.1</ele>
        <time>2013-05-10T08:48:06Z</time>
      </trkpt>
      <trkpt lat="44.53915" lon="3.91856">
        <ele>949</ele>
        <time>2013-05-10T08:48:21Z</time>
      </trkpt>
      <trkpt lat="44.53909" lon="3.91864">
        <ele>948.5</ele>
        <time>2013-05-10T08:48:28Z</time>
      </trkpt>
      <trkpt lat="44.53902" lon="3.91868">
        <ele>948.4</ele>
        <time>2013-05-10T08:48:36Z</time>
      </trkpt>
      <trkpt lat="44.53895" lon="3.91875">
        <ele>948.6</ele>
        <time>2013-05-10T08:48:43Z</time>
      </trkpt>
      <trkpt lat="44.53888" lon="3.91882">
        <ele>948.4</ele>
        <time>2013-05-10T08:48:47Z</time>
      </trkpt>
      <trkpt lat="44.53881" lon="3.91887">
        <ele>948.2</ele>
        <time>2013-05-10T08:48:54Z</time>
      </trkpt>
      <trkpt lat="44.53874" lon="3.91891">
        <ele>947.7</ele>
        <time>2013-05-10T08:49:11Z</time>
      </trkpt>
      <trkpt lat="44.53871" lon="3.91896">
        <ele>947.8</ele>
        <time>2013-05-10T08:49:12Z</time>
      </trkpt>
      <trkpt lat="44.53864" lon="3.919">
        <ele>948.2</ele>
        <time>2013-05-10T08:49:15Z</time>
      </trkpt>
      <trkpt lat="44.53856" lon="3.91905">
        <ele>948.1</ele>
        <time>2013-05-10T08:49:17Z</time>
      </trkpt>
      <trkpt lat="44.53849" lon="3.91911">
        <ele>948.1</ele>
        <time>2013-05-10T08:49:21Z</time>
      </trkpt>
      <trkpt lat="44.53842" lon="3.91919">
        <ele>948.2</ele>
        <time>2013-05-10T08:49:28Z</time>
      </trkpt>
      <trkpt lat="44.53837" lon="3.91925">
        <ele>948.1</ele>
        <time>2013-05-10T08:49:39Z</time>
      </trkpt>
      <trkpt lat="44.53829" lon="3.9193">
        <ele>948</ele>
        <time>2013-05-10T08:49:44Z</time>
      </trkpt>
      <trkpt lat="44.53822" lon="3.91938">
        <ele>948.4</ele>
        <time>2013-05-10T08:49:51Z</time>
      </trkpt>
      <trkpt lat="44.53814" lon="3.91943">
        <ele>948.3</ele>
        <time>2013-05-10T08:50:09Z</time>
      </trkpt>
      <trkpt lat="44.53807" lon="3.91948">
        <ele>948.1</ele>
        <time>2013-05-10T08:50:18Z</time>
      </trkpt>
      <trkpt lat="44.53806" lon="3.91948">
        <ele>948.1</ele>
        <time>2013-05-10T08:50:19Z</time>
      </trkpt>
      <trkpt lat="44.53791" lon="3.91948">
        <ele>948.3</ele>
        <time>2013-05-10T08:50:29Z</time>
      </trkpt>
      <trkpt lat="44.53783" lon="3.91946">
        <ele>947.8</ele>
        <time>2013-05-10T08:50:35Z</time>
      </trkpt>
      <trkpt lat="44.53775" lon="3.91948">
        <ele>947.4</ele>
        <time>2013-05-10T08:50:39Z</time>
      </trkpt>
      <trkpt lat="44.53766" lon="3.91949">
        <ele>947.4</ele>
        <time>2013-05-10T08:50:44Z</time>
      </trkpt>
      <trkpt lat="44.53758" lon="3.91949">
        <ele>947.3</ele>
        <time>2013-05-10T08:50:51Z</time>
      </trkpt>
      <trkpt lat="44.53749" lon="3.9195">
        <ele>947.1</ele>
        <time>2013-05-10T08:50:59Z</time>
      </trkpt>
      <trkpt lat="44.53742" lon="3.91944">
        <ele>947.5</ele>
        <time>2013-05-10T08:51:07Z</time>
      </trkpt>
      <trkpt lat="44.53734" lon="3.91939">
        <ele>947.3</ele>
        <time>2013-05-10T08:51:14Z</time>
      </trkpt>
      <trkpt lat="44.53727" lon="3.91942">
        <ele>947.2</ele>
        <time>2013-05-10T08:51:21Z</time>
      </trkpt>
      <trkpt lat="44.53725" lon="3.91943">
        <ele>947.2</ele>
        <time>2013-05-10T08:51:22Z</time>
      </trkpt>
      <trkpt lat="44.53712" lon="3.91937">
        <ele>947.3</ele>
        <time>2013-05-10T08:51:33Z</time>
      </trkpt>
      <trkpt lat="44.53703" lon="3.91936">
        <ele>947.4</ele>
        <time>2013-05-10T08:51:40Z</time>
      </trkpt>
      <trkpt lat="44.53694" lon="3.91939">
        <ele>947.1</ele>
        <time>2013-05-10T08:51:51Z</time>
      </trkpt>
      <trkpt lat="44.53688" lon="3.91932">
        <ele>946.6</ele>
        <time>2013-05-10T08:52:00Z</time>
      </trkpt>
      <trkpt lat="44.53681" lon="3.9193">
        <ele>946.6</ele>
        <time>2013-05-10T08:52:04Z</time>
      </trkpt>
      <trkpt lat="44.53672" lon="3.91933">
        <ele>946.5</ele>
        <time>2013-05-10T08:52:08Z</time>
      </trkpt>
      <trkpt lat="44.53665" lon="3.9193">
        <ele>946.6</ele>
        <time>2013-05-10T08:52:17Z</time>
      </trkpt>
      <trkpt lat="44.53657" lon="3.91926">
        <ele>946.6</ele>
        <time>2013-05-10T08:52:29Z</time>
      </trkpt>
      <trkpt lat="44.53656" lon="3.91925">
        <ele>946.7</ele>
        <time>2013-05-10T08:52:30Z</time>
      </trkpt>
      <trkpt lat="44.53644" lon="3.91916">
        <ele>946.8</ele>
        <time>2013-05-10T08:52:53Z</time>
      </trkpt>
      <trkpt lat="44.53636" lon="3.91921">
        <ele>947</ele>
        <time>2013-05-10T08:53:00Z</time>
      </trkpt>
      <trkpt lat="44.53629" lon="3.91927">
        <ele>947.2</ele>
        <time>2013-05-10T08:53:11Z</time>
      </trkpt>
      <trkpt lat="44.53627" lon="3.91916">
        <ele>947.4</ele>
        <time>2013-05-10T08:53:18Z</time>
      </trkpt>
      <trkpt lat="44.53619" lon="3.91916">
        <ele>947.8</ele>
        <time>2013-05-10T08:53:28Z</time>
      </trkpt>
      <trkpt lat="44.53611" lon="3.91917">
        <ele>947.4</ele>
        <time>2013-05-10T08:53:35Z</time>
      </trkpt>
      <trkpt lat="44.53608" lon="3.91917">
        <ele>947.3</ele>
        <time>2013-05-10T08:53:36Z</time>
      </trkpt>
      <trkpt lat="44.53596" lon="3.91913">
        <ele>947.2</ele>
        <time>2013-05-10T08:53:47Z</time>
      </trkpt>
      <trkpt lat="44.53587" lon="3.91914">
        <ele>947</ele>
        <time>2013-05-10T08:53:52Z</time>
      </trkpt>
      <trkpt lat="44.53579" lon="3.91914">
        <ele>946.6</ele>
        <time>2013-05-10T08:54:00Z</time>
      </trkpt>
      <trkpt lat="44.53571" lon="3.91913">
        <ele>946.3</ele>
        <time>2013-05-10T08:54:09Z</time>
      </trkpt>
      <trkpt lat="44.53563" lon="3.91917">
        <ele>946.1</ele>
        <time>2013-05-10T08:54:14Z</time>
      </trkpt>
      <trkpt lat="44.53554" lon="3.91922">
        <ele>946</ele>
        <time>2013-05-10T08:54:22Z</time>
      </trkpt>
      <trkpt lat="44.53546" lon="3.91924">
        <ele>945.8</ele>
        <time>2013-05-10T08:54:29Z</time>
      </trkpt>
      <trkpt lat="44.53538" lon="3.91921">
        <ele>945.6</ele>
        <time>2013-05-10T08:54:33Z</time>
      </trkpt>
      <trkpt lat="44.53531" lon="3.91921">
        <ele>945.4</ele>
        <time>2013-05-10T08:54:38Z</time>
      </trkpt>
      <trkpt lat="44.53529" lon="3.91922">
        <ele>945.4</ele>
        <time>2013-05-10T08:54:39Z</time>
      </trkpt>
      <trkpt lat="44.53514" lon="3.91929">
        <ele>945.9</ele>
        <time>2013-05-10T08:54:56Z</time>
      </trkpt>
      <trkpt lat="44.5351" lon="3.91928">
        <ele>945.7</ele>
        <time>2013-05-10T08:55:24Z</time>
      </trkpt>
      <trkpt lat="44.53503" lon="3.91924">
        <ele>944.6</ele>
        <time>2013-05-10T08:55:27Z</time>
      </trkpt>
      <trkpt lat="44.53495" lon="3.91924">
        <ele>943.7</ele>
        <time>2013-05-10T08:55:32Z</time>
      </trkpt>
      <trkpt lat="44.53487" lon="3.91931">
        <ele>941.6</ele>
        <time>2013-05-10T08:55:40Z</time>
      </trkpt>
      <trkpt lat="44.53487" lon="3.91931">
        <ele>941.4</ele>
        <time>2013-05-10T08:55:41Z</time>
      </trkpt>
      <trkpt lat="44.53473" lon="3.91939">
        <ele>941.2</ele>
        <time>2013-05-10T08:56:05Z</time>
      </trkpt>
      <trkpt lat="44.53466" lon="3.91941">
        <ele>942.5</ele>
        <time>2013-05-10T08:56:13Z</time>
      </trkpt>
      <trkpt lat="44.53458" lon="3.91946">
        <ele>942.4</ele>
        <time>2013-05-10T08:56:22Z</time>
      </trkpt>
      <trkpt lat="44.5345" lon="3.91948">
        <ele>943.9</ele>
        <time>2013-05-10T08:56:33Z</time>
      </trkpt>
      <trkpt lat="44.53444" lon="3.91957">
        <ele>945.7</ele>
        <time>2013-05-10T08:56:47Z</time>
      </trkpt>
      <trkpt lat="44.53441" lon="3.91959">
        <ele>945.9</ele>
        <time>2013-05-10T08:56:48Z</time>
      </trkpt>
      <trkpt lat="44.5343" lon="3.91961">
        <ele>947.1</ele>
        <time>2013-05-10T08:57:02Z</time>
      </trkpt>
      <trkpt lat="44.53423" lon="3.91967">
        <ele>947.9</ele>
        <time>2013-05-10T08:57:12Z</time>
      </trkpt>
      <trkpt lat="44.53416" lon="3.91971">
        <ele>948.2</ele>
        <time>2013-05-10T08:57:26Z</time>
      </trkpt>
      <trkpt lat="44.5341" lon="3.91979">
        <ele>948.2</ele>
        <time>2013-05-10T08:57:31Z</time>
      </trkpt>
      <trkpt lat="44.53403" lon="3.91983">
        <ele>948.4</ele>
        <time>2013-05-10T08:57:37Z</time>
      </trkpt>
      <trkpt lat="44.53395" lon="3.91988">
        <ele>948.4</ele>
        <time>2013-05-10T08:57:40Z</time>
      </trkpt>
      <trkpt lat="44.53387" lon="3.91992">
        <ele>948.3</ele>
        <time>2013-05-10T08:57:46Z</time>
      </trkpt>
      <trkpt lat="44.53379" lon="3.91996">
        <ele>948</ele>
        <time>2013-05-10T08:57:55Z</time>
      </trkpt>
      <trkpt lat="44.53378" lon="3.91996">
        <ele>947.9</ele>
        <time>2013-05-10T08:57:56Z</time>
      </trkpt>
      <trkpt lat="44.53362" lon="3.92002">
        <ele>947.3</ele>
        <time>2013-05-10T08:58:09Z</time>
      </trkpt>
      <trkpt lat="44.53354" lon="3.92004">
        <ele>947.2</ele>
        <time>2013-05-10T08:58:15Z</time>
      </trkpt>
      <trkpt lat="44.53346" lon="3.92009">
        <ele>947.1</ele>
        <time>2013-05-10T08:58:22Z</time>
      </trkpt>
      <trkpt lat="44.53338" lon="3.92014">
        <ele>946.9</ele>
        <time>2013-05-10T08:58:50Z</time>
      </trkpt>
      <trkpt lat="44.53333" lon="3.92021">
        <ele>946.3</ele>
        <time>2013-05-10T08:59:00Z</time>
      </trkpt>
      <trkpt lat="44.5333" lon="3.92024">
        <ele>946.1</ele>
        <time>2013-05-10T08:59:01Z</time>
      </trkpt>
      <trkpt lat="44.53321" lon="3.92029">
        <ele>945.9</ele>
        <time>2013-05-10T08:59:06Z</time>
      </trkpt>
      <trkpt lat="44.53314" lon="3.92035">
        <ele>945.6</ele>
        <time>2013-05-10T08:59:09Z</time>
      </trkpt>
      <trkpt lat="44.53307" lon="3.92039">
        <ele>945.3</ele>
        <time>2013-05-10T08:59:13Z</time>
      </trkpt>
      <trkpt lat="44.53302" lon="3.92041">
        <ele>945.1</ele>
        <time>2013-05-10T08:59:17Z</time>
      </trkpt>
      <trkpt lat="44.53294" lon="3.92047">
        <ele>945</ele>
        <time>2013-05-10T08:59:21Z</time>
      </trkpt>
      <trkpt lat="44.53289" lon="3.92056">
        <ele>944.4</ele>
        <time>2013-05-10T08:59:37Z</time>
      </trkpt>
      <trkpt lat="44.53285" lon="3.92065">
        <ele>944</ele>
        <time>2013-05-10T08:59:48Z</time>
      </trkpt>
      <trkpt lat="44.53285" lon="3.92073">
        <ele>943.7</ele>
        <time>2013-05-10T08:59:49Z</time>
      </trkpt>
      <trkpt lat="44.5328" lon="3.92083">
        <ele>943.2</ele>
        <time>2013-05-10T08:59:51Z</time>
      </trkpt>
      <trkpt lat="44.53277" lon="3.92093">
        <ele>942.7</ele>
        <time>2013-05-10T08:59:56Z</time>
      </trkpt>
      <trkpt lat="44.53278" lon="3.92105">
        <ele>941.8</ele>
        <time>2013-05-10T09:00:04Z</time>
      </trkpt>
      <trkpt lat="44.53275" lon="3.92108">
        <ele>941.6</ele>
        <time>2013-05-10T09:00:05Z</time>
      </trkpt>
      <trkpt lat="44.53271" lon="3.92121">
        <ele>941</ele>
        <time>2013-05-10T09:00:19Z</time>
      </trkpt>
      <trkpt lat="44.53268" lon="3.92132">
        <ele>940.2</ele>
        <time>2013-05-10T09:00:21Z</time>
      </trkpt>
      <trkpt lat="44.53267" lon="3.92144">
        <ele>939.8</ele>
        <time>2013-05-10T09:00:32Z</time>
      </trkpt>
      <trkpt lat="44.53265" lon="3.92156">
        <ele>939.5</ele>
        <time>2013-05-10T09:00:37Z</time>
      </trkpt>
      <trkpt lat="44.53262" lon="3.92168">
        <ele>939.4</ele>
        <time>2013-05-10T09:00:47Z</time>
      </trkpt>
      <trkpt lat="44.53269" lon="3.92176">
        <ele>939.2</ele>
        <time>2013-05-10T09:00:57Z</time>
      </trkpt>
      <trkpt lat="44.53274" lon="3.92184">
        <ele>939.1</ele>
        <time>2013-05-10T09:01:06Z</time>
      </trkpt>
      <trkpt lat="44.53275" lon="3.92185">
        <ele>939.1</ele>
        <time>2013-05-10T09:01:07Z</time>
      </trkpt>
      <trkpt lat="44.53284" lon="3.92201">
        <ele>938.5</ele>
        <time>2013-05-10T09:01:23Z</time>
      </trkpt>
      <trkpt lat="44.53288" lon="3.9221">
        <ele>938.1</ele>
        <time>2013-05-10T09:01:29Z</time>
      </trkpt>
      <trkpt lat="44.53292" lon="3.92221">
        <ele>937.6</ele>
        <time>2013-05-10T09:01:36Z</time>
      </trkpt>
      <trkpt lat="44.53297" lon="3.92228">
        <ele>937.3</ele>
        <time>2013-05-10T09:01:41Z</time>
      </trkpt>
      <trkpt lat="44.53301" lon="3.92239">
        <ele>936.8</ele>
        <time>2013-05-10T09:01:47Z</time>
      </trkpt>
      <trkpt lat="44.53308" lon="3.92246">
        <ele>936.5</ele>
        <time>2013-05-10T09:01:51Z</time>
      </trkpt>
      <trkpt lat="44.53306" lon="3.92258">
        <ele>936</ele>
        <time>2013-05-10T09:01:56Z</time>
      </trkpt>
      <trkpt lat="44.53312" lon="3.92267">
        <ele>934.7</ele>
        <time>2013-05-10T09:02:13Z</time>
      </trkpt>
      <trkpt lat="44.53312" lon="3.92268">
        <ele>934.7</ele>
        <time>2013-05-10T09:02:14Z</time>
      </trkpt>
      <trkpt lat="44.5332" lon="3.92286">
        <ele>934</ele>
        <time>2013-05-10T09:02:21Z</time>
      </trkpt>
      <trkpt lat="44.53317" lon="3.92297">
        <ele>933.6</ele>
        <time>2013-05-10T09:02:25Z</time>
      </trkpt>
      <trkpt lat="44.53309" lon="3.92302">
        <ele>932</ele>
        <time>2013-05-10T09:02:33Z</time>
      </trkpt>
      <trkpt lat="44.53301" lon="3.92298">
        <ele>928.2</ele>
        <time>2013-05-10T09:02:54Z</time>
      </trkpt>
      <trkpt lat="44.53294" lon="3.923">
        <ele>926.8</ele>
        <time>2013-05-10T09:03:01Z</time>
      </trkpt>
      <trkpt lat="44.53286" lon="3.92301">
        <ele>925.5</ele>
        <time>2013-05-10T09:03:07Z</time>
      </trkpt>
      <trkpt lat="44.53278" lon="3.92303">
        <ele>924.5</ele>
        <time>2013-05-10T09:03:13Z</time>
      </trkpt>
      <trkpt lat="44.53271" lon="3.92306">
        <ele>924</ele>
        <time>2013-05-10T09:03:17Z</time>
      </trkpt>
      <trkpt lat="44.5327" lon="3.92307">
        <ele>923.9</ele>
        <time>2013-05-10T09:03:18Z</time>
      </trkpt>
      <trkpt lat="44.5326" lon="3.92317">
        <ele>922.9</ele>
        <time>2013-05-10T09:03:26Z</time>
      </trkpt>
      <trkpt lat="44.53252" lon="3.92322">
        <ele>922.5</ele>
        <time>2013-05-10T09:03:30Z</time>
      </trkpt>
      <trkpt lat="44.53246" lon="3.9233">
        <ele>921.7</ele>
        <time>2013-05-10T09:03:40Z</time>
      </trkpt>
      <trkpt lat="44.53238" lon="3.92335">
        <ele>921.4</ele>
        <time>2013-05-10T09:03:44Z</time>
      </trkpt>
      <trkpt lat="44.53229" lon="3.92335">
        <ele>920.6</ele>
        <time>2013-05-10T09:03:51Z</time>
      </trkpt>
      <trkpt lat="44.53221" lon="3.92338">
        <ele>920</ele>
        <time>2013-05-10T09:03:57Z</time>
      </trkpt>
      <trkpt lat="44.53214" lon="3.92341">
        <ele>919.3</ele>
        <time>2013-05-10T09:04:08Z</time>
      </trkpt>
      <trkpt lat="44.53205" lon="3.92345">
        <ele>918.9</ele>
        <time>2013-05-10T09:04:13Z</time>
      </trkpt>
      <trkpt lat="44.53197" lon="3.9235">
        <ele>918.8</ele>
        <time>2013-05-10T09:04:19Z</time>
      </trkpt>
      <trkpt lat="44.53196" lon="3.92351">
        <ele>918.7</ele>
        <time>2013-05-10T09:04:20Z</time>
      </trkpt>
      <trkpt lat="44.53183" lon="3.92355">
        <ele>918</ele>
        <time>2013-05-10T09:04:26Z</time>
      </trkpt>
      <trkpt lat="44.53176" lon="3.9236">
        <ele>917.5</ele>
        <time>2013-05-10T09:04:29Z</time>
      </trkpt>
      <trkpt lat="44.53169" lon="3.92364">
        <ele>916.1</ele>
        <time>2013-05-10T09:04:38Z</time>
      </trkpt>
      <trkpt lat="44.53161" lon="3.92363">
        <ele>915.5</ele>
        <time>2013-05-10T09:04:46Z</time>
      </trkpt>
      <trkpt lat="44.53155" lon="3.92356">
        <ele>914.7</ele>
        <time>2013-05-10T09:04:56Z</time>
      </trkpt>
      <trkpt lat="44.53146" lon="3.92353">
        <ele>914.1</ele>
        <time>2013-05-10T09:05:03Z</time>
      </trkpt>
      <trkpt lat="44.53138" lon="3.92356">
        <ele>913.7</ele>
        <time>2013-05-10T09:05:10Z</time>
      </trkpt>
      <trkpt lat="44.5313" lon="3.92359">
        <ele>913.6</ele>
        <time>2013-05-10T09:05:16Z</time>
      </trkpt>
      <trkpt lat="44.53122" lon="3.92356">
        <ele>913.2</ele>
        <time>2013-05-10T09:05:22Z</time>
      </trkpt>
      <trkpt lat="44.53121" lon="3.92356">
        <ele>913.1</ele>
        <time>2013-05-10T09:05:23Z</time>
      </trkpt>
      <trkpt lat="44.53105" lon="3.92349">
        <ele>912.7</ele>
        <time>2013-05-10T09:05:38Z</time>
      </trkpt>
      <trkpt lat="44.53097" lon="3.92343">
        <ele>912.2</ele>
        <time>2013-05-10T09:05:49Z</time>
      </trkpt>
      <trkpt lat="44.53089" lon="3.92345">
        <ele>911.9</ele>
        <time>2013-05-10T09:05:55Z</time>
      </trkpt>
      <trkpt lat="44.53081" lon="3.92341">
        <ele>911.8</ele>
        <time>2013-05-10T09:06:02Z</time>
      </trkpt>
      <trkpt lat="44.53074" lon="3.92338">
        <ele>911.8</ele>
        <time>2013-05-10T09:06:07Z</time>
      </trkpt>
      <trkpt lat="44.53066" lon="3.92334">
        <ele>911.9</ele>
        <time>2013-05-10T09:06:14Z</time>
      </trkpt>
      <trkpt lat="44.53057" lon="3.92337">
        <ele>911.8</ele>
        <time>2013-05-10T09:06:22Z</time>
      </trkpt>
      <trkpt lat="44.53049" lon="3.92337">
        <ele>911.5</ele>
        <time>2013-05-10T09:06:30Z</time>
      </trkpt>
      <trkpt lat="44.53047" lon="3.92338">
        <ele>911.4</ele>
        <time>2013-05-10T09:06:31Z</time>
      </trkpt>
      <trkpt lat="44.53032" lon="3.92342">
        <ele>910.9</ele>
        <time>2013-05-10T09:06:42Z</time>
      </trkpt>
      <trkpt lat="44.53024" lon="3.9234">
        <ele>910.6</ele>
        <time>2013-05-10T09:06:46Z</time>
      </trkpt>
      <trkpt lat="44.53016" lon="3.92339">
        <ele>910.5</ele>
        <time>2013-05-10T09:06:51Z</time>
      </trkpt>
      <trkpt lat="44.53007" lon="3.9234">
        <ele>910.3</ele>
        <time>2013-05-10T09:06:56Z</time>
      </trkpt>
      <trkpt lat="44.52999" lon="3.92339">
        <ele>910.2</ele>
        <time>2013-05-10T09:07:03Z</time>
      </trkpt>
      <trkpt lat="44.52991" lon="3.92339">
        <ele>909.8</ele>
        <time>2013-05-10T09:07:11Z</time>
      </trkpt>
      <trkpt lat="44.52983" lon="3.9234">
        <ele>909.8</ele>
        <time>2013-05-10T09:07:19Z</time>
      </trkpt>
      <trkpt lat="44.52976" lon="3.92337">
        <ele>909.1</ele>
        <time>2013-05-10T09:07:26Z</time>
      </trkpt>
      <trkpt lat="44.52967" lon="3.92332">
        <ele>908.7</ele>
        <time>2013-05-10T09:07:34Z</time>
      </trkpt>
      <trkpt lat="44.52967" lon="3.9233">
        <ele>908.6</ele>
        <time>2013-05-10T09:07:35Z</time>
      </trkpt>
      <trkpt lat="44.52953" lon="3.92334">
        <ele>908.1</ele>
        <time>2013-05-10T09:07:45Z</time>
      </trkpt>
      <trkpt lat="44.52946" lon="3.92337">
        <ele>908</ele>
        <time>2013-05-10T09:07:48Z</time>
      </trkpt>
      <trkpt lat="44.52939" lon="3.92337">
        <ele>907.8</ele>
        <time>2013-05-10T09:07:54Z</time>
      </trkpt>
      <trkpt lat="44.52931" lon="3.92334">
        <ele>907.6</ele>
        <time>2013-05-10T09:08:01Z</time>
      </trkpt>
      <trkpt lat="44.52923" lon="3.92329">
        <ele>907.5</ele>
        <time>2013-05-10T09:08:08Z</time>
      </trkpt>
      <trkpt lat="44.52916" lon="3.92323">
        <ele>907.4</ele>
        <time>2013-05-10T09:08:13Z</time>
      </trkpt>
      <trkpt lat="44.52911" lon="3.92314">
        <ele>907.1</ele>
        <time>2013-05-10T09:08:21Z</time>
      </trkpt>
      <trkpt lat="44.52907" lon="3.92304">
        <ele>906.9</ele>
        <time>2013-05-10T09:08:26Z</time>
      </trkpt>
      <trkpt lat="44.529" lon="3.92298">
        <ele>907</ele>
        <time>2013-05-10T09:08:34Z</time>
      </trkpt>
      <trkpt lat="44.52894" lon="3.92295">
        <ele>907</ele>
        <time>2013-05-10T09:08:40Z</time>
      </trkpt>
      <trkpt lat="44.52892" lon="3.92294">
        <ele>906.9</ele>
        <time>2013-05-10T09:08:41Z</time>
      </trkpt>
      <trkpt lat="44.5288" lon="3.92284">
        <ele>906.4</ele>
        <time>2013-05-10T09:08:50Z</time>
      </trkpt>
      <trkpt lat="44.52872" lon="3.9228">
        <ele>906.3</ele>
        <time>2013-05-10T09:08:56Z</time>
      </trkpt>
      <trkpt lat="44.52864" lon="3.92276">
        <ele>906.5</ele>
        <time>2013-05-10T09:09:03Z</time>
      </trkpt>
      <trkpt lat="44.52857" lon="3.9227">
        <ele>906.7</ele>
        <time>2013-05-10T09:09:10Z</time>
      </trkpt>
      <trkpt lat="44.52849" lon="3.92269">
        <ele>906.1</ele>
        <time>2013-05-10T09:09:18Z</time>
      </trkpt>
      <trkpt lat="44.52841" lon="3.92265">
        <ele>905.1</ele>
        <time>2013-05-10T09:09:35Z</time>
      </trkpt>
      <trkpt lat="44.52833" lon="3.92266">
        <ele>905</ele>
        <time>2013-05-10T09:09:39Z</time>
      </trkpt>
      <trkpt lat="44.52825" lon="3.92267">
        <ele>904.8</ele>
        <time>2013-05-10T09:09:45Z</time>
      </trkpt>
      <trkpt lat="44.52824" lon="3.92268">
        <ele>904.8</ele>
        <time>2013-05-10T09:09:46Z</time>
      </trkpt>
      <trkpt lat="44.52813" lon="3.92278">
        <ele>906.2</ele>
        <time>2013-05-10T09:10:38Z</time>
      </trkpt>
      <trkpt lat="44.52804" lon="3.92281">
        <ele>906.4</ele>
        <time>2013-05-10T09:10:42Z</time>
      </trkpt>
      <trkpt lat="44.52796" lon="3.92281">
        <ele>905.9</ele>
        <time>2013-05-10T09:10:48Z</time>
      </trkpt>
      <trkpt lat="44.52794" lon="3.9228">
        <ele>905.9</ele>
        <time>2013-05-10T09:10:49Z</time>
      </trkpt>
      <trkpt lat="44.52781" lon="3.92277">
        <ele>906</ele>
        <time>2013-05-10T09:10:56Z</time>
      </trkpt>
      <trkpt lat="44.52774" lon="3.92273">
        <ele>906.3</ele>
        <time>2013-05-10T09:11:01Z</time>
      </trkpt>
      <trkpt lat="44.52766" lon="3.9227">
        <ele>908.1</ele>
        <time>2013-05-10T09:11:08Z</time>
      </trkpt>
      <trkpt lat="44.52758" lon="3.92266">
        <ele>907.6</ele>
        <time>2013-05-10T09:11:17Z</time>
      </trkpt>
      <trkpt lat="44.5275" lon="3.9226">
        <ele>907.3</ele>
        <time>2013-05-10T09:11:24Z</time>
      </trkpt>
      <trkpt lat="44.52743" lon="3.92255">
        <ele>906.9</ele>
        <time>2013-05-10T09:11:31Z</time>
      </trkpt>
      <trkpt lat="44.52735" lon="3.92251">
        <ele>906.9</ele>
        <time>2013-05-10T09:11:38Z</time>
      </trkpt>
      <trkpt lat="44.52726" lon="3.92248">
        <ele>907</ele>
        <time>2013-05-10T09:11:44Z</time>
      </trkpt>
      <trkpt lat="44.52719" lon="3.92245">
        <ele>906.9</ele>
        <time>2013-05-10T09:11:50Z</time>
      </trkpt>
      <trkpt lat="44.52718" lon="3.92244">
        <ele>907</ele>
        <time>2013-05-10T09:11:51Z</time>
      </trkpt>
      <trkpt lat="44.52703" lon="3.92236">
        <ele>906.8</ele>
        <time>2013-05-10T09:12:05Z</time>
      </trkpt>
      <trkpt lat="44.52695" lon="3.92234">
        <ele>907</ele>
        <time>2013-05-10T09:12:11Z</time>
      </trkpt>
      <trkpt lat="44.52688" lon="3.92233">
        <ele>907.1</ele>
        <time>2013-05-10T09:12:16Z</time>
      </trkpt>
      <trkpt lat="44.52682" lon="3.92234">
        <ele>907.1</ele>
        <time>2013-05-10T09:12:20Z</time>
      </trkpt>
      <trkpt lat="44.52675" lon="3.92232">
        <ele>907</ele>
        <time>2013-05-10T09:12:23Z</time>
      </trkpt>
      <trkpt lat="44.52666" lon="3.9223">
        <ele>906.8</ele>
        <time>2013-05-10T09:12:28Z</time>
      </trkpt>
      <trkpt lat="44.52659" lon="3.92223">
        <ele>906.6</ele>
        <time>2013-05-10T09:12:33Z</time>
      </trkpt>
      <trkpt lat="44.52651" lon="3.92217">
        <ele>906.5</ele>
        <time>2013-05-10T09:12:38Z</time>
      </trkpt>
      <trkpt lat="44.52644" lon="3.92212">
        <ele>906.2</ele>
        <time>2013-05-10T09:12:43Z</time>
      </trkpt>
      <trkpt lat="44.5264" lon="3.92201">
        <ele>905.6</ele>
        <time>2013-05-10T09:12:51Z</time>
      </trkpt>
      <trkpt lat="44.52639" lon="3.92201">
        <ele>905.4</ele>
        <time>2013-05-10T09:12:52Z</time>
      </trkpt>
      <trkpt lat="44.52623" lon="3.92198">
        <ele>903.9</ele>
        <time>2013-05-10T09:13:08Z</time>
      </trkpt>
      <trkpt lat="44.52615" lon="3.92195">
        <ele>902.8</ele>
        <time>2013-05-10T09:13:17Z</time>
      </trkpt>
      <trkpt lat="44.52606" lon="3.92191">
        <ele>902.2</ele>
        <time>2013-05-10T09:13:24Z</time>
      </trkpt>
      <trkpt lat="44.52598" lon="3.92192">
        <ele>901.5</ele>
        <time>2013-05-10T09:13:34Z</time>
      </trkpt>
      <trkpt lat="44.5259" lon="3.92197">
        <ele>901.2</ele>
        <time>2013-05-10T09:13:41Z</time>
      </trkpt>
      <trkpt lat="44.52583" lon="3.92191">
        <ele>900.8</ele>
        <time>2013-05-10T09:13:47Z</time>
      </trkpt>
      <trkpt lat="44.52576" lon="3.92188">
        <ele>900.7</ele>
        <time>2013-05-10T09:13:50Z</time>
      </trkpt>
      <trkpt lat="44.52568" lon="3.92185">
        <ele>900.2</ele>
        <time>2013-05-10T09:13:56Z</time>
      </trkpt>
      <trkpt lat="44.52567" lon="3.92183">
        <ele>900.2</ele>
        <time>2013-05-10T09:13:57Z</time>
      </trkpt>
      <trkpt lat="44.52551" lon="3.92181">
        <ele>898.8</ele>
        <time>2013-05-10T09:14:10Z</time>
      </trkpt>
      <trkpt lat="44.52543" lon="3.92178">
        <ele>898.2</ele>
        <time>2013-05-10T09:14:18Z</time>
      </trkpt>
      <trkpt lat="44.52535" lon="3.92177">
        <ele>898</ele>
        <time>2013-05-10T09:14:23Z</time>
      </trkpt>
      <trkpt lat="44.52528" lon="3.9217">
        <ele>897.6</ele>
        <time>2013-05-10T09:14:28Z</time>
      </trkpt>
      <trkpt lat="44.52521" lon="3.92162">
        <ele>896.8</ele>
        <time>2013-05-10T09:14:44Z</time>
      </trkpt>
      <trkpt lat="44.52517" lon="3.92153">
        <ele>896.6</ele>
        <time>2013-05-10T09:14:49Z</time>
      </trkpt>
      <trkpt lat="44.5251" lon="3.92145">
        <ele>896.4</ele>
        <time>2013-05-10T09:14:54Z</time>
      </trkpt>
      <trkpt lat="44.52504" lon="3.92136">
        <ele>896.6</ele>
        <time>2013-05-10T09:15:01Z</time>
      </trkpt>
      <trkpt lat="44.52503" lon="3.92137">
        <ele>896.6</ele>
        <time>2013-05-10T09:15:02Z</time>
      </trkpt>
      <trkpt lat="44.5249" lon="3.92131">
        <ele>896.2</ele>
        <time>2013-05-10T09:15:14Z</time>
      </trkpt>
      <trkpt lat="44.52482" lon="3.92129">
        <ele>895.8</ele>
        <time>2013-05-10T09:15:21Z</time>
      </trkpt>
      <trkpt lat="44.52473" lon="3.92129">
        <ele>895.5</ele>
        <time>2013-05-10T09:15:26Z</time>
      </trkpt>
      <trkpt lat="44.52466" lon="3.92125">
        <ele>895.6</ele>
        <time>2013-05-10T09:15:32Z</time>
      </trkpt>
      <trkpt lat="44.52458" lon="3.92121">
        <ele>895.6</ele>
        <time>2013-05-10T09:15:37Z</time>
      </trkpt>
      <trkpt lat="44.5245" lon="3.92121">
        <ele>895.3</ele>
        <time>2013-05-10T09:15:42Z</time>
      </trkpt>
      <trkpt lat="44.52444" lon="3.92113">
        <ele>895.1</ele>
        <time>2013-05-10T09:15:49Z</time>
      </trkpt>
      <trkpt lat="44.52437" lon="3.92109">
        <ele>894.9</ele>
        <time>2013-05-10T09:15:58Z</time>
      </trkpt>
      <trkpt lat="44.52429" lon="3.92105">
        <ele>895</ele>
        <time>2013-05-10T09:16:05Z</time>
      </trkpt>
      <trkpt lat="44.52428" lon="3.92104">
        <ele>895</ele>
        <time>2013-05-10T09:16:06Z</time>
      </trkpt>
      <trkpt lat="44.52413" lon="3.92098">
        <ele>894.3</ele>
        <time>2013-05-10T09:16:19Z</time>
      </trkpt>
      <trkpt lat="44.52405" lon="3.92093">
        <ele>893.8</ele>
        <time>2013-05-10T09:16:25Z</time>
      </trkpt>
      <trkpt lat="44.52397" lon="3.92091">
        <ele>893.5</ele>
        <time>2013-05-10T09:16:30Z</time>
      </trkpt>
      <trkpt lat="44.52389" lon="3.92092">
        <ele>893.2</ele>
        <time>2013-05-10T09:16:36Z</time>
      </trkpt>
      <trkpt lat="44.52381" lon="3.92088">
        <ele>892.9</ele>
        <time>2013-05-10T09:16:41Z</time>
      </trkpt>
      <trkpt lat="44.52375" lon="3.92083">
        <ele>892.2</ele>
        <time>2013-05-10T09:16:46Z</time>
      </trkpt>
      <trkpt lat="44.52368" lon="3.92076">
        <ele>891.4</ele>
        <time>2013-05-10T09:16:54Z</time>
      </trkpt>
      <trkpt lat="44.5236" lon="3.92071">
        <ele>889.9</ele>
        <time>2013-05-10T09:17:19Z</time>
      </trkpt>
      <trkpt lat="44.5236" lon="3.92069">
        <ele>889.9</ele>
        <time>2013-05-10T09:17:20Z</time>
      </trkpt>
      <trkpt lat="44.52349" lon="3.92055">
        <ele>888.6</ele>
        <time>2013-05-10T09:17:35Z</time>
      </trkpt>
      <trkpt lat="44.52346" lon="3.92044">
        <ele>888.3</ele>
        <time>2013-05-10T09:17:42Z</time>
      </trkpt>
      <trkpt lat="44.52345" lon="3.92033">
        <ele>888.3</ele>
        <time>2013-05-10T09:17:49Z</time>
      </trkpt>
      <trkpt lat="44.5234" lon="3.92024">
        <ele>887.6</ele>
        <time>2013-05-10T09:17:56Z</time>
      </trkpt>
      <trkpt lat="44.52333" lon="3.92016">
        <ele>887.1</ele>
        <time>2013-05-10T09:18:04Z</time>
      </trkpt>
      <trkpt lat="44.52326" lon="3.92009">
        <ele>886.7</ele>
        <time>2013-05-10T09:18:13Z</time>
      </trkpt>
      <trkpt lat="44.5232" lon="3.92001">
        <ele>886.6</ele>
        <time>2013-05-10T09:18:24Z</time>
      </trkpt>
      <trkpt lat="44.52319" lon="3.92">
        <ele>886.6</ele>
        <time>2013-05-10T09:18:25Z</time>
      </trkpt>
      <trkpt lat="44.52308" lon="3.91986">
        <ele>886.6</ele>
        <time>2013-05-10T09:18:49Z</time>
      </trkpt>
      <trkpt lat="44.52303" lon="3.91976">
        <ele>886.5</ele>
        <time>2013-05-10T09:18:55Z</time>
      </trkpt>
      <trkpt lat="44.52297" lon="3.91969">
        <ele>886.4</ele>
        <time>2013-05-10T09:19:00Z</time>
      </trkpt>
      <trkpt lat="44.52289" lon="3.91967">
        <ele>886.5</ele>
        <time>2013-05-10T09:19:04Z</time>
      </trkpt>
      <trkpt lat="44.52281" lon="3.91961">
        <ele>886.4</ele>
        <time>2013-05-10T09:19:18Z</time>
      </trkpt>
      <trkpt lat="44.52273" lon="3.91956">
        <ele>886</ele>
        <time>2013-05-10T09:19:30Z</time>
      </trkpt>
      <trkpt lat="44.52273" lon="3.91955">
        <ele>885.8</ele>
        <time>2013-05-10T09:19:31Z</time>
      </trkpt>
      <trkpt lat="44.52258" lon="3.91948">
        <ele>885.4</ele>
        <time>2013-05-10T09:19:41Z</time>
      </trkpt>
      <trkpt lat="44.52251" lon="3.91942">
        <ele>884.7</ele>
        <time>2013-05-10T09:19:49Z</time>
      </trkpt>
      <trkpt lat="44.52244" lon="3.91935">
        <ele>884.4</ele>
        <time>2013-05-10T09:19:56Z</time>
      </trkpt>
      <trkpt lat="44.52237" lon="3.91929">
        <ele>884.5</ele>
        <time>2013-05-10T09:20:01Z</time>
      </trkpt>
      <trkpt lat="44.52229" lon="3.91924">
        <ele>884</ele>
        <time>2013-05-10T09:20:07Z</time>
      </trkpt>
      <trkpt lat="44.52222" lon="3.91917">
        <ele>883.8</ele>
        <time>2013-05-10T09:20:14Z</time>
      </trkpt>
      <trkpt lat="44.52215" lon="3.91912">
        <ele>883.8</ele>
        <time>2013-05-10T09:20:21Z</time>
      </trkpt>
      <trkpt lat="44.5221" lon="3.91905">
        <ele>883.5</ele>
        <time>2013-05-10T09:20:27Z</time>
      </trkpt>
      <trkpt lat="44.52204" lon="3.91901">
        <ele>883.4</ele>
        <time>2013-05-10T09:20:31Z</time>
      </trkpt>
      <trkpt lat="44.52201" lon="3.919">
        <ele>883.3</ele>
        <time>2013-05-10T09:20:32Z</time>
      </trkpt>
      <trkpt lat="44.52187" lon="3.91894">
        <ele>882.3</ele>
        <time>2013-05-10T09:20:42Z</time>
      </trkpt>
      <trkpt lat="44.52179" lon="3.91892">
        <ele>881.7</ele>
        <time>2013-05-10T09:20:47Z</time>
      </trkpt>
      <trkpt lat="44.52171" lon="3.9189">
        <ele>880.9</ele>
        <time>2013-05-10T09:20:52Z</time>
      </trkpt>
      <trkpt lat="44.52164" lon="3.91884">
        <ele>880.1</ele>
        <time>2013-05-10T09:20:59Z</time>
      </trkpt>
      <trkpt lat="44.52155" lon="3.91881">
        <ele>880</ele>
        <time>2013-05-10T09:21:05Z</time>
      </trkpt>
      <trkpt lat="44.5215" lon="3.91871">
        <ele>878.8</ele>
        <time>2013-05-10T09:21:15Z</time>
      </trkpt>
      <trkpt lat="44.52147" lon="3.9186">
        <ele>878.9</ele>
        <time>2013-05-10T09:21:25Z</time>
      </trkpt>
      <trkpt lat="44.52142" lon="3.91851">
        <ele>879</ele>
        <time>2013-05-10T09:21:30Z</time>
      </trkpt>
      <trkpt lat="44.52134" lon="3.91855">
        <ele>877.4</ele>
        <time>2013-05-10T09:21:53Z</time>
      </trkpt>
      <trkpt lat="44.52132" lon="3.91855">
        <ele>877.3</ele>
        <time>2013-05-10T09:21:54Z</time>
      </trkpt>
      <trkpt lat="44.52119" lon="3.91844">
        <ele>875.9</ele>
        <time>2013-05-10T09:22:18Z</time>
      </trkpt>
      <trkpt lat="44.52112" lon="3.91841">
        <ele>875.5</ele>
        <time>2013-05-10T09:22:22Z</time>
      </trkpt>
      <trkpt lat="44.52104" lon="3.91836">
        <ele>875.1</ele>
        <time>2013-05-10T09:22:27Z</time>
      </trkpt>
      <trkpt lat="44.52096" lon="3.91837">
        <ele>875</ele>
        <time>2013-05-10T09:22:32Z</time>
      </trkpt>
      <trkpt lat="44.52088" lon="3.91842">
        <ele>874.7</ele>
        <time>2013-05-10T09:22:40Z</time>
      </trkpt>
      <trkpt lat="44.52081" lon="3.91848">
        <ele>874.3</ele>
        <time>2013-05-10T09:22:47Z</time>
      </trkpt>
      <trkpt lat="44.52076" lon="3.91858">
        <ele>874</ele>
        <time>2013-05-10T09:22:54Z</time>
      </trkpt>
      <trkpt lat="44.52076" lon="3.91859">
        <ele>874</ele>
        <time>2013-05-10T09:22:55Z</time>
      </trkpt>
      <trkpt lat="44.52069" lon="3.91854">
        <ele>872.4</ele>
        <time>2013-05-10T09:23:33Z</time>
      </trkpt>
      <trkpt lat="44.52073" lon="3.91845">
        <ele>872.5</ele>
        <time>2013-05-10T09:23:51Z</time>
      </trkpt>
      <trkpt lat="44.52078" lon="3.91836">
        <ele>872.7</ele>
        <time>2013-05-10T09:24:00Z</time>
      </trkpt>
      <trkpt lat="44.52078" lon="3.91834">
        <ele>872.7</ele>
        <time>2013-05-10T09:24:01Z</time>
      </trkpt>
      <trkpt lat="44.52089" lon="3.9182">
        <ele>872.3</ele>
        <time>2013-05-10T09:24:20Z</time>
      </trkpt>
      <trkpt lat="44.52093" lon="3.91811">
        <ele>872.1</ele>
        <time>2013-05-10T09:24:32Z</time>
      </trkpt>
      <trkpt lat="44.52094" lon="3.91799">
        <ele>872.1</ele>
        <time>2013-05-10T09:24:38Z</time>
      </trkpt>
      <trkpt lat="44.52093" lon="3.91788">
        <ele>871.6</ele>
        <time>2013-05-10T09:24:48Z</time>
      </trkpt>
      <trkpt lat="44.52094" lon="3.91776">
        <ele>871.1</ele>
        <time>2013-05-10T09:24:57Z</time>
      </trkpt>
      <trkpt lat="44.52098" lon="3.91765">
        <ele>870.4</ele>
        <time>2013-05-10T09:25:07Z</time>
      </trkpt>
      <trkpt lat="44.52098" lon="3.91763">
        <ele>870.5</ele>
        <time>2013-05-10T09:25:08Z</time>
      </trkpt>
      <trkpt lat="44.521" lon="3.9174">
        <ele>869.3</ele>
        <time>2013-05-10T09:25:25Z</time>
      </trkpt>
      <trkpt lat="44.52102" lon="3.91729">
        <ele>868.7</ele>
        <time>2013-05-10T09:25:33Z</time>
      </trkpt>
      <trkpt lat="44.52101" lon="3.91717">
        <ele>868.4</ele>
        <time>2013-05-10T09:25:45Z</time>
      </trkpt>
      <trkpt lat="44.521" lon="3.91705">
        <ele>868.1</ele>
        <time>2013-05-10T09:25:55Z</time>
      </trkpt>
      <trkpt lat="44.521" lon="3.91693">
        <ele>867.6</ele>
        <time>2013-05-10T09:26:03Z</time>
      </trkpt>
      <trkpt lat="44.52103" lon="3.91682">
        <ele>867.2</ele>
        <time>2013-05-10T09:26:10Z</time>
      </trkpt>
      <trkpt lat="44.52103" lon="3.91678">
        <ele>867.2</ele>
        <time>2013-05-10T09:26:11Z</time>
      </trkpt>
      <trkpt lat="44.52107" lon="3.91659">
        <ele>865.8</ele>
        <time>2013-05-10T09:26:28Z</time>
      </trkpt>
      <trkpt lat="44.52113" lon="3.91653">
        <ele>865.2</ele>
        <time>2013-05-10T09:26:36Z</time>
      </trkpt>
      <trkpt lat="44.52119" lon="3.91644">
        <ele>865.6</ele>
        <time>2013-05-10T09:26:46Z</time>
      </trkpt>
      <trkpt lat="44.52127" lon="3.91638">
        <ele>865.1</ele>
        <time>2013-05-10T09:26:51Z</time>
      </trkpt>
      <trkpt lat="44.52134" lon="3.91631">
        <ele>864.6</ele>
        <time>2013-05-10T09:27:03Z</time>
      </trkpt>
      <trkpt lat="44.52139" lon="3.91621">
        <ele>864.1</ele>
        <time>2013-05-10T09:27:15Z</time>
      </trkpt>
      <trkpt lat="44.52139" lon="3.9162">
        <ele>864</ele>
        <time>2013-05-10T09:27:16Z</time>
      </trkpt>
      <trkpt lat="44.5214" lon="3.91597">
        <ele>862.5</ele>
        <time>2013-05-10T09:27:32Z</time>
      </trkpt>
      <trkpt lat="44.52138" lon="3.91585">
        <ele>861.7</ele>
        <time>2013-05-10T09:27:38Z</time>
      </trkpt>
      <trkpt lat="44.52137" lon="3.91573">
        <ele>861</ele>
        <time>2013-05-10T09:27:48Z</time>
      </trkpt>
      <trkpt lat="44.52136" lon="3.91561">
        <ele>860.5</ele>
        <time>2013-05-10T09:28:00Z</time>
      </trkpt>
      <trkpt lat="44.52136" lon="3.91549">
        <ele>859.9</ele>
        <time>2013-05-10T09:28:35Z</time>
      </trkpt>
      <trkpt lat="44.52136" lon="3.91548">
        <ele>859.9</ele>
        <time>2013-05-10T09:28:36Z</time>
      </trkpt>
      <trkpt lat="44.52125" lon="3.91537">
        <ele>858.3</ele>
        <time>2013-05-10T09:29:00Z</time>
      </trkpt>
      <trkpt lat="44.52117" lon="3.91535">
        <ele>858</ele>
        <time>2013-05-10T09:29:12Z</time>
      </trkpt>
      <trkpt lat="44.52116" lon="3.91532">
        <ele>857.8</ele>
        <time>2013-05-10T09:29:32Z</time>
      </trkpt>
      <trkpt lat="44.52108" lon="3.91537">
        <ele>856.9</ele>
        <time>2013-05-10T09:29:48Z</time>
      </trkpt>
      <trkpt lat="44.52108" lon="3.91538">
        <ele>856.9</ele>
        <time>2013-05-10T09:29:49Z</time>
      </trkpt>
      <trkpt lat="44.521" lon="3.91557">
        <ele>856.4</ele>
        <time>2013-05-10T09:30:05Z</time>
      </trkpt>
      <trkpt lat="44.52094" lon="3.91549">
        <ele>855.2</ele>
        <time>2013-05-10T09:30:35Z</time>
      </trkpt>
      <trkpt lat="44.52096" lon="3.91537">
        <ele>855</ele>
        <time>2013-05-10T09:30:43Z</time>
      </trkpt>
      <trkpt lat="44.52099" lon="3.91526">
        <ele>854.7</ele>
        <time>2013-05-10T09:30:53Z</time>
      </trkpt>
      <trkpt lat="44.521" lon="3.91525">
        <ele>854.7</ele>
        <time>2013-05-10T09:30:54Z</time>
      </trkpt>
      <trkpt lat="44.52102" lon="3.91508">
        <ele>854.3</ele>
        <time>2013-05-10T09:31:04Z</time>
      </trkpt>
      <trkpt lat="44.52101" lon="3.91496">
        <ele>854.1</ele>
        <time>2013-05-10T09:31:09Z</time>
      </trkpt>
      <trkpt lat="44.52102" lon="3.91484">
        <ele>853.6</ele>
        <time>2013-05-10T09:31:17Z</time>
      </trkpt>
      <trkpt lat="44.52104" lon="3.91472">
        <ele>852.9</ele>
        <time>2013-05-10T09:31:29Z</time>
      </trkpt>
      <trkpt lat="44.52109" lon="3.91461">
        <ele>852.5</ele>
        <time>2013-05-10T09:31:43Z</time>
      </trkpt>
      <trkpt lat="44.52111" lon="3.9145">
        <ele>852.3</ele>
        <time>2013-05-10T09:31:54Z</time>
      </trkpt>
      <trkpt lat="44.52112" lon="3.91449">
        <ele>852.3</ele>
        <time>2013-05-10T09:31:55Z</time>
      </trkpt>
      <trkpt lat="44.52105" lon="3.91427">
        <ele>851.6</ele>
        <time>2013-05-10T09:32:15Z</time>
      </trkpt>
      <trkpt lat="44.52101" lon="3.91418">
        <ele>851.2</ele>
        <time>2013-05-10T09:32:20Z</time>
      </trkpt>
      <trkpt lat="44.52096" lon="3.91408">
        <ele>850.9</ele>
        <time>2013-05-10T09:32:23Z</time>
      </trkpt>
      <trkpt lat="44.52091" lon="3.91399">
        <ele>850.2</ele>
        <time>2013-05-10T09:32:29Z</time>
      </trkpt>
      <trkpt lat="44.52087" lon="3.91389">
        <ele>849.7</ele>
        <time>2013-05-10T09:32:36Z</time>
      </trkpt>
      <trkpt lat="44.52083" lon="3.91378">
        <ele>849.3</ele>
        <time>2013-05-10T09:32:43Z</time>
      </trkpt>
      <trkpt lat="44.5208" lon="3.91367">
        <ele>848.7</ele>
        <time>2013-05-10T09:32:49Z</time>
      </trkpt>
      <trkpt lat="44.52081" lon="3.91355">
        <ele>847.9</ele>
        <time>2013-05-10T09:32:57Z</time>
      </trkpt>
      <trkpt lat="44.52081" lon="3.91354">
        <ele>847.9</ele>
        <time>2013-05-10T09:32:58Z</time>
      </trkpt>
      <trkpt lat="44.52082" lon="3.91333">
        <ele>847.1</ele>
        <time>2013-05-10T09:33:14Z</time>
      </trkpt>
      <trkpt lat="44.5208" lon="3.91322">
        <ele>846.8</ele>
        <time>2013-05-10T09:33:19Z</time>
      </trkpt>
      <trkpt lat="44.52084" lon="3.91312">
        <ele>846.4</ele>
        <time>2013-05-10T09:33:24Z</time>
      </trkpt>
      <trkpt lat="44.52083" lon="3.91301">
        <ele>845.4</ele>
        <time>2013-05-10T09:33:35Z</time>
      </trkpt>
      <trkpt lat="44.52084" lon="3.9129">
        <ele>844.9</ele>
        <time>2013-05-10T09:33:41Z</time>
      </trkpt>
      <trkpt lat="44.52086" lon="3.9128">
        <ele>844.5</ele>
        <time>2013-05-10T09:33:48Z</time>
      </trkpt>
      <trkpt lat="44.52088" lon="3.91268">
        <ele>844</ele>
        <time>2013-05-10T09:33:55Z</time>
      </trkpt>
      <trkpt lat="44.52089" lon="3.91256">
        <ele>842.9</ele>
        <time>2013-05-10T09:34:05Z</time>
      </trkpt>
      <trkpt lat="44.5209" lon="3.91255">
        <ele>842.8</ele>
        <time>2013-05-10T09:34:06Z</time>
      </trkpt>
      <trkpt lat="44.52092" lon="3.91234">
        <ele>840.3</ele>
        <time>2013-05-10T09:34:19Z</time>
      </trkpt>
      <trkpt lat="44.52095" lon="3.91223">
        <ele>839</ele>
        <time>2013-05-10T09:34:27Z</time>
      </trkpt>
      <trkpt lat="44.521" lon="3.91213">
        <ele>837.8</ele>
        <time>2013-05-10T09:34:39Z</time>
      </trkpt>
      <trkpt lat="44.52101" lon="3.91202">
        <ele>837.4</ele>
        <time>2013-05-10T09:34:49Z</time>
      </trkpt>
      <trkpt lat="44.52101" lon="3.91189">
        <ele>836.7</ele>
        <time>2013-05-10T09:35:01Z</time>
      </trkpt>
      <trkpt lat="44.52103" lon="3.91178">
        <ele>836.2</ele>
        <time>2013-05-10T09:35:09Z</time>
      </trkpt>
      <trkpt lat="44.52104" lon="3.91177">
        <ele>836.1</ele>
        <time>2013-05-10T09:35:10Z</time>
      </trkpt>
      <trkpt lat="44.52107" lon="3.91156">
        <ele>835.6</ele>
        <time>2013-05-10T09:35:21Z</time>
      </trkpt>
      <trkpt lat="44.52114" lon="3.91148">
        <ele>835.3</ele>
        <time>2013-05-10T09:35:31Z</time>
      </trkpt>
      <trkpt lat="44.52122" lon="3.91148">
        <ele>835.2</ele>
        <time>2013-05-10T09:35:35Z</time>
      </trkpt>
      <trkpt lat="44.5213" lon="3.91144">
        <ele>834.8</ele>
        <time>2013-05-10T09:35:47Z</time>
      </trkpt>
      <trkpt lat="44.52138" lon="3.91138">
        <ele>834.5</ele>
        <time>2013-05-10T09:36:14Z</time>
      </trkpt>
      <trkpt lat="44.52139" lon="3.91137">
        <ele>834.5</ele>
        <time>2013-05-10T09:36:15Z</time>
      </trkpt>
      <trkpt lat="44.52152" lon="3.91133">
        <ele>833.9</ele>
        <time>2013-05-10T09:36:29Z</time>
      </trkpt>
      <trkpt lat="44.52157" lon="3.91124">
        <ele>833</ele>
        <time>2013-05-10T09:36:36Z</time>
      </trkpt>
      <trkpt lat="44.52149" lon="3.91119">
        <ele>830.4</ele>
        <time>2013-05-10T09:36:48Z</time>
      </trkpt>
      <trkpt lat="44.52141" lon="3.9112">
        <ele>829</ele>
        <time>2013-05-10T09:36:56Z</time>
      </trkpt>
      <trkpt lat="44.52132" lon="3.91118">
        <ele>826.8</ele>
        <time>2013-05-10T09:37:09Z</time>
      </trkpt>
      <trkpt lat="44.52123" lon="3.91115">
        <ele>825.8</ele>
        <time>2013-05-10T09:37:14Z</time>
      </trkpt>
      <trkpt lat="44.52115" lon="3.91117">
        <ele>824.3</ele>
        <time>2013-05-10T09:37:21Z</time>
      </trkpt>
      <trkpt lat="44.52115" lon="3.91118">
        <ele>824</ele>
        <time>2013-05-10T09:37:22Z</time>
      </trkpt>
      <trkpt lat="44.52105" lon="3.91108">
        <ele>819.7</ele>
        <time>2013-05-10T09:37:51Z</time>
      </trkpt>
      <trkpt lat="44.52112" lon="3.91108">
        <ele>819.5</ele>
        <time>2013-05-10T09:37:57Z</time>
      </trkpt>
      <trkpt lat="44.5212" lon="3.91109">
        <ele>819.4</ele>
        <time>2013-05-10T09:38:04Z</time>
      </trkpt>
      <trkpt lat="44.52129" lon="3.91108">
        <ele>819.1</ele>
        <time>2013-05-10T09:38:11Z</time>
      </trkpt>
      <trkpt lat="44.52136" lon="3.91109">
        <ele>818.9</ele>
        <time>2013-05-10T09:38:14Z</time>
      </trkpt>
      <trkpt lat="44.52144" lon="3.91108">
        <ele>818.6</ele>
        <time>2013-05-10T09:38:22Z</time>
      </trkpt>
      <trkpt lat="44.52146" lon="3.91107">
        <ele>818.5</ele>
        <time>2013-05-10T09:38:23Z</time>
      </trkpt>
      <trkpt lat="44.52157" lon="3.91095">
        <ele>817.8</ele>
        <time>2013-05-10T09:38:31Z</time>
      </trkpt>
      <trkpt lat="44.52156" lon="3.91083">
        <ele>816.2</ele>
        <time>2013-05-10T09:38:42Z</time>
      </trkpt>
      <trkpt lat="44.52157" lon="3.91071">
        <ele>814.5</ele>
        <time>2013-05-10T09:38:50Z</time>
      </trkpt>
      <trkpt lat="44.52162" lon="3.91062">
        <ele>813.8</ele>
        <time>2013-05-10T09:38:58Z</time>
      </trkpt>
      <trkpt lat="44.52166" lon="3.91052">
        <ele>813</ele>
        <time>2013-05-10T09:39:06Z</time>
      </trkpt>
      <trkpt lat="44.52169" lon="3.91041">
        <ele>812.3</ele>
        <time>2013-05-10T09:39:14Z</time>
      </trkpt>
      <trkpt lat="44.5217" lon="3.91029">
        <ele>811.8</ele>
        <time>2013-05-10T09:39:21Z</time>
      </trkpt>
      <trkpt lat="44.52174" lon="3.91018">
        <ele>811.3</ele>
        <time>2013-05-10T09:39:28Z</time>
      </trkpt>
      <trkpt lat="44.52173" lon="3.91017">
        <ele>811.2</ele>
        <time>2013-05-10T09:39:29Z</time>
      </trkpt>
      <trkpt lat="44.52165" lon="3.91007">
        <ele>810.8</ele>
        <time>2013-05-10T09:39:34Z</time>
      </trkpt>
      <trkpt lat="44.52156" lon="3.90999">
        <ele>809.9</ele>
        <time>2013-05-10T09:39:35Z</time>
      </trkpt>
      <trkpt lat="44.52149" lon="3.90993">
        <ele>808.7</ele>
        <time>2013-05-10T09:39:39Z</time>
      </trkpt>
      <trkpt lat="44.52144" lon="3.90982">
        <ele>807.9</ele>
        <time>2013-05-10T09:39:45Z</time>
      </trkpt>
      <trkpt lat="44.52138" lon="3.90976">
        <ele>806.2</ele>
        <time>2013-05-10T09:40:05Z</time>
      </trkpt>
      <trkpt lat="44.5213" lon="3.90973">
        <ele>805</ele>
        <time>2013-05-10T09:40:13Z</time>
      </trkpt>
      <trkpt lat="44.52123" lon="3.90964">
        <ele>803.8</ele>
        <time>2013-05-10T09:40:22Z</time>
      </trkpt>
      <trkpt lat="44.52125" lon="3.90975">
        <ele>803</ele>
        <time>2013-05-10T09:40:41Z</time>
      </trkpt>
      <trkpt lat="44.52125" lon="3.90979">
        <ele>803</ele>
        <time>2013-05-10T09:40:42Z</time>
      </trkpt>
      <trkpt lat="44.52121" lon="3.90976">
        <ele>802.9</ele>
        <time>2013-05-10T09:40:56Z</time>
      </trkpt>
      <trkpt lat="44.52117" lon="3.90966">
        <ele>802.7</ele>
        <time>2013-05-10T09:41:06Z</time>
      </trkpt>
      <trkpt lat="44.52124" lon="3.90958">
        <ele>802.6</ele>
        <time>2013-05-10T09:41:21Z</time>
      </trkpt>
      <trkpt lat="44.5213" lon="3.90955">
        <ele>802.7</ele>
        <time>2013-05-10T09:41:28Z</time>
      </trkpt>
      <trkpt lat="44.52129" lon="3.90943">
        <ele>802.8</ele>
        <time>2013-05-10T09:41:39Z</time>
      </trkpt>
      <trkpt lat="44.52121" lon="3.90939">
        <ele>802.7</ele>
        <time>2013-05-10T09:41:53Z</time>
      </trkpt>
      <trkpt lat="44.5212" lon="3.90941">
        <ele>802.8</ele>
        <time>2013-05-10T09:41:54Z</time>
      </trkpt>
      <trkpt lat="44.52131" lon="3.90938">
        <ele>803.1</ele>
        <time>2013-05-10T09:43:11Z</time>
      </trkpt>
      <trkpt lat="44.52143" lon="3.90951">
        <ele>803.1</ele>
        <time>2013-05-10T09:43:42Z</time>
      </trkpt>
      <trkpt lat="44.52147" lon="3.9096">
        <ele>803.1</ele>
        <time>2013-05-10T09:43:47Z</time>
      </trkpt>
      <trkpt lat="44.52142" lon="3.90966">
        <ele>803.1</ele>
        <time>2013-05-10T09:44:02Z</time>
      </trkpt>
      <trkpt lat="44.5217" lon="3.90954">
        <ele>766.5</ele>
        <time>2013-05-10T09:47:40Z</time>
      </trkpt>
      <trkpt lat="44.52162" lon="3.90952">
        <ele>771.1</ele>
        <time>2013-05-10T09:47:42Z</time>
      </trkpt>
      <trkpt lat="44.52153" lon="3.90949">
        <ele>774.8</ele>
        <time>2013-05-10T09:47:44Z</time>
      </trkpt>
      <trkpt lat="44.52147" lon="3.90942">
        <ele>778.3</ele>
        <time>2013-05-10T09:47:51Z</time>
      </trkpt>
      <trkpt lat="44.52143" lon="3.90932">
        <ele>777.6</ele>
        <time>2013-05-10T09:48:11Z</time>
      </trkpt>
      <trkpt lat="44.52134" lon="3.90929">
        <ele>778.2</ele>
        <time>2013-05-10T09:48:26Z</time>
      </trkpt>
      <trkpt lat="44.52127" lon="3.90933">
        <ele>778.4</ele>
        <time>2013-05-10T09:48:50Z</time>
      </trkpt>
      <trkpt lat="44.52125" lon="3.90933">
        <ele>778.4</ele>
        <time>2013-05-10T09:48:51Z</time>
      </trkpt>
      <trkpt lat="44.52107" lon="3.90905">
        <ele>778.7</ele>
        <time>2013-05-10T09:49:44Z</time>
      </trkpt>
      <trkpt lat="44.52115" lon="3.9091">
        <ele>778.7</ele>
        <time>2013-05-10T09:49:50Z</time>
      </trkpt>
      <trkpt lat="44.52118" lon="3.90905">
        <ele>778.8</ele>
        <time>2013-05-10T09:49:57Z</time>
      </trkpt>
      <trkpt lat="44.52122" lon="3.90936">
        <ele>782.1</ele>
        <time>2013-05-10T09:50:16Z</time>
      </trkpt>
      <trkpt lat="44.52126" lon="3.90926">
        <ele>782.2</ele>
        <time>2013-05-10T09:50:18Z</time>
      </trkpt>
      <trkpt lat="44.52129" lon="3.90917">
        <ele>782</ele>
        <time>2013-05-10T09:50:33Z</time>
      </trkpt>
      <trkpt lat="44.52121" lon="3.9092">
        <ele>785.5</ele>
        <time>2013-05-10T09:51:06Z</time>
      </trkpt>
      <trkpt lat="44.52118" lon="3.90931">
        <ele>785.3</ele>
        <time>2013-05-10T09:51:16Z</time>
      </trkpt>
      <trkpt lat="44.52117" lon="3.90934">
        <ele>785.3</ele>
        <time>2013-05-10T09:51:17Z</time>
      </trkpt>
      <trkpt lat="44.52112" lon="3.90953">
        <ele>785.2</ele>
        <time>2013-05-10T09:51:34Z</time>
      </trkpt>
      <trkpt lat="44.52108" lon="3.90963">
        <ele>784.8</ele>
        <time>2013-05-10T09:52:00Z</time>
      </trkpt>
      <trkpt lat="44.52101" lon="3.90961">
        <ele>784.9</ele>
        <time>2013-05-10T09:52:09Z</time>
      </trkpt>
      <trkpt lat="44.52098" lon="3.90965">
        <ele>784.9</ele>
        <time>2013-05-10T09:52:31Z</time>
      </trkpt>
      <trkpt lat="44.52095" lon="3.90978">
        <ele>785.1</ele>
        <time>2013-05-10T09:52:32Z</time>
      </trkpt>
      <trkpt lat="44.52099" lon="3.90967">
        <ele>785.4</ele>
        <time>2013-05-10T09:53:21Z</time>
      </trkpt>
      <trkpt lat="44.52106" lon="3.9097">
        <ele>785.3</ele>
        <time>2013-05-10T09:53:37Z</time>
      </trkpt>
      <trkpt lat="44.52108" lon="3.90971">
        <ele>785.3</ele>
        <time>2013-05-10T09:53:38Z</time>
      </trkpt>
      <trkpt lat="44.52117" lon="3.90961">
        <ele>785</ele>
        <time>2013-05-10T09:53:59Z</time>
      </trkpt>
      <trkpt lat="44.52125" lon="3.90955">
        <ele>785.6</ele>
        <time>2013-05-10T09:54:42Z</time>
      </trkpt>
      <trkpt lat="44.52127" lon="3.90952">
        <ele>785.6</ele>
        <time>2013-05-10T09:54:43Z</time>
      </trkpt>
      <trkpt lat="44.52137" lon="3.9095">
        <ele>785.8</ele>
        <time>2013-05-10T09:54:52Z</time>
      </trkpt>
      <trkpt lat="44.52121" lon="3.90975">
        <ele>785.8</ele>
        <time>2013-05-10T09:54:53Z</time>
      </trkpt>
      <trkpt lat="44.52116" lon="3.90967">
        <ele>786.5</ele>
        <time>2013-05-10T09:55:08Z</time>
      </trkpt>
      <trkpt lat="44.52118" lon="3.90956">
        <ele>786.7</ele>
        <time>2013-05-10T09:55:17Z</time>
      </trkpt>
      <trkpt lat="44.52121" lon="3.90944">
        <ele>786.7</ele>
        <time>2013-05-10T09:55:25Z</time>
      </trkpt>
      <trkpt lat="44.52129" lon="3.90946">
        <ele>786.7</ele>
        <time>2013-05-10T09:55:49Z</time>
      </trkpt>
      <trkpt lat="44.52133" lon="3.90945">
        <ele>786.7</ele>
        <time>2013-05-10T09:55:50Z</time>
      </trkpt>
      <trkpt lat="44.52142" lon="3.90936">
        <ele>786.9</ele>
        <time>2013-05-10T09:56:34Z</time>
      </trkpt>
      <trkpt lat="44.52147" lon="3.90928">
        <ele>787</ele>
        <time>2013-05-10T09:56:39Z</time>
      </trkpt>
      <trkpt lat="44.52146" lon="3.90939">
        <ele>787.3</ele>
        <time>2013-05-10T09:56:52Z</time>
      </trkpt>
      <trkpt lat="44.52145" lon="3.90942">
        <ele>787.3</ele>
        <time>2013-05-10T09:56:53Z</time>
      </trkpt>
      <trkpt lat="44.5216" lon="3.90934">
        <ele>787.7</ele>
        <time>2013-05-10T09:57:26Z</time>
      </trkpt>
      <trkpt lat="44.52166" lon="3.90926">
        <ele>787.8</ele>
        <time>2013-05-10T09:57:30Z</time>
      </trkpt>
      <trkpt lat="44.52171" lon="3.90916">
        <ele>788.1</ele>
        <time>2013-05-10T09:57:42Z</time>
      </trkpt>
      <trkpt lat="44.52164" lon="3.90921">
        <ele>788.2</ele>
        <time>2013-05-10T09:58:13Z</time>
      </trkpt>
      <trkpt lat="44.52161" lon="3.90927">
        <ele>788.2</ele>
        <time>2013-05-10T09:58:14Z</time>
      </trkpt>
      <trkpt lat="44.52146" lon="3.90937">
        <ele>788.3</ele>
        <time>2013-05-10T09:58:22Z</time>
      </trkpt>
      <trkpt lat="44.5214" lon="3.9094">
        <ele>788.5</ele>
        <time>2013-05-10T09:58:24Z</time>
      </trkpt>
      <trkpt lat="44.52132" lon="3.90946">
        <ele>788.7</ele>
        <time>2013-05-10T09:58:28Z</time>
      </trkpt>
      <trkpt lat="44.52131" lon="3.90934">
        <ele>789</ele>
        <time>2013-05-10T09:58:55Z</time>
      </trkpt>
      <trkpt lat="44.52137" lon="3.90927">
        <ele>789.1</ele>
        <time>2013-05-10T09:59:03Z</time>
      </trkpt>
      <trkpt lat="44.52138" lon="3.90926">
        <ele>789.1</ele>
        <time>2013-05-10T09:59:04Z</time>
      </trkpt>
      <trkpt lat="44.52145" lon="3.90937">
        <ele>789.2</ele>
        <time>2013-05-10T09:59:21Z</time>
      </trkpt>
      <trkpt lat="44.52139" lon="3.90942">
        <ele>789.3</ele>
        <time>2013-05-10T09:59:22Z</time>
      </trkpt>
      <trkpt lat="44.52132" lon="3.90948">
        <ele>789.3</ele>
        <time>2013-05-10T09:59:24Z</time>
      </trkpt>
      <trkpt lat="44.52125" lon="3.90956">
        <ele>789.5</ele>
        <time>2013-05-10T09:59:33Z</time>
      </trkpt>
      <trkpt lat="44.5212" lon="3.90966">
        <ele>789.6</ele>
        <time>2013-05-10T09:59:40Z</time>
      </trkpt>
      <trkpt lat="44.52124" lon="3.90976">
        <ele>790.1</ele>
        <time>2013-05-10T10:00:15Z</time>
      </trkpt>
      <trkpt lat="44.52121" lon="3.90987">
        <ele>790.2</ele>
        <time>2013-05-10T10:00:21Z</time>
      </trkpt>
      <trkpt lat="44.5212" lon="3.90989">
        <ele>790.2</ele>
        <time>2013-05-10T10:00:22Z</time>
      </trkpt>
      <trkpt lat="44.52131" lon="3.91">
        <ele>790.2</ele>
        <time>2013-05-10T10:00:45Z</time>
      </trkpt>
      <trkpt lat="44.52137" lon="3.91003">
        <ele>790.2</ele>
        <time>2013-05-10T10:00:48Z</time>
      </trkpt>
      <trkpt lat="44.52144" lon="3.91011">
        <ele>790.1</ele>
        <time>2013-05-10T10:00:53Z</time>
      </trkpt>
      <trkpt lat="44.52151" lon="3.9101">
        <ele>790.2</ele>
        <time>2013-05-10T10:00:57Z</time>
      </trkpt>
      <trkpt lat="44.52155" lon="3.91018">
        <ele>790.3</ele>
        <time>2013-05-10T10:01:01Z</time>
      </trkpt>
      <trkpt lat="44.52154" lon="3.91029">
        <ele>790.3</ele>
        <time>2013-05-10T10:01:04Z</time>
      </trkpt>
      <trkpt lat="44.52156" lon="3.9104">
        <ele>790.8</ele>
        <time>2013-05-10T10:01:22Z</time>
      </trkpt>
      <trkpt lat="44.52156" lon="3.91042">
        <ele>790.8</ele>
        <time>2013-05-10T10:01:23Z</time>
      </trkpt>
      <trkpt lat="44.52157" lon="3.91063">
        <ele>791.3</ele>
        <time>2013-05-10T10:01:39Z</time>
      </trkpt>
      <trkpt lat="44.52156" lon="3.9107">
        <ele>791.3</ele>
        <time>2013-05-10T10:01:46Z</time>
      </trkpt>
      <trkpt lat="44.52156" lon="3.9108">
        <ele>791.4</ele>
        <time>2013-05-10T10:01:52Z</time>
      </trkpt>
      <trkpt lat="44.52152" lon="3.91091">
        <ele>791.6</ele>
        <time>2013-05-10T10:02:04Z</time>
      </trkpt>
      <trkpt lat="44.52146" lon="3.91087">
        <ele>791.7</ele>
        <time>2013-05-10T10:02:10Z</time>
      </trkpt>
      <trkpt lat="44.52145" lon="3.91097">
        <ele>792</ele>
        <time>2013-05-10T10:02:23Z</time>
      </trkpt>
      <trkpt lat="44.52144" lon="3.91102">
        <ele>792</ele>
        <time>2013-05-10T10:02:24Z</time>
      </trkpt>
      <trkpt lat="44.52144" lon="3.91117">
        <ele>792.1</ele>
        <time>2013-05-10T10:02:28Z</time>
      </trkpt>
      <trkpt lat="44.52137" lon="3.91123">
        <ele>792.2</ele>
        <time>2013-05-10T10:02:40Z</time>
      </trkpt>
      <trkpt lat="44.52128" lon="3.91121">
        <ele>792.2</ele>
        <time>2013-05-10T10:02:47Z</time>
      </trkpt>
      <trkpt lat="44.52121" lon="3.9112">
        <ele>792.3</ele>
        <time>2013-05-10T10:02:50Z</time>
      </trkpt>
      <trkpt lat="44.52114" lon="3.91115">
        <ele>792.4</ele>
        <time>2013-05-10T10:03:05Z</time>
      </trkpt>
      <trkpt lat="44.52106" lon="3.91119">
        <ele>792.3</ele>
        <time>2013-05-10T10:03:10Z</time>
      </trkpt>
      <trkpt lat="44.52114" lon="3.91121">
        <ele>792.1</ele>
        <time>2013-05-10T10:03:33Z</time>
      </trkpt>
      <trkpt lat="44.52115" lon="3.91122">
        <ele>792.1</ele>
        <time>2013-05-10T10:03:34Z</time>
      </trkpt>
      <trkpt lat="44.52128" lon="3.91126">
        <ele>792.1</ele>
        <time>2013-05-10T10:03:52Z</time>
      </trkpt>
      <trkpt lat="44.52135" lon="3.91132">
        <ele>791.9</ele>
        <time>2013-05-10T10:04:04Z</time>
      </trkpt>
      <trkpt lat="44.52142" lon="3.91132">
        <ele>791.7</ele>
        <time>2013-05-10T10:04:21Z</time>
      </trkpt>
      <trkpt lat="44.5215" lon="3.9113">
        <ele>791.6</ele>
        <time>2013-05-10T10:04:26Z</time>
      </trkpt>
      <trkpt lat="44.52156" lon="3.91131">
        <ele>791.6</ele>
        <time>2013-05-10T10:04:33Z</time>
      </trkpt>
      <trkpt lat="44.52148" lon="3.91137">
        <ele>791.7</ele>
        <time>2013-05-10T10:05:00Z</time>
      </trkpt>
      <trkpt lat="44.52147" lon="3.91138">
        <ele>791.7</ele>
        <time>2013-05-10T10:05:01Z</time>
      </trkpt>
      <trkpt lat="44.52135" lon="3.91143">
        <ele>792.1</ele>
        <time>2013-05-10T10:05:14Z</time>
      </trkpt>
      <trkpt lat="44.52127" lon="3.91147">
        <ele>792.5</ele>
        <time>2013-05-10T10:05:23Z</time>
      </trkpt>
      <trkpt lat="44.52119" lon="3.91152">
        <ele>792.9</ele>
        <time>2013-05-10T10:05:41Z</time>
      </trkpt>
      <trkpt lat="44.52116" lon="3.91162">
        <ele>792.9</ele>
        <time>2013-05-10T10:05:48Z</time>
      </trkpt>
      <trkpt lat="44.52111" lon="3.9117">
        <ele>793</ele>
        <time>2013-05-10T10:06:01Z</time>
      </trkpt>
      <trkpt lat="44.5211" lon="3.91172">
        <ele>793</ele>
        <time>2013-05-10T10:06:02Z</time>
      </trkpt>
      <trkpt lat="44.52105" lon="3.91191">
        <ele>793.1</ele>
        <time>2013-05-10T10:06:24Z</time>
      </trkpt>
      <trkpt lat="44.5211" lon="3.91199">
        <ele>793.1</ele>
        <time>2013-05-10T10:06:31Z</time>
      </trkpt>
      <trkpt lat="44.52118" lon="3.91203">
        <ele>793.1</ele>
        <time>2013-05-10T10:06:35Z</time>
      </trkpt>
      <trkpt lat="44.52116" lon="3.91194">
        <ele>793.1</ele>
        <time>2013-05-10T10:06:42Z</time>
      </trkpt>
      <trkpt lat="44.5211" lon="3.91195">
        <ele>793.3</ele>
        <time>2013-05-10T10:06:53Z</time>
      </trkpt>
      <trkpt lat="44.52107" lon="3.91206">
        <ele>793.3</ele>
        <time>2013-05-10T10:06:57Z</time>
      </trkpt>
      <trkpt lat="44.52105" lon="3.91216">
        <ele>793.4</ele>
        <time>2013-05-10T10:07:02Z</time>
      </trkpt>
      <trkpt lat="44.52107" lon="3.91219">
        <ele>793.4</ele>
        <time>2013-05-10T10:07:03Z</time>
      </trkpt>
      <trkpt lat="44.52105" lon="3.9124">
        <ele>794.6</ele>
        <time>2013-05-10T10:07:28Z</time>
      </trkpt>
      <trkpt lat="44.52106" lon="3.91252">
        <ele>794.8</ele>
        <time>2013-05-10T10:07:37Z</time>
      </trkpt>
      <trkpt lat="44.52102" lon="3.91263">
        <ele>794.9</ele>
        <time>2013-05-10T10:07:47Z</time>
      </trkpt>
      <trkpt lat="44.52099" lon="3.91272">
        <ele>795.1</ele>
        <time>2013-05-10T10:07:54Z</time>
      </trkpt>
      <trkpt lat="44.52096" lon="3.91284">
        <ele>795.3</ele>
        <time>2013-05-10T10:08:01Z</time>
      </trkpt>
      <trkpt lat="44.52092" lon="3.91294">
        <ele>795.6</ele>
        <time>2013-05-10T10:08:10Z</time>
      </trkpt>
      <trkpt lat="44.52092" lon="3.91296">
        <ele>795.7</ele>
        <time>2013-05-10T10:08:11Z</time>
      </trkpt>
      <trkpt lat="44.52086" lon="3.91316">
        <ele>796.7</ele>
        <time>2013-05-10T10:08:29Z</time>
      </trkpt>
      <trkpt lat="44.52086" lon="3.91328">
        <ele>797.5</ele>
        <time>2013-05-10T10:08:37Z</time>
      </trkpt>
      <trkpt lat="44.52085" lon="3.91339">
        <ele>798.1</ele>
        <time>2013-05-10T10:08:43Z</time>
      </trkpt>
      <trkpt lat="44.5209" lon="3.91348">
        <ele>798.6</ele>
        <time>2013-05-10T10:08:53Z</time>
      </trkpt>
      <trkpt lat="44.52091" lon="3.9136">
        <ele>799.3</ele>
        <time>2013-05-10T10:09:04Z</time>
      </trkpt>
      <trkpt lat="44.52094" lon="3.91372">
        <ele>800.1</ele>
        <time>2013-05-10T10:09:15Z</time>
      </trkpt>
      <trkpt lat="44.52094" lon="3.91374">
        <ele>800.2</ele>
        <time>2013-05-10T10:09:16Z</time>
      </trkpt>
      <trkpt lat="44.52102" lon="3.91389">
        <ele>801.1</ele>
        <time>2013-05-10T10:09:44Z</time>
      </trkpt>
      <trkpt lat="44.52108" lon="3.91395">
        <ele>801.3</ele>
        <time>2013-05-10T10:09:50Z</time>
      </trkpt>
      <trkpt lat="44.52112" lon="3.91406">
        <ele>801.5</ele>
        <time>2013-05-10T10:10:04Z</time>
      </trkpt>
      <trkpt lat="44.52115" lon="3.91416">
        <ele>801.6</ele>
        <time>2013-05-10T10:10:07Z</time>
      </trkpt>
      <trkpt lat="44.52113" lon="3.91426">
        <ele>801.6</ele>
        <time>2013-05-10T10:10:11Z</time>
      </trkpt>
      <trkpt lat="44.52114" lon="3.91438">
        <ele>801.8</ele>
        <time>2013-05-10T10:10:17Z</time>
      </trkpt>
      <trkpt lat="44.52114" lon="3.91438">
        <ele>801.9</ele>
        <time>2013-05-10T10:10:18Z</time>
      </trkpt>
      <trkpt lat="44.52112" lon="3.9146">
        <ele>802.4</ele>
        <time>2013-05-10T10:10:27Z</time>
      </trkpt>
      <trkpt lat="44.5211" lon="3.91472">
        <ele>802.8</ele>
        <time>2013-05-10T10:10:37Z</time>
      </trkpt>
      <trkpt lat="44.52107" lon="3.91482">
        <ele>803.1</ele>
        <time>2013-05-10T10:10:45Z</time>
      </trkpt>
      <trkpt lat="44.52104" lon="3.91493">
        <ele>803.5</ele>
        <time>2013-05-10T10:10:55Z</time>
      </trkpt>
      <trkpt lat="44.52103" lon="3.91504">
        <ele>804</ele>
        <time>2013-05-10T10:11:01Z</time>
      </trkpt>
      <trkpt lat="44.52102" lon="3.91515">
        <ele>804.2</ele>
        <time>2013-05-10T10:11:06Z</time>
      </trkpt>
      <trkpt lat="44.521" lon="3.91527">
        <ele>804.8</ele>
        <time>2013-05-10T10:11:18Z</time>
      </trkpt>
      <trkpt lat="44.52101" lon="3.91529">
        <ele>804.9</ele>
        <time>2013-05-10T10:11:19Z</time>
      </trkpt>
      <trkpt lat="44.52099" lon="3.9155">
        <ele>805.6</ele>
        <time>2013-05-10T10:11:29Z</time>
      </trkpt>
      <trkpt lat="44.52107" lon="3.91548">
        <ele>806.8</ele>
        <time>2013-05-10T10:11:58Z</time>
      </trkpt>
      <trkpt lat="44.52114" lon="3.91548">
        <ele>807.3</ele>
        <time>2013-05-10T10:12:07Z</time>
      </trkpt>
      <trkpt lat="44.52119" lon="3.91557">
        <ele>809.3</ele>
        <time>2013-05-10T10:12:38Z</time>
      </trkpt>
      <trkpt lat="44.52119" lon="3.91558">
        <ele>809.3</ele>
        <time>2013-05-10T10:12:39Z</time>
      </trkpt>
      <trkpt lat="44.52133" lon="3.91562">
        <ele>810</ele>
        <time>2013-05-10T10:12:56Z</time>
      </trkpt>
      <trkpt lat="44.52135" lon="3.91573">
        <ele>810.2</ele>
        <time>2013-05-10T10:13:02Z</time>
      </trkpt>
      <trkpt lat="44.5214" lon="3.91583">
        <ele>810.5</ele>
        <time>2013-05-10T10:13:10Z</time>
      </trkpt>
      <trkpt lat="44.52145" lon="3.91593">
        <ele>810.8</ele>
        <time>2013-05-10T10:13:16Z</time>
      </trkpt>
      <trkpt lat="44.52147" lon="3.91603">
        <ele>811.2</ele>
        <time>2013-05-10T10:13:23Z</time>
      </trkpt>
      <trkpt lat="44.52149" lon="3.91614">
        <ele>811.5</ele>
        <time>2013-05-10T10:13:28Z</time>
      </trkpt>
      <trkpt lat="44.52142" lon="3.91621">
        <ele>811.9</ele>
        <time>2013-05-10T10:13:36Z</time>
      </trkpt>
      <trkpt lat="44.52137" lon="3.91631">
        <ele>812.3</ele>
        <time>2013-05-10T10:13:47Z</time>
      </trkpt>
      <trkpt lat="44.52137" lon="3.91632">
        <ele>812.4</ele>
        <time>2013-05-10T10:13:48Z</time>
      </trkpt>
      <trkpt lat="44.5213" lon="3.91636">
        <ele>813.6</ele>
        <time>2013-05-10T10:14:35Z</time>
      </trkpt>
      <trkpt lat="44.52126" lon="3.91644">
        <ele>813.7</ele>
        <time>2013-05-10T10:14:39Z</time>
      </trkpt>
      <trkpt lat="44.52125" lon="3.91656">
        <ele>813.9</ele>
        <time>2013-05-10T10:14:43Z</time>
      </trkpt>
      <trkpt lat="44.52123" lon="3.91665">
        <ele>814</ele>
        <time>2013-05-10T10:14:45Z</time>
      </trkpt>
      <trkpt lat="44.52118" lon="3.91673">
        <ele>814.3</ele>
        <time>2013-05-10T10:14:51Z</time>
      </trkpt>
      <trkpt lat="44.52117" lon="3.91678">
        <ele>814.4</ele>
        <time>2013-05-10T10:14:52Z</time>
      </trkpt>
      <trkpt lat="44.52102" lon="3.91664">
        <ele>816.4</ele>
        <time>2013-05-10T10:15:11Z</time>
      </trkpt>
      <trkpt lat="44.52097" lon="3.91673">
        <ele>816.8</ele>
        <time>2013-05-10T10:15:20Z</time>
      </trkpt>
      <trkpt lat="44.52096" lon="3.91684">
        <ele>817</ele>
        <time>2013-05-10T10:15:24Z</time>
      </trkpt>
      <trkpt lat="44.521" lon="3.91694">
        <ele>817.1</ele>
        <time>2013-05-10T10:15:29Z</time>
      </trkpt>
      <trkpt lat="44.521" lon="3.91707">
        <ele>817.3</ele>
        <time>2013-05-10T10:15:36Z</time>
      </trkpt>
      <trkpt lat="44.52101" lon="3.91719">
        <ele>817.6</ele>
        <time>2013-05-10T10:15:43Z</time>
      </trkpt>
      <trkpt lat="44.52103" lon="3.9173">
        <ele>818</ele>
        <time>2013-05-10T10:15:50Z</time>
      </trkpt>
      <trkpt lat="44.52101" lon="3.91741">
        <ele>819.3</ele>
        <time>2013-05-10T10:16:04Z</time>
      </trkpt>
      <trkpt lat="44.521" lon="3.91743">
        <ele>819.4</ele>
        <time>2013-05-10T10:16:05Z</time>
      </trkpt>
      <trkpt lat="44.52092" lon="3.9176">
        <ele>820.1</ele>
        <time>2013-05-10T10:16:13Z</time>
      </trkpt>
      <trkpt lat="44.52088" lon="3.91771">
        <ele>820.4</ele>
        <time>2013-05-10T10:16:20Z</time>
      </trkpt>
      <trkpt lat="44.52084" lon="3.91782">
        <ele>820.9</ele>
        <time>2013-05-10T10:16:24Z</time>
      </trkpt>
      <trkpt lat="44.5208" lon="3.91792">
        <ele>821.6</ele>
        <time>2013-05-10T10:16:30Z</time>
      </trkpt>
      <trkpt lat="44.52078" lon="3.91803">
        <ele>822.1</ele>
        <time>2013-05-10T10:16:36Z</time>
      </trkpt>
      <trkpt lat="44.52076" lon="3.91815">
        <ele>822.6</ele>
        <time>2013-05-10T10:16:41Z</time>
      </trkpt>
      <trkpt lat="44.52076" lon="3.91828">
        <ele>823.6</ele>
        <time>2013-05-10T10:16:49Z</time>
      </trkpt>
      <trkpt lat="44.52071" lon="3.91836">
        <ele>825.9</ele>
        <time>2013-05-10T10:17:00Z</time>
      </trkpt>
      <trkpt lat="44.52067" lon="3.91846">
        <ele>827</ele>
        <time>2013-05-10T10:17:05Z</time>
      </trkpt>
      <trkpt lat="44.52066" lon="3.91848">
        <ele>827.2</ele>
        <time>2013-05-10T10:17:06Z</time>
      </trkpt>
      <trkpt lat="44.52057" lon="3.91864">
        <ele>829.6</ele>
        <time>2013-05-10T10:17:18Z</time>
      </trkpt>
      <trkpt lat="44.52055" lon="3.91872">
        <ele>831.2</ele>
        <time>2013-05-10T10:17:49Z</time>
      </trkpt>
      <trkpt lat="44.52047" lon="3.91875">
        <ele>831.6</ele>
        <time>2013-05-10T10:18:23Z</time>
      </trkpt>
      <trkpt lat="44.52046" lon="3.91876">
        <ele>831.6</ele>
        <time>2013-05-10T10:18:24Z</time>
      </trkpt>
      <trkpt lat="44.52062" lon="3.91871">
        <ele>832.4</ele>
        <time>2013-05-10T10:19:22Z</time>
      </trkpt>
      <trkpt lat="44.5207" lon="3.91874">
        <ele>832.6</ele>
        <time>2013-05-10T10:19:37Z</time>
      </trkpt>
      <trkpt lat="44.52071" lon="3.91875">
        <ele>832.6</ele>
        <time>2013-05-10T10:19:38Z</time>
      </trkpt>
      <trkpt lat="44.52061" lon="3.91894">
        <ele>833.3</ele>
        <time>2013-05-10T10:20:09Z</time>
      </trkpt>
      <trkpt lat="44.52054" lon="3.91892">
        <ele>833.4</ele>
        <time>2013-05-10T10:20:14Z</time>
      </trkpt>
      <trkpt lat="44.52047" lon="3.91888">
        <ele>833.6</ele>
        <time>2013-05-10T10:20:19Z</time>
      </trkpt>
      <trkpt lat="44.5204" lon="3.91883">
        <ele>833.7</ele>
        <time>2013-05-10T10:20:26Z</time>
      </trkpt>
      <trkpt lat="44.52033" lon="3.91876">
        <ele>834</ele>
        <time>2013-05-10T10:20:37Z</time>
      </trkpt>
      <trkpt lat="44.52025" lon="3.91875">
        <ele>834.4</ele>
        <time>2013-05-10T10:20:46Z</time>
      </trkpt>
      <trkpt lat="44.52023" lon="3.91874">
        <ele>834.5</ele>
        <time>2013-05-10T10:20:47Z</time>
      </trkpt>
      <trkpt lat="44.52008" lon="3.91872">
        <ele>835</ele>
        <time>2013-05-10T10:21:06Z</time>
      </trkpt>
      <trkpt lat="44.52001" lon="3.91867">
        <ele>835.3</ele>
        <time>2013-05-10T10:21:11Z</time>
      </trkpt>
      <trkpt lat="44.51995" lon="3.91861">
        <ele>835.5</ele>
        <time>2013-05-10T10:21:20Z</time>
      </trkpt>
      <trkpt lat="44.51987" lon="3.91858">
        <ele>835.7</ele>
        <time>2013-05-10T10:21:26Z</time>
      </trkpt>
      <trkpt lat="44.5198" lon="3.91853">
        <ele>835.8</ele>
        <time>2013-05-10T10:21:32Z</time>
      </trkpt>
      <trkpt lat="44.51971" lon="3.91854">
        <ele>836.1</ele>
        <time>2013-05-10T10:21:44Z</time>
      </trkpt>
      <trkpt lat="44.51966" lon="3.91846">
        <ele>836.3</ele>
        <time>2013-05-10T10:21:48Z</time>
      </trkpt>
      <trkpt lat="44.51965" lon="3.91845">
        <ele>836.4</ele>
        <time>2013-05-10T10:21:49Z</time>
      </trkpt>
      <trkpt lat="44.51953" lon="3.91836">
        <ele>836.8</ele>
        <time>2013-05-10T10:21:58Z</time>
      </trkpt>
      <trkpt lat="44.51945" lon="3.91832">
        <ele>837.1</ele>
        <time>2013-05-10T10:22:07Z</time>
      </trkpt>
      <trkpt lat="44.51937" lon="3.91829">
        <ele>837.5</ele>
        <time>2013-05-10T10:22:13Z</time>
      </trkpt>
      <trkpt lat="44.51929" lon="3.91824">
        <ele>837.8</ele>
        <time>2013-05-10T10:22:20Z</time>
      </trkpt>
      <trkpt lat="44.51923" lon="3.91818">
        <ele>837.9</ele>
        <time>2013-05-10T10:22:24Z</time>
      </trkpt>
      <trkpt lat="44.51915" lon="3.91812">
        <ele>837.9</ele>
        <time>2013-05-10T10:22:29Z</time>
      </trkpt>
      <trkpt lat="44.51923" lon="3.91809">
        <ele>838.8</ele>
        <time>2013-05-10T10:22:49Z</time>
      </trkpt>
      <trkpt lat="44.51924" lon="3.91809">
        <ele>838.8</ele>
        <time>2013-05-10T10:22:50Z</time>
      </trkpt>
      <trkpt lat="44.51919" lon="3.91817">
        <ele>839</ele>
        <time>2013-05-10T10:23:00Z</time>
      </trkpt>
      <trkpt lat="44.5191" lon="3.91816">
        <ele>839</ele>
        <time>2013-05-10T10:23:03Z</time>
      </trkpt>
      <trkpt lat="44.51904" lon="3.91815">
        <ele>839.2</ele>
        <time>2013-05-10T10:23:11Z</time>
      </trkpt>
      <trkpt lat="44.51898" lon="3.91809">
        <ele>839.5</ele>
        <time>2013-05-10T10:23:16Z</time>
      </trkpt>
      <trkpt lat="44.51893" lon="3.91803">
        <ele>839.7</ele>
        <time>2013-05-10T10:23:19Z</time>
      </trkpt>
      <trkpt lat="44.51888" lon="3.91796">
        <ele>839.9</ele>
        <time>2013-05-10T10:23:22Z</time>
      </trkpt>
      <trkpt lat="44.51885" lon="3.91788">
        <ele>840.1</ele>
        <time>2013-05-10T10:23:26Z</time>
      </trkpt>
      <trkpt lat="44.51878" lon="3.91781">
        <ele>840.6</ele>
        <time>2013-05-10T10:23:36Z</time>
      </trkpt>
      <trkpt lat="44.5187" lon="3.91777">
        <ele>840.9</ele>
        <time>2013-05-10T10:23:43Z</time>
      </trkpt>
      <trkpt lat="44.51862" lon="3.91773">
        <ele>841.7</ele>
        <time>2013-05-10T10:23:55Z</time>
      </trkpt>
      <trkpt lat="44.51861" lon="3.91772">
        <ele>841.7</ele>
        <time>2013-05-10T10:23:56Z</time>
      </trkpt>
      <trkpt lat="44.51851" lon="3.91756">
        <ele>843</ele>
        <time>2013-05-10T10:24:07Z</time>
      </trkpt>
      <trkpt lat="44.51848" lon="3.91746">
        <ele>843.5</ele>
        <time>2013-05-10T10:24:11Z</time>
      </trkpt>
      <trkpt lat="44.51844" lon="3.9174">
        <ele>843.7</ele>
        <time>2013-05-10T10:24:13Z</time>
      </trkpt>
      <trkpt lat="44.51842" lon="3.9173">
        <ele>843.9</ele>
        <time>2013-05-10T10:24:16Z</time>
      </trkpt>
      <trkpt lat="44.51847" lon="3.9172">
        <ele>844.8</ele>
        <time>2013-05-10T10:24:29Z</time>
      </trkpt>
      <trkpt lat="44.51844" lon="3.91713">
        <ele>844.9</ele>
        <time>2013-05-10T10:24:31Z</time>
      </trkpt>
      <trkpt lat="44.51843" lon="3.91702">
        <ele>845.2</ele>
        <time>2013-05-10T10:24:35Z</time>
      </trkpt>
      <trkpt lat="44.51844" lon="3.9169">
        <ele>845.4</ele>
        <time>2013-05-10T10:24:43Z</time>
      </trkpt>
      <trkpt lat="44.51851" lon="3.91685">
        <ele>845.4</ele>
        <time>2013-05-10T10:24:50Z</time>
      </trkpt>
      <trkpt lat="44.51858" lon="3.91678">
        <ele>845.8</ele>
        <time>2013-05-10T10:25:05Z</time>
      </trkpt>
      <trkpt lat="44.51859" lon="3.91677">
        <ele>845.8</ele>
        <time>2013-05-10T10:25:06Z</time>
      </trkpt>
      <trkpt lat="44.51871" lon="3.91665">
        <ele>846.5</ele>
        <time>2013-05-10T10:25:29Z</time>
      </trkpt>
      <trkpt lat="44.51879" lon="3.91659">
        <ele>846.7</ele>
        <time>2013-05-10T10:25:40Z</time>
      </trkpt>
      <trkpt lat="44.51888" lon="3.9166">
        <ele>847.1</ele>
        <time>2013-05-10T10:25:56Z</time>
      </trkpt>
      <trkpt lat="44.51896" lon="3.91664">
        <ele>847.7</ele>
        <time>2013-05-10T10:26:12Z</time>
      </trkpt>
      <trkpt lat="44.51898" lon="3.91651">
        <ele>847.9</ele>
        <time>2013-05-10T10:26:13Z</time>
      </trkpt>
      <trkpt lat="44.519" lon="3.91642">
        <ele>848</ele>
        <time>2013-05-10T10:26:18Z</time>
      </trkpt>
      <trkpt lat="44.51897" lon="3.9163">
        <ele>848.2</ele>
        <time>2013-05-10T10:26:24Z</time>
      </trkpt>
      <trkpt lat="44.51896" lon="3.91629">
        <ele>848.2</ele>
        <time>2013-05-10T10:26:25Z</time>
      </trkpt>
      <trkpt lat="44.5189" lon="3.91617">
        <ele>848</ele>
        <time>2013-05-10T10:26:26Z</time>
      </trkpt>
      <trkpt lat="44.51886" lon="3.91611">
        <ele>848</ele>
        <time>2013-05-10T10:26:29Z</time>
      </trkpt>
      <trkpt lat="44.5188" lon="3.91609">
        <ele>849</ele>
        <time>2013-05-10T10:27:16Z</time>
      </trkpt>
      <trkpt lat="44.51877" lon="3.91606">
        <ele>849</ele>
        <time>2013-05-10T10:27:17Z</time>
      </trkpt>
      <trkpt lat="44.51866" lon="3.91604">
        <ele>849.2</ele>
        <time>2013-05-10T10:27:34Z</time>
      </trkpt>
      <trkpt lat="44.51859" lon="3.91599">
        <ele>849.2</ele>
        <time>2013-05-10T10:27:43Z</time>
      </trkpt>
      <trkpt lat="44.51852" lon="3.91602">
        <ele>849.5</ele>
        <time>2013-05-10T10:27:57Z</time>
      </trkpt>
      <trkpt lat="44.51847" lon="3.91611">
        <ele>849.6</ele>
        <time>2013-05-10T10:28:04Z</time>
      </trkpt>
      <trkpt lat="44.51839" lon="3.91608">
        <ele>849.6</ele>
        <time>2013-05-10T10:28:24Z</time>
      </trkpt>
      <trkpt lat="44.51838" lon="3.91607">
        <ele>849.7</ele>
        <time>2013-05-10T10:28:25Z</time>
      </trkpt>
      <trkpt lat="44.51826" lon="3.91595">
        <ele>849.8</ele>
        <time>2013-05-10T10:28:32Z</time>
      </trkpt>
      <trkpt lat="44.51819" lon="3.91589">
        <ele>849.9</ele>
        <time>2013-05-10T10:28:37Z</time>
      </trkpt>
      <trkpt lat="44.51814" lon="3.91584">
        <ele>849.9</ele>
        <time>2013-05-10T10:28:46Z</time>
      </trkpt>
      <trkpt lat="44.51807" lon="3.91581">
        <ele>849.9</ele>
        <time>2013-05-10T10:28:51Z</time>
      </trkpt>
      <trkpt lat="44.51801" lon="3.91573">
        <ele>850</ele>
        <time>2013-05-10T10:28:56Z</time>
      </trkpt>
      <trkpt lat="44.51795" lon="3.91565">
        <ele>850</ele>
        <time>2013-05-10T10:29:01Z</time>
      </trkpt>
      <trkpt lat="44.51788" lon="3.9156">
        <ele>850</ele>
        <time>2013-05-10T10:29:04Z</time>
      </trkpt>
      <trkpt lat="44.51781" lon="3.91557">
        <ele>850.2</ele>
        <time>2013-05-10T10:29:12Z</time>
      </trkpt>
      <trkpt lat="44.51772" lon="3.91555">
        <ele>850.3</ele>
        <time>2013-05-10T10:29:16Z</time>
      </trkpt>
      <trkpt lat="44.51764" lon="3.91559">
        <ele>850.5</ele>
        <time>2013-05-10T10:29:21Z</time>
      </trkpt>
      <trkpt lat="44.51756" lon="3.91558">
        <ele>850.6</ele>
        <time>2013-05-10T10:29:27Z</time>
      </trkpt>
      <trkpt lat="44.51754" lon="3.91557">
        <ele>850.7</ele>
        <time>2013-05-10T10:29:28Z</time>
      </trkpt>
      <trkpt lat="44.51743" lon="3.91544">
        <ele>851</ele>
        <time>2013-05-10T10:29:38Z</time>
      </trkpt>
      <trkpt lat="44.51736" lon="3.91539">
        <ele>851.1</ele>
        <time>2013-05-10T10:29:45Z</time>
      </trkpt>
      <trkpt lat="44.51729" lon="3.91533">
        <ele>851.2</ele>
        <time>2013-05-10T10:29:51Z</time>
      </trkpt>
      <trkpt lat="44.51724" lon="3.91526">
        <ele>851.3</ele>
        <time>2013-05-10T10:29:56Z</time>
      </trkpt>
      <trkpt lat="44.51716" lon="3.9152">
        <ele>851.4</ele>
        <time>2013-05-10T10:30:00Z</time>
      </trkpt>
      <trkpt lat="44.51709" lon="3.91516">
        <ele>851.8</ele>
        <time>2013-05-10T10:30:10Z</time>
      </trkpt>
      <trkpt lat="44.51702" lon="3.91513">
        <ele>852.3</ele>
        <time>2013-05-10T10:30:23Z</time>
      </trkpt>
      <trkpt lat="44.51699" lon="3.91524">
        <ele>852.4</ele>
        <time>2013-05-10T10:30:33Z</time>
      </trkpt>
      <trkpt lat="44.51698" lon="3.91525">
        <ele>852.4</ele>
        <time>2013-05-10T10:30:34Z</time>
      </trkpt>
      <trkpt lat="44.51684" lon="3.91521">
        <ele>852.9</ele>
        <time>2013-05-10T10:30:36Z</time>
      </trkpt>
      <trkpt lat="44.51677" lon="3.91524">
        <ele>858.4</ele>
        <time>2013-05-10T10:32:17Z</time>
      </trkpt>
      <trkpt lat="44.51676" lon="3.91525">
        <ele>858.4</ele>
        <time>2013-05-10T10:32:18Z</time>
      </trkpt>
      <trkpt lat="44.5168" lon="3.91546">
        <ele>861</ele>
        <time>2013-05-10T10:32:54Z</time>
      </trkpt>
      <trkpt lat="44.51688" lon="3.91552">
        <ele>851.6</ele>
        <time>2013-05-10T10:53:52Z</time>
      </trkpt>
      <trkpt lat="44.51688" lon="3.91552">
        <ele>851.6</ele>
        <time>2013-05-10T10:53:53Z</time>
      </trkpt>
      <trkpt lat="44.5168" lon="3.91557">
        <ele>857.5</ele>
        <time>2013-05-10T11:14:47Z</time>
      </trkpt>
      <trkpt lat="44.5168" lon="3.91541">
        <ele>857</ele>
        <time>2013-05-10T11:22:52Z</time>
      </trkpt>
      <trkpt lat="44.51665" lon="3.91545">
        <ele>857.2</ele>
        <time>2013-05-10T11:23:12Z</time>
      </trkpt>
      <trkpt lat="44.51659" lon="3.91551">
        <ele>857.1</ele>
        <time>2013-05-10T11:23:16Z</time>
      </trkpt>
      <trkpt lat="44.51653" lon="3.91557">
        <ele>857</ele>
        <time>2013-05-10T11:23:21Z</time>
      </trkpt>
      <trkpt lat="44.51647" lon="3.91564">
        <ele>857</ele>
        <time>2013-05-10T11:23:27Z</time>
      </trkpt>
      <trkpt lat="44.51639" lon="3.91569">
        <ele>856.8</ele>
        <time>2013-05-10T11:23:35Z</time>
      </trkpt>
      <trkpt lat="44.51633" lon="3.91577">
        <ele>856.7</ele>
        <time>2013-05-10T11:23:44Z</time>
      </trkpt>
      <trkpt lat="44.51625" lon="3.9158">
        <ele>856.4</ele>
        <time>2013-05-10T11:23:56Z</time>
      </trkpt>
      <trkpt lat="44.51624" lon="3.9158">
        <ele>856.4</ele>
        <time>2013-05-10T11:23:57Z</time>
      </trkpt>
      <trkpt lat="44.5161" lon="3.9159">
        <ele>854.1</ele>
        <time>2013-05-10T11:24:21Z</time>
      </trkpt>
      <trkpt lat="44.51604" lon="3.91598">
        <ele>852.9</ele>
        <time>2013-05-10T11:24:31Z</time>
      </trkpt>
      <trkpt lat="44.51597" lon="3.91605">
        <ele>851.7</ele>
        <time>2013-05-10T11:24:45Z</time>
      </trkpt>
      <trkpt lat="44.51593" lon="3.91616">
        <ele>850.9</ele>
        <time>2013-05-10T11:24:56Z</time>
      </trkpt>
      <trkpt lat="44.51588" lon="3.91624">
        <ele>850.6</ele>
        <time>2013-05-10T11:25:02Z</time>
      </trkpt>
      <trkpt lat="44.51587" lon="3.91625">
        <ele>850.6</ele>
        <time>2013-05-10T11:25:03Z</time>
      </trkpt>
      <trkpt lat="44.51578" lon="3.91641">
        <ele>849.1</ele>
        <time>2013-05-10T11:25:16Z</time>
      </trkpt>
      <trkpt lat="44.51573" lon="3.9165">
        <ele>848.4</ele>
        <time>2013-05-10T11:25:21Z</time>
      </trkpt>
      <trkpt lat="44.51569" lon="3.91661">
        <ele>847.9</ele>
        <time>2013-05-10T11:25:26Z</time>
      </trkpt>
      <trkpt lat="44.51563" lon="3.9167">
        <ele>845.3</ele>
        <time>2013-05-10T11:25:42Z</time>
      </trkpt>
      <trkpt lat="44.51555" lon="3.91666">
        <ele>844.5</ele>
        <time>2013-05-10T11:25:53Z</time>
      </trkpt>
      <trkpt lat="44.51547" lon="3.91661">
        <ele>844</ele>
        <time>2013-05-10T11:26:02Z</time>
      </trkpt>
      <trkpt lat="44.51538" lon="3.91663">
        <ele>843</ele>
        <time>2013-05-10T11:26:14Z</time>
      </trkpt>
      <trkpt lat="44.51537" lon="3.91665">
        <ele>842.8</ele>
        <time>2013-05-10T11:26:15Z</time>
      </trkpt>
      <trkpt lat="44.51541" lon="3.91686">
        <ele>838.5</ele>
        <time>2013-05-10T11:26:52Z</time>
      </trkpt>
      <trkpt lat="44.51549" lon="3.91691">
        <ele>837.2</ele>
        <time>2013-05-10T11:27:06Z</time>
      </trkpt>
      <trkpt lat="44.51553" lon="3.91702">
        <ele>835.9</ele>
        <time>2013-05-10T11:27:18Z</time>
      </trkpt>
      <trkpt lat="44.51553" lon="3.91704">
        <ele>835.8</ele>
        <time>2013-05-10T11:27:19Z</time>
      </trkpt>
      <trkpt lat="44.51562" lon="3.91723">
        <ele>834</ele>
        <time>2013-05-10T11:27:35Z</time>
      </trkpt>
      <trkpt lat="44.51566" lon="3.91734">
        <ele>831.8</ele>
        <time>2013-05-10T11:27:51Z</time>
      </trkpt>
      <trkpt lat="44.51564" lon="3.91746">
        <ele>830.7</ele>
        <time>2013-05-10T11:27:59Z</time>
      </trkpt>
      <trkpt lat="44.51561" lon="3.91757">
        <ele>828.6</ele>
        <time>2013-05-10T11:28:12Z</time>
      </trkpt>
      <trkpt lat="44.5156" lon="3.91768">
        <ele>827.4</ele>
        <time>2013-05-10T11:28:20Z</time>
      </trkpt>
      <trkpt lat="44.51559" lon="3.91769">
        <ele>827.3</ele>
        <time>2013-05-10T11:28:21Z</time>
      </trkpt>
      <trkpt lat="44.51552" lon="3.91788">
        <ele>824.7</ele>
        <time>2013-05-10T11:28:41Z</time>
      </trkpt>
      <trkpt lat="44.51547" lon="3.91797">
        <ele>823.7</ele>
        <time>2013-05-10T11:28:48Z</time>
      </trkpt>
      <trkpt lat="44.51546" lon="3.91808">
        <ele>821.6</ele>
        <time>2013-05-10T11:29:00Z</time>
      </trkpt>
      <trkpt lat="44.51542" lon="3.91816">
        <ele>819.8</ele>
        <time>2013-05-10T11:29:11Z</time>
      </trkpt>
      <trkpt lat="44.51537" lon="3.91826">
        <ele>818.6</ele>
        <time>2013-05-10T11:29:19Z</time>
      </trkpt>
      <trkpt lat="44.51533" lon="3.91837">
        <ele>817.4</ele>
        <time>2013-05-10T11:29:29Z</time>
      </trkpt>
      <trkpt lat="44.51534" lon="3.91838">
        <ele>817.2</ele>
        <time>2013-05-10T11:29:30Z</time>
      </trkpt>
      <trkpt lat="44.51524" lon="3.91857">
        <ele>812</ele>
        <time>2013-05-10T11:30:05Z</time>
      </trkpt>
      <trkpt lat="44.51517" lon="3.91863">
        <ele>810.8</ele>
        <time>2013-05-10T11:30:13Z</time>
      </trkpt>
      <trkpt lat="44.51509" lon="3.91866">
        <ele>809.1</ele>
        <time>2013-05-10T11:30:28Z</time>
      </trkpt>
      <trkpt lat="44.51501" lon="3.91872">
        <ele>808.8</ele>
        <time>2013-05-10T11:30:34Z</time>
      </trkpt>
      <trkpt lat="44.51501" lon="3.91872">
        <ele>808.7</ele>
        <time>2013-05-10T11:30:35Z</time>
      </trkpt>
      <trkpt lat="44.51505" lon="3.91894">
        <ele>804.2</ele>
        <time>2013-05-10T11:31:06Z</time>
      </trkpt>
      <trkpt lat="44.51501" lon="3.91904">
        <ele>803.2</ele>
        <time>2013-05-10T11:31:15Z</time>
      </trkpt>
      <trkpt lat="44.51501" lon="3.91916">
        <ele>802.3</ele>
        <time>2013-05-10T11:31:22Z</time>
      </trkpt>
      <trkpt lat="44.515" lon="3.91927">
        <ele>800.8</ele>
        <time>2013-05-10T11:31:34Z</time>
      </trkpt>
      <trkpt lat="44.51492" lon="3.9193">
        <ele>799.2</ele>
        <time>2013-05-10T11:31:48Z</time>
      </trkpt>
      <trkpt lat="44.51491" lon="3.91931">
        <ele>799.2</ele>
        <time>2013-05-10T11:31:49Z</time>
      </trkpt>
      <trkpt lat="44.51483" lon="3.91944">
        <ele>795.6</ele>
        <time>2013-05-10T11:32:14Z</time>
      </trkpt>
      <trkpt lat="44.51477" lon="3.91953">
        <ele>794.5</ele>
        <time>2013-05-10T11:32:28Z</time>
      </trkpt>
      <trkpt lat="44.51469" lon="3.9196">
        <ele>793.6</ele>
        <time>2013-05-10T11:32:36Z</time>
      </trkpt>
      <trkpt lat="44.51462" lon="3.91966">
        <ele>792.6</ele>
        <time>2013-05-10T11:32:44Z</time>
      </trkpt>
      <trkpt lat="44.51456" lon="3.91971">
        <ele>791.3</ele>
        <time>2013-05-10T11:33:09Z</time>
      </trkpt>
      <trkpt lat="44.51454" lon="3.91976">
        <ele>790</ele>
        <time>2013-05-10T11:33:10Z</time>
      </trkpt>
      <trkpt lat="44.51443" lon="3.91984">
        <ele>789.9</ele>
        <time>2013-05-10T11:33:24Z</time>
      </trkpt>
      <trkpt lat="44.5144" lon="3.91996">
        <ele>789.3</ele>
        <time>2013-05-10T11:33:33Z</time>
      </trkpt>
      <trkpt lat="44.51436" lon="3.92007">
        <ele>788.1</ele>
        <time>2013-05-10T11:34:06Z</time>
      </trkpt>
      <trkpt lat="44.5143" lon="3.92016">
        <ele>787.8</ele>
        <time>2013-05-10T11:34:14Z</time>
      </trkpt>
      <trkpt lat="44.5143" lon="3.92017">
        <ele>787.8</ele>
        <time>2013-05-10T11:34:15Z</time>
      </trkpt>
      <trkpt lat="44.51418" lon="3.92032">
        <ele>787.8</ele>
        <time>2013-05-10T11:34:29Z</time>
      </trkpt>
      <trkpt lat="44.51412" lon="3.9204">
        <ele>787.8</ele>
        <time>2013-05-10T11:34:44Z</time>
      </trkpt>
      <trkpt lat="44.51406" lon="3.92049">
        <ele>787.4</ele>
        <time>2013-05-10T11:34:53Z</time>
      </trkpt>
      <trkpt lat="44.51402" lon="3.92059">
        <ele>787.5</ele>
        <time>2013-05-10T11:35:07Z</time>
      </trkpt>
      <trkpt lat="44.51393" lon="3.92063">
        <ele>787.4</ele>
        <time>2013-05-10T11:35:21Z</time>
      </trkpt>
      <trkpt lat="44.51393" lon="3.92063">
        <ele>787.4</ele>
        <time>2013-05-10T11:35:22Z</time>
      </trkpt>
      <trkpt lat="44.51382" lon="3.9208">
        <ele>787.6</ele>
        <time>2013-05-10T11:35:51Z</time>
      </trkpt>
      <trkpt lat="44.51377" lon="3.92089">
        <ele>787.9</ele>
        <time>2013-05-10T11:35:56Z</time>
      </trkpt>
      <trkpt lat="44.51371" lon="3.92097">
        <ele>788.3</ele>
        <time>2013-05-10T11:36:07Z</time>
      </trkpt>
      <trkpt lat="44.51364" lon="3.92102">
        <ele>788.9</ele>
        <time>2013-05-10T11:36:22Z</time>
      </trkpt>
      <trkpt lat="44.51363" lon="3.92103">
        <ele>788.9</ele>
        <time>2013-05-10T11:36:23Z</time>
      </trkpt>
      <trkpt lat="44.51351" lon="3.92116">
        <ele>789.1</ele>
        <time>2013-05-10T11:36:42Z</time>
      </trkpt>
      <trkpt lat="44.51343" lon="3.92118">
        <ele>790</ele>
        <time>2013-05-10T11:36:51Z</time>
      </trkpt>
      <trkpt lat="44.51336" lon="3.92126">
        <ele>791.8</ele>
        <time>2013-05-10T11:37:21Z</time>
      </trkpt>
      <trkpt lat="44.51329" lon="3.9213">
        <ele>792.2</ele>
        <time>2013-05-10T11:37:36Z</time>
      </trkpt>
      <trkpt lat="44.51328" lon="3.92132">
        <ele>792.1</ele>
        <time>2013-05-10T11:37:37Z</time>
      </trkpt>
      <trkpt lat="44.51315" lon="3.92146">
        <ele>792.1</ele>
        <time>2013-05-10T11:37:54Z</time>
      </trkpt>
      <trkpt lat="44.51308" lon="3.92151">
        <ele>792.1</ele>
        <time>2013-05-10T11:38:09Z</time>
      </trkpt>
      <trkpt lat="44.513" lon="3.92156">
        <ele>793</ele>
        <time>2013-05-10T11:38:43Z</time>
      </trkpt>
      <trkpt lat="44.51298" lon="3.92155">
        <ele>794.1</ele>
        <time>2013-05-10T11:38:44Z</time>
      </trkpt>
      <trkpt lat="44.51285" lon="3.92155">
        <ele>799.7</ele>
        <time>2013-05-10T11:39:01Z</time>
      </trkpt>
      <trkpt lat="44.51278" lon="3.92158">
        <ele>802.7</ele>
        <time>2013-05-10T11:39:07Z</time>
      </trkpt>
      <trkpt lat="44.51271" lon="3.92162">
        <ele>804.5</ele>
        <time>2013-05-10T11:39:13Z</time>
      </trkpt>
      <trkpt lat="44.51262" lon="3.92165">
        <ele>806.8</ele>
        <time>2013-05-10T11:39:22Z</time>
      </trkpt>
      <trkpt lat="44.51255" lon="3.92165">
        <ele>809.6</ele>
        <time>2013-05-10T11:39:33Z</time>
      </trkpt>
      <trkpt lat="44.51248" lon="3.92172">
        <ele>813.4</ele>
        <time>2013-05-10T11:39:50Z</time>
      </trkpt>
      <trkpt lat="44.51247" lon="3.92172">
        <ele>813.7</ele>
        <time>2013-05-10T11:39:51Z</time>
      </trkpt>
      <trkpt lat="44.51233" lon="3.92174">
        <ele>814.9</ele>
        <time>2013-05-10T11:40:10Z</time>
      </trkpt>
      <trkpt lat="44.51224" lon="3.92179">
        <ele>816.5</ele>
        <time>2013-05-10T11:40:18Z</time>
      </trkpt>
      <trkpt lat="44.51217" lon="3.92182">
        <ele>817.8</ele>
        <time>2013-05-10T11:40:27Z</time>
      </trkpt>
      <trkpt lat="44.51209" lon="3.92184">
        <ele>819.2</ele>
        <time>2013-05-10T11:40:36Z</time>
      </trkpt>
      <trkpt lat="44.51201" lon="3.9219">
        <ele>821.1</ele>
        <time>2013-05-10T11:40:43Z</time>
      </trkpt>
      <trkpt lat="44.51193" lon="3.92193">
        <ele>824</ele>
        <time>2013-05-10T11:41:16Z</time>
      </trkpt>
      <trkpt lat="44.51192" lon="3.92195">
        <ele>824.2</ele>
        <time>2013-05-10T11:41:17Z</time>
      </trkpt>
      <trkpt lat="44.51179" lon="3.92209">
        <ele>826.1</ele>
        <time>2013-05-10T11:41:41Z</time>
      </trkpt>
      <trkpt lat="44.51172" lon="3.92217">
        <ele>827.6</ele>
        <time>2013-05-10T11:41:51Z</time>
      </trkpt>
      <trkpt lat="44.51166" lon="3.92224">
        <ele>828.5</ele>
        <time>2013-05-10T11:41:58Z</time>
      </trkpt>
      <trkpt lat="44.51158" lon="3.92227">
        <ele>829.9</ele>
        <time>2013-05-10T11:42:10Z</time>
      </trkpt>
      <trkpt lat="44.5115" lon="3.92231">
        <ele>831.7</ele>
        <time>2013-05-10T11:42:21Z</time>
      </trkpt>
      <trkpt lat="44.5115" lon="3.9223">
        <ele>831.8</ele>
        <time>2013-05-10T11:42:22Z</time>
      </trkpt>
      <trkpt lat="44.51135" lon="3.92241">
        <ele>834.5</ele>
        <time>2013-05-10T11:42:36Z</time>
      </trkpt>
      <trkpt lat="44.51128" lon="3.92249">
        <ele>836.8</ele>
        <time>2013-05-10T11:42:45Z</time>
      </trkpt>
      <trkpt lat="44.51122" lon="3.92257">
        <ele>837.8</ele>
        <time>2013-05-10T11:42:52Z</time>
      </trkpt>
      <trkpt lat="44.51118" lon="3.92265">
        <ele>839.1</ele>
        <time>2013-05-10T11:43:17Z</time>
      </trkpt>
      <trkpt lat="44.51113" lon="3.92273">
        <ele>839.5</ele>
        <time>2013-05-10T11:43:22Z</time>
      </trkpt>
      <trkpt lat="44.51113" lon="3.92275">
        <ele>839.7</ele>
        <time>2013-05-10T11:43:23Z</time>
      </trkpt>
      <trkpt lat="44.51105" lon="3.92293">
        <ele>839.5</ele>
        <time>2013-05-10T11:43:37Z</time>
      </trkpt>
      <trkpt lat="44.51103" lon="3.92305">
        <ele>840.7</ele>
        <time>2013-05-10T11:43:49Z</time>
      </trkpt>
      <trkpt lat="44.51102" lon="3.92317">
        <ele>840.9</ele>
        <time>2013-05-10T11:43:58Z</time>
      </trkpt>
      <trkpt lat="44.51095" lon="3.92322">
        <ele>841.7</ele>
        <time>2013-05-10T11:44:37Z</time>
      </trkpt>
      <trkpt lat="44.51094" lon="3.92323">
        <ele>841.7</ele>
        <time>2013-05-10T11:44:38Z</time>
      </trkpt>
      <trkpt lat="44.51093" lon="3.92345">
        <ele>840.4</ele>
        <time>2013-05-10T11:44:53Z</time>
      </trkpt>
      <trkpt lat="44.51095" lon="3.92355">
        <ele>840.3</ele>
        <time>2013-05-10T11:44:59Z</time>
      </trkpt>
      <trkpt lat="44.51095" lon="3.92367">
        <ele>839.6</ele>
        <time>2013-05-10T11:45:08Z</time>
      </trkpt>
      <trkpt lat="44.51098" lon="3.92378">
        <ele>838.5</ele>
        <time>2013-05-10T11:46:05Z</time>
      </trkpt>
      <trkpt lat="44.51098" lon="3.92379">
        <ele>838.5</ele>
        <time>2013-05-10T11:46:06Z</time>
      </trkpt>
      <trkpt lat="44.51099" lon="3.92401">
        <ele>838.5</ele>
        <time>2013-05-10T11:46:23Z</time>
      </trkpt>
      <trkpt lat="44.51099" lon="3.92413">
        <ele>838.3</ele>
        <time>2013-05-10T11:46:35Z</time>
      </trkpt>
      <trkpt lat="44.51097" lon="3.92425">
        <ele>838.1</ele>
        <time>2013-05-10T11:46:45Z</time>
      </trkpt>
      <trkpt lat="44.51094" lon="3.92436">
        <ele>837.9</ele>
        <time>2013-05-10T11:46:55Z</time>
      </trkpt>
      <trkpt lat="44.51092" lon="3.92447">
        <ele>837.6</ele>
        <time>2013-05-10T11:46:59Z</time>
      </trkpt>
      <trkpt lat="44.51091" lon="3.92458">
        <ele>837.2</ele>
        <time>2013-05-10T11:47:05Z</time>
      </trkpt>
      <trkpt lat="44.51089" lon="3.92468">
        <ele>837.2</ele>
        <time>2013-05-10T11:47:08Z</time>
      </trkpt>
      <trkpt lat="44.51088" lon="3.9247">
        <ele>837.2</ele>
        <time>2013-05-10T11:47:09Z</time>
      </trkpt>
      <trkpt lat="44.51089" lon="3.92491">
        <ele>837.7</ele>
        <time>2013-05-10T11:47:21Z</time>
      </trkpt>
      <trkpt lat="44.51083" lon="3.925">
        <ele>837.3</ele>
        <time>2013-05-10T11:47:30Z</time>
      </trkpt>
      <trkpt lat="44.5108" lon="3.92511">
        <ele>836.3</ele>
        <time>2013-05-10T11:47:40Z</time>
      </trkpt>
      <trkpt lat="44.51076" lon="3.92522">
        <ele>835.4</ele>
        <time>2013-05-10T11:47:46Z</time>
      </trkpt>
      <trkpt lat="44.51073" lon="3.92533">
        <ele>834.5</ele>
        <time>2013-05-10T11:47:54Z</time>
      </trkpt>
      <trkpt lat="44.51069" lon="3.92544">
        <ele>833.9</ele>
        <time>2013-05-10T11:48:02Z</time>
      </trkpt>
      <trkpt lat="44.51068" lon="3.92555">
        <ele>833.7</ele>
        <time>2013-05-10T11:48:08Z</time>
      </trkpt>
      <trkpt lat="44.51066" lon="3.92566">
        <ele>833.3</ele>
        <time>2013-05-10T11:48:17Z</time>
      </trkpt>
      <trkpt lat="44.51066" lon="3.92568">
        <ele>833.2</ele>
        <time>2013-05-10T11:48:18Z</time>
      </trkpt>
      <trkpt lat="44.5106" lon="3.92586">
        <ele>832.9</ele>
        <time>2013-05-10T11:48:29Z</time>
      </trkpt>
      <trkpt lat="44.51056" lon="3.92597">
        <ele>832.5</ele>
        <time>2013-05-10T11:48:35Z</time>
      </trkpt>
      <trkpt lat="44.51055" lon="3.92608">
        <ele>832</ele>
        <time>2013-05-10T11:48:42Z</time>
      </trkpt>
      <trkpt lat="44.51051" lon="3.92619">
        <ele>831.6</ele>
        <time>2013-05-10T11:48:50Z</time>
      </trkpt>
      <trkpt lat="44.51048" lon="3.9263">
        <ele>831.6</ele>
        <time>2013-05-10T11:48:56Z</time>
      </trkpt>
      <trkpt lat="44.51043" lon="3.9264">
        <ele>831.4</ele>
        <time>2013-05-10T11:49:02Z</time>
      </trkpt>
      <trkpt lat="44.51041" lon="3.92651">
        <ele>830.4</ele>
        <time>2013-05-10T11:49:10Z</time>
      </trkpt>
      <trkpt lat="44.5104" lon="3.92663">
        <ele>829.1</ele>
        <time>2013-05-10T11:49:19Z</time>
      </trkpt>
      <trkpt lat="44.5104" lon="3.92664">
        <ele>828.9</ele>
        <time>2013-05-10T11:49:20Z</time>
      </trkpt>
      <trkpt lat="44.51031" lon="3.9268">
        <ele>827</ele>
        <time>2013-05-10T11:49:35Z</time>
      </trkpt>
      <trkpt lat="44.51024" lon="3.92688">
        <ele>825.4</ele>
        <time>2013-05-10T11:49:42Z</time>
      </trkpt>
      <trkpt lat="44.51019" lon="3.92697">
        <ele>824.2</ele>
        <time>2013-05-10T11:49:49Z</time>
      </trkpt>
      <trkpt lat="44.51012" lon="3.92704">
        <ele>823.2</ele>
        <time>2013-05-10T11:49:56Z</time>
      </trkpt>
      <trkpt lat="44.51008" lon="3.92713">
        <ele>822</ele>
        <time>2013-05-10T11:50:03Z</time>
      </trkpt>
      <trkpt lat="44.51003" lon="3.92723">
        <ele>821.5</ele>
        <time>2013-05-10T11:50:08Z</time>
      </trkpt>
      <trkpt lat="44.51001" lon="3.92733">
        <ele>820.7</ele>
        <time>2013-05-10T11:50:14Z</time>
      </trkpt>
      <trkpt lat="44.50998" lon="3.92744">
        <ele>819.2</ele>
        <time>2013-05-10T11:50:23Z</time>
      </trkpt>
      <trkpt lat="44.50998" lon="3.92746">
        <ele>819</ele>
        <time>2013-05-10T11:50:24Z</time>
      </trkpt>
      <trkpt lat="44.50988" lon="3.92764">
        <ele>817</ele>
        <time>2013-05-10T11:50:44Z</time>
      </trkpt>
      <trkpt lat="44.50982" lon="3.92773">
        <ele>816.8</ele>
        <time>2013-05-10T11:50:49Z</time>
      </trkpt>
      <trkpt lat="44.50977" lon="3.92782">
        <ele>816.1</ele>
        <time>2013-05-10T11:50:54Z</time>
      </trkpt>
      <trkpt lat="44.50972" lon="3.9279">
        <ele>815.2</ele>
        <time>2013-05-10T11:50:58Z</time>
      </trkpt>
      <trkpt lat="44.50967" lon="3.92799">
        <ele>813.9</ele>
        <time>2013-05-10T11:51:03Z</time>
      </trkpt>
      <trkpt lat="44.50963" lon="3.92809">
        <ele>813.5</ele>
        <time>2013-05-10T11:51:09Z</time>
      </trkpt>
      <trkpt lat="44.50961" lon="3.92822">
        <ele>810.5</ele>
        <time>2013-05-10T11:52:01Z</time>
      </trkpt>
      <trkpt lat="44.50961" lon="3.92822">
        <ele>810.5</ele>
        <time>2013-05-10T11:52:02Z</time>
      </trkpt>
      <trkpt lat="44.50954" lon="3.92841">
        <ele>809.7</ele>
        <time>2013-05-10T11:52:23Z</time>
      </trkpt>
      <trkpt lat="44.50948" lon="3.9285">
        <ele>809.2</ele>
        <time>2013-05-10T11:52:29Z</time>
      </trkpt>
      <trkpt lat="44.50944" lon="3.9286">
        <ele>809</ele>
        <time>2013-05-10T11:52:37Z</time>
      </trkpt>
      <trkpt lat="44.50944" lon="3.92872">
        <ele>809</ele>
        <time>2013-05-10T11:52:46Z</time>
      </trkpt>
      <trkpt lat="44.50942" lon="3.92884">
        <ele>809.1</ele>
        <time>2013-05-10T11:52:53Z</time>
      </trkpt>
      <trkpt lat="44.50939" lon="3.92894">
        <ele>808.9</ele>
        <time>2013-05-10T11:53:02Z</time>
      </trkpt>
      <trkpt lat="44.50938" lon="3.92895">
        <ele>808.8</ele>
        <time>2013-05-10T11:53:03Z</time>
      </trkpt>
      <trkpt lat="44.50936" lon="3.92916">
        <ele>808.8</ele>
        <time>2013-05-10T11:53:27Z</time>
      </trkpt>
      <trkpt lat="44.50935" lon="3.92924">
        <ele>808.8</ele>
        <time>2013-05-10T11:53:35Z</time>
      </trkpt>
      <trkpt lat="44.50936" lon="3.92935">
        <ele>808.5</ele>
        <time>2013-05-10T11:54:03Z</time>
      </trkpt>
      <trkpt lat="44.50936" lon="3.92937">
        <ele>808.5</ele>
        <time>2013-05-10T11:54:04Z</time>
      </trkpt>
      <trkpt lat="44.50919" lon="3.92935">
        <ele>808.5</ele>
        <time>2013-05-10T11:54:25Z</time>
      </trkpt>
      <trkpt lat="44.50925" lon="3.92935">
        <ele>808.1</ele>
        <time>2013-05-10T11:54:31Z</time>
      </trkpt>
      <trkpt lat="44.50929" lon="3.92938">
        <ele>807.6</ele>
        <time>2013-05-10T11:54:34Z</time>
      </trkpt>
      <trkpt lat="44.50937" lon="3.92942">
        <ele>806.7</ele>
        <time>2013-05-10T11:54:54Z</time>
      </trkpt>
      <trkpt lat="44.50936" lon="3.92954">
        <ele>806.3</ele>
        <time>2013-05-10T11:55:14Z</time>
      </trkpt>
      <trkpt lat="44.50936" lon="3.92956">
        <ele>806.3</ele>
        <time>2013-05-10T11:55:15Z</time>
      </trkpt>
      <trkpt lat="44.50925" lon="3.92972">
        <ele>806.6</ele>
        <time>2013-05-10T11:55:26Z</time>
      </trkpt>
      <trkpt lat="44.50919" lon="3.92978">
        <ele>806.6</ele>
        <time>2013-05-10T11:55:32Z</time>
      </trkpt>
      <trkpt lat="44.50926" lon="3.92973">
        <ele>807.3</ele>
        <time>2013-05-10T11:56:11Z</time>
      </trkpt>
      <trkpt lat="44.50925" lon="3.92962">
        <ele>806.8</ele>
        <time>2013-05-10T11:56:14Z</time>
      </trkpt>
      <trkpt lat="44.5092" lon="3.92958">
        <ele>807.2</ele>
        <time>2013-05-10T11:56:46Z</time>
      </trkpt>
      <trkpt lat="44.50916" lon="3.92959">
        <ele>807.3</ele>
        <time>2013-05-10T11:56:47Z</time>
      </trkpt>
      <trkpt lat="44.50905" lon="3.92956">
        <ele>807.8</ele>
        <time>2013-05-10T11:57:26Z</time>
      </trkpt>
      <trkpt lat="44.50898" lon="3.92963">
        <ele>807.5</ele>
        <time>2013-05-10T11:57:27Z</time>
      </trkpt>
      <trkpt lat="44.50893" lon="3.92973">
        <ele>807.6</ele>
        <time>2013-05-10T11:57:33Z</time>
      </trkpt>
      <trkpt lat="44.50891" lon="3.92985">
        <ele>807.1</ele>
        <time>2013-05-10T11:58:01Z</time>
      </trkpt>
      <trkpt lat="44.5089" lon="3.92986">
        <ele>807.1</ele>
        <time>2013-05-10T11:58:02Z</time>
      </trkpt>
      <trkpt lat="44.50876" lon="3.92992">
        <ele>807.1</ele>
        <time>2013-05-10T11:58:16Z</time>
      </trkpt>
      <trkpt lat="44.50868" lon="3.92995">
        <ele>806.6</ele>
        <time>2013-05-10T11:58:33Z</time>
      </trkpt>
      <trkpt lat="44.5086" lon="3.92996">
        <ele>807.3</ele>
        <time>2013-05-10T11:58:46Z</time>
      </trkpt>
      <trkpt lat="44.50852" lon="3.92997">
        <ele>807.7</ele>
        <time>2013-05-10T11:58:54Z</time>
      </trkpt>
      <trkpt lat="44.50844" lon="3.92999">
        <ele>807.9</ele>
        <time>2013-05-10T11:59:03Z</time>
      </trkpt>
      <trkpt lat="44.50842" lon="3.93001">
        <ele>808</ele>
        <time>2013-05-10T11:59:04Z</time>
      </trkpt>
      <trkpt lat="44.50829" lon="3.93008">
        <ele>807.9</ele>
        <time>2013-05-10T11:59:14Z</time>
      </trkpt>
      <trkpt lat="44.50823" lon="3.93016">
        <ele>808</ele>
        <time>2013-05-10T11:59:21Z</time>
      </trkpt>
      <trkpt lat="44.50817" lon="3.9302">
        <ele>808</ele>
        <time>2013-05-10T11:59:28Z</time>
      </trkpt>
      <trkpt lat="44.50809" lon="3.9302">
        <ele>808.1</ele>
        <time>2013-05-10T11:59:32Z</time>
      </trkpt>
      <trkpt lat="44.50802" lon="3.93028">
        <ele>808.2</ele>
        <time>2013-05-10T11:59:37Z</time>
      </trkpt>
      <trkpt lat="44.50793" lon="3.93031">
        <ele>808.5</ele>
        <time>2013-05-10T11:59:43Z</time>
      </trkpt>
      <trkpt lat="44.50784" lon="3.93033">
        <ele>808.7</ele>
        <time>2013-05-10T11:59:47Z</time>
      </trkpt>
      <trkpt lat="44.50777" lon="3.93038">
        <ele>808.8</ele>
        <time>2013-05-10T11:59:52Z</time>
      </trkpt>
      <trkpt lat="44.5077" lon="3.93042">
        <ele>808.8</ele>
        <time>2013-05-10T11:59:59Z</time>
      </trkpt>
      <trkpt lat="44.50762" lon="3.93044">
        <ele>808.9</ele>
        <time>2013-05-10T12:00:05Z</time>
      </trkpt>
      <trkpt lat="44.5076" lon="3.93048">
        <ele>808.9</ele>
        <time>2013-05-10T12:00:06Z</time>
      </trkpt>
      <trkpt lat="44.50747" lon="3.93056">
        <ele>808.9</ele>
        <time>2013-05-10T12:00:16Z</time>
      </trkpt>
      <trkpt lat="44.50739" lon="3.93055">
        <ele>809</ele>
        <time>2013-05-10T12:00:24Z</time>
      </trkpt>
      <trkpt lat="44.50731" lon="3.93049">
        <ele>809.3</ele>
        <time>2013-05-10T12:00:32Z</time>
      </trkpt>
      <trkpt lat="44.50722" lon="3.93047">
        <ele>809.4</ele>
        <time>2013-05-10T12:00:42Z</time>
      </trkpt>
      <trkpt lat="44.50715" lon="3.9304">
        <ele>809.5</ele>
        <time>2013-05-10T12:00:50Z</time>
      </trkpt>
      <trkpt lat="44.50707" lon="3.93039">
        <ele>809.5</ele>
        <time>2013-05-10T12:00:56Z</time>
      </trkpt>
      <trkpt lat="44.50701" lon="3.93047">
        <ele>809.6</ele>
        <time>2013-05-10T12:01:01Z</time>
      </trkpt>
      <trkpt lat="44.50692" lon="3.93048">
        <ele>809.7</ele>
        <time>2013-05-10T12:01:08Z</time>
      </trkpt>
      <trkpt lat="44.5069" lon="3.93047">
        <ele>809.7</ele>
        <time>2013-05-10T12:01:09Z</time>
      </trkpt>
      <trkpt lat="44.50679" lon="3.93061">
        <ele>810</ele>
        <time>2013-05-10T12:01:17Z</time>
      </trkpt>
      <trkpt lat="44.50671" lon="3.93066">
        <ele>810.2</ele>
        <time>2013-05-10T12:01:26Z</time>
      </trkpt>
      <trkpt lat="44.50663" lon="3.93068">
        <ele>810.5</ele>
        <time>2013-05-10T12:01:33Z</time>
      </trkpt>
      <trkpt lat="44.50656" lon="3.93061">
        <ele>810.7</ele>
        <time>2013-05-10T12:01:38Z</time>
      </trkpt>
      <trkpt lat="44.50649" lon="3.93067">
        <ele>810.9</ele>
        <time>2013-05-10T12:01:44Z</time>
      </trkpt>
      <trkpt lat="44.50643" lon="3.93076">
        <ele>811.3</ele>
        <time>2013-05-10T12:01:51Z</time>
      </trkpt>
      <trkpt lat="44.50636" lon="3.93081">
        <ele>811.5</ele>
        <time>2013-05-10T12:01:59Z</time>
      </trkpt>
      <trkpt lat="44.5063" lon="3.93088">
        <ele>811.6</ele>
        <time>2013-05-10T12:02:05Z</time>
      </trkpt>
      <trkpt lat="44.50623" lon="3.93095">
        <ele>811.7</ele>
        <time>2013-05-10T12:02:12Z</time>
      </trkpt>
      <trkpt lat="44.50621" lon="3.93094">
        <ele>811.7</ele>
        <time>2013-05-10T12:02:13Z</time>
      </trkpt>
      <trkpt lat="44.50607" lon="3.93104">
        <ele>811.3</ele>
        <time>2013-05-10T12:02:24Z</time>
      </trkpt>
      <trkpt lat="44.50599" lon="3.93103">
        <ele>811</ele>
        <time>2013-05-10T12:02:30Z</time>
      </trkpt>
      <trkpt lat="44.50592" lon="3.931">
        <ele>810.9</ele>
        <time>2013-05-10T12:02:35Z</time>
      </trkpt>
      <trkpt lat="44.50584" lon="3.93102">
        <ele>811</ele>
        <time>2013-05-10T12:02:41Z</time>
      </trkpt>
      <trkpt lat="44.50578" lon="3.93107">
        <ele>811.2</ele>
        <time>2013-05-10T12:02:48Z</time>
      </trkpt>
      <trkpt lat="44.50572" lon="3.93115">
        <ele>811.3</ele>
        <time>2013-05-10T12:02:54Z</time>
      </trkpt>
      <trkpt lat="44.50563" lon="3.93118">
        <ele>811.4</ele>
        <time>2013-05-10T12:03:00Z</time>
      </trkpt>
      <trkpt lat="44.50556" lon="3.93123">
        <ele>811.3</ele>
        <time>2013-05-10T12:03:06Z</time>
      </trkpt>
      <trkpt lat="44.5055" lon="3.93131">
        <ele>811.5</ele>
        <time>2013-05-10T12:03:10Z</time>
      </trkpt>
      <trkpt lat="44.50546" lon="3.93138">
        <ele>811.3</ele>
        <time>2013-05-10T12:03:15Z</time>
      </trkpt>
      <trkpt lat="44.50544" lon="3.93141">
        <ele>811.2</ele>
        <time>2013-05-10T12:03:16Z</time>
      </trkpt>
      <trkpt lat="44.50538" lon="3.93158">
        <ele>811.1</ele>
        <time>2013-05-10T12:03:28Z</time>
      </trkpt>
      <trkpt lat="44.5053" lon="3.93162">
        <ele>811</ele>
        <time>2013-05-10T12:03:37Z</time>
      </trkpt>
      <trkpt lat="44.50521" lon="3.93161">
        <ele>810.8</ele>
        <time>2013-05-10T12:03:47Z</time>
      </trkpt>
      <trkpt lat="44.50515" lon="3.93169">
        <ele>811</ele>
        <time>2013-05-10T12:03:53Z</time>
      </trkpt>
      <trkpt lat="44.50508" lon="3.93176">
        <ele>810.8</ele>
        <time>2013-05-10T12:03:59Z</time>
      </trkpt>
      <trkpt lat="44.50504" lon="3.93181">
        <ele>810.5</ele>
        <time>2013-05-10T12:04:11Z</time>
      </trkpt>
      <trkpt lat="44.50498" lon="3.93189">
        <ele>810</ele>
        <time>2013-05-10T12:04:15Z</time>
      </trkpt>
      <trkpt lat="44.50489" lon="3.93193">
        <ele>809.4</ele>
        <time>2013-05-10T12:04:21Z</time>
      </trkpt>
      <trkpt lat="44.50489" lon="3.93193">
        <ele>809.3</ele>
        <time>2013-05-10T12:04:22Z</time>
      </trkpt>
      <trkpt lat="44.50491" lon="3.93204">
        <ele>800.9</ele>
        <time>2013-05-10T12:05:32Z</time>
      </trkpt>
      <trkpt lat="44.50491" lon="3.93204">
        <ele>800.9</ele>
        <time>2013-05-10T12:05:33Z</time>
      </trkpt>
      <trkpt lat="44.50488" lon="3.93223">
        <ele>800.3</ele>
        <time>2013-05-10T12:06:10Z</time>
      </trkpt>
      <trkpt lat="44.50483" lon="3.93233">
        <ele>800.3</ele>
        <time>2013-05-10T12:06:12Z</time>
      </trkpt>
      <trkpt lat="44.50482" lon="3.93244">
        <ele>797.9</ele>
        <time>2013-05-10T12:06:27Z</time>
      </trkpt>
      <trkpt lat="44.50479" lon="3.93256">
        <ele>797.8</ele>
        <time>2013-05-10T12:06:36Z</time>
      </trkpt>
      <trkpt lat="44.5048" lon="3.93257">
        <ele>797.8</ele>
        <time>2013-05-10T12:06:37Z</time>
      </trkpt>
      <trkpt lat="44.50475" lon="3.93274">
        <ele>797.5</ele>
        <time>2013-05-10T12:07:13Z</time>
      </trkpt>
      <trkpt lat="44.50469" lon="3.93265">
        <ele>797</ele>
        <time>2013-05-10T12:07:22Z</time>
      </trkpt>
      <trkpt lat="44.50463" lon="3.93269">
        <ele>796.7</ele>
        <time>2013-05-10T12:07:54Z</time>
      </trkpt>
      <trkpt lat="44.50461" lon="3.93272">
        <ele>796.7</ele>
        <time>2013-05-10T12:07:55Z</time>
      </trkpt>
      <trkpt lat="44.50447" lon="3.93267">
        <ele>794.8</ele>
        <time>2013-05-10T12:08:18Z</time>
      </trkpt>
      <trkpt lat="44.50439" lon="3.93264">
        <ele>793.2</ele>
        <time>2013-05-10T12:08:52Z</time>
      </trkpt>
      <trkpt lat="44.50433" lon="3.93256">
        <ele>793</ele>
        <time>2013-05-10T12:09:00Z</time>
      </trkpt>
      <trkpt lat="44.50432" lon="3.93255">
        <ele>793</ele>
        <time>2013-05-10T12:09:01Z</time>
      </trkpt>
      <trkpt lat="44.50416" lon="3.93253">
        <ele>792.6</ele>
        <time>2013-05-10T12:09:19Z</time>
      </trkpt>
      <trkpt lat="44.50409" lon="3.93258">
        <ele>792.5</ele>
        <time>2013-05-10T12:09:23Z</time>
      </trkpt>
      <trkpt lat="44.50404" lon="3.93252">
        <ele>792.1</ele>
        <time>2013-05-10T12:09:32Z</time>
      </trkpt>
      <trkpt lat="44.50398" lon="3.93244">
        <ele>791.5</ele>
        <time>2013-05-10T12:09:39Z</time>
      </trkpt>
      <trkpt lat="44.50391" lon="3.93237">
        <ele>790.8</ele>
        <time>2013-05-10T12:09:48Z</time>
      </trkpt>
      <trkpt lat="44.50384" lon="3.93241">
        <ele>790.5</ele>
        <time>2013-05-10T12:09:53Z</time>
      </trkpt>
      <trkpt lat="44.50375" lon="3.93244">
        <ele>789.8</ele>
        <time>2013-05-10T12:09:59Z</time>
      </trkpt>
      <trkpt lat="44.50367" lon="3.93244">
        <ele>789.3</ele>
        <time>2013-05-10T12:10:09Z</time>
      </trkpt>
      <trkpt lat="44.50366" lon="3.93245">
        <ele>789.1</ele>
        <time>2013-05-10T12:10:10Z</time>
      </trkpt>
      <trkpt lat="44.50352" lon="3.93241">
        <ele>788.7</ele>
        <time>2013-05-10T12:10:22Z</time>
      </trkpt>
      <trkpt lat="44.50344" lon="3.93242">
        <ele>788.6</ele>
        <time>2013-05-10T12:10:27Z</time>
      </trkpt>
      <trkpt lat="44.50337" lon="3.9324">
        <ele>788.4</ele>
        <time>2013-05-10T12:10:35Z</time>
      </trkpt>
      <trkpt lat="44.50329" lon="3.93243">
        <ele>788.4</ele>
        <time>2013-05-10T12:10:40Z</time>
      </trkpt>
      <trkpt lat="44.50321" lon="3.93248">
        <ele>788.4</ele>
        <time>2013-05-10T12:10:45Z</time>
      </trkpt>
      <trkpt lat="44.50314" lon="3.9324">
        <ele>788.4</ele>
        <time>2013-05-10T12:10:58Z</time>
      </trkpt>
      <trkpt lat="44.50308" lon="3.93234">
        <ele>788.5</ele>
        <time>2013-05-10T12:11:03Z</time>
      </trkpt>
      <trkpt lat="44.50299" lon="3.93235">
        <ele>788.6</ele>
        <time>2013-05-10T12:11:10Z</time>
      </trkpt>
      <trkpt lat="44.50297" lon="3.93234">
        <ele>788.6</ele>
        <time>2013-05-10T12:11:11Z</time>
      </trkpt>
      <trkpt lat="44.50283" lon="3.93237">
        <ele>788.6</ele>
        <time>2013-05-10T12:11:24Z</time>
      </trkpt>
      <trkpt lat="44.50275" lon="3.93233">
        <ele>788.8</ele>
        <time>2013-05-10T12:11:31Z</time>
      </trkpt>
      <trkpt lat="44.50268" lon="3.93229">
        <ele>789</ele>
        <time>2013-05-10T12:11:40Z</time>
      </trkpt>
      <trkpt lat="44.50262" lon="3.93231">
        <ele>789.2</ele>
        <time>2013-05-10T12:11:46Z</time>
      </trkpt>
      <trkpt lat="44.50256" lon="3.93239">
        <ele>789.1</ele>
        <time>2013-05-10T12:11:49Z</time>
      </trkpt>
      <trkpt lat="44.50249" lon="3.93243">
        <ele>789</ele>
        <time>2013-05-10T12:11:51Z</time>
      </trkpt>
      <trkpt lat="44.50242" lon="3.93248">
        <ele>788.7</ele>
        <time>2013-05-10T12:11:59Z</time>
      </trkpt>
      <trkpt lat="44.50233" lon="3.93245">
        <ele>788.8</ele>
        <time>2013-05-10T12:12:08Z</time>
      </trkpt>
      <trkpt lat="44.50225" lon="3.93245">
        <ele>788.9</ele>
        <time>2013-05-10T12:12:24Z</time>
      </trkpt>
      <trkpt lat="44.50224" lon="3.93244">
        <ele>788.8</ele>
        <time>2013-05-10T12:12:25Z</time>
      </trkpt>
      <trkpt lat="44.50211" lon="3.93232">
        <ele>787.8</ele>
        <time>2013-05-10T12:13:26Z</time>
      </trkpt>
      <trkpt lat="44.5021" lon="3.93231">
        <ele>787.7</ele>
        <time>2013-05-10T12:13:27Z</time>
      </trkpt>
      <trkpt lat="44.50196" lon="3.93227">
        <ele>786.7</ele>
        <time>2013-05-10T12:13:49Z</time>
      </trkpt>
      <trkpt lat="44.5019" lon="3.9322">
        <ele>786</ele>
        <time>2013-05-10T12:14:03Z</time>
      </trkpt>
      <trkpt lat="44.50182" lon="3.93218">
        <ele>783</ele>
        <time>2013-05-10T12:14:38Z</time>
      </trkpt>
      <trkpt lat="44.5018" lon="3.93222">
        <ele>782.7</ele>
        <time>2013-05-10T12:14:39Z</time>
      </trkpt>
      <trkpt lat="44.50184" lon="3.93205">
        <ele>773.7</ele>
        <time>2013-05-10T12:15:59Z</time>
      </trkpt>
      <trkpt lat="44.50178" lon="3.9319">
        <ele>773.4</ele>
        <time>2013-05-10T12:16:11Z</time>
      </trkpt>
      <trkpt lat="44.50174" lon="3.9318">
        <ele>773.5</ele>
        <time>2013-05-10T12:16:23Z</time>
      </trkpt>
      <trkpt lat="44.50171" lon="3.93169">
        <ele>773.4</ele>
        <time>2013-05-10T12:16:32Z</time>
      </trkpt>
      <trkpt lat="44.50162" lon="3.93169">
        <ele>773.1</ele>
        <time>2013-05-10T12:16:45Z</time>
      </trkpt>
      <trkpt lat="44.50156" lon="3.93176">
        <ele>772.4</ele>
        <time>2013-05-10T12:17:07Z</time>
      </trkpt>
      <trkpt lat="44.50152" lon="3.93175">
        <ele>772.2</ele>
        <time>2013-05-10T12:17:08Z</time>
      </trkpt>
      <trkpt lat="44.50144" lon="3.9317">
        <ele>770.8</ele>
        <time>2013-05-10T12:18:01Z</time>
      </trkpt>
      <trkpt lat="44.50147" lon="3.93179">
        <ele>770.9</ele>
        <time>2013-05-10T12:18:04Z</time>
      </trkpt>
      <trkpt lat="44.50141" lon="3.93187">
        <ele>771.1</ele>
        <time>2013-05-10T12:18:19Z</time>
      </trkpt>
      <trkpt lat="44.5014" lon="3.93188">
        <ele>771.1</ele>
        <time>2013-05-10T12:18:20Z</time>
      </trkpt>
      <trkpt lat="44.50132" lon="3.93206">
        <ele>770.7</ele>
        <time>2013-05-10T12:18:28Z</time>
      </trkpt>
      <trkpt lat="44.50125" lon="3.93214">
        <ele>770.1</ele>
        <time>2013-05-10T12:18:38Z</time>
      </trkpt>
      <trkpt lat="44.50119" lon="3.93222">
        <ele>769.6</ele>
        <time>2013-05-10T12:18:51Z</time>
      </trkpt>
      <trkpt lat="44.50117" lon="3.93211">
        <ele>768.8</ele>
        <time>2013-05-10T12:19:12Z</time>
      </trkpt>
      <trkpt lat="44.50111" lon="3.93202">
        <ele>768.7</ele>
        <time>2013-05-10T12:19:16Z</time>
      </trkpt>
      <trkpt lat="44.50113" lon="3.93191">
        <ele>768.4</ele>
        <time>2013-05-10T12:19:22Z</time>
      </trkpt>
      <trkpt lat="44.50112" lon="3.93187">
        <ele>768.4</ele>
        <time>2013-05-10T12:19:23Z</time>
      </trkpt>
      <trkpt lat="44.50099" lon="3.93181">
        <ele>766.1</ele>
        <time>2013-05-10T12:20:10Z</time>
      </trkpt>
      <trkpt lat="44.50092" lon="3.93184">
        <ele>765.8</ele>
        <time>2013-05-10T12:20:17Z</time>
      </trkpt>
      <trkpt lat="44.50085" lon="3.93188">
        <ele>765.7</ele>
        <time>2013-05-10T12:20:21Z</time>
      </trkpt>
      <trkpt lat="44.5008" lon="3.93198">
        <ele>765.4</ele>
        <time>2013-05-10T12:20:27Z</time>
      </trkpt>
      <trkpt lat="44.50079" lon="3.932">
        <ele>765.3</ele>
        <time>2013-05-10T12:20:28Z</time>
      </trkpt>
      <trkpt lat="44.50063" lon="3.93199">
        <ele>765.4</ele>
        <time>2013-05-10T12:20:47Z</time>
      </trkpt>
      <trkpt lat="44.50055" lon="3.93203">
        <ele>765.1</ele>
        <time>2013-05-10T12:20:54Z</time>
      </trkpt>
      <trkpt lat="44.50052" lon="3.93215">
        <ele>765.1</ele>
        <time>2013-05-10T12:21:11Z</time>
      </trkpt>
      <trkpt lat="44.50049" lon="3.93225">
        <ele>764.9</ele>
        <time>2013-05-10T12:21:18Z</time>
      </trkpt>
      <trkpt lat="44.50041" lon="3.93226">
        <ele>764.8</ele>
        <time>2013-05-10T12:21:24Z</time>
      </trkpt>
      <trkpt lat="44.50032" lon="3.93225">
        <ele>764.8</ele>
        <time>2013-05-10T12:21:32Z</time>
      </trkpt>
      <trkpt lat="44.50031" lon="3.93226">
        <ele>764.8</ele>
        <time>2013-05-10T12:21:33Z</time>
      </trkpt>
      <trkpt lat="44.50025" lon="3.93245">
        <ele>764.7</ele>
        <time>2013-05-10T12:21:41Z</time>
      </trkpt>
      <trkpt lat="44.50018" lon="3.93253">
        <ele>764.5</ele>
        <time>2013-05-10T12:21:58Z</time>
      </trkpt>
      <trkpt lat="44.50014" lon="3.93246">
        <ele>764.4</ele>
        <time>2013-05-10T12:22:05Z</time>
      </trkpt>
      <trkpt lat="44.50006" lon="3.93242">
        <ele>764.3</ele>
        <time>2013-05-10T12:22:14Z</time>
      </trkpt>
      <trkpt lat="44.49997" lon="3.93243">
        <ele>764.5</ele>
        <time>2013-05-10T12:22:21Z</time>
      </trkpt>
      <trkpt lat="44.49992" lon="3.93248">
        <ele>764.8</ele>
        <time>2013-05-10T12:22:25Z</time>
      </trkpt>
      <trkpt lat="44.49984" lon="3.93251">
        <ele>764.9</ele>
        <time>2013-05-10T12:22:29Z</time>
      </trkpt>
      <trkpt lat="44.49975" lon="3.93252">
        <ele>764.4</ele>
        <time>2013-05-10T12:22:39Z</time>
      </trkpt>
      <trkpt lat="44.49974" lon="3.93252">
        <ele>764.3</ele>
        <time>2013-05-10T12:22:40Z</time>
      </trkpt>
      <trkpt lat="44.49959" lon="3.93243">
        <ele>764.1</ele>
        <time>2013-05-10T12:22:56Z</time>
      </trkpt>
      <trkpt lat="44.4995" lon="3.93245">
        <ele>763.9</ele>
        <time>2013-05-10T12:23:06Z</time>
      </trkpt>
      <trkpt lat="44.49942" lon="3.93247">
        <ele>763.9</ele>
        <time>2013-05-10T12:23:16Z</time>
      </trkpt>
      <trkpt lat="44.49939" lon="3.93256">
        <ele>764.4</ele>
        <time>2013-05-10T12:23:22Z</time>
      </trkpt>
      <trkpt lat="44.49934" lon="3.93262">
        <ele>764.9</ele>
        <time>2013-05-10T12:23:27Z</time>
      </trkpt>
      <trkpt lat="44.49926" lon="3.93267">
        <ele>768.2</ele>
        <time>2013-05-10T12:23:42Z</time>
      </trkpt>
      <trkpt lat="44.49925" lon="3.93267">
        <ele>768.3</ele>
        <time>2013-05-10T12:23:43Z</time>
      </trkpt>
      <trkpt lat="44.4991" lon="3.93266">
        <ele>770.3</ele>
        <time>2013-05-10T12:24:02Z</time>
      </trkpt>
      <trkpt lat="44.49902" lon="3.93267">
        <ele>771</ele>
        <time>2013-05-10T12:24:10Z</time>
      </trkpt>
      <trkpt lat="44.49895" lon="3.93261">
        <ele>771.6</ele>
        <time>2013-05-10T12:24:17Z</time>
      </trkpt>
      <trkpt lat="44.49886" lon="3.93259">
        <ele>771.9</ele>
        <time>2013-05-10T12:24:23Z</time>
      </trkpt>
      <trkpt lat="44.49882" lon="3.93253">
        <ele>772.1</ele>
        <time>2013-05-10T12:24:36Z</time>
      </trkpt>
      <trkpt lat="44.49874" lon="3.93248">
        <ele>772.2</ele>
        <time>2013-05-10T12:24:41Z</time>
      </trkpt>
      <trkpt lat="44.49869" lon="3.93242">
        <ele>772.1</ele>
        <time>2013-05-10T12:24:46Z</time>
      </trkpt>
      <trkpt lat="44.49868" lon="3.93236">
        <ele>772.1</ele>
        <time>2013-05-10T12:24:47Z</time>
      </trkpt>
      <trkpt lat="44.49864" lon="3.93225">
        <ele>772.1</ele>
        <time>2013-05-10T12:24:50Z</time>
      </trkpt>
      <trkpt lat="44.49858" lon="3.93217">
        <ele>772.1</ele>
        <time>2013-05-10T12:24:57Z</time>
      </trkpt>
      <trkpt lat="44.49851" lon="3.9322">
        <ele>772.2</ele>
        <time>2013-05-10T12:24:59Z</time>
      </trkpt>
      <trkpt lat="44.49844" lon="3.93222">
        <ele>772.3</ele>
        <time>2013-05-10T12:25:01Z</time>
      </trkpt>
      <trkpt lat="44.49837" lon="3.93225">
        <ele>772.5</ele>
        <time>2013-05-10T12:25:05Z</time>
      </trkpt>
      <trkpt lat="44.4983" lon="3.93233">
        <ele>772.7</ele>
        <time>2013-05-10T12:25:18Z</time>
      </trkpt>
      <trkpt lat="44.49824" lon="3.93242">
        <ele>772.5</ele>
        <time>2013-05-10T12:25:28Z</time>
      </trkpt>
      <trkpt lat="44.49818" lon="3.93251">
        <ele>772.7</ele>
        <time>2013-05-10T12:25:36Z</time>
      </trkpt>
      <trkpt lat="44.49816" lon="3.93258">
        <ele>773</ele>
        <time>2013-05-10T12:25:41Z</time>
      </trkpt>
      <trkpt lat="44.49818" lon="3.93267">
        <ele>773.9</ele>
        <time>2013-05-10T12:25:42Z</time>
      </trkpt>
      <trkpt lat="44.49818" lon="3.93278">
        <ele>775.3</ele>
        <time>2013-05-10T12:25:45Z</time>
      </trkpt>
      <trkpt lat="44.49816" lon="3.93267">
        <ele>776.3</ele>
        <time>2013-05-10T12:25:54Z</time>
      </trkpt>
      <trkpt lat="44.49817" lon="3.93265">
        <ele>776.3</ele>
        <time>2013-05-10T12:25:55Z</time>
      </trkpt>
      <trkpt lat="44.4982" lon="3.93246">
        <ele>776.5</ele>
        <time>2013-05-10T12:26:03Z</time>
      </trkpt>
      <trkpt lat="44.49816" lon="3.93237">
        <ele>777.3</ele>
        <time>2013-05-10T12:26:21Z</time>
      </trkpt>
      <trkpt lat="44.49809" lon="3.9323">
        <ele>777.5</ele>
        <time>2013-05-10T12:26:26Z</time>
      </trkpt>
      <trkpt lat="44.49802" lon="3.93225">
        <ele>777.8</ele>
        <time>2013-05-10T12:26:31Z</time>
      </trkpt>
      <trkpt lat="44.49793" lon="3.93223">
        <ele>778.2</ele>
        <time>2013-05-10T12:26:38Z</time>
      </trkpt>
      <trkpt lat="44.49787" lon="3.93214">
        <ele>779.8</ele>
        <time>2013-05-10T12:27:10Z</time>
      </trkpt>
      <trkpt lat="44.49781" lon="3.93217">
        <ele>780.3</ele>
        <time>2013-05-10T12:27:11Z</time>
      </trkpt>
      <trkpt lat="44.49788" lon="3.93215">
        <ele>781</ele>
        <time>2013-05-10T12:27:52Z</time>
      </trkpt>
      <trkpt lat="44.49788" lon="3.93202">
        <ele>781.3</ele>
        <time>2013-05-10T12:27:56Z</time>
      </trkpt>
      <trkpt lat="44.49785" lon="3.932">
        <ele>782.7</ele>
        <time>2013-05-10T12:28:30Z</time>
      </trkpt>
      <trkpt lat="44.49786" lon="3.93189">
        <ele>783</ele>
        <time>2013-05-10T12:28:31Z</time>
      </trkpt>
      <trkpt lat="44.49789" lon="3.93178">
        <ele>783.2</ele>
        <time>2013-05-10T12:28:35Z</time>
      </trkpt>
      <trkpt lat="44.49788" lon="3.93183">
        <ele>784</ele>
        <time>2013-05-10T12:28:58Z</time>
      </trkpt>
      <trkpt lat="44.49783" lon="3.93193">
        <ele>784.2</ele>
        <time>2013-05-10T12:28:59Z</time>
      </trkpt>
      <trkpt lat="44.49781" lon="3.93202">
        <ele>784.3</ele>
        <time>2013-05-10T12:29:01Z</time>
      </trkpt>
      <trkpt lat="44.49774" lon="3.93195">
        <ele>785.2</ele>
        <time>2013-05-10T12:29:27Z</time>
      </trkpt>
      <trkpt lat="44.49769" lon="3.93186">
        <ele>785.3</ele>
        <time>2013-05-10T12:29:39Z</time>
      </trkpt>
      <trkpt lat="44.49768" lon="3.93185">
        <ele>785.3</ele>
        <time>2013-05-10T12:29:40Z</time>
      </trkpt>
      <trkpt lat="44.4977" lon="3.932">
        <ele>785.4</ele>
        <time>2013-05-10T12:29:51Z</time>
      </trkpt>
      <trkpt lat="44.49777" lon="3.93193">
        <ele>785.3</ele>
        <time>2013-05-10T12:30:05Z</time>
      </trkpt>
      <trkpt lat="44.49782" lon="3.93184">
        <ele>785.5</ele>
        <time>2013-05-10T12:30:11Z</time>
      </trkpt>
      <trkpt lat="44.49785" lon="3.93173">
        <ele>785.6</ele>
        <time>2013-05-10T12:30:19Z</time>
      </trkpt>
      <trkpt lat="44.49787" lon="3.93161">
        <ele>785.8</ele>
        <time>2013-05-10T12:30:29Z</time>
      </trkpt>
      <trkpt lat="44.49784" lon="3.9315">
        <ele>785.8</ele>
        <time>2013-05-10T12:30:33Z</time>
      </trkpt>
      <trkpt lat="44.49785" lon="3.93138">
        <ele>785.9</ele>
        <time>2013-05-10T12:30:42Z</time>
      </trkpt>
      <trkpt lat="44.49785" lon="3.93136">
        <ele>785.9</ele>
        <time>2013-05-10T12:30:43Z</time>
      </trkpt>
      <trkpt lat="44.4979" lon="3.93116">
        <ele>786.3</ele>
        <time>2013-05-10T12:30:58Z</time>
      </trkpt>
      <trkpt lat="44.49798" lon="3.93112">
        <ele>787.2</ele>
        <time>2013-05-10T12:31:26Z</time>
      </trkpt>
      <trkpt lat="44.49805" lon="3.93111">
        <ele>787.5</ele>
        <time>2013-05-10T12:31:33Z</time>
      </trkpt>
      <trkpt lat="44.49814" lon="3.93111">
        <ele>787.8</ele>
        <time>2013-05-10T12:31:38Z</time>
      </trkpt>
      <trkpt lat="44.49822" lon="3.93114">
        <ele>789.5</ele>
        <time>2013-05-10T12:32:03Z</time>
      </trkpt>
      <trkpt lat="44.49823" lon="3.93115">
        <ele>789.5</ele>
        <time>2013-05-10T12:32:04Z</time>
      </trkpt>
      <trkpt lat="44.49836" lon="3.9312">
        <ele>789.7</ele>
        <time>2013-05-10T12:32:21Z</time>
      </trkpt>
      <trkpt lat="44.49844" lon="3.93124">
        <ele>789.9</ele>
        <time>2013-05-10T12:32:28Z</time>
      </trkpt>
      <trkpt lat="44.4985" lon="3.93132">
        <ele>790.1</ele>
        <time>2013-05-10T12:32:34Z</time>
      </trkpt>
      <trkpt lat="44.49855" lon="3.93139">
        <ele>789.9</ele>
        <time>2013-05-10T12:32:39Z</time>
      </trkpt>
      <trkpt lat="44.49862" lon="3.93146">
        <ele>790.3</ele>
        <time>2013-05-10T12:32:45Z</time>
      </trkpt>
      <trkpt lat="44.49871" lon="3.9315">
        <ele>790.6</ele>
        <time>2013-05-10T12:32:50Z</time>
      </trkpt>
      <trkpt lat="44.49879" lon="3.93147">
        <ele>790.7</ele>
        <time>2013-05-10T12:32:54Z</time>
      </trkpt>
      <trkpt lat="44.49886" lon="3.93146">
        <ele>790.6</ele>
        <time>2013-05-10T12:32:59Z</time>
      </trkpt>
      <trkpt lat="44.49893" lon="3.93139">
        <ele>790.6</ele>
        <time>2013-05-10T12:33:04Z</time>
      </trkpt>
      <trkpt lat="44.49894" lon="3.93139">
        <ele>790.5</ele>
        <time>2013-05-10T12:33:05Z</time>
      </trkpt>
      <trkpt lat="44.4989" lon="3.9312">
        <ele>790.8</ele>
        <time>2013-05-10T12:33:27Z</time>
      </trkpt>
      <trkpt lat="44.49886" lon="3.93109">
        <ele>791.1</ele>
        <time>2013-05-10T12:33:40Z</time>
      </trkpt>
      <trkpt lat="44.49882" lon="3.93101">
        <ele>791.4</ele>
        <time>2013-05-10T12:33:53Z</time>
      </trkpt>
      <trkpt lat="44.49874" lon="3.93099">
        <ele>791.6</ele>
        <time>2013-05-10T12:33:56Z</time>
      </trkpt>
      <trkpt lat="44.49879" lon="3.93091">
        <ele>792.1</ele>
        <time>2013-05-10T12:34:06Z</time>
      </trkpt>
      <trkpt lat="44.49883" lon="3.93091">
        <ele>792.2</ele>
        <time>2013-05-10T12:34:07Z</time>
      </trkpt>
      <trkpt lat="44.49885" lon="3.93076">
        <ele>793.1</ele>
        <time>2013-05-10T12:34:24Z</time>
      </trkpt>
      <trkpt lat="44.49879" lon="3.93068">
        <ele>793.8</ele>
        <time>2013-05-10T12:34:26Z</time>
      </trkpt>
      <trkpt lat="44.49873" lon="3.93068">
        <ele>794.7</ele>
        <time>2013-05-10T12:34:52Z</time>
      </trkpt>
      <trkpt lat="44.4987" lon="3.93059">
        <ele>797</ele>
        <time>2013-05-10T12:37:14Z</time>
      </trkpt>
      <trkpt lat="44.49869" lon="3.93055">
        <ele>797.5</ele>
        <time>2013-05-10T12:37:15Z</time>
      </trkpt>
      <trkpt lat="44.49867" lon="3.93039">
        <ele>799.7</ele>
        <time>2013-05-10T12:37:52Z</time>
      </trkpt>
      <trkpt lat="44.4986" lon="3.93034">
        <ele>800.4</ele>
        <time>2013-05-10T12:38:00Z</time>
      </trkpt>
      <trkpt lat="44.49854" lon="3.93027">
        <ele>801.2</ele>
        <time>2013-05-10T12:38:09Z</time>
      </trkpt>
      <trkpt lat="44.49847" lon="3.93019">
        <ele>801.7</ele>
        <time>2013-05-10T12:38:18Z</time>
      </trkpt>
      <trkpt lat="44.49846" lon="3.93018">
        <ele>801.8</ele>
        <time>2013-05-10T12:38:19Z</time>
      </trkpt>
      <trkpt lat="44.49835" lon="3.93005">
        <ele>803.4</ele>
        <time>2013-05-10T12:38:35Z</time>
      </trkpt>
      <trkpt lat="44.49827" lon="3.93002">
        <ele>804.1</ele>
        <time>2013-05-10T12:38:43Z</time>
      </trkpt>
      <trkpt lat="44.49819" lon="3.92998">
        <ele>804.6</ele>
        <time>2013-05-10T12:38:49Z</time>
      </trkpt>
      <trkpt lat="44.4981" lon="3.92998">
        <ele>805</ele>
        <time>2013-05-10T12:38:55Z</time>
      </trkpt>
      <trkpt lat="44.49803" lon="3.92996">
        <ele>805.4</ele>
        <time>2013-05-10T12:38:59Z</time>
      </trkpt>
      <trkpt lat="44.49795" lon="3.92991">
        <ele>806.1</ele>
        <time>2013-05-10T12:39:04Z</time>
      </trkpt>
      <trkpt lat="44.49786" lon="3.92991">
        <ele>807.5</ele>
        <time>2013-05-10T12:39:14Z</time>
      </trkpt>
      <trkpt lat="44.49781" lon="3.92981">
        <ele>808.2</ele>
        <time>2013-05-10T12:39:21Z</time>
      </trkpt>
      <trkpt lat="44.4978" lon="3.92979">
        <ele>808.3</ele>
        <time>2013-05-10T12:39:22Z</time>
      </trkpt>
      <trkpt lat="44.49766" lon="3.9297">
        <ele>810.3</ele>
        <time>2013-05-10T12:39:45Z</time>
      </trkpt>
      <trkpt lat="44.49758" lon="3.92968">
        <ele>811.1</ele>
        <time>2013-05-10T12:39:52Z</time>
      </trkpt>
      <trkpt lat="44.4975" lon="3.92964">
        <ele>811.7</ele>
        <time>2013-05-10T12:39:58Z</time>
      </trkpt>
      <trkpt lat="44.49742" lon="3.9296">
        <ele>812.5</ele>
        <time>2013-05-10T12:40:06Z</time>
      </trkpt>
      <trkpt lat="44.49734" lon="3.92961">
        <ele>813</ele>
        <time>2013-05-10T12:40:14Z</time>
      </trkpt>
      <trkpt lat="44.49725" lon="3.92962">
        <ele>813.6</ele>
        <time>2013-05-10T12:40:22Z</time>
      </trkpt>
      <trkpt lat="44.49724" lon="3.92962">
        <ele>813.7</ele>
        <time>2013-05-10T12:40:23Z</time>
      </trkpt>
      <trkpt lat="44.49711" lon="3.92961">
        <ele>814.4</ele>
        <time>2013-05-10T12:40:32Z</time>
      </trkpt>
      <trkpt lat="44.49703" lon="3.92964">
        <ele>816.1</ele>
        <time>2013-05-10T12:40:46Z</time>
      </trkpt>
      <trkpt lat="44.49698" lon="3.92974">
        <ele>817.7</ele>
        <time>2013-05-10T12:41:09Z</time>
      </trkpt>
      <trkpt lat="44.49695" lon="3.92986">
        <ele>817.8</ele>
        <time>2013-05-10T12:41:18Z</time>
      </trkpt>
      <trkpt lat="44.49695" lon="3.92998">
        <ele>817.9</ele>
        <time>2013-05-10T12:41:25Z</time>
      </trkpt>
      <trkpt lat="44.49695" lon="3.92998">
        <ele>817.8</ele>
        <time>2013-05-10T12:41:26Z</time>
      </trkpt>
      <trkpt lat="44.49694" lon="3.93018">
        <ele>817.3</ele>
        <time>2013-05-10T12:41:44Z</time>
      </trkpt>
      <trkpt lat="44.49689" lon="3.93028">
        <ele>817.2</ele>
        <time>2013-05-10T12:41:52Z</time>
      </trkpt>
      <trkpt lat="44.49687" lon="3.93039">
        <ele>816.9</ele>
        <time>2013-05-10T12:42:00Z</time>
      </trkpt>
      <trkpt lat="44.49683" lon="3.93049">
        <ele>817.4</ele>
        <time>2013-05-10T12:42:06Z</time>
      </trkpt>
      <trkpt lat="44.49678" lon="3.93059">
        <ele>817.1</ele>
        <time>2013-05-10T12:42:15Z</time>
      </trkpt>
      <trkpt lat="44.49674" lon="3.93068">
        <ele>816.4</ele>
        <time>2013-05-10T12:42:23Z</time>
      </trkpt>
      <trkpt lat="44.49669" lon="3.93077">
        <ele>816</ele>
        <time>2013-05-10T12:42:28Z</time>
      </trkpt>
      <trkpt lat="44.49668" lon="3.93078">
        <ele>815.9</ele>
        <time>2013-05-10T12:42:29Z</time>
      </trkpt>
      <trkpt lat="44.49658" lon="3.93093">
        <ele>815.2</ele>
        <time>2013-05-10T12:42:43Z</time>
      </trkpt>
      <trkpt lat="44.4965" lon="3.93098">
        <ele>814.5</ele>
        <time>2013-05-10T12:42:54Z</time>
      </trkpt>
      <trkpt lat="44.49642" lon="3.93103">
        <ele>813.5</ele>
        <time>2013-05-10T12:43:05Z</time>
      </trkpt>
      <trkpt lat="44.49634" lon="3.93105">
        <ele>813.1</ele>
        <time>2013-05-10T12:43:13Z</time>
      </trkpt>
      <trkpt lat="44.49628" lon="3.93108">
        <ele>813.4</ele>
        <time>2013-05-10T12:43:25Z</time>
      </trkpt>
      <trkpt lat="44.4962" lon="3.93108">
        <ele>813.5</ele>
        <time>2013-05-10T12:43:33Z</time>
      </trkpt>
      <trkpt lat="44.49619" lon="3.93108">
        <ele>813.5</ele>
        <time>2013-05-10T12:43:34Z</time>
      </trkpt>
      <trkpt lat="44.49603" lon="3.93102">
        <ele>813.1</ele>
        <time>2013-05-10T12:43:48Z</time>
      </trkpt>
      <trkpt lat="44.49595" lon="3.93106">
        <ele>813</ele>
        <time>2013-05-10T12:43:52Z</time>
      </trkpt>
      <trkpt lat="44.49588" lon="3.93108">
        <ele>812.9</ele>
        <time>2013-05-10T12:43:57Z</time>
      </trkpt>
      <trkpt lat="44.49579" lon="3.93112">
        <ele>812.4</ele>
        <time>2013-05-10T12:44:08Z</time>
      </trkpt>
      <trkpt lat="44.49571" lon="3.9311">
        <ele>812.4</ele>
        <time>2013-05-10T12:44:12Z</time>
      </trkpt>
      <trkpt lat="44.49564" lon="3.93107">
        <ele>812.2</ele>
        <time>2013-05-10T12:44:19Z</time>
      </trkpt>
      <trkpt lat="44.49557" lon="3.931">
        <ele>812</ele>
        <time>2013-05-10T12:44:33Z</time>
      </trkpt>
      <trkpt lat="44.4955" lon="3.93106">
        <ele>812</ele>
        <time>2013-05-10T12:44:41Z</time>
      </trkpt>
      <trkpt lat="44.49549" lon="3.93107">
        <ele>811.9</ele>
        <time>2013-05-10T12:44:42Z</time>
      </trkpt>
      <trkpt lat="44.49556" lon="3.93119">
        <ele>810.4</ele>
        <time>2013-05-10T12:45:06Z</time>
      </trkpt>
      <trkpt lat="44.49548" lon="3.93118">
        <ele>809.1</ele>
        <time>2013-05-10T12:45:41Z</time>
      </trkpt>
      <trkpt lat="44.4954" lon="3.93118">
        <ele>809</ele>
        <time>2013-05-10T12:45:48Z</time>
      </trkpt>
      <trkpt lat="44.49539" lon="3.93119">
        <ele>809</ele>
        <time>2013-05-10T12:45:49Z</time>
      </trkpt>
      <trkpt lat="44.49527" lon="3.9313">
        <ele>809.7</ele>
        <time>2013-05-10T12:46:01Z</time>
      </trkpt>
      <trkpt lat="44.49519" lon="3.93132">
        <ele>809.8</ele>
        <time>2013-05-10T12:46:22Z</time>
      </trkpt>
      <trkpt lat="44.49511" lon="3.93131">
        <ele>809.5</ele>
        <time>2013-05-10T12:46:30Z</time>
      </trkpt>
      <trkpt lat="44.49504" lon="3.93135">
        <ele>809.6</ele>
        <time>2013-05-10T12:46:40Z</time>
      </trkpt>
      <trkpt lat="44.49496" lon="3.93138">
        <ele>809.8</ele>
        <time>2013-05-10T12:46:50Z</time>
      </trkpt>
      <trkpt lat="44.49495" lon="3.93138">
        <ele>809.8</ele>
        <time>2013-05-10T12:46:51Z</time>
      </trkpt>
      <trkpt lat="44.4948" lon="3.93144">
        <ele>811.7</ele>
        <time>2013-05-10T12:47:08Z</time>
      </trkpt>
      <trkpt lat="44.49472" lon="3.93144">
        <ele>812.7</ele>
        <time>2013-05-10T12:47:18Z</time>
      </trkpt>
      <trkpt lat="44.49464" lon="3.93142">
        <ele>814.8</ele>
        <time>2013-05-10T12:47:33Z</time>
      </trkpt>
      <trkpt lat="44.49457" lon="3.93139">
        <ele>817.1</ele>
        <time>2013-05-10T12:47:42Z</time>
      </trkpt>
      <trkpt lat="44.49448" lon="3.93139">
        <ele>818.4</ele>
        <time>2013-05-10T12:47:51Z</time>
      </trkpt>
      <trkpt lat="44.49448" lon="3.93139">
        <ele>818.7</ele>
        <time>2013-05-10T12:47:52Z</time>
      </trkpt>
      <trkpt lat="44.49431" lon="3.93133">
        <ele>820.8</ele>
        <time>2013-05-10T12:48:09Z</time>
      </trkpt>
      <trkpt lat="44.49423" lon="3.9313">
        <ele>821.9</ele>
        <time>2013-05-10T12:48:18Z</time>
      </trkpt>
      <trkpt lat="44.49416" lon="3.93127">
        <ele>822.6</ele>
        <time>2013-05-10T12:48:25Z</time>
      </trkpt>
      <trkpt lat="44.49408" lon="3.93123">
        <ele>823.7</ele>
        <time>2013-05-10T12:48:35Z</time>
      </trkpt>
      <trkpt lat="44.49399" lon="3.93121">
        <ele>825.2</ele>
        <time>2013-05-10T12:48:54Z</time>
      </trkpt>
      <trkpt lat="44.49398" lon="3.93122">
        <ele>825.3</ele>
        <time>2013-05-10T12:48:55Z</time>
      </trkpt>
      <trkpt lat="44.49386" lon="3.93119">
        <ele>825.6</ele>
        <time>2013-05-10T12:49:10Z</time>
      </trkpt>
      <trkpt lat="44.49379" lon="3.93118">
        <ele>825.7</ele>
        <time>2013-05-10T12:49:22Z</time>
      </trkpt>
      <trkpt lat="44.49371" lon="3.93114">
        <ele>825.1</ele>
        <time>2013-05-10T12:49:35Z</time>
      </trkpt>
      <trkpt lat="44.49363" lon="3.93115">
        <ele>824.9</ele>
        <time>2013-05-10T12:49:43Z</time>
      </trkpt>
      <trkpt lat="44.49355" lon="3.93114">
        <ele>824.5</ele>
        <time>2013-05-10T12:49:52Z</time>
      </trkpt>
      <trkpt lat="44.49347" lon="3.93114">
        <ele>825.2</ele>
        <time>2013-05-10T12:50:09Z</time>
      </trkpt>
      <trkpt lat="44.49346" lon="3.93114">
        <ele>825.5</ele>
        <time>2013-05-10T12:50:10Z</time>
      </trkpt>
      <trkpt lat="44.49332" lon="3.93103">
        <ele>828.5</ele>
        <time>2013-05-10T12:50:31Z</time>
      </trkpt>
      <trkpt lat="44.49327" lon="3.93094">
        <ele>830.4</ele>
        <time>2013-05-10T12:50:44Z</time>
      </trkpt>
      <trkpt lat="44.4932" lon="3.93088">
        <ele>831.5</ele>
        <time>2013-05-10T12:50:52Z</time>
      </trkpt>
      <trkpt lat="44.49312" lon="3.93083">
        <ele>832.9</ele>
        <time>2013-05-10T12:51:00Z</time>
      </trkpt>
      <trkpt lat="44.49304" lon="3.93081">
        <ele>833.3</ele>
        <time>2013-05-10T12:51:05Z</time>
      </trkpt>
      <trkpt lat="44.49296" lon="3.93078">
        <ele>833.8</ele>
        <time>2013-05-10T12:51:10Z</time>
      </trkpt>
      <trkpt lat="44.49295" lon="3.93078">
        <ele>834</ele>
        <time>2013-05-10T12:51:11Z</time>
      </trkpt>
      <trkpt lat="44.4928" lon="3.93077">
        <ele>837.1</ele>
        <time>2013-05-10T12:51:28Z</time>
      </trkpt>
      <trkpt lat="44.49272" lon="3.93074">
        <ele>838.1</ele>
        <time>2013-05-10T12:51:44Z</time>
      </trkpt>
      <trkpt lat="44.49264" lon="3.93076">
        <ele>838.2</ele>
        <time>2013-05-10T12:51:50Z</time>
      </trkpt>
      <trkpt lat="44.49256" lon="3.93074">
        <ele>838.5</ele>
        <time>2013-05-10T12:51:56Z</time>
      </trkpt>
      <trkpt lat="44.49248" lon="3.93078">
        <ele>839.1</ele>
        <time>2013-05-10T12:52:01Z</time>
      </trkpt>
      <trkpt lat="44.4924" lon="3.93079">
        <ele>839.6</ele>
        <time>2013-05-10T12:52:08Z</time>
      </trkpt>
      <trkpt lat="44.49232" lon="3.93083">
        <ele>840.2</ele>
        <time>2013-05-10T12:52:14Z</time>
      </trkpt>
      <trkpt lat="44.49231" lon="3.93084">
        <ele>840.2</ele>
        <time>2013-05-10T12:52:15Z</time>
      </trkpt>
      <trkpt lat="44.49217" lon="3.93095">
        <ele>842.4</ele>
        <time>2013-05-10T12:52:27Z</time>
      </trkpt>
      <trkpt lat="44.4921" lon="3.93102">
        <ele>843.3</ele>
        <time>2013-05-10T12:52:33Z</time>
      </trkpt>
      <trkpt lat="44.49202" lon="3.93106">
        <ele>844.3</ele>
        <time>2013-05-10T12:52:40Z</time>
      </trkpt>
      <trkpt lat="44.49194" lon="3.93108">
        <ele>844.9</ele>
        <time>2013-05-10T12:52:50Z</time>
      </trkpt>
      <trkpt lat="44.49185" lon="3.93107">
        <ele>846.8</ele>
        <time>2013-05-10T12:53:11Z</time>
      </trkpt>
      <trkpt lat="44.49177" lon="3.93103">
        <ele>847.1</ele>
        <time>2013-05-10T12:53:18Z</time>
      </trkpt>
      <trkpt lat="44.49176" lon="3.93103">
        <ele>847.1</ele>
        <time>2013-05-10T12:53:19Z</time>
      </trkpt>
      <trkpt lat="44.49161" lon="3.93097">
        <ele>847.5</ele>
        <time>2013-05-10T12:53:33Z</time>
      </trkpt>
      <trkpt lat="44.49154" lon="3.93095">
        <ele>847.5</ele>
        <time>2013-05-10T12:53:38Z</time>
      </trkpt>
      <trkpt lat="44.49147" lon="3.93091">
        <ele>847.1</ele>
        <time>2013-05-10T12:53:45Z</time>
      </trkpt>
      <trkpt lat="44.4914" lon="3.93085">
        <ele>846.5</ele>
        <time>2013-05-10T12:53:53Z</time>
      </trkpt>
      <trkpt lat="44.49133" lon="3.9308">
        <ele>846</ele>
        <time>2013-05-10T12:54:00Z</time>
      </trkpt>
      <trkpt lat="44.49125" lon="3.93077">
        <ele>845.6</ele>
        <time>2013-05-10T12:54:08Z</time>
      </trkpt>
      <trkpt lat="44.49117" lon="3.93072">
        <ele>845.4</ele>
        <time>2013-05-10T12:54:16Z</time>
      </trkpt>
      <trkpt lat="44.49108" lon="3.93069">
        <ele>845</ele>
        <time>2013-05-10T12:54:25Z</time>
      </trkpt>
      <trkpt lat="44.49106" lon="3.93069">
        <ele>844.9</ele>
        <time>2013-05-10T12:54:26Z</time>
      </trkpt>
      <trkpt lat="44.49093" lon="3.93058">
        <ele>844.7</ele>
        <time>2013-05-10T12:54:42Z</time>
      </trkpt>
      <trkpt lat="44.49086" lon="3.93053">
        <ele>844.8</ele>
        <time>2013-05-10T12:54:49Z</time>
      </trkpt>
      <trkpt lat="44.49079" lon="3.93046">
        <ele>844.7</ele>
        <time>2013-05-10T12:54:58Z</time>
      </trkpt>
      <trkpt lat="44.49071" lon="3.93042">
        <ele>844.4</ele>
        <time>2013-05-10T12:55:07Z</time>
      </trkpt>
      <trkpt lat="44.49063" lon="3.93036">
        <ele>844.2</ele>
        <time>2013-05-10T12:55:12Z</time>
      </trkpt>
      <trkpt lat="44.49054" lon="3.93034">
        <ele>843.9</ele>
        <time>2013-05-10T12:55:18Z</time>
      </trkpt>
      <trkpt lat="44.49047" lon="3.9303">
        <ele>843.7</ele>
        <time>2013-05-10T12:55:25Z</time>
      </trkpt>
      <trkpt lat="44.4904" lon="3.93027">
        <ele>843.4</ele>
        <time>2013-05-10T12:55:31Z</time>
      </trkpt>
      <trkpt lat="44.49038" lon="3.93026">
        <ele>843.4</ele>
        <time>2013-05-10T12:55:32Z</time>
      </trkpt>
      <trkpt lat="44.49026" lon="3.93018">
        <ele>843.7</ele>
        <time>2013-05-10T12:55:44Z</time>
      </trkpt>
      <trkpt lat="44.49018" lon="3.93011">
        <ele>843.7</ele>
        <time>2013-05-10T12:55:50Z</time>
      </trkpt>
      <trkpt lat="44.49019" lon="3.93001">
        <ele>843.6</ele>
        <time>2013-05-10T12:56:06Z</time>
      </trkpt>
      <trkpt lat="44.49013" lon="3.92992">
        <ele>843.4</ele>
        <time>2013-05-10T12:56:12Z</time>
      </trkpt>
      <trkpt lat="44.49007" lon="3.92983">
        <ele>843.6</ele>
        <time>2013-05-10T12:56:21Z</time>
      </trkpt>
      <trkpt lat="44.49002" lon="3.92976">
        <ele>843.4</ele>
        <time>2013-05-10T12:56:26Z</time>
      </trkpt>
      <trkpt lat="44.48996" lon="3.92968">
        <ele>843.3</ele>
        <time>2013-05-10T12:56:31Z</time>
      </trkpt>
      <trkpt lat="44.48991" lon="3.92958">
        <ele>843.1</ele>
        <time>2013-05-10T12:56:43Z</time>
      </trkpt>
      <trkpt lat="44.4899" lon="3.92957">
        <ele>843.1</ele>
        <time>2013-05-10T12:56:44Z</time>
      </trkpt>
      <trkpt lat="44.48984" lon="3.92944">
        <ele>843.6</ele>
        <time>2013-05-10T12:57:06Z</time>
      </trkpt>
      <trkpt lat="44.48977" lon="3.92942">
        <ele>843.5</ele>
        <time>2013-05-10T12:57:09Z</time>
      </trkpt>
      <trkpt lat="44.4897" lon="3.9294">
        <ele>843.7</ele>
        <time>2013-05-10T12:57:12Z</time>
      </trkpt>
      <trkpt lat="44.48961" lon="3.92939">
        <ele>843.6</ele>
        <time>2013-05-10T12:57:13Z</time>
      </trkpt>
      <trkpt lat="44.48954" lon="3.92937">
        <ele>843.3</ele>
        <time>2013-05-10T12:57:26Z</time>
      </trkpt>
      <trkpt lat="44.48943" lon="3.92932">
        <ele>842.7</ele>
        <time>2013-05-10T12:57:27Z</time>
      </trkpt>
      <trkpt lat="44.48936" lon="3.92925">
        <ele>842.5</ele>
        <time>2013-05-10T12:57:33Z</time>
      </trkpt>
      <trkpt lat="44.4893" lon="3.9292">
        <ele>842.8</ele>
        <time>2013-05-10T12:57:37Z</time>
      </trkpt>
      <trkpt lat="44.48923" lon="3.92916">
        <ele>842.7</ele>
        <time>2013-05-10T12:57:41Z</time>
      </trkpt>
      <trkpt lat="44.48916" lon="3.92909">
        <ele>842.5</ele>
        <time>2013-05-10T12:57:48Z</time>
      </trkpt>
      <trkpt lat="44.48915" lon="3.92909">
        <ele>842.4</ele>
        <time>2013-05-10T12:57:49Z</time>
      </trkpt>
      <trkpt lat="44.489" lon="3.92905">
        <ele>841.3</ele>
        <time>2013-05-10T12:58:01Z</time>
      </trkpt>
      <trkpt lat="44.48892" lon="3.92904">
        <ele>841.3</ele>
        <time>2013-05-10T12:58:08Z</time>
      </trkpt>
      <trkpt lat="44.48885" lon="3.92899">
        <ele>841.1</ele>
        <time>2013-05-10T12:58:16Z</time>
      </trkpt>
      <trkpt lat="44.48877" lon="3.92894">
        <ele>841</ele>
        <time>2013-05-10T12:58:21Z</time>
      </trkpt>
      <trkpt lat="44.48869" lon="3.92891">
        <ele>840.6</ele>
        <time>2013-05-10T12:58:32Z</time>
      </trkpt>
      <trkpt lat="44.48861" lon="3.92888">
        <ele>840.4</ele>
        <time>2013-05-10T12:58:39Z</time>
      </trkpt>
      <trkpt lat="44.48853" lon="3.92884">
        <ele>840.8</ele>
        <time>2013-05-10T12:58:47Z</time>
      </trkpt>
      <trkpt lat="44.48846" lon="3.92881">
        <ele>841.3</ele>
        <time>2013-05-10T12:58:54Z</time>
      </trkpt>
      <trkpt lat="44.48845" lon="3.9288">
        <ele>841.4</ele>
        <time>2013-05-10T12:58:55Z</time>
      </trkpt>
      <trkpt lat="44.48831" lon="3.92869">
        <ele>842.9</ele>
        <time>2013-05-10T12:59:14Z</time>
      </trkpt>
      <trkpt lat="44.48828" lon="3.92859">
        <ele>843.6</ele>
        <time>2013-05-10T12:59:35Z</time>
      </trkpt>
      <trkpt lat="44.48819" lon="3.92856">
        <ele>844</ele>
        <time>2013-05-10T12:59:44Z</time>
      </trkpt>
      <trkpt lat="44.48811" lon="3.92853">
        <ele>843.8</ele>
        <time>2013-05-10T12:59:52Z</time>
      </trkpt>
      <trkpt lat="44.48802" lon="3.9285">
        <ele>843.9</ele>
        <time>2013-05-10T12:59:58Z</time>
      </trkpt>
      <trkpt lat="44.48802" lon="3.92849">
        <ele>843.9</ele>
        <time>2013-05-10T12:59:59Z</time>
      </trkpt>
      <trkpt lat="44.48789" lon="3.9284">
        <ele>843.8</ele>
        <time>2013-05-10T13:00:12Z</time>
      </trkpt>
      <trkpt lat="44.48781" lon="3.92837">
        <ele>843.8</ele>
        <time>2013-05-10T13:00:19Z</time>
      </trkpt>
      <trkpt lat="44.48772" lon="3.92838">
        <ele>843.7</ele>
        <time>2013-05-10T13:00:29Z</time>
      </trkpt>
      <trkpt lat="44.48763" lon="3.92835">
        <ele>843.8</ele>
        <time>2013-05-10T13:00:40Z</time>
      </trkpt>
      <trkpt lat="44.48754" lon="3.92836">
        <ele>843.7</ele>
        <time>2013-05-10T13:00:47Z</time>
      </trkpt>
      <trkpt lat="44.48746" lon="3.92836">
        <ele>843.6</ele>
        <time>2013-05-10T13:00:54Z</time>
      </trkpt>
      <trkpt lat="44.48738" lon="3.92834">
        <ele>843.6</ele>
        <time>2013-05-10T13:00:59Z</time>
      </trkpt>
      <trkpt lat="44.48736" lon="3.92836">
        <ele>843.6</ele>
        <time>2013-05-10T13:01:00Z</time>
      </trkpt>
      <trkpt lat="44.48721" lon="3.92836">
        <ele>843.4</ele>
        <time>2013-05-10T13:01:15Z</time>
      </trkpt>
      <trkpt lat="44.48713" lon="3.92835">
        <ele>843.6</ele>
        <time>2013-05-10T13:01:24Z</time>
      </trkpt>
      <trkpt lat="44.48705" lon="3.92839">
        <ele>843.7</ele>
        <time>2013-05-10T13:01:28Z</time>
      </trkpt>
      <trkpt lat="44.48697" lon="3.92843">
        <ele>843.3</ele>
        <time>2013-05-10T13:01:31Z</time>
      </trkpt>
      <trkpt lat="44.4869" lon="3.92846">
        <ele>843</ele>
        <time>2013-05-10T13:01:34Z</time>
      </trkpt>
      <trkpt lat="44.48682" lon="3.92851">
        <ele>842.7</ele>
        <time>2013-05-10T13:01:40Z</time>
      </trkpt>
      <trkpt lat="44.48676" lon="3.92855">
        <ele>842.4</ele>
        <time>2013-05-10T13:01:45Z</time>
      </trkpt>
      <trkpt lat="44.48668" lon="3.92862">
        <ele>842</ele>
        <time>2013-05-10T13:01:51Z</time>
      </trkpt>
      <trkpt lat="44.48662" lon="3.92869">
        <ele>841.9</ele>
        <time>2013-05-10T13:01:55Z</time>
      </trkpt>
      <trkpt lat="44.48653" lon="3.92871">
        <ele>842.2</ele>
        <time>2013-05-10T13:02:04Z</time>
      </trkpt>
      <trkpt lat="44.48653" lon="3.92871">
        <ele>842.3</ele>
        <time>2013-05-10T13:02:05Z</time>
      </trkpt>
      <trkpt lat="44.48651" lon="3.92882">
        <ele>839.7</ele>
        <time>2013-05-10T13:02:32Z</time>
      </trkpt>
      <trkpt lat="44.48643" lon="3.92888">
        <ele>839</ele>
        <time>2013-05-10T13:02:42Z</time>
      </trkpt>
      <trkpt lat="44.48635" lon="3.92892">
        <ele>838.7</ele>
        <time>2013-05-10T13:02:51Z</time>
      </trkpt>
      <trkpt lat="44.48627" lon="3.92889">
        <ele>838.4</ele>
        <time>2013-05-10T13:03:04Z</time>
      </trkpt>
      <trkpt lat="44.48619" lon="3.9289">
        <ele>837</ele>
        <time>2013-05-10T13:03:13Z</time>
      </trkpt>
      <trkpt lat="44.48618" lon="3.9289">
        <ele>836.9</ele>
        <time>2013-05-10T13:03:14Z</time>
      </trkpt>
      <trkpt lat="44.48603" lon="3.92897">
        <ele>835.1</ele>
        <time>2013-05-10T13:03:32Z</time>
      </trkpt>
      <trkpt lat="44.48595" lon="3.92898">
        <ele>834.2</ele>
        <time>2013-05-10T13:03:38Z</time>
      </trkpt>
      <trkpt lat="44.48589" lon="3.92903">
        <ele>833.9</ele>
        <time>2013-05-10T13:03:43Z</time>
      </trkpt>
      <trkpt lat="44.48582" lon="3.92908">
        <ele>833.8</ele>
        <time>2013-05-10T13:03:48Z</time>
      </trkpt>
      <trkpt lat="44.48574" lon="3.92912">
        <ele>833.3</ele>
        <time>2013-05-10T13:03:56Z</time>
      </trkpt>
      <trkpt lat="44.48568" lon="3.92918">
        <ele>832.6</ele>
        <time>2013-05-10T13:04:03Z</time>
      </trkpt>
      <trkpt lat="44.4856" lon="3.92921">
        <ele>832.1</ele>
        <time>2013-05-10T13:04:09Z</time>
      </trkpt>
      <trkpt lat="44.48553" lon="3.92926">
        <ele>831.1</ele>
        <time>2013-05-10T13:04:24Z</time>
      </trkpt>
      <trkpt lat="44.48551" lon="3.92927">
        <ele>831.1</ele>
        <time>2013-05-10T13:04:25Z</time>
      </trkpt>
      <trkpt lat="44.4854" lon="3.92937">
        <ele>830.4</ele>
        <time>2013-05-10T13:04:39Z</time>
      </trkpt>
      <trkpt lat="44.48533" lon="3.92944">
        <ele>830</ele>
        <time>2013-05-10T13:04:43Z</time>
      </trkpt>
      <trkpt lat="44.48525" lon="3.92948">
        <ele>829.6</ele>
        <time>2013-05-10T13:04:49Z</time>
      </trkpt>
      <trkpt lat="44.48517" lon="3.92952">
        <ele>829</ele>
        <time>2013-05-10T13:04:55Z</time>
      </trkpt>
      <trkpt lat="44.4851" lon="3.92956">
        <ele>827.7</ele>
        <time>2013-05-10T13:05:12Z</time>
      </trkpt>
      <trkpt lat="44.48503" lon="3.92961">
        <ele>827.2</ele>
        <time>2013-05-10T13:05:18Z</time>
      </trkpt>
      <trkpt lat="44.48495" lon="3.92964">
        <ele>826.8</ele>
        <time>2013-05-10T13:05:25Z</time>
      </trkpt>
      <trkpt lat="44.48493" lon="3.92965">
        <ele>826.6</ele>
        <time>2013-05-10T13:05:26Z</time>
      </trkpt>
      <trkpt lat="44.48479" lon="3.92973">
        <ele>826.2</ele>
        <time>2013-05-10T13:05:43Z</time>
      </trkpt>
      <trkpt lat="44.48471" lon="3.92977">
        <ele>826</ele>
        <time>2013-05-10T13:05:51Z</time>
      </trkpt>
      <trkpt lat="44.48464" lon="3.92979">
        <ele>825.6</ele>
        <time>2013-05-10T13:05:59Z</time>
      </trkpt>
      <trkpt lat="44.48456" lon="3.92983">
        <ele>825.6</ele>
        <time>2013-05-10T13:06:02Z</time>
      </trkpt>
      <trkpt lat="44.48449" lon="3.92989">
        <ele>825.5</ele>
        <time>2013-05-10T13:06:05Z</time>
      </trkpt>
      <trkpt lat="44.48452" lon="3.92977">
        <ele>825.2</ele>
        <time>2013-05-10T13:06:16Z</time>
      </trkpt>
      <trkpt lat="44.48448" lon="3.92987">
        <ele>825.5</ele>
        <time>2013-05-10T13:06:36Z</time>
      </trkpt>
      <trkpt lat="44.48447" lon="3.92991">
        <ele>825.6</ele>
        <time>2013-05-10T13:06:37Z</time>
      </trkpt>
      <trkpt lat="44.48434" lon="3.93">
        <ele>825.7</ele>
        <time>2013-05-10T13:06:54Z</time>
      </trkpt>
      <trkpt lat="44.48426" lon="3.92997">
        <ele>825.2</ele>
        <time>2013-05-10T13:07:15Z</time>
      </trkpt>
      <trkpt lat="44.4842" lon="3.93004">
        <ele>825.2</ele>
        <time>2013-05-10T13:07:21Z</time>
      </trkpt>
      <trkpt lat="44.48413" lon="3.9301">
        <ele>824.9</ele>
        <time>2013-05-10T13:07:51Z</time>
      </trkpt>
      <trkpt lat="44.48411" lon="3.93012">
        <ele>824.8</ele>
        <time>2013-05-10T13:07:52Z</time>
      </trkpt>
      <trkpt lat="44.48398" lon="3.93017">
        <ele>824.8</ele>
        <time>2013-05-10T13:08:03Z</time>
      </trkpt>
      <trkpt lat="44.4839" lon="3.93021">
        <ele>824.8</ele>
        <time>2013-05-10T13:08:10Z</time>
      </trkpt>
      <trkpt lat="44.48382" lon="3.93023">
        <ele>825</ele>
        <time>2013-05-10T13:08:17Z</time>
      </trkpt>
      <trkpt lat="44.48375" lon="3.93028">
        <ele>825.4</ele>
        <time>2013-05-10T13:08:26Z</time>
      </trkpt>
      <trkpt lat="44.48367" lon="3.93032">
        <ele>825.3</ele>
        <time>2013-05-10T13:08:45Z</time>
      </trkpt>
      <trkpt lat="44.48359" lon="3.9304">
        <ele>824.9</ele>
        <time>2013-05-10T13:08:53Z</time>
      </trkpt>
      <trkpt lat="44.48358" lon="3.93041">
        <ele>824.9</ele>
        <time>2013-05-10T13:08:54Z</time>
      </trkpt>
      <trkpt lat="44.48346" lon="3.93051">
        <ele>824.8</ele>
        <time>2013-05-10T13:09:06Z</time>
      </trkpt>
      <trkpt lat="44.48338" lon="3.93055">
        <ele>824.7</ele>
        <time>2013-05-10T13:09:12Z</time>
      </trkpt>
      <trkpt lat="44.48332" lon="3.93062">
        <ele>825.2</ele>
        <time>2013-05-10T13:09:22Z</time>
      </trkpt>
      <trkpt lat="44.48323" lon="3.93063">
        <ele>824.8</ele>
        <time>2013-05-10T13:09:29Z</time>
      </trkpt>
      <trkpt lat="44.48317" lon="3.93068">
        <ele>824.4</ele>
        <time>2013-05-10T13:09:36Z</time>
      </trkpt>
      <trkpt lat="44.48311" lon="3.93076">
        <ele>824.3</ele>
        <time>2013-05-10T13:09:41Z</time>
      </trkpt>
      <trkpt lat="44.48307" lon="3.93088">
        <ele>824.2</ele>
        <time>2013-05-10T13:09:47Z</time>
      </trkpt>
      <trkpt lat="44.48307" lon="3.931">
        <ele>823.8</ele>
        <time>2013-05-10T13:09:59Z</time>
      </trkpt>
      <trkpt lat="44.48307" lon="3.93101">
        <ele>823.8</ele>
        <time>2013-05-10T13:10:00Z</time>
      </trkpt>
      <trkpt lat="44.483" lon="3.93122">
        <ele>822.2</ele>
        <time>2013-05-10T13:10:34Z</time>
      </trkpt>
      <trkpt lat="44.48306" lon="3.93131">
        <ele>821.8</ele>
        <time>2013-05-10T13:11:09Z</time>
      </trkpt>
      <trkpt lat="44.48306" lon="3.93135">
        <ele>821.9</ele>
        <time>2013-05-10T13:11:10Z</time>
      </trkpt>
      <trkpt lat="44.4831" lon="3.93154">
        <ele>820.1</ele>
        <time>2013-05-10T13:11:52Z</time>
      </trkpt>
      <trkpt lat="44.48313" lon="3.93165">
        <ele>819.6</ele>
        <time>2013-05-10T13:12:01Z</time>
      </trkpt>
      <trkpt lat="44.48315" lon="3.93177">
        <ele>819.3</ele>
        <time>2013-05-10T13:12:12Z</time>
      </trkpt>
      <trkpt lat="44.48315" lon="3.93178">
        <ele>819.2</ele>
        <time>2013-05-10T13:12:13Z</time>
      </trkpt>
      <trkpt lat="44.48319" lon="3.93198">
        <ele>818.5</ele>
        <time>2013-05-10T13:12:30Z</time>
      </trkpt>
      <trkpt lat="44.4832" lon="3.9321">
        <ele>818.2</ele>
        <time>2013-05-10T13:12:38Z</time>
      </trkpt>
      <trkpt lat="44.48319" lon="3.93222">
        <ele>818.1</ele>
        <time>2013-05-10T13:12:44Z</time>
      </trkpt>
      <trkpt lat="44.4832" lon="3.93232">
        <ele>817.9</ele>
        <time>2013-05-10T13:12:51Z</time>
      </trkpt>
      <trkpt lat="44.4832" lon="3.93244">
        <ele>817.4</ele>
        <time>2013-05-10T13:12:59Z</time>
      </trkpt>
      <trkpt lat="44.48321" lon="3.93255">
        <ele>817.1</ele>
        <time>2013-05-10T13:13:06Z</time>
      </trkpt>
      <trkpt lat="44.48321" lon="3.93267">
        <ele>816.5</ele>
        <time>2013-05-10T13:13:15Z</time>
      </trkpt>
      <trkpt lat="44.48321" lon="3.93269">
        <ele>816.5</ele>
        <time>2013-05-10T13:13:16Z</time>
      </trkpt>
      <trkpt lat="44.4832" lon="3.9329">
        <ele>815.7</ele>
        <time>2013-05-10T13:13:28Z</time>
      </trkpt>
      <trkpt lat="44.48319" lon="3.93301">
        <ele>815.2</ele>
        <time>2013-05-10T13:13:34Z</time>
      </trkpt>
      <trkpt lat="44.48323" lon="3.93312">
        <ele>815.1</ele>
        <time>2013-05-10T13:13:37Z</time>
      </trkpt>
      <trkpt lat="44.48325" lon="3.93324">
        <ele>814.7</ele>
        <time>2013-05-10T13:13:44Z</time>
      </trkpt>
      <trkpt lat="44.48324" lon="3.93335">
        <ele>814.1</ele>
        <time>2013-05-10T13:13:54Z</time>
      </trkpt>
      <trkpt lat="44.48323" lon="3.93346">
        <ele>813.7</ele>
        <time>2013-05-10T13:14:01Z</time>
      </trkpt>
      <trkpt lat="44.48322" lon="3.93357">
        <ele>813.4</ele>
        <time>2013-05-10T13:14:07Z</time>
      </trkpt>
      <trkpt lat="44.4832" lon="3.93368">
        <ele>812.9</ele>
        <time>2013-05-10T13:14:13Z</time>
      </trkpt>
      <trkpt lat="44.48319" lon="3.93379">
        <ele>812.3</ele>
        <time>2013-05-10T13:14:20Z</time>
      </trkpt>
      <trkpt lat="44.48319" lon="3.9338">
        <ele>812.3</ele>
        <time>2013-05-10T13:14:21Z</time>
      </trkpt>
      <trkpt lat="44.48316" lon="3.93401">
        <ele>811.9</ele>
        <time>2013-05-10T13:14:31Z</time>
      </trkpt>
      <trkpt lat="44.48314" lon="3.93412">
        <ele>811.7</ele>
        <time>2013-05-10T13:14:37Z</time>
      </trkpt>
      <trkpt lat="44.48314" lon="3.93424">
        <ele>811.1</ele>
        <time>2013-05-10T13:15:18Z</time>
      </trkpt>
      <trkpt lat="44.4831" lon="3.93434">
        <ele>811</ele>
        <time>2013-05-10T13:15:46Z</time>
      </trkpt>
      <trkpt lat="44.4831" lon="3.93435">
        <ele>811</ele>
        <time>2013-05-10T13:15:47Z</time>
      </trkpt>
      <trkpt lat="44.48312" lon="3.93449">
        <ele>809</ele>
        <time>2013-05-10T13:16:48Z</time>
      </trkpt>
      <trkpt lat="44.48298" lon="3.93433">
        <ele>807.2</ele>
        <time>2013-05-10T13:17:29Z</time>
      </trkpt>
      <trkpt lat="44.4829" lon="3.93433">
        <ele>806.9</ele>
        <time>2013-05-10T13:17:52Z</time>
      </trkpt>
      <trkpt lat="44.48289" lon="3.93434">
        <ele>806.8</ele>
        <time>2013-05-10T13:17:53Z</time>
      </trkpt>
      <trkpt lat="44.48281" lon="3.93448">
        <ele>806.8</ele>
        <time>2013-05-10T13:18:28Z</time>
      </trkpt>
      <trkpt lat="44.48277" lon="3.93458">
        <ele>807.1</ele>
        <time>2013-05-10T13:18:32Z</time>
      </trkpt>
      <trkpt lat="44.48272" lon="3.93466">
        <ele>806.9</ele>
        <time>2013-05-10T13:18:42Z</time>
      </trkpt>
      <trkpt lat="44.4827" lon="3.93478">
        <ele>807.3</ele>
        <time>2013-05-10T13:18:51Z</time>
      </trkpt>
      <trkpt lat="44.48266" lon="3.93488">
        <ele>807.1</ele>
        <time>2013-05-10T13:19:14Z</time>
      </trkpt>
      <trkpt lat="44.48265" lon="3.9349">
        <ele>807.1</ele>
        <time>2013-05-10T13:19:15Z</time>
      </trkpt>
      <trkpt lat="44.48251" lon="3.93483">
        <ele>807.8</ele>
        <time>2013-05-10T13:19:31Z</time>
      </trkpt>
      <trkpt lat="44.48245" lon="3.93492">
        <ele>808.1</ele>
        <time>2013-05-10T13:19:39Z</time>
      </trkpt>
      <trkpt lat="44.48237" lon="3.93493">
        <ele>807.6</ele>
        <time>2013-05-10T13:19:53Z</time>
      </trkpt>
      <trkpt lat="44.48229" lon="3.93491">
        <ele>807.7</ele>
        <time>2013-05-10T13:20:00Z</time>
      </trkpt>
      <trkpt lat="44.48221" lon="3.93495">
        <ele>807.9</ele>
        <time>2013-05-10T13:20:23Z</time>
      </trkpt>
      <trkpt lat="44.4822" lon="3.93495">
        <ele>807.9</ele>
        <time>2013-05-10T13:20:24Z</time>
      </trkpt>
      <trkpt lat="44.48214" lon="3.93515">
        <ele>808.6</ele>
        <time>2013-05-10T13:20:50Z</time>
      </trkpt>
      <trkpt lat="44.48207" lon="3.9352">
        <ele>807.9</ele>
        <time>2013-05-10T13:21:10Z</time>
      </trkpt>
      <trkpt lat="44.48199" lon="3.93524">
        <ele>808</ele>
        <time>2013-05-10T13:21:24Z</time>
      </trkpt>
      <trkpt lat="44.48198" lon="3.93525">
        <ele>808</ele>
        <time>2013-05-10T13:21:25Z</time>
      </trkpt>
      <trkpt lat="44.48187" lon="3.9354">
        <ele>807.8</ele>
        <time>2013-05-10T13:21:48Z</time>
      </trkpt>
      <trkpt lat="44.48181" lon="3.93548">
        <ele>807.9</ele>
        <time>2013-05-10T13:22:04Z</time>
      </trkpt>
      <trkpt lat="44.48189" lon="3.9355">
        <ele>807.2</ele>
        <time>2013-05-10T13:22:28Z</time>
      </trkpt>
      <trkpt lat="44.4819" lon="3.9355">
        <ele>807.2</ele>
        <time>2013-05-10T13:22:29Z</time>
      </trkpt>
      <trkpt lat="44.482" lon="3.93567">
        <ele>805.5</ele>
        <time>2013-05-10T13:23:32Z</time>
      </trkpt>
      <trkpt lat="44.48203" lon="3.93568">
        <ele>805.6</ele>
        <time>2013-05-10T13:23:33Z</time>
      </trkpt>
      <trkpt lat="44.48195" lon="3.93576">
        <ele>800</ele>
        <time>2013-05-10T13:26:28Z</time>
      </trkpt>
      <trkpt lat="44.48193" lon="3.93577">
        <ele>799.8</ele>
        <time>2013-05-10T13:26:29Z</time>
      </trkpt>
      <trkpt lat="44.48184" lon="3.93571">
        <ele>796.9</ele>
        <time>2013-05-10T13:27:37Z</time>
      </trkpt>
      <trkpt lat="44.48183" lon="3.93571">
        <ele>796.9</ele>
        <time>2013-05-10T13:27:38Z</time>
      </trkpt>
      <trkpt lat="44.48175" lon="3.9359">
        <ele>793.5</ele>
        <time>2013-05-10T13:28:32Z</time>
      </trkpt>
      <trkpt lat="44.48184" lon="3.93587">
        <ele>791</ele>
        <time>2013-05-10T13:29:16Z</time>
      </trkpt>
      <trkpt lat="44.48185" lon="3.93587">
        <ele>790.9</ele>
        <time>2013-05-10T13:29:17Z</time>
      </trkpt>
      <trkpt lat="44.48175" lon="3.93585">
        <ele>787.2</ele>
        <time>2013-05-10T13:31:00Z</time>
      </trkpt>
      <trkpt lat="44.48159" lon="3.9358">
        <ele>788.4</ele>
        <time>2013-05-10T13:31:43Z</time>
      </trkpt>
      <trkpt lat="44.48155" lon="3.93578">
        <ele>788.5</ele>
        <time>2013-05-10T13:31:59Z</time>
      </trkpt>
      <trkpt lat="44.48153" lon="3.93566">
        <ele>788.9</ele>
        <time>2013-05-10T13:32:21Z</time>
      </trkpt>
      <trkpt lat="44.48152" lon="3.93566">
        <ele>788.9</ele>
        <time>2013-05-10T13:32:22Z</time>
      </trkpt>
      <trkpt lat="44.48164" lon="3.93556">
        <ele>789.7</ele>
        <time>2013-05-10T13:33:33Z</time>
      </trkpt>
      <trkpt lat="44.48164" lon="3.93556">
        <ele>789.7</ele>
        <time>2013-05-10T13:33:34Z</time>
      </trkpt>
      <trkpt lat="44.48175" lon="3.93541">
        <ele>790.4</ele>
        <time>2013-05-10T13:34:11Z</time>
      </trkpt>
      <trkpt lat="44.48184" lon="3.93539">
        <ele>790.8</ele>
        <time>2013-05-10T13:34:21Z</time>
      </trkpt>
      <trkpt lat="44.48192" lon="3.93536">
        <ele>791.2</ele>
        <time>2013-05-10T13:34:30Z</time>
      </trkpt>
      <trkpt lat="44.48197" lon="3.93527">
        <ele>791.6</ele>
        <time>2013-05-10T13:34:38Z</time>
      </trkpt>
      <trkpt lat="44.48197" lon="3.93525">
        <ele>791.7</ele>
        <time>2013-05-10T13:34:39Z</time>
      </trkpt>
      <trkpt lat="44.4821" lon="3.93512">
        <ele>792.7</ele>
        <time>2013-05-10T13:34:52Z</time>
      </trkpt>
      <trkpt lat="44.48217" lon="3.93506">
        <ele>793.9</ele>
        <time>2013-05-10T13:35:02Z</time>
      </trkpt>
      <trkpt lat="44.48226" lon="3.93501">
        <ele>794.3</ele>
        <time>2013-05-10T13:35:10Z</time>
      </trkpt>
      <trkpt lat="44.48233" lon="3.93498">
        <ele>795.1</ele>
        <time>2013-05-10T13:35:19Z</time>
      </trkpt>
      <trkpt lat="44.4824" lon="3.93493">
        <ele>795.8</ele>
        <time>2013-05-10T13:35:26Z</time>
      </trkpt>
      <trkpt lat="44.48247" lon="3.93485">
        <ele>796.5</ele>
        <time>2013-05-10T13:35:35Z</time>
      </trkpt>
      <trkpt lat="44.48253" lon="3.93477">
        <ele>797</ele>
        <time>2013-05-10T13:35:41Z</time>
      </trkpt>
      <trkpt lat="44.48254" lon="3.93476">
        <ele>797.2</ele>
        <time>2013-05-10T13:35:42Z</time>
      </trkpt>
      <trkpt lat="44.48264" lon="3.9346">
        <ele>798.1</ele>
        <time>2013-05-10T13:35:54Z</time>
      </trkpt>
      <trkpt lat="44.48273" lon="3.93458">
        <ele>799.7</ele>
        <time>2013-05-10T13:36:05Z</time>
      </trkpt>
      <trkpt lat="44.48279" lon="3.93452">
        <ele>800.2</ele>
        <time>2013-05-10T13:36:11Z</time>
      </trkpt>
      <trkpt lat="44.48285" lon="3.93443">
        <ele>801</ele>
        <time>2013-05-10T13:36:19Z</time>
      </trkpt>
      <trkpt lat="44.48294" lon="3.93438">
        <ele>801.7</ele>
        <time>2013-05-10T13:36:27Z</time>
      </trkpt>
      <trkpt lat="44.483" lon="3.9343">
        <ele>802.1</ele>
        <time>2013-05-10T13:36:33Z</time>
      </trkpt>
      <trkpt lat="44.48305" lon="3.93421">
        <ele>802.9</ele>
        <time>2013-05-10T13:36:40Z</time>
      </trkpt>
      <trkpt lat="44.4831" lon="3.93411">
        <ele>804.1</ele>
        <time>2013-05-10T13:36:47Z</time>
      </trkpt>
      <trkpt lat="44.48311" lon="3.93409">
        <ele>804.1</ele>
        <time>2013-05-10T13:36:48Z</time>
      </trkpt>
      <trkpt lat="44.48319" lon="3.93391">
        <ele>805.3</ele>
        <time>2013-05-10T13:37:05Z</time>
      </trkpt>
      <trkpt lat="44.48319" lon="3.93379">
        <ele>805.3</ele>
        <time>2013-05-10T13:37:12Z</time>
      </trkpt>
      <trkpt lat="44.48322" lon="3.93369">
        <ele>804.6</ele>
        <time>2013-05-10T13:37:19Z</time>
      </trkpt>
      <trkpt lat="44.48322" lon="3.93357">
        <ele>804.5</ele>
        <time>2013-05-10T13:37:26Z</time>
      </trkpt>
      <trkpt lat="44.48319" lon="3.93349">
        <ele>804.5</ele>
        <time>2013-05-10T13:37:36Z</time>
      </trkpt>
      <trkpt lat="44.48312" lon="3.93342">
        <ele>805.1</ele>
        <time>2013-05-10T13:37:42Z</time>
      </trkpt>
      <trkpt lat="44.48306" lon="3.93335">
        <ele>805.5</ele>
        <time>2013-05-10T13:37:47Z</time>
      </trkpt>
      <trkpt lat="44.48299" lon="3.93329">
        <ele>805.9</ele>
        <time>2013-05-10T13:38:09Z</time>
      </trkpt>
      <trkpt lat="44.48298" lon="3.93328">
        <ele>805.9</ele>
        <time>2013-05-10T13:38:10Z</time>
      </trkpt>
      <trkpt lat="44.48286" lon="3.93335">
        <ele>806.5</ele>
        <time>2013-05-10T13:39:07Z</time>
      </trkpt>
      <trkpt lat="44.48278" lon="3.93339">
        <ele>806.3</ele>
        <time>2013-05-10T13:39:18Z</time>
      </trkpt>
      <trkpt lat="44.48277" lon="3.9334">
        <ele>806.3</ele>
        <time>2013-05-10T13:39:19Z</time>
      </trkpt>
      <trkpt lat="44.48263" lon="3.93349">
        <ele>806.6</ele>
        <time>2013-05-10T13:39:40Z</time>
      </trkpt>
      <trkpt lat="44.48255" lon="3.93351">
        <ele>806.8</ele>
        <time>2013-05-10T13:39:49Z</time>
      </trkpt>
      <trkpt lat="44.48246" lon="3.93354">
        <ele>807</ele>
        <time>2013-05-10T13:39:57Z</time>
      </trkpt>
      <trkpt lat="44.48238" lon="3.93355">
        <ele>806.9</ele>
        <time>2013-05-10T13:40:04Z</time>
      </trkpt>
      <trkpt lat="44.48229" lon="3.93356">
        <ele>807.2</ele>
        <time>2013-05-10T13:40:12Z</time>
      </trkpt>
      <trkpt lat="44.48221" lon="3.93356">
        <ele>807.1</ele>
        <time>2013-05-10T13:40:22Z</time>
      </trkpt>
      <trkpt lat="44.4822" lon="3.93357">
        <ele>807</ele>
        <time>2013-05-10T13:40:23Z</time>
      </trkpt>
      <trkpt lat="44.48204" lon="3.93362">
        <ele>806.4</ele>
        <time>2013-05-10T13:40:39Z</time>
      </trkpt>
      <trkpt lat="44.48197" lon="3.93365">
        <ele>806</ele>
        <time>2013-05-10T13:40:44Z</time>
      </trkpt>
      <trkpt lat="44.48189" lon="3.93366">
        <ele>806.3</ele>
        <time>2013-05-10T13:40:48Z</time>
      </trkpt>
      <trkpt lat="44.48181" lon="3.93369">
        <ele>805.7</ele>
        <time>2013-05-10T13:41:01Z</time>
      </trkpt>
      <trkpt lat="44.48172" lon="3.9337">
        <ele>805.3</ele>
        <time>2013-05-10T13:41:09Z</time>
      </trkpt>
      <trkpt lat="44.48164" lon="3.93365">
        <ele>805.6</ele>
        <time>2013-05-10T13:41:18Z</time>
      </trkpt>
      <trkpt lat="44.48156" lon="3.93366">
        <ele>806</ele>
        <time>2013-05-10T13:41:35Z</time>
      </trkpt>
      <trkpt lat="44.48155" lon="3.93366">
        <ele>806</ele>
        <time>2013-05-10T13:41:36Z</time>
      </trkpt>
      <trkpt lat="44.48141" lon="3.93377">
        <ele>806</ele>
        <time>2013-05-10T13:41:45Z</time>
      </trkpt>
      <trkpt lat="44.48135" lon="3.93382">
        <ele>805.7</ele>
        <time>2013-05-10T13:41:52Z</time>
      </trkpt>
      <trkpt lat="44.48128" lon="3.9339">
        <ele>805.7</ele>
        <time>2013-05-10T13:41:57Z</time>
      </trkpt>
      <trkpt lat="44.4812" lon="3.93393">
        <ele>805.6</ele>
        <time>2013-05-10T13:42:03Z</time>
      </trkpt>
      <trkpt lat="44.48114" lon="3.93398">
        <ele>806.1</ele>
        <time>2013-05-10T13:42:12Z</time>
      </trkpt>
      <trkpt lat="44.48107" lon="3.93403">
        <ele>806.1</ele>
        <time>2013-05-10T13:42:17Z</time>
      </trkpt>
      <trkpt lat="44.48099" lon="3.93399">
        <ele>805.5</ele>
        <time>2013-05-10T13:42:30Z</time>
      </trkpt>
      <trkpt lat="44.48092" lon="3.93394">
        <ele>804.7</ele>
        <time>2013-05-10T13:42:34Z</time>
      </trkpt>
      <trkpt lat="44.48086" lon="3.93388">
        <ele>804.1</ele>
        <time>2013-05-10T13:42:39Z</time>
      </trkpt>
      <trkpt lat="44.48085" lon="3.93387">
        <ele>804.1</ele>
        <time>2013-05-10T13:42:40Z</time>
      </trkpt>
      <trkpt lat="44.48073" lon="3.93377">
        <ele>804.1</ele>
        <time>2013-05-10T13:43:11Z</time>
      </trkpt>
      <trkpt lat="44.48064" lon="3.93382">
        <ele>804.2</ele>
        <time>2013-05-10T13:43:24Z</time>
      </trkpt>
      <trkpt lat="44.48062" lon="3.9337">
        <ele>803.4</ele>
        <time>2013-05-10T13:43:59Z</time>
      </trkpt>
      <trkpt lat="44.48062" lon="3.93369">
        <ele>803.3</ele>
        <time>2013-05-10T13:44:00Z</time>
      </trkpt>
      <trkpt lat="44.48051" lon="3.93364">
        <ele>802.3</ele>
        <time>2013-05-10T13:44:30Z</time>
      </trkpt>
      <trkpt lat="44.48043" lon="3.93357">
        <ele>801</ele>
        <time>2013-05-10T13:44:31Z</time>
      </trkpt>
      <trkpt lat="44.48051" lon="3.93357">
        <ele>799.6</ele>
        <time>2013-05-10T13:45:32Z</time>
      </trkpt>
      <trkpt lat="44.48053" lon="3.93359">
        <ele>799.5</ele>
        <time>2013-05-10T13:45:33Z</time>
      </trkpt>
      <trkpt lat="44.48049" lon="3.93354">
        <ele>798.3</ele>
        <time>2013-05-10T13:47:18Z</time>
      </trkpt>
      <trkpt lat="44.48051" lon="3.93353">
        <ele>798.3</ele>
        <time>2013-05-10T13:47:19Z</time>
      </trkpt>
      <trkpt lat="44.48035" lon="3.93348">
        <ele>796</ele>
        <time>2013-05-10T13:47:56Z</time>
      </trkpt>
      <trkpt lat="44.4803" lon="3.93359">
        <ele>794.7</ele>
        <time>2013-05-10T13:48:51Z</time>
      </trkpt>
      <trkpt lat="44.4803" lon="3.93358">
        <ele>794.7</ele>
        <time>2013-05-10T13:48:52Z</time>
      </trkpt>
      <trkpt lat="44.48019" lon="3.93355">
        <ele>794.5</ele>
        <time>2013-05-10T13:49:04Z</time>
      </trkpt>
      <trkpt lat="44.48011" lon="3.93354">
        <ele>794.7</ele>
        <time>2013-05-10T13:49:13Z</time>
      </trkpt>
      <trkpt lat="44.48002" lon="3.93354">
        <ele>795.3</ele>
        <time>2013-05-10T13:49:24Z</time>
      </trkpt>
      <trkpt lat="44.47994" lon="3.93358">
        <ele>795.8</ele>
        <time>2013-05-10T13:49:32Z</time>
      </trkpt>
      <trkpt lat="44.4799" lon="3.93346">
        <ele>796</ele>
        <time>2013-05-10T13:49:51Z</time>
      </trkpt>
      <trkpt lat="44.47982" lon="3.93346">
        <ele>796.1</ele>
        <time>2013-05-10T13:50:20Z</time>
      </trkpt>
      <trkpt lat="44.47981" lon="3.93347">
        <ele>796.1</ele>
        <time>2013-05-10T13:50:21Z</time>
      </trkpt>
      <trkpt lat="44.47968" lon="3.93355">
        <ele>796.3</ele>
        <time>2013-05-10T13:50:35Z</time>
      </trkpt>
      <trkpt lat="44.4796" lon="3.93351">
        <ele>796.6</ele>
        <time>2013-05-10T13:50:45Z</time>
      </trkpt>
      <trkpt lat="44.47952" lon="3.93352">
        <ele>796.8</ele>
        <time>2013-05-10T13:50:52Z</time>
      </trkpt>
      <trkpt lat="44.47944" lon="3.93356">
        <ele>796.9</ele>
        <time>2013-05-10T13:51:03Z</time>
      </trkpt>
      <trkpt lat="44.47935" lon="3.93357">
        <ele>796.8</ele>
        <time>2013-05-10T13:51:13Z</time>
      </trkpt>
      <trkpt lat="44.47928" lon="3.93351">
        <ele>797</ele>
        <time>2013-05-10T13:51:24Z</time>
      </trkpt>
      <trkpt lat="44.47927" lon="3.9335">
        <ele>797.1</ele>
        <time>2013-05-10T13:51:25Z</time>
      </trkpt>
      <trkpt lat="44.47913" lon="3.93356">
        <ele>797.3</ele>
        <time>2013-05-10T13:51:38Z</time>
      </trkpt>
      <trkpt lat="44.47906" lon="3.9336">
        <ele>797.2</ele>
        <time>2013-05-10T13:51:42Z</time>
      </trkpt>
      <trkpt lat="44.479" lon="3.93363">
        <ele>797.1</ele>
        <time>2013-05-10T13:51:46Z</time>
      </trkpt>
      <trkpt lat="44.47892" lon="3.93368">
        <ele>797.2</ele>
        <time>2013-05-10T13:51:51Z</time>
      </trkpt>
      <trkpt lat="44.47884" lon="3.9337">
        <ele>797.3</ele>
        <time>2013-05-10T13:51:59Z</time>
      </trkpt>
      <trkpt lat="44.47877" lon="3.93375">
        <ele>797.4</ele>
        <time>2013-05-10T13:52:05Z</time>
      </trkpt>
      <trkpt lat="44.47869" lon="3.93378">
        <ele>798.3</ele>
        <time>2013-05-10T13:52:22Z</time>
      </trkpt>
      <trkpt lat="44.47861" lon="3.9338">
        <ele>799.1</ele>
        <time>2013-05-10T13:52:34Z</time>
      </trkpt>
      <trkpt lat="44.47859" lon="3.93379">
        <ele>799.1</ele>
        <time>2013-05-10T13:52:35Z</time>
      </trkpt>
      <trkpt lat="44.47847" lon="3.93392">
        <ele>799.5</ele>
        <time>2013-05-10T13:52:52Z</time>
      </trkpt>
      <trkpt lat="44.47839" lon="3.93392">
        <ele>800.1</ele>
        <time>2013-05-10T13:53:04Z</time>
      </trkpt>
      <trkpt lat="44.4783" lon="3.93393">
        <ele>800.2</ele>
        <time>2013-05-10T13:53:09Z</time>
      </trkpt>
      <trkpt lat="44.47822" lon="3.93395">
        <ele>800.5</ele>
        <time>2013-05-10T13:53:17Z</time>
      </trkpt>
      <trkpt lat="44.47814" lon="3.93401">
        <ele>801.3</ele>
        <time>2013-05-10T13:53:25Z</time>
      </trkpt>
      <trkpt lat="44.47806" lon="3.93404">
        <ele>801.4</ele>
        <time>2013-05-10T13:53:35Z</time>
      </trkpt>
      <trkpt lat="44.47805" lon="3.93405">
        <ele>801.4</ele>
        <time>2013-05-10T13:53:36Z</time>
      </trkpt>
      <trkpt lat="44.47794" lon="3.93412">
        <ele>801.6</ele>
        <time>2013-05-10T13:54:33Z</time>
      </trkpt>
      <trkpt lat="44.47787" lon="3.93419">
        <ele>802.4</ele>
        <time>2013-05-10T13:54:52Z</time>
      </trkpt>
      <trkpt lat="44.47786" lon="3.9342">
        <ele>802.4</ele>
        <time>2013-05-10T13:54:53Z</time>
      </trkpt>
      <trkpt lat="44.47776" lon="3.93435">
        <ele>802.3</ele>
        <time>2013-05-10T13:55:09Z</time>
      </trkpt>
      <trkpt lat="44.47771" lon="3.9344">
        <ele>802.3</ele>
        <time>2013-05-10T13:55:11Z</time>
      </trkpt>
      <trkpt lat="44.47763" lon="3.93439">
        <ele>802.3</ele>
        <time>2013-05-10T13:55:13Z</time>
      </trkpt>
      <trkpt lat="44.47756" lon="3.93443">
        <ele>802.2</ele>
        <time>2013-05-10T13:55:16Z</time>
      </trkpt>
      <trkpt lat="44.47748" lon="3.93447">
        <ele>802.2</ele>
        <time>2013-05-10T13:55:19Z</time>
      </trkpt>
      <trkpt lat="44.47753" lon="3.93455">
        <ele>802.1</ele>
        <time>2013-05-10T13:55:26Z</time>
      </trkpt>
      <trkpt lat="44.4775" lon="3.93459">
        <ele>802</ele>
        <time>2013-05-10T13:55:42Z</time>
      </trkpt>
      <trkpt lat="44.47744" lon="3.9346">
        <ele>802</ele>
        <time>2013-05-10T13:55:44Z</time>
      </trkpt>
      <trkpt lat="44.47738" lon="3.93462">
        <ele>802</ele>
        <time>2013-05-10T13:55:45Z</time>
      </trkpt>
      <trkpt lat="44.47742" lon="3.93469">
        <ele>802</ele>
        <time>2013-05-10T13:55:49Z</time>
      </trkpt>
      <trkpt lat="44.47747" lon="3.9347">
        <ele>802</ele>
        <time>2013-05-10T13:55:51Z</time>
      </trkpt>
      <trkpt lat="44.47753" lon="3.9347">
        <ele>801.9</ele>
        <time>2013-05-10T13:55:52Z</time>
      </trkpt>
      <trkpt lat="44.47761" lon="3.93473">
        <ele>801.9</ele>
        <time>2013-05-10T13:55:53Z</time>
      </trkpt>
      <trkpt lat="44.47763" lon="3.93475">
        <ele>801.9</ele>
        <time>2013-05-10T13:55:54Z</time>
      </trkpt>
      <trkpt lat="44.47763" lon="3.93479">
        <ele>802</ele>
        <time>2013-05-10T13:56:23Z</time>
      </trkpt>
      <trkpt lat="44.47764" lon="3.9349">
        <ele>802</ele>
        <time>2013-05-10T13:56:25Z</time>
      </trkpt>
      <trkpt lat="44.47767" lon="3.93499">
        <ele>802</ele>
        <time>2013-05-10T13:56:29Z</time>
      </trkpt>
      <trkpt lat="44.47773" lon="3.93501">
        <ele>802</ele>
        <time>2013-05-10T13:56:30Z</time>
      </trkpt>
      <trkpt lat="44.4778" lon="3.93497">
        <ele>802</ele>
        <time>2013-05-10T13:56:33Z</time>
      </trkpt>
      <trkpt lat="44.47781" lon="3.93506">
        <ele>802</ele>
        <time>2013-05-10T13:56:35Z</time>
      </trkpt>
      <trkpt lat="44.47778" lon="3.93515">
        <ele>801.9</ele>
        <time>2013-05-10T13:56:37Z</time>
      </trkpt>
      <trkpt lat="44.47776" lon="3.93527">
        <ele>801.8</ele>
        <time>2013-05-10T13:56:41Z</time>
      </trkpt>
      <trkpt lat="44.47772" lon="3.93531">
        <ele>801.8</ele>
        <time>2013-05-10T13:56:43Z</time>
      </trkpt>
      <trkpt lat="44.47767" lon="3.93532">
        <ele>801.8</ele>
        <time>2013-05-10T13:56:44Z</time>
      </trkpt>
      <trkpt lat="44.47759" lon="3.93536">
        <ele>801.8</ele>
        <time>2013-05-10T13:56:46Z</time>
      </trkpt>
      <trkpt lat="44.47751" lon="3.93542">
        <ele>801.8</ele>
        <time>2013-05-10T13:56:49Z</time>
      </trkpt>
      <trkpt lat="44.47746" lon="3.93563">
        <ele>801.7</ele>
        <time>2013-05-10T13:56:50Z</time>
      </trkpt>
      <trkpt lat="44.47743" lon="3.93577">
        <ele>801.7</ele>
        <time>2013-05-10T13:56:51Z</time>
      </trkpt>
      <trkpt lat="44.47739" lon="3.93585">
        <ele>801.6</ele>
        <time>2013-05-10T13:56:52Z</time>
      </trkpt>
      <trkpt lat="44.47736" lon="3.93592">
        <ele>801.6</ele>
        <time>2013-05-10T13:56:53Z</time>
      </trkpt>
      <trkpt lat="44.47734" lon="3.936">
        <ele>801.6</ele>
        <time>2013-05-10T13:56:54Z</time>
      </trkpt>
      <trkpt lat="44.47733" lon="3.93615">
        <ele>801.5</ele>
        <time>2013-05-10T13:56:57Z</time>
      </trkpt>
      <trkpt lat="44.47733" lon="3.93621">
        <ele>801.5</ele>
        <time>2013-05-10T13:56:58Z</time>
      </trkpt>
      <trkpt lat="44.47734" lon="3.93628">
        <ele>801.4</ele>
        <time>2013-05-10T13:56:59Z</time>
      </trkpt>
      <trkpt lat="44.47738" lon="3.93637">
        <ele>801.2</ele>
        <time>2013-05-10T13:57:02Z</time>
      </trkpt>
      <trkpt lat="44.4774" lon="3.93643">
        <ele>801.1</ele>
        <time>2013-05-10T13:57:03Z</time>
      </trkpt>
      <trkpt lat="44.4774" lon="3.93636">
        <ele>800.6</ele>
        <time>2013-05-10T13:57:06Z</time>
      </trkpt>
      <trkpt lat="44.47737" lon="3.9363">
        <ele>800.4</ele>
        <time>2013-05-10T13:57:07Z</time>
      </trkpt>
      <trkpt lat="44.47739" lon="3.93618">
        <ele>800.1</ele>
        <time>2013-05-10T13:57:10Z</time>
      </trkpt>
      <trkpt lat="44.47746" lon="3.93614">
        <ele>799.6</ele>
        <time>2013-05-10T13:57:15Z</time>
      </trkpt>
      <trkpt lat="44.47752" lon="3.93619">
        <ele>798.8</ele>
        <time>2013-05-10T13:57:21Z</time>
      </trkpt>
      <trkpt lat="44.47746" lon="3.93613">
        <ele>798</ele>
        <time>2013-05-10T13:57:28Z</time>
      </trkpt>
      <trkpt lat="44.4774" lon="3.93606">
        <ele>797.7</ele>
        <time>2013-05-10T13:57:31Z</time>
      </trkpt>
      <trkpt lat="44.47733" lon="3.936">
        <ele>797.1</ele>
        <time>2013-05-10T13:57:38Z</time>
      </trkpt>
      <trkpt lat="44.47727" lon="3.9359">
        <ele>796.9</ele>
        <time>2013-05-10T13:57:41Z</time>
      </trkpt>
      <trkpt lat="44.47721" lon="3.93581">
        <ele>796.7</ele>
        <time>2013-05-10T13:57:45Z</time>
      </trkpt>
      <trkpt lat="44.47715" lon="3.93574">
        <ele>796.7</ele>
        <time>2013-05-10T13:57:48Z</time>
      </trkpt>
      <trkpt lat="44.47708" lon="3.93568">
        <ele>796.6</ele>
        <time>2013-05-10T13:57:52Z</time>
      </trkpt>
      <trkpt lat="44.47713" lon="3.93558">
        <ele>796.6</ele>
        <time>2013-05-10T13:58:12Z</time>
      </trkpt>
      <trkpt lat="44.47714" lon="3.93553">
        <ele>797</ele>
        <time>2013-05-10T13:58:13Z</time>
      </trkpt>
      <trkpt lat="44.47712" lon="3.93534">
        <ele>798.1</ele>
        <time>2013-05-10T13:58:32Z</time>
      </trkpt>
      <trkpt lat="44.47708" lon="3.93528">
        <ele>798.1</ele>
        <time>2013-05-10T13:58:35Z</time>
      </trkpt>
      <trkpt lat="44.47708" lon="3.93516">
        <ele>798.3</ele>
        <time>2013-05-10T13:58:41Z</time>
      </trkpt>
      <trkpt lat="44.47702" lon="3.93513">
        <ele>798.4</ele>
        <time>2013-05-10T13:58:48Z</time>
      </trkpt>
      <trkpt lat="44.47695" lon="3.93517">
        <ele>798.3</ele>
        <time>2013-05-10T13:58:51Z</time>
      </trkpt>
      <trkpt lat="44.47692" lon="3.93521">
        <ele>798.5</ele>
        <time>2013-05-10T13:59:04Z</time>
      </trkpt>
      <trkpt lat="44.47687" lon="3.93531">
        <ele>798.8</ele>
        <time>2013-05-10T13:59:05Z</time>
      </trkpt>
      <trkpt lat="44.47684" lon="3.93536">
        <ele>799.2</ele>
        <time>2013-05-10T13:59:28Z</time>
      </trkpt>
      <trkpt lat="44.47686" lon="3.93549">
        <ele>799.7</ele>
        <time>2013-05-10T13:59:29Z</time>
      </trkpt>
      <trkpt lat="44.47687" lon="3.93561">
        <ele>803.2</ele>
        <time>2013-05-10T13:59:57Z</time>
      </trkpt>
      <trkpt lat="44.47691" lon="3.93571">
        <ele>803.7</ele>
        <time>2013-05-10T14:00:07Z</time>
      </trkpt>
      <trkpt lat="44.47695" lon="3.93581">
        <ele>804.2</ele>
        <time>2013-05-10T14:00:16Z</time>
      </trkpt>
      <trkpt lat="44.47699" lon="3.93592">
        <ele>804.6</ele>
        <time>2013-05-10T14:00:24Z</time>
      </trkpt>
      <trkpt lat="44.47702" lon="3.93603">
        <ele>806.9</ele>
        <time>2013-05-10T14:01:08Z</time>
      </trkpt>
      <trkpt lat="44.47703" lon="3.93613">
        <ele>808</ele>
        <time>2013-05-10T14:01:09Z</time>
      </trkpt>
      <trkpt lat="44.4771" lon="3.9361">
        <ele>813.1</ele>
        <time>2013-05-10T14:02:53Z</time>
      </trkpt>
      <trkpt lat="44.4771" lon="3.93606">
        <ele>813.3</ele>
        <time>2013-05-10T14:02:54Z</time>
      </trkpt>
      <trkpt lat="44.47697" lon="3.93594">
        <ele>815</ele>
        <time>2013-05-10T14:03:15Z</time>
      </trkpt>
      <trkpt lat="44.47696" lon="3.93582">
        <ele>815.5</ele>
        <time>2013-05-10T14:03:25Z</time>
      </trkpt>
      <trkpt lat="44.47694" lon="3.9357">
        <ele>817.1</ele>
        <time>2013-05-10T14:03:39Z</time>
      </trkpt>
      <trkpt lat="44.47687" lon="3.93561">
        <ele>818.3</ele>
        <time>2013-05-10T14:04:04Z</time>
      </trkpt>
      <trkpt lat="44.47688" lon="3.93561">
        <ele>818.3</ele>
        <time>2013-05-10T14:04:05Z</time>
      </trkpt>
      <trkpt lat="44.47677" lon="3.9356">
        <ele>818.1</ele>
        <time>2013-05-10T14:04:34Z</time>
      </trkpt>
      <trkpt lat="44.47684" lon="3.93555">
        <ele>818.9</ele>
        <time>2013-05-10T14:05:01Z</time>
      </trkpt>
      <trkpt lat="44.47686" lon="3.93542">
        <ele>820.6</ele>
        <time>2013-05-10T14:08:14Z</time>
      </trkpt>
      <trkpt lat="44.47687" lon="3.93541">
        <ele>820.6</ele>
        <time>2013-05-10T14:08:15Z</time>
      </trkpt>
      <trkpt lat="44.47699" lon="3.93536">
        <ele>820.6</ele>
        <time>2013-05-10T14:08:20Z</time>
      </trkpt>
      <trkpt lat="44.47706" lon="3.93539">
        <ele>820.7</ele>
        <time>2013-05-10T14:08:29Z</time>
      </trkpt>
      <trkpt lat="44.47713" lon="3.93547">
        <ele>820.7</ele>
        <time>2013-05-10T14:08:33Z</time>
      </trkpt>
      <trkpt lat="44.47718" lon="3.93544">
        <ele>820.7</ele>
        <time>2013-05-10T14:08:44Z</time>
      </trkpt>
      <trkpt lat="44.47723" lon="3.93534">
        <ele>820.7</ele>
        <time>2013-05-10T14:08:46Z</time>
      </trkpt>
      <trkpt lat="44.47726" lon="3.93526">
        <ele>820.7</ele>
        <time>2013-05-10T14:08:48Z</time>
      </trkpt>
      <trkpt lat="44.47728" lon="3.93516">
        <ele>820.7</ele>
        <time>2013-05-10T14:08:50Z</time>
      </trkpt>
      <trkpt lat="44.47729" lon="3.93505">
        <ele>820.7</ele>
        <time>2013-05-10T14:08:52Z</time>
      </trkpt>
      <trkpt lat="44.4773" lon="3.93496">
        <ele>820.8</ele>
        <time>2013-05-10T14:08:55Z</time>
      </trkpt>
      <trkpt lat="44.47736" lon="3.935">
        <ele>820.9</ele>
        <time>2013-05-10T14:09:15Z</time>
      </trkpt>
      <trkpt lat="44.47742" lon="3.93506">
        <ele>820.9</ele>
        <time>2013-05-10T14:09:16Z</time>
      </trkpt>
      <trkpt lat="44.4775" lon="3.93508">
        <ele>820.9</ele>
        <time>2013-05-10T14:09:18Z</time>
      </trkpt>
      <trkpt lat="44.47758" lon="3.93505">
        <ele>820.9</ele>
        <time>2013-05-10T14:09:21Z</time>
      </trkpt>
      <trkpt lat="44.47765" lon="3.93509">
        <ele>820.7</ele>
        <time>2013-05-10T14:09:36Z</time>
      </trkpt>
      <trkpt lat="44.47765" lon="3.9352">
        <ele>820.6</ele>
        <time>2013-05-10T14:09:47Z</time>
      </trkpt>
      <trkpt lat="44.47769" lon="3.93531">
        <ele>820.6</ele>
        <time>2013-05-10T14:09:56Z</time>
      </trkpt>
      <trkpt lat="44.47765" lon="3.93541">
        <ele>820.6</ele>
        <time>2013-05-10T14:10:02Z</time>
      </trkpt>
      <trkpt lat="44.47762" lon="3.93553">
        <ele>820.6</ele>
        <time>2013-05-10T14:10:09Z</time>
      </trkpt>
      <trkpt lat="44.47765" lon="3.93541">
        <ele>820.5</ele>
        <time>2013-05-10T14:10:17Z</time>
      </trkpt>
      <trkpt lat="44.47763" lon="3.93538">
        <ele>820.5</ele>
        <time>2013-05-10T14:10:18Z</time>
      </trkpt>
      <trkpt lat="44.47759" lon="3.93522">
        <ele>820.4</ele>
        <time>2013-05-10T14:10:33Z</time>
      </trkpt>
      <trkpt lat="44.47767" lon="3.93544">
        <ele>830.8</ele>
        <time>2013-05-10T14:12:05Z</time>
      </trkpt>
      <trkpt lat="44.47775" lon="3.9355">
        <ele>843.3</ele>
        <time>2013-05-10T14:12:15Z</time>
      </trkpt>
      <trkpt lat="44.4778" lon="3.93553">
        <ele>845.6</ele>
        <time>2013-05-10T14:12:28Z</time>
      </trkpt>
      <trkpt lat="44.47787" lon="3.93547">
        <ele>839.7</ele>
        <time>2013-05-10T14:12:30Z</time>
      </trkpt>
      <trkpt lat="44.4779" lon="3.9354">
        <ele>829.9</ele>
        <time>2013-05-10T14:12:46Z</time>
      </trkpt>
      <trkpt lat="44.47791" lon="3.93552">
        <ele>828.5</ele>
        <time>2013-05-10T14:13:16Z</time>
      </trkpt>
      <trkpt lat="44.47793" lon="3.93553">
        <ele>828.6</ele>
        <time>2013-05-10T14:13:17Z</time>
      </trkpt>
      <trkpt lat="44.478" lon="3.9355">
        <ele>829.3</ele>
        <time>2013-05-10T14:13:49Z</time>
      </trkpt>
      <trkpt lat="44.47794" lon="3.93542">
        <ele>829.2</ele>
        <time>2013-05-10T14:13:56Z</time>
      </trkpt>
      <trkpt lat="44.47795" lon="3.93531">
        <ele>828.7</ele>
        <time>2013-05-10T14:14:08Z</time>
      </trkpt>
      <trkpt lat="44.47796" lon="3.93519">
        <ele>828</ele>
        <time>2013-05-10T14:14:19Z</time>
      </trkpt>
      <trkpt lat="44.47796" lon="3.93517">
        <ele>827.9</ele>
        <time>2013-05-10T14:14:20Z</time>
      </trkpt>
      <trkpt lat="44.47797" lon="3.93495">
        <ele>828.6</ele>
        <time>2013-05-10T14:14:55Z</time>
      </trkpt>
      <trkpt lat="44.47796" lon="3.93484">
        <ele>828.2</ele>
        <time>2013-05-10T14:15:24Z</time>
      </trkpt>
      <trkpt lat="44.47795" lon="3.93483">
        <ele>828.2</ele>
        <time>2013-05-10T14:15:25Z</time>
      </trkpt>
      <trkpt lat="44.47803" lon="3.93465">
        <ele>828.2</ele>
        <time>2013-05-10T14:15:32Z</time>
      </trkpt>
      <trkpt lat="44.47802" lon="3.93454">
        <ele>828.1</ele>
        <time>2013-05-10T14:15:37Z</time>
      </trkpt>
      <trkpt lat="44.47806" lon="3.93442">
        <ele>827.7</ele>
        <time>2013-05-10T14:15:43Z</time>
      </trkpt>
      <trkpt lat="44.47803" lon="3.9343">
        <ele>827.1</ele>
        <time>2013-05-10T14:15:59Z</time>
      </trkpt>
      <trkpt lat="44.47797" lon="3.93424">
        <ele>826.9</ele>
        <time>2013-05-10T14:16:04Z</time>
      </trkpt>
      <trkpt lat="44.47788" lon="3.93421">
        <ele>826.7</ele>
        <time>2013-05-10T14:16:09Z</time>
      </trkpt>
      <trkpt lat="44.4778" lon="3.93421">
        <ele>826.4</ele>
        <time>2013-05-10T14:16:20Z</time>
      </trkpt>
      <trkpt lat="44.47781" lon="3.93437">
        <ele>826.3</ele>
        <time>2013-05-10T14:16:21Z</time>
      </trkpt>
      <trkpt lat="44.47782" lon="3.93447">
        <ele>826.1</ele>
        <time>2013-05-10T14:16:22Z</time>
      </trkpt>
      <trkpt lat="44.47781" lon="3.93457">
        <ele>826</ele>
        <time>2013-05-10T14:16:24Z</time>
      </trkpt>
      <trkpt lat="44.4778" lon="3.9346">
        <ele>826</ele>
        <time>2013-05-10T14:16:25Z</time>
      </trkpt>
      <trkpt lat="44.47779" lon="3.93474">
        <ele>826</ele>
        <time>2013-05-10T14:16:36Z</time>
      </trkpt>
      <trkpt lat="44.47783" lon="3.93484">
        <ele>826</ele>
        <time>2013-05-10T14:16:39Z</time>
      </trkpt>
      <trkpt lat="44.47784" lon="3.93493">
        <ele>826</ele>
        <time>2013-05-10T14:16:41Z</time>
      </trkpt>
      <trkpt lat="44.47785" lon="3.93502">
        <ele>826</ele>
        <time>2013-05-10T14:16:43Z</time>
      </trkpt>
      <trkpt lat="44.47785" lon="3.93508">
        <ele>826</ele>
        <time>2013-05-10T14:16:44Z</time>
      </trkpt>
      <trkpt lat="44.47792" lon="3.93432">
        <ele>818.5</ele>
        <time>2013-05-10T14:17:10Z</time>
      </trkpt>
      <trkpt lat="44.4779" lon="3.93421">
        <ele>817.4</ele>
        <time>2013-05-10T14:17:32Z</time>
      </trkpt>
      <trkpt lat="44.47791" lon="3.93418">
        <ele>817.4</ele>
        <time>2013-05-10T14:17:33Z</time>
      </trkpt>
      <trkpt lat="44.47796" lon="3.93398">
        <ele>818.8</ele>
        <time>2013-05-10T14:17:46Z</time>
      </trkpt>
      <trkpt lat="44.47799" lon="3.93387">
        <ele>818</ele>
        <time>2013-05-10T14:17:54Z</time>
      </trkpt>
      <trkpt lat="44.47796" lon="3.93381">
        <ele>818.5</ele>
        <time>2013-05-10T14:17:59Z</time>
      </trkpt>
      <trkpt lat="44.47792" lon="3.93372">
        <ele>818.4</ele>
        <time>2013-05-10T14:18:02Z</time>
      </trkpt>
      <trkpt lat="44.47789" lon="3.93361">
        <ele>817.6</ele>
        <time>2013-05-10T14:18:07Z</time>
      </trkpt>
      <trkpt lat="44.47786" lon="3.93351">
        <ele>817.3</ele>
        <time>2013-05-10T14:18:14Z</time>
      </trkpt>
      <trkpt lat="44.47783" lon="3.9334">
        <ele>817.1</ele>
        <time>2013-05-10T14:18:22Z</time>
      </trkpt>
      <trkpt lat="44.47782" lon="3.93328">
        <ele>816.9</ele>
        <time>2013-05-10T14:18:29Z</time>
      </trkpt>
      <trkpt lat="44.4778" lon="3.93317">
        <ele>817</ele>
        <time>2013-05-10T14:18:38Z</time>
      </trkpt>
      <trkpt lat="44.47779" lon="3.93316">
        <ele>817.1</ele>
        <time>2013-05-10T14:18:39Z</time>
      </trkpt>
      <trkpt lat="44.47779" lon="3.93296">
        <ele>818.6</ele>
        <time>2013-05-10T14:18:51Z</time>
      </trkpt>
      <trkpt lat="44.47781" lon="3.93284">
        <ele>818.7</ele>
        <time>2013-05-10T14:18:57Z</time>
      </trkpt>
      <trkpt lat="44.47784" lon="3.93273">
        <ele>819.1</ele>
        <time>2013-05-10T14:19:05Z</time>
      </trkpt>
      <trkpt lat="44.47783" lon="3.93262">
        <ele>819.4</ele>
        <time>2013-05-10T14:19:10Z</time>
      </trkpt>
      <trkpt lat="44.47781" lon="3.93251">
        <ele>819.5</ele>
        <time>2013-05-10T14:19:15Z</time>
      </trkpt>
      <trkpt lat="44.47784" lon="3.9324">
        <ele>819.5</ele>
        <time>2013-05-10T14:19:21Z</time>
      </trkpt>
      <trkpt lat="44.4779" lon="3.93231">
        <ele>819.4</ele>
        <time>2013-05-10T14:19:28Z</time>
      </trkpt>
      <trkpt lat="44.47789" lon="3.93219">
        <ele>818.7</ele>
        <time>2013-05-10T14:19:38Z</time>
      </trkpt>
      <trkpt lat="44.47795" lon="3.93212">
        <ele>818</ele>
        <time>2013-05-10T14:19:56Z</time>
      </trkpt>
      <trkpt lat="44.47796" lon="3.9321">
        <ele>817.9</ele>
        <time>2013-05-10T14:19:57Z</time>
      </trkpt>
      <trkpt lat="44.47796" lon="3.93189">
        <ele>817.3</ele>
        <time>2013-05-10T14:20:09Z</time>
      </trkpt>
      <trkpt lat="44.47798" lon="3.93178">
        <ele>816.3</ele>
        <time>2013-05-10T14:20:17Z</time>
      </trkpt>
      <trkpt lat="44.478" lon="3.93166">
        <ele>815.4</ele>
        <time>2013-05-10T14:20:24Z</time>
      </trkpt>
      <trkpt lat="44.47798" lon="3.93154">
        <ele>814.2</ele>
        <time>2013-05-10T14:20:33Z</time>
      </trkpt>
      <trkpt lat="44.478" lon="3.93143">
        <ele>813.6</ele>
        <time>2013-05-10T14:20:39Z</time>
      </trkpt>
      <trkpt lat="44.478" lon="3.93131">
        <ele>813.2</ele>
        <time>2013-05-10T14:20:46Z</time>
      </trkpt>
      <trkpt lat="44.47794" lon="3.93122">
        <ele>812.3</ele>
        <time>2013-05-10T14:20:52Z</time>
      </trkpt>
      <trkpt lat="44.47789" lon="3.93114">
        <ele>811.4</ele>
        <time>2013-05-10T14:20:56Z</time>
      </trkpt>
      <trkpt lat="44.47782" lon="3.93108">
        <ele>810.8</ele>
        <time>2013-05-10T14:21:00Z</time>
      </trkpt>
      <trkpt lat="44.47781" lon="3.93105">
        <ele>810.8</ele>
        <time>2013-05-10T14:21:01Z</time>
      </trkpt>
      <trkpt lat="44.47768" lon="3.931">
        <ele>809.4</ele>
        <time>2013-05-10T14:21:14Z</time>
      </trkpt>
      <trkpt lat="44.4776" lon="3.93103">
        <ele>808.4</ele>
        <time>2013-05-10T14:21:38Z</time>
      </trkpt>
      <trkpt lat="44.47751" lon="3.93105">
        <ele>808.6</ele>
        <time>2013-05-10T14:21:45Z</time>
      </trkpt>
      <trkpt lat="44.47742" lon="3.93107">
        <ele>808.3</ele>
        <time>2013-05-10T14:21:51Z</time>
      </trkpt>
      <trkpt lat="44.47734" lon="3.93105">
        <ele>807.9</ele>
        <time>2013-05-10T14:21:58Z</time>
      </trkpt>
      <trkpt lat="44.47726" lon="3.93106">
        <ele>807.5</ele>
        <time>2013-05-10T14:22:05Z</time>
      </trkpt>
      <trkpt lat="44.47725" lon="3.93107">
        <ele>807.4</ele>
        <time>2013-05-10T14:22:06Z</time>
      </trkpt>
      <trkpt lat="44.47709" lon="3.9311">
        <ele>806.9</ele>
        <time>2013-05-10T14:22:24Z</time>
      </trkpt>
      <trkpt lat="44.47701" lon="3.93112">
        <ele>806.3</ele>
        <time>2013-05-10T14:22:29Z</time>
      </trkpt>
      <trkpt lat="44.47692" lon="3.93112">
        <ele>806.2</ele>
        <time>2013-05-10T14:22:38Z</time>
      </trkpt>
      <trkpt lat="44.47684" lon="3.93115">
        <ele>805.8</ele>
        <time>2013-05-10T14:22:45Z</time>
      </trkpt>
      <trkpt lat="44.47676" lon="3.93116">
        <ele>805.4</ele>
        <time>2013-05-10T14:22:51Z</time>
      </trkpt>
      <trkpt lat="44.47667" lon="3.93117">
        <ele>804.5</ele>
        <time>2013-05-10T14:23:00Z</time>
      </trkpt>
      <trkpt lat="44.47659" lon="3.93118">
        <ele>804.2</ele>
        <time>2013-05-10T14:23:08Z</time>
      </trkpt>
      <trkpt lat="44.47658" lon="3.93118">
        <ele>804.2</ele>
        <time>2013-05-10T14:23:09Z</time>
      </trkpt>
      <trkpt lat="44.47642" lon="3.93123">
        <ele>803.5</ele>
        <time>2013-05-10T14:23:28Z</time>
      </trkpt>
      <trkpt lat="44.47634" lon="3.93124">
        <ele>803.3</ele>
        <time>2013-05-10T14:23:33Z</time>
      </trkpt>
      <trkpt lat="44.47627" lon="3.93128">
        <ele>803.1</ele>
        <time>2013-05-10T14:23:39Z</time>
      </trkpt>
      <trkpt lat="44.47619" lon="3.9313">
        <ele>802.9</ele>
        <time>2013-05-10T14:23:46Z</time>
      </trkpt>
      <trkpt lat="44.4761" lon="3.93131">
        <ele>802.7</ele>
        <time>2013-05-10T14:23:53Z</time>
      </trkpt>
      <trkpt lat="44.47602" lon="3.93135">
        <ele>802</ele>
        <time>2013-05-10T14:24:01Z</time>
      </trkpt>
      <trkpt lat="44.47594" lon="3.93136">
        <ele>801.3</ele>
        <time>2013-05-10T14:24:09Z</time>
      </trkpt>
      <trkpt lat="44.47593" lon="3.93136">
        <ele>801.3</ele>
        <time>2013-05-10T14:24:10Z</time>
      </trkpt>
      <trkpt lat="44.47577" lon="3.93138">
        <ele>801.2</ele>
        <time>2013-05-10T14:24:22Z</time>
      </trkpt>
      <trkpt lat="44.47568" lon="3.9314">
        <ele>801.2</ele>
        <time>2013-05-10T14:24:36Z</time>
      </trkpt>
      <trkpt lat="44.47561" lon="3.93144">
        <ele>801.4</ele>
        <time>2013-05-10T14:24:43Z</time>
      </trkpt>
      <trkpt lat="44.47553" lon="3.93145">
        <ele>800.9</ele>
        <time>2013-05-10T14:25:05Z</time>
      </trkpt>
      <trkpt lat="44.47544" lon="3.93147">
        <ele>800.8</ele>
        <time>2013-05-10T14:25:13Z</time>
      </trkpt>
      <trkpt lat="44.47543" lon="3.93148">
        <ele>800.7</ele>
        <time>2013-05-10T14:25:14Z</time>
      </trkpt>
      <trkpt lat="44.47528" lon="3.93149">
        <ele>800.7</ele>
        <time>2013-05-10T14:25:29Z</time>
      </trkpt>
      <trkpt lat="44.47521" lon="3.9315">
        <ele>801.4</ele>
        <time>2013-05-10T14:25:35Z</time>
      </trkpt>
      <trkpt lat="44.47513" lon="3.93153">
        <ele>801.3</ele>
        <time>2013-05-10T14:25:39Z</time>
      </trkpt>
      <trkpt lat="44.47505" lon="3.93156">
        <ele>801.1</ele>
        <time>2013-05-10T14:25:52Z</time>
      </trkpt>
      <trkpt lat="44.47497" lon="3.93158">
        <ele>801.5</ele>
        <time>2013-05-10T14:26:00Z</time>
      </trkpt>
      <trkpt lat="44.47489" lon="3.93159">
        <ele>801.1</ele>
        <time>2013-05-10T14:26:08Z</time>
      </trkpt>
      <trkpt lat="44.47481" lon="3.93163">
        <ele>800.8</ele>
        <time>2013-05-10T14:26:14Z</time>
      </trkpt>
      <trkpt lat="44.4748" lon="3.93163">
        <ele>800.8</ele>
        <time>2013-05-10T14:26:15Z</time>
      </trkpt>
      <trkpt lat="44.47465" lon="3.93163">
        <ele>800.6</ele>
        <time>2013-05-10T14:26:30Z</time>
      </trkpt>
      <trkpt lat="44.47457" lon="3.9316">
        <ele>800.1</ele>
        <time>2013-05-10T14:26:36Z</time>
      </trkpt>
      <trkpt lat="44.47449" lon="3.93161">
        <ele>799.7</ele>
        <time>2013-05-10T14:26:41Z</time>
      </trkpt>
      <trkpt lat="44.47441" lon="3.93164">
        <ele>799.4</ele>
        <time>2013-05-10T14:26:49Z</time>
      </trkpt>
      <trkpt lat="44.47433" lon="3.93167">
        <ele>799</ele>
        <time>2013-05-10T14:26:57Z</time>
      </trkpt>
      <trkpt lat="44.47424" lon="3.9317">
        <ele>798.5</ele>
        <time>2013-05-10T14:27:06Z</time>
      </trkpt>
      <trkpt lat="44.47416" lon="3.93171">
        <ele>798.4</ele>
        <time>2013-05-10T14:27:14Z</time>
      </trkpt>
      <trkpt lat="44.47407" lon="3.9317">
        <ele>798.6</ele>
        <time>2013-05-10T14:27:44Z</time>
      </trkpt>
      <trkpt lat="44.47407" lon="3.93171">
        <ele>798.5</ele>
        <time>2013-05-10T14:27:45Z</time>
      </trkpt>
      <trkpt lat="44.47391" lon="3.93173">
        <ele>798</ele>
        <time>2013-05-10T14:28:28Z</time>
      </trkpt>
      <trkpt lat="44.47383" lon="3.93174">
        <ele>797.8</ele>
        <time>2013-05-10T14:28:33Z</time>
      </trkpt>
      <trkpt lat="44.47374" lon="3.93177">
        <ele>797.1</ele>
        <time>2013-05-10T14:28:45Z</time>
      </trkpt>
      <trkpt lat="44.47373" lon="3.93176">
        <ele>797.1</ele>
        <time>2013-05-10T14:28:46Z</time>
      </trkpt>
      <trkpt lat="44.47358" lon="3.93181">
        <ele>797.1</ele>
        <time>2013-05-10T14:29:26Z</time>
      </trkpt>
      <trkpt lat="44.4735" lon="3.93182">
        <ele>797</ele>
        <time>2013-05-10T14:29:32Z</time>
      </trkpt>
      <trkpt lat="44.47342" lon="3.93183">
        <ele>797.1</ele>
        <time>2013-05-10T14:29:38Z</time>
      </trkpt>
      <trkpt lat="44.47333" lon="3.93186">
        <ele>797</ele>
        <time>2013-05-10T14:29:47Z</time>
      </trkpt>
      <trkpt lat="44.47332" lon="3.93187">
        <ele>797</ele>
        <time>2013-05-10T14:29:48Z</time>
      </trkpt>
      <trkpt lat="44.47316" lon="3.93187">
        <ele>797.3</ele>
        <time>2013-05-10T14:30:04Z</time>
      </trkpt>
      <trkpt lat="44.47308" lon="3.93187">
        <ele>797.2</ele>
        <time>2013-05-10T14:30:11Z</time>
      </trkpt>
      <trkpt lat="44.473" lon="3.93187">
        <ele>797</ele>
        <time>2013-05-10T14:30:16Z</time>
      </trkpt>
      <trkpt lat="44.47292" lon="3.93188">
        <ele>796.9</ele>
        <time>2013-05-10T14:30:22Z</time>
      </trkpt>
      <trkpt lat="44.47284" lon="3.9319">
        <ele>796.8</ele>
        <time>2013-05-10T14:30:29Z</time>
      </trkpt>
      <trkpt lat="44.47276" lon="3.93192">
        <ele>796.9</ele>
        <time>2013-05-10T14:30:38Z</time>
      </trkpt>
      <trkpt lat="44.47267" lon="3.93194">
        <ele>796.9</ele>
        <time>2013-05-10T14:30:45Z</time>
      </trkpt>
      <trkpt lat="44.47259" lon="3.93194">
        <ele>796.8</ele>
        <time>2013-05-10T14:30:51Z</time>
      </trkpt>
      <trkpt lat="44.47258" lon="3.93194">
        <ele>796.7</ele>
        <time>2013-05-10T14:30:52Z</time>
      </trkpt>
      <trkpt lat="44.47243" lon="3.93194">
        <ele>796.3</ele>
        <time>2013-05-10T14:31:05Z</time>
      </trkpt>
      <trkpt lat="44.47234" lon="3.93195">
        <ele>796.3</ele>
        <time>2013-05-10T14:31:13Z</time>
      </trkpt>
      <trkpt lat="44.47225" lon="3.93194">
        <ele>796.5</ele>
        <time>2013-05-10T14:31:18Z</time>
      </trkpt>
      <trkpt lat="44.47216" lon="3.93197">
        <ele>796.8</ele>
        <time>2013-05-10T14:31:26Z</time>
      </trkpt>
      <trkpt lat="44.47208" lon="3.93201">
        <ele>797</ele>
        <time>2013-05-10T14:31:35Z</time>
      </trkpt>
      <trkpt lat="44.472" lon="3.93206">
        <ele>796.9</ele>
        <time>2013-05-10T14:31:43Z</time>
      </trkpt>
      <trkpt lat="44.47192" lon="3.93208">
        <ele>796.3</ele>
        <time>2013-05-10T14:31:55Z</time>
      </trkpt>
      <trkpt lat="44.47191" lon="3.93209">
        <ele>796.2</ele>
        <time>2013-05-10T14:31:56Z</time>
      </trkpt>
      <trkpt lat="44.47177" lon="3.93218">
        <ele>795.7</ele>
        <time>2013-05-10T14:32:08Z</time>
      </trkpt>
      <trkpt lat="44.47169" lon="3.93222">
        <ele>795.4</ele>
        <time>2013-05-10T14:32:16Z</time>
      </trkpt>
      <trkpt lat="44.47162" lon="3.93226">
        <ele>794.9</ele>
        <time>2013-05-10T14:32:23Z</time>
      </trkpt>
      <trkpt lat="44.47154" lon="3.93232">
        <ele>795.5</ele>
        <time>2013-05-10T14:32:32Z</time>
      </trkpt>
      <trkpt lat="44.47146" lon="3.93236">
        <ele>795.6</ele>
        <time>2013-05-10T14:32:39Z</time>
      </trkpt>
      <trkpt lat="44.47138" lon="3.93242">
        <ele>794.8</ele>
        <time>2013-05-10T14:32:55Z</time>
      </trkpt>
      <trkpt lat="44.47132" lon="3.93249">
        <ele>794.4</ele>
        <time>2013-05-10T14:33:05Z</time>
      </trkpt>
      <trkpt lat="44.4713" lon="3.93251">
        <ele>794.2</ele>
        <time>2013-05-10T14:33:06Z</time>
      </trkpt>
      <trkpt lat="44.47117" lon="3.93259">
        <ele>793.1</ele>
        <time>2013-05-10T14:33:21Z</time>
      </trkpt>
      <trkpt lat="44.47113" lon="3.93266">
        <ele>792.8</ele>
        <time>2013-05-10T14:33:30Z</time>
      </trkpt>
      <trkpt lat="44.47104" lon="3.93268">
        <ele>792.8</ele>
        <time>2013-05-10T14:33:40Z</time>
      </trkpt>
      <trkpt lat="44.47096" lon="3.93266">
        <ele>792.8</ele>
        <time>2013-05-10T14:33:46Z</time>
      </trkpt>
      <trkpt lat="44.47088" lon="3.93268">
        <ele>792.8</ele>
        <time>2013-05-10T14:33:53Z</time>
      </trkpt>
      <trkpt lat="44.4708" lon="3.93268">
        <ele>792.7</ele>
        <time>2013-05-10T14:33:57Z</time>
      </trkpt>
      <trkpt lat="44.47072" lon="3.93267">
        <ele>792.4</ele>
        <time>2013-05-10T14:34:04Z</time>
      </trkpt>
      <trkpt lat="44.47064" lon="3.93263">
        <ele>791.7</ele>
        <time>2013-05-10T14:34:11Z</time>
      </trkpt>
      <trkpt lat="44.47063" lon="3.93262">
        <ele>791.6</ele>
        <time>2013-05-10T14:34:12Z</time>
      </trkpt>
      <trkpt lat="44.47048" lon="3.93256">
        <ele>790.9</ele>
        <time>2013-05-10T14:34:27Z</time>
      </trkpt>
      <trkpt lat="44.47044" lon="3.93247">
        <ele>790.1</ele>
        <time>2013-05-10T14:34:35Z</time>
      </trkpt>
      <trkpt lat="44.47036" lon="3.93241">
        <ele>789.3</ele>
        <time>2013-05-10T14:34:42Z</time>
      </trkpt>
      <trkpt lat="44.4703" lon="3.93235">
        <ele>788.9</ele>
        <time>2013-05-10T14:34:48Z</time>
      </trkpt>
      <trkpt lat="44.47025" lon="3.93225">
        <ele>787.7</ele>
        <time>2013-05-10T14:34:55Z</time>
      </trkpt>
      <trkpt lat="44.4702" lon="3.93216">
        <ele>786.4</ele>
        <time>2013-05-10T14:35:04Z</time>
      </trkpt>
      <trkpt lat="44.47012" lon="3.9321">
        <ele>786.4</ele>
        <time>2013-05-10T14:35:10Z</time>
      </trkpt>
      <trkpt lat="44.47006" lon="3.93203">
        <ele>786.5</ele>
        <time>2013-05-10T14:35:17Z</time>
      </trkpt>
      <trkpt lat="44.47005" lon="3.93202">
        <ele>786.5</ele>
        <time>2013-05-10T14:35:18Z</time>
      </trkpt>
      <trkpt lat="44.46991" lon="3.93196">
        <ele>787.5</ele>
        <time>2013-05-10T14:35:31Z</time>
      </trkpt>
      <trkpt lat="44.46983" lon="3.93193">
        <ele>787.9</ele>
        <time>2013-05-10T14:35:39Z</time>
      </trkpt>
      <trkpt lat="44.46974" lon="3.93191">
        <ele>787.9</ele>
        <time>2013-05-10T14:35:45Z</time>
      </trkpt>
      <trkpt lat="44.46966" lon="3.93188">
        <ele>787.9</ele>
        <time>2013-05-10T14:35:53Z</time>
      </trkpt>
      <trkpt lat="44.46958" lon="3.93184">
        <ele>787.8</ele>
        <time>2013-05-10T14:36:00Z</time>
      </trkpt>
      <trkpt lat="44.46951" lon="3.93183">
        <ele>787.9</ele>
        <time>2013-05-10T14:36:07Z</time>
      </trkpt>
      <trkpt lat="44.46943" lon="3.93184">
        <ele>787.9</ele>
        <time>2013-05-10T14:36:14Z</time>
      </trkpt>
      <trkpt lat="44.46935" lon="3.93186">
        <ele>787.9</ele>
        <time>2013-05-10T14:36:20Z</time>
      </trkpt>
      <trkpt lat="44.46934" lon="3.93186">
        <ele>787.9</ele>
        <time>2013-05-10T14:36:21Z</time>
      </trkpt>
      <trkpt lat="44.46918" lon="3.93183">
        <ele>788.8</ele>
        <time>2013-05-10T14:36:36Z</time>
      </trkpt>
      <trkpt lat="44.4691" lon="3.93184">
        <ele>788.9</ele>
        <time>2013-05-10T14:36:43Z</time>
      </trkpt>
      <trkpt lat="44.46902" lon="3.93184">
        <ele>789</ele>
        <time>2013-05-10T14:36:51Z</time>
      </trkpt>
      <trkpt lat="44.46893" lon="3.93182">
        <ele>788.6</ele>
        <time>2013-05-10T14:37:00Z</time>
      </trkpt>
      <trkpt lat="44.46885" lon="3.93179">
        <ele>788.6</ele>
        <time>2013-05-10T14:37:07Z</time>
      </trkpt>
      <trkpt lat="44.46877" lon="3.93181">
        <ele>788.5</ele>
        <time>2013-05-10T14:37:14Z</time>
      </trkpt>
      <trkpt lat="44.46869" lon="3.93179">
        <ele>788.9</ele>
        <time>2013-05-10T14:37:26Z</time>
      </trkpt>
      <trkpt lat="44.46867" lon="3.93179">
        <ele>789</ele>
        <time>2013-05-10T14:37:27Z</time>
      </trkpt>
      <trkpt lat="44.46851" lon="3.93177">
        <ele>787.3</ele>
        <time>2013-05-10T14:37:45Z</time>
      </trkpt>
      <trkpt lat="44.46842" lon="3.93178">
        <ele>787.1</ele>
        <time>2013-05-10T14:37:56Z</time>
      </trkpt>
      <trkpt lat="44.46834" lon="3.93177">
        <ele>787.1</ele>
        <time>2013-05-10T14:38:03Z</time>
      </trkpt>
      <trkpt lat="44.46826" lon="3.93182">
        <ele>786.5</ele>
        <time>2013-05-10T14:38:25Z</time>
      </trkpt>
      <trkpt lat="44.46818" lon="3.93188">
        <ele>786.4</ele>
        <time>2013-05-10T14:38:33Z</time>
      </trkpt>
      <trkpt lat="44.46817" lon="3.93189">
        <ele>786.3</ele>
        <time>2013-05-10T14:38:34Z</time>
      </trkpt>
      <trkpt lat="44.46802" lon="3.93196">
        <ele>786</ele>
        <time>2013-05-10T14:38:49Z</time>
      </trkpt>
      <trkpt lat="44.46795" lon="3.93201">
        <ele>785.7</ele>
        <time>2013-05-10T14:38:56Z</time>
      </trkpt>
      <trkpt lat="44.46786" lon="3.93204">
        <ele>785.6</ele>
        <time>2013-05-10T14:39:05Z</time>
      </trkpt>
      <trkpt lat="44.46778" lon="3.93208">
        <ele>785.2</ele>
        <time>2013-05-10T14:39:12Z</time>
      </trkpt>
      <trkpt lat="44.4677" lon="3.93212">
        <ele>784.8</ele>
        <time>2013-05-10T14:39:21Z</time>
      </trkpt>
      <trkpt lat="44.46763" lon="3.93219">
        <ele>784.1</ele>
        <time>2013-05-10T14:39:30Z</time>
      </trkpt>
      <trkpt lat="44.46755" lon="3.93223">
        <ele>783.7</ele>
        <time>2013-05-10T14:39:38Z</time>
      </trkpt>
      <trkpt lat="44.46755" lon="3.93223">
        <ele>783.7</ele>
        <time>2013-05-10T14:39:39Z</time>
      </trkpt>
      <trkpt lat="44.4674" lon="3.93233">
        <ele>782.8</ele>
        <time>2013-05-10T14:39:54Z</time>
      </trkpt>
      <trkpt lat="44.46731" lon="3.93237">
        <ele>782.6</ele>
        <time>2013-05-10T14:40:00Z</time>
      </trkpt>
      <trkpt lat="44.46724" lon="3.9324">
        <ele>782.5</ele>
        <time>2013-05-10T14:40:06Z</time>
      </trkpt>
      <trkpt lat="44.46716" lon="3.93245">
        <ele>782.2</ele>
        <time>2013-05-10T14:40:13Z</time>
      </trkpt>
      <trkpt lat="44.46708" lon="3.9325">
        <ele>781.6</ele>
        <time>2013-05-10T14:40:22Z</time>
      </trkpt>
      <trkpt lat="44.46701" lon="3.93255">
        <ele>781.2</ele>
        <time>2013-05-10T14:40:34Z</time>
      </trkpt>
      <trkpt lat="44.46692" lon="3.93256">
        <ele>780.8</ele>
        <time>2013-05-10T14:40:44Z</time>
      </trkpt>
      <trkpt lat="44.46691" lon="3.93256">
        <ele>780.8</ele>
        <time>2013-05-10T14:40:45Z</time>
      </trkpt>
      <trkpt lat="44.46675" lon="3.93256">
        <ele>780.5</ele>
        <time>2013-05-10T14:40:59Z</time>
      </trkpt>
      <trkpt lat="44.46667" lon="3.93261">
        <ele>780</ele>
        <time>2013-05-10T14:41:09Z</time>
      </trkpt>
      <trkpt lat="44.46658" lon="3.93262">
        <ele>779.2</ele>
        <time>2013-05-10T14:41:19Z</time>
      </trkpt>
      <trkpt lat="44.4665" lon="3.93261">
        <ele>778.9</ele>
        <time>2013-05-10T14:41:27Z</time>
      </trkpt>
      <trkpt lat="44.46642" lon="3.93256">
        <ele>778.4</ele>
        <time>2013-05-10T14:41:35Z</time>
      </trkpt>
      <trkpt lat="44.4664" lon="3.93246">
        <ele>778.1</ele>
        <time>2013-05-10T14:41:40Z</time>
      </trkpt>
      <trkpt lat="44.46635" lon="3.93236">
        <ele>777.2</ele>
        <time>2013-05-10T14:41:47Z</time>
      </trkpt>
      <trkpt lat="44.46634" lon="3.93234">
        <ele>776.9</ele>
        <time>2013-05-10T14:41:48Z</time>
      </trkpt>
      <trkpt lat="44.46633" lon="3.93213">
        <ele>774.9</ele>
        <time>2013-05-10T14:42:03Z</time>
      </trkpt>
      <trkpt lat="44.46628" lon="3.93204">
        <ele>774.2</ele>
        <time>2013-05-10T14:42:10Z</time>
      </trkpt>
      <trkpt lat="44.46622" lon="3.93198">
        <ele>773.7</ele>
        <time>2013-05-10T14:42:17Z</time>
      </trkpt>
      <trkpt lat="44.46614" lon="3.93194">
        <ele>773.3</ele>
        <time>2013-05-10T14:42:24Z</time>
      </trkpt>
      <trkpt lat="44.46605" lon="3.93192">
        <ele>772.4</ele>
        <time>2013-05-10T14:42:31Z</time>
      </trkpt>
      <trkpt lat="44.46598" lon="3.93189">
        <ele>771.7</ele>
        <time>2013-05-10T14:42:38Z</time>
      </trkpt>
      <trkpt lat="44.46589" lon="3.93187">
        <ele>771</ele>
        <time>2013-05-10T14:42:46Z</time>
      </trkpt>
      <trkpt lat="44.46582" lon="3.93185">
        <ele>770.4</ele>
        <time>2013-05-10T14:42:52Z</time>
      </trkpt>
      <trkpt lat="44.4658" lon="3.93185">
        <ele>770.3</ele>
        <time>2013-05-10T14:42:53Z</time>
      </trkpt>
      <trkpt lat="44.46565" lon="3.93179">
        <ele>768.2</ele>
        <time>2013-05-10T14:43:07Z</time>
      </trkpt>
      <trkpt lat="44.46557" lon="3.93179">
        <ele>766.9</ele>
        <time>2013-05-10T14:43:16Z</time>
      </trkpt>
      <trkpt lat="44.46549" lon="3.9318">
        <ele>766.1</ele>
        <time>2013-05-10T14:43:22Z</time>
      </trkpt>
      <trkpt lat="44.46541" lon="3.93179">
        <ele>765.4</ele>
        <time>2013-05-10T14:43:28Z</time>
      </trkpt>
      <trkpt lat="44.46532" lon="3.93176">
        <ele>764.2</ele>
        <time>2013-05-10T14:43:37Z</time>
      </trkpt>
      <trkpt lat="44.46524" lon="3.93175">
        <ele>762.8</ele>
        <time>2013-05-10T14:43:46Z</time>
      </trkpt>
      <trkpt lat="44.46516" lon="3.93176">
        <ele>761.6</ele>
        <time>2013-05-10T14:43:54Z</time>
      </trkpt>
      <trkpt lat="44.46514" lon="3.93176">
        <ele>761.5</ele>
        <time>2013-05-10T14:43:55Z</time>
      </trkpt>
      <trkpt lat="44.46499" lon="3.93181">
        <ele>757</ele>
        <time>2013-05-10T14:44:58Z</time>
      </trkpt>
      <trkpt lat="44.46498" lon="3.93182">
        <ele>757</ele>
        <time>2013-05-10T14:44:59Z</time>
      </trkpt>
      <trkpt lat="44.46482" lon="3.93184">
        <ele>757</ele>
        <time>2013-05-10T14:45:14Z</time>
      </trkpt>
      <trkpt lat="44.46474" lon="3.93185">
        <ele>756.5</ele>
        <time>2013-05-10T14:45:21Z</time>
      </trkpt>
      <trkpt lat="44.46477" lon="3.93173">
        <ele>752.5</ele>
        <time>2013-05-10T14:45:55Z</time>
      </trkpt>
      <trkpt lat="44.46485" lon="3.93171">
        <ele>751.1</ele>
        <time>2013-05-10T14:46:03Z</time>
      </trkpt>
      <trkpt lat="44.46486" lon="3.9317">
        <ele>750.8</ele>
        <time>2013-05-10T14:46:04Z</time>
      </trkpt>
      <trkpt lat="44.46499" lon="3.93162">
        <ele>749.6</ele>
        <time>2013-05-10T14:46:17Z</time>
      </trkpt>
      <trkpt lat="44.46507" lon="3.93157">
        <ele>749.3</ele>
        <time>2013-05-10T14:46:24Z</time>
      </trkpt>
      <trkpt lat="44.46516" lon="3.93153">
        <ele>749</ele>
        <time>2013-05-10T14:46:29Z</time>
      </trkpt>
      <trkpt lat="44.46523" lon="3.93148">
        <ele>749</ele>
        <time>2013-05-10T14:46:37Z</time>
      </trkpt>
      <trkpt lat="44.4653" lon="3.93141">
        <ele>748.9</ele>
        <time>2013-05-10T14:46:46Z</time>
      </trkpt>
      <trkpt lat="44.46536" lon="3.93132">
        <ele>748.9</ele>
        <time>2013-05-10T14:46:54Z</time>
      </trkpt>
      <trkpt lat="44.46543" lon="3.93128">
        <ele>748.4</ele>
        <time>2013-05-10T14:47:02Z</time>
      </trkpt>
      <trkpt lat="44.4655" lon="3.93123">
        <ele>747.9</ele>
        <time>2013-05-10T14:47:09Z</time>
      </trkpt>
      <trkpt lat="44.46551" lon="3.93123">
        <ele>748</ele>
        <time>2013-05-10T14:47:10Z</time>
      </trkpt>
      <trkpt lat="44.46566" lon="3.93117">
        <ele>747.8</ele>
        <time>2013-05-10T14:47:22Z</time>
      </trkpt>
      <trkpt lat="44.46573" lon="3.93111">
        <ele>746.5</ele>
        <time>2013-05-10T14:47:34Z</time>
      </trkpt>
      <trkpt lat="44.46569" lon="3.93101">
        <ele>742.5</ele>
        <time>2013-05-10T14:47:58Z</time>
      </trkpt>
      <trkpt lat="44.4656" lon="3.93097">
        <ele>739.7</ele>
        <time>2013-05-10T14:48:40Z</time>
      </trkpt>
      <trkpt lat="44.4656" lon="3.93097">
        <ele>739.6</ele>
        <time>2013-05-10T14:48:41Z</time>
      </trkpt>
      <trkpt lat="44.46544" lon="3.93098">
        <ele>739</ele>
        <time>2013-05-10T14:48:56Z</time>
      </trkpt>
      <trkpt lat="44.46536" lon="3.93097">
        <ele>738.7</ele>
        <time>2013-05-10T14:49:05Z</time>
      </trkpt>
      <trkpt lat="44.46528" lon="3.93094">
        <ele>738.8</ele>
        <time>2013-05-10T14:49:10Z</time>
      </trkpt>
      <trkpt lat="44.4652" lon="3.93091">
        <ele>738.7</ele>
        <time>2013-05-10T14:49:21Z</time>
      </trkpt>
      <trkpt lat="44.46513" lon="3.93094">
        <ele>738.3</ele>
        <time>2013-05-10T14:49:27Z</time>
      </trkpt>
      <trkpt lat="44.46507" lon="3.93101">
        <ele>738.2</ele>
        <time>2013-05-10T14:49:32Z</time>
      </trkpt>
      <trkpt lat="44.465" lon="3.93095">
        <ele>737.4</ele>
        <time>2013-05-10T14:49:42Z</time>
      </trkpt>
      <trkpt lat="44.46499" lon="3.93094">
        <ele>737.3</ele>
        <time>2013-05-10T14:49:43Z</time>
      </trkpt>
      <trkpt lat="44.46483" lon="3.93094">
        <ele>735.3</ele>
        <time>2013-05-10T14:50:01Z</time>
      </trkpt>
      <trkpt lat="44.46474" lon="3.93095">
        <ele>733.7</ele>
        <time>2013-05-10T14:50:10Z</time>
      </trkpt>
      <trkpt lat="44.46466" lon="3.93091">
        <ele>733</ele>
        <time>2013-05-10T14:50:17Z</time>
      </trkpt>
      <trkpt lat="44.46458" lon="3.93086">
        <ele>732.6</ele>
        <time>2013-05-10T14:50:25Z</time>
      </trkpt>
      <trkpt lat="44.4645" lon="3.93084">
        <ele>732.6</ele>
        <time>2013-05-10T14:50:32Z</time>
      </trkpt>
      <trkpt lat="44.46441" lon="3.93083">
        <ele>732.2</ele>
        <time>2013-05-10T14:50:38Z</time>
      </trkpt>
      <trkpt lat="44.46433" lon="3.93085">
        <ele>731.8</ele>
        <time>2013-05-10T14:50:47Z</time>
      </trkpt>
      <trkpt lat="44.46431" lon="3.93086">
        <ele>731.8</ele>
        <time>2013-05-10T14:50:48Z</time>
      </trkpt>
      <trkpt lat="44.46417" lon="3.93091">
        <ele>730.9</ele>
        <time>2013-05-10T14:51:05Z</time>
      </trkpt>
      <trkpt lat="44.46409" lon="3.93085">
        <ele>730.3</ele>
        <time>2013-05-10T14:51:13Z</time>
      </trkpt>
      <trkpt lat="44.46402" lon="3.93079">
        <ele>728.9</ele>
        <time>2013-05-10T14:51:23Z</time>
      </trkpt>
      <trkpt lat="44.46394" lon="3.93075">
        <ele>728.7</ele>
        <time>2013-05-10T14:51:29Z</time>
      </trkpt>
      <trkpt lat="44.46386" lon="3.93075">
        <ele>728.4</ele>
        <time>2013-05-10T14:51:36Z</time>
      </trkpt>
      <trkpt lat="44.46378" lon="3.93074">
        <ele>728.1</ele>
        <time>2013-05-10T14:51:42Z</time>
      </trkpt>
      <trkpt lat="44.46369" lon="3.93072">
        <ele>727.7</ele>
        <time>2013-05-10T14:51:50Z</time>
      </trkpt>
      <trkpt lat="44.46369" lon="3.93072">
        <ele>727.6</ele>
        <time>2013-05-10T14:51:51Z</time>
      </trkpt>
      <trkpt lat="44.46352" lon="3.93073">
        <ele>726.5</ele>
        <time>2013-05-10T14:52:12Z</time>
      </trkpt>
      <trkpt lat="44.46343" lon="3.93072">
        <ele>723.7</ele>
        <time>2013-05-10T14:52:38Z</time>
      </trkpt>
      <trkpt lat="44.46335" lon="3.93072">
        <ele>723.2</ele>
        <time>2013-05-10T14:52:50Z</time>
      </trkpt>
      <trkpt lat="44.46326" lon="3.9307">
        <ele>722.8</ele>
        <time>2013-05-10T14:53:02Z</time>
      </trkpt>
      <trkpt lat="44.46324" lon="3.93069">
        <ele>722.6</ele>
        <time>2013-05-10T14:53:03Z</time>
      </trkpt>
      <trkpt lat="44.46311" lon="3.9307">
        <ele>721</ele>
        <time>2013-05-10T14:53:28Z</time>
      </trkpt>
      <trkpt lat="44.46303" lon="3.9307">
        <ele>720.9</ele>
        <time>2013-05-10T14:53:36Z</time>
      </trkpt>
      <trkpt lat="44.46294" lon="3.93069">
        <ele>720.5</ele>
        <time>2013-05-10T14:53:46Z</time>
      </trkpt>
      <trkpt lat="44.46287" lon="3.93073">
        <ele>720.2</ele>
        <time>2013-05-10T14:53:57Z</time>
      </trkpt>
      <trkpt lat="44.4628" lon="3.9307">
        <ele>720.2</ele>
        <time>2013-05-10T14:54:04Z</time>
      </trkpt>
      <trkpt lat="44.46278" lon="3.9307">
        <ele>720.2</ele>
        <time>2013-05-10T14:54:05Z</time>
      </trkpt>
      <trkpt lat="44.46262" lon="3.93065">
        <ele>720.5</ele>
        <time>2013-05-10T14:54:22Z</time>
      </trkpt>
      <trkpt lat="44.46255" lon="3.93059">
        <ele>720.4</ele>
        <time>2013-05-10T14:54:29Z</time>
      </trkpt>
      <trkpt lat="44.46247" lon="3.93058">
        <ele>720.1</ele>
        <time>2013-05-10T14:54:33Z</time>
      </trkpt>
      <trkpt lat="44.46239" lon="3.93061">
        <ele>719.9</ele>
        <time>2013-05-10T14:54:38Z</time>
      </trkpt>
      <trkpt lat="44.46232" lon="3.93065">
        <ele>719.7</ele>
        <time>2013-05-10T14:54:44Z</time>
      </trkpt>
      <trkpt lat="44.46223" lon="3.93065">
        <ele>719.6</ele>
        <time>2013-05-10T14:54:52Z</time>
      </trkpt>
      <trkpt lat="44.46217" lon="3.93064">
        <ele>719.5</ele>
        <time>2013-05-10T14:55:09Z</time>
      </trkpt>
      <trkpt lat="44.46213" lon="3.93069">
        <ele>719.4</ele>
        <time>2013-05-10T14:55:10Z</time>
      </trkpt>
      <trkpt lat="44.46203" lon="3.93074">
        <ele>719.1</ele>
        <time>2013-05-10T14:55:27Z</time>
      </trkpt>
      <trkpt lat="44.46196" lon="3.93079">
        <ele>718.8</ele>
        <time>2013-05-10T14:55:31Z</time>
      </trkpt>
      <trkpt lat="44.46188" lon="3.93084">
        <ele>718.4</ele>
        <time>2013-05-10T14:55:39Z</time>
      </trkpt>
      <trkpt lat="44.46182" lon="3.93091">
        <ele>718</ele>
        <time>2013-05-10T14:55:46Z</time>
      </trkpt>
      <trkpt lat="44.46175" lon="3.93093">
        <ele>717.9</ele>
        <time>2013-05-10T14:55:52Z</time>
      </trkpt>
      <trkpt lat="44.46167" lon="3.93096">
        <ele>717.7</ele>
        <time>2013-05-10T14:55:57Z</time>
      </trkpt>
      <trkpt lat="44.46159" lon="3.93102">
        <ele>717.3</ele>
        <time>2013-05-10T14:56:06Z</time>
      </trkpt>
      <trkpt lat="44.46151" lon="3.93103">
        <ele>716.8</ele>
        <time>2013-05-10T14:56:13Z</time>
      </trkpt>
      <trkpt lat="44.4615" lon="3.93103">
        <ele>716.8</ele>
        <time>2013-05-10T14:56:14Z</time>
      </trkpt>
      <trkpt lat="44.46134" lon="3.93107">
        <ele>715.6</ele>
        <time>2013-05-10T14:56:26Z</time>
      </trkpt>
      <trkpt lat="44.46127" lon="3.93103">
        <ele>715.3</ele>
        <time>2013-05-10T14:56:32Z</time>
      </trkpt>
      <trkpt lat="44.46119" lon="3.93103">
        <ele>714.7</ele>
        <time>2013-05-10T14:56:40Z</time>
      </trkpt>
      <trkpt lat="44.46111" lon="3.93099">
        <ele>713.1</ele>
        <time>2013-05-10T14:56:51Z</time>
      </trkpt>
      <trkpt lat="44.46103" lon="3.93095">
        <ele>710</ele>
        <time>2013-05-10T14:57:09Z</time>
      </trkpt>
      <trkpt lat="44.46095" lon="3.9309">
        <ele>709.1</ele>
        <time>2013-05-10T14:57:19Z</time>
      </trkpt>
      <trkpt lat="44.46094" lon="3.9309">
        <ele>709</ele>
        <time>2013-05-10T14:57:20Z</time>
      </trkpt>
      <trkpt lat="44.46083" lon="3.93105">
        <ele>707.1</ele>
        <time>2013-05-10T14:57:38Z</time>
      </trkpt>
      <trkpt lat="44.46077" lon="3.93097">
        <ele>705.9</ele>
        <time>2013-05-10T14:57:45Z</time>
      </trkpt>
      <trkpt lat="44.46071" lon="3.93091">
        <ele>704.5</ele>
        <time>2013-05-10T14:57:50Z</time>
      </trkpt>
      <trkpt lat="44.46064" lon="3.93087">
        <ele>703.7</ele>
        <time>2013-05-10T14:57:58Z</time>
      </trkpt>
      <trkpt lat="44.46056" lon="3.93088">
        <ele>702.1</ele>
        <time>2013-05-10T14:58:07Z</time>
      </trkpt>
      <trkpt lat="44.46047" lon="3.93089">
        <ele>701.4</ele>
        <time>2013-05-10T14:58:14Z</time>
      </trkpt>
      <trkpt lat="44.4604" lon="3.93085">
        <ele>699.4</ele>
        <time>2013-05-10T14:58:26Z</time>
      </trkpt>
      <trkpt lat="44.46037" lon="3.93085">
        <ele>699.3</ele>
        <time>2013-05-10T14:58:27Z</time>
      </trkpt>
      <trkpt lat="44.46028" lon="3.9307">
        <ele>693.9</ele>
        <time>2013-05-10T14:58:44Z</time>
      </trkpt>
      <trkpt lat="44.4602" lon="3.93066">
        <ele>692.7</ele>
        <time>2013-05-10T14:58:49Z</time>
      </trkpt>
      <trkpt lat="44.46013" lon="3.9306">
        <ele>691.6</ele>
        <time>2013-05-10T14:58:54Z</time>
      </trkpt>
      <trkpt lat="44.46004" lon="3.93058">
        <ele>688.8</ele>
        <time>2013-05-10T14:59:06Z</time>
      </trkpt>
      <trkpt lat="44.45996" lon="3.93054">
        <ele>686.7</ele>
        <time>2013-05-10T14:59:14Z</time>
      </trkpt>
      <trkpt lat="44.45987" lon="3.93054">
        <ele>682.3</ele>
        <time>2013-05-10T14:59:24Z</time>
      </trkpt>
      <trkpt lat="44.45979" lon="3.93053">
        <ele>679.1</ele>
        <time>2013-05-10T14:59:33Z</time>
      </trkpt>
      <trkpt lat="44.45978" lon="3.93053">
        <ele>678.9</ele>
        <time>2013-05-10T14:59:34Z</time>
      </trkpt>
      <trkpt lat="44.45962" lon="3.93055">
        <ele>676.8</ele>
        <time>2013-05-10T14:59:49Z</time>
      </trkpt>
      <trkpt lat="44.45954" lon="3.93057">
        <ele>672</ele>
        <time>2013-05-10T15:00:14Z</time>
      </trkpt>
      <trkpt lat="44.45946" lon="3.9305">
        <ele>671.8</ele>
        <time>2013-05-10T15:00:24Z</time>
      </trkpt>
      <trkpt lat="44.45941" lon="3.93041">
        <ele>670.3</ele>
        <time>2013-05-10T15:00:44Z</time>
      </trkpt>
      <trkpt lat="44.4594" lon="3.9304">
        <ele>670.3</ele>
        <time>2013-05-10T15:00:45Z</time>
      </trkpt>
      <trkpt lat="44.4593" lon="3.93024">
        <ele>668</ele>
        <time>2013-05-10T15:01:03Z</time>
      </trkpt>
      <trkpt lat="44.45925" lon="3.93014">
        <ele>666.6</ele>
        <time>2013-05-10T15:01:13Z</time>
      </trkpt>
      <trkpt lat="44.45918" lon="3.93007">
        <ele>663.7</ele>
        <time>2013-05-10T15:01:48Z</time>
      </trkpt>
      <trkpt lat="44.45916" lon="3.93005">
        <ele>663.7</ele>
        <time>2013-05-10T15:01:49Z</time>
      </trkpt>
      <trkpt lat="44.45902" lon="3.93002">
        <ele>663</ele>
        <time>2013-05-10T15:01:59Z</time>
      </trkpt>
      <trkpt lat="44.45894" lon="3.92999">
        <ele>662.8</ele>
        <time>2013-05-10T15:02:05Z</time>
      </trkpt>
      <trkpt lat="44.45886" lon="3.93001">
        <ele>662.4</ele>
        <time>2013-05-10T15:02:10Z</time>
      </trkpt>
      <trkpt lat="44.45878" lon="3.93006">
        <ele>661.9</ele>
        <time>2013-05-10T15:02:18Z</time>
      </trkpt>
      <trkpt lat="44.45871" lon="3.93003">
        <ele>661.4</ele>
        <time>2013-05-10T15:02:29Z</time>
      </trkpt>
      <trkpt lat="44.45863" lon="3.93005">
        <ele>661.2</ele>
        <time>2013-05-10T15:02:36Z</time>
      </trkpt>
      <trkpt lat="44.45855" lon="3.93006">
        <ele>659.6</ele>
        <time>2013-05-10T15:02:54Z</time>
      </trkpt>
      <trkpt lat="44.45853" lon="3.93004">
        <ele>659.7</ele>
        <time>2013-05-10T15:02:55Z</time>
      </trkpt>
      <trkpt lat="44.4587" lon="3.92996">
        <ele>652.1</ele>
        <time>2013-05-10T15:03:31Z</time>
      </trkpt>
      <trkpt lat="44.45878" lon="3.92991">
        <ele>650.8</ele>
        <time>2013-05-10T15:03:37Z</time>
      </trkpt>
      <trkpt lat="44.45885" lon="3.92988">
        <ele>649.7</ele>
        <time>2013-05-10T15:03:43Z</time>
      </trkpt>
      <trkpt lat="44.45892" lon="3.92981">
        <ele>647.7</ele>
        <time>2013-05-10T15:03:51Z</time>
      </trkpt>
      <trkpt lat="44.45894" lon="3.9297">
        <ele>644.8</ele>
        <time>2013-05-10T15:04:00Z</time>
      </trkpt>
      <trkpt lat="44.45894" lon="3.92968">
        <ele>644.4</ele>
        <time>2013-05-10T15:04:01Z</time>
      </trkpt>
      <trkpt lat="44.45905" lon="3.92952">
        <ele>639.2</ele>
        <time>2013-05-10T15:04:22Z</time>
      </trkpt>
      <trkpt lat="44.45913" lon="3.92947">
        <ele>637.4</ele>
        <time>2013-05-10T15:04:30Z</time>
      </trkpt>
      <trkpt lat="44.45909" lon="3.92936">
        <ele>635.7</ele>
        <time>2013-05-10T15:04:39Z</time>
      </trkpt>
      <trkpt lat="44.45913" lon="3.92925">
        <ele>632.8</ele>
        <time>2013-05-10T15:04:49Z</time>
      </trkpt>
      <trkpt lat="44.45921" lon="3.92922">
        <ele>631.6</ele>
        <time>2013-05-10T15:04:53Z</time>
      </trkpt>
      <trkpt lat="44.45928" lon="3.92918">
        <ele>629.6</ele>
        <time>2013-05-10T15:05:00Z</time>
      </trkpt>
      <trkpt lat="44.45936" lon="3.92916">
        <ele>627.8</ele>
        <time>2013-05-10T15:05:06Z</time>
      </trkpt>
      <trkpt lat="44.45938" lon="3.92916">
        <ele>627.5</ele>
        <time>2013-05-10T15:05:07Z</time>
      </trkpt>
      <trkpt lat="44.45947" lon="3.92928">
        <ele>622.1</ele>
        <time>2013-05-10T15:05:35Z</time>
      </trkpt>
      <trkpt lat="44.45954" lon="3.9293">
        <ele>621.6</ele>
        <time>2013-05-10T15:05:37Z</time>
      </trkpt>
      <trkpt lat="44.45959" lon="3.92931">
        <ele>621.4</ele>
        <time>2013-05-10T15:05:39Z</time>
      </trkpt>
      <trkpt lat="44.45967" lon="3.92931">
        <ele>621.1</ele>
        <time>2013-05-10T15:05:41Z</time>
      </trkpt>
      <trkpt lat="44.45974" lon="3.92929">
        <ele>620.3</ele>
        <time>2013-05-10T15:05:45Z</time>
      </trkpt>
      <trkpt lat="44.45983" lon="3.92927">
        <ele>615.2</ele>
        <time>2013-05-10T15:05:55Z</time>
      </trkpt>
      <trkpt lat="44.45983" lon="3.92916">
        <ele>610.7</ele>
        <time>2013-05-10T15:06:08Z</time>
      </trkpt>
      <trkpt lat="44.45982" lon="3.92914">
        <ele>610.6</ele>
        <time>2013-05-10T15:06:09Z</time>
      </trkpt>
      <trkpt lat="44.45968" lon="3.92907">
        <ele>609.2</ele>
        <time>2013-05-10T15:06:22Z</time>
      </trkpt>
      <trkpt lat="44.4596" lon="3.92904">
        <ele>608.4</ele>
        <time>2013-05-10T15:06:28Z</time>
      </trkpt>
      <trkpt lat="44.45952" lon="3.929">
        <ele>607.6</ele>
        <time>2013-05-10T15:06:34Z</time>
      </trkpt>
      <trkpt lat="44.45944" lon="3.92895">
        <ele>606.3</ele>
        <time>2013-05-10T15:06:42Z</time>
      </trkpt>
      <trkpt lat="44.45935" lon="3.92894">
        <ele>605.1</ele>
        <time>2013-05-10T15:06:51Z</time>
      </trkpt>
      <trkpt lat="44.45927" lon="3.92893">
        <ele>604.4</ele>
        <time>2013-05-10T15:06:57Z</time>
      </trkpt>
      <trkpt lat="44.45919" lon="3.9289">
        <ele>603.9</ele>
        <time>2013-05-10T15:07:02Z</time>
      </trkpt>
      <trkpt lat="44.4591" lon="3.9289">
        <ele>603.4</ele>
        <time>2013-05-10T15:07:06Z</time>
      </trkpt>
      <trkpt lat="44.45902" lon="3.92891">
        <ele>602.8</ele>
        <time>2013-05-10T15:07:13Z</time>
      </trkpt>
      <trkpt lat="44.45901" lon="3.92892">
        <ele>602.7</ele>
        <time>2013-05-10T15:07:14Z</time>
      </trkpt>
      <trkpt lat="44.45885" lon="3.92892">
        <ele>601.3</ele>
        <time>2013-05-10T15:07:29Z</time>
      </trkpt>
      <trkpt lat="44.45879" lon="3.92901">
        <ele>600.5</ele>
        <time>2013-05-10T15:07:36Z</time>
      </trkpt>
      <trkpt lat="44.45872" lon="3.92906">
        <ele>599.5</ele>
        <time>2013-05-10T15:07:45Z</time>
      </trkpt>
      <trkpt lat="44.45866" lon="3.92913">
        <ele>598.8</ele>
        <time>2013-05-10T15:07:50Z</time>
      </trkpt>
      <trkpt lat="44.45862" lon="3.92921">
        <ele>598</ele>
        <time>2013-05-10T15:07:57Z</time>
      </trkpt>
      <trkpt lat="44.45858" lon="3.92931">
        <ele>597.7</ele>
        <time>2013-05-10T15:08:01Z</time>
      </trkpt>
      <trkpt lat="44.45851" lon="3.92937">
        <ele>596.8</ele>
        <time>2013-05-10T15:08:10Z</time>
      </trkpt>
      <trkpt lat="44.45843" lon="3.92939">
        <ele>596.1</ele>
        <time>2013-05-10T15:08:14Z</time>
      </trkpt>
      <trkpt lat="44.45842" lon="3.92939">
        <ele>595.9</ele>
        <time>2013-05-10T15:08:15Z</time>
      </trkpt>
      <trkpt lat="44.45826" lon="3.92942">
        <ele>594.8</ele>
        <time>2013-05-10T15:08:30Z</time>
      </trkpt>
      <trkpt lat="44.4582" lon="3.92949">
        <ele>594.9</ele>
        <time>2013-05-10T15:08:37Z</time>
      </trkpt>
      <trkpt lat="44.45812" lon="3.92953">
        <ele>593.2</ele>
        <time>2013-05-10T15:08:50Z</time>
      </trkpt>
      <trkpt lat="44.45811" lon="3.92963">
        <ele>591.6</ele>
        <time>2013-05-10T15:09:07Z</time>
      </trkpt>
      <trkpt lat="44.4581" lon="3.92965">
        <ele>591</ele>
        <time>2013-05-10T15:09:15Z</time>
      </trkpt>
      <trkpt lat="44.45802" lon="3.92965">
        <ele>590.8</ele>
        <time>2013-05-10T15:09:16Z</time>
      </trkpt>
      <trkpt lat="44.45797" lon="3.92965">
        <ele>590.7</ele>
        <time>2013-05-10T15:09:18Z</time>
      </trkpt>
      <trkpt lat="44.45789" lon="3.92969">
        <ele>590</ele>
        <time>2013-05-10T15:09:38Z</time>
      </trkpt>
      <trkpt lat="44.45781" lon="3.92975">
        <ele>590</ele>
        <time>2013-05-10T15:09:46Z</time>
      </trkpt>
      <trkpt lat="44.45776" lon="3.92983">
        <ele>590.1</ele>
        <time>2013-05-10T15:09:54Z</time>
      </trkpt>
      <trkpt lat="44.45767" lon="3.92985">
        <ele>590.2</ele>
        <time>2013-05-10T15:10:04Z</time>
      </trkpt>
      <trkpt lat="44.45759" lon="3.9299">
        <ele>590</ele>
        <time>2013-05-10T15:10:16Z</time>
      </trkpt>
      <trkpt lat="44.45758" lon="3.9299">
        <ele>590</ele>
        <time>2013-05-10T15:10:17Z</time>
      </trkpt>
      <trkpt lat="44.45744" lon="3.92994">
        <ele>590</ele>
        <time>2013-05-10T15:10:26Z</time>
      </trkpt>
      <trkpt lat="44.45735" lon="3.92994">
        <ele>589.9</ele>
        <time>2013-05-10T15:10:31Z</time>
      </trkpt>
      <trkpt lat="44.45729" lon="3.92988">
        <ele>589.9</ele>
        <time>2013-05-10T15:10:34Z</time>
      </trkpt>
      <trkpt lat="44.45721" lon="3.92987">
        <ele>589.9</ele>
        <time>2013-05-10T15:10:40Z</time>
      </trkpt>
      <trkpt lat="44.45713" lon="3.92987">
        <ele>589.9</ele>
        <time>2013-05-10T15:10:45Z</time>
      </trkpt>
      <trkpt lat="44.45706" lon="3.92986">
        <ele>589.9</ele>
        <time>2013-05-10T15:10:49Z</time>
      </trkpt>
      <trkpt lat="44.45699" lon="3.92992">
        <ele>589.8</ele>
        <time>2013-05-10T15:10:59Z</time>
      </trkpt>
      <trkpt lat="44.45691" lon="3.92991">
        <ele>589.9</ele>
        <time>2013-05-10T15:11:09Z</time>
      </trkpt>
      <trkpt lat="44.45685" lon="3.9299">
        <ele>590</ele>
        <time>2013-05-10T15:11:25Z</time>
      </trkpt>
      <trkpt lat="44.45682" lon="3.92987">
        <ele>590</ele>
        <time>2013-05-10T15:11:26Z</time>
      </trkpt>
      <trkpt lat="44.45669" lon="3.92988">
        <ele>590</ele>
        <time>2013-05-10T15:11:38Z</time>
      </trkpt>
      <trkpt lat="44.45661" lon="3.92988">
        <ele>590.1</ele>
        <time>2013-05-10T15:11:46Z</time>
      </trkpt>
      <trkpt lat="44.45655" lon="3.92996">
        <ele>590.1</ele>
        <time>2013-05-10T15:11:52Z</time>
      </trkpt>
      <trkpt lat="44.45648" lon="3.93001">
        <ele>590.2</ele>
        <time>2013-05-10T15:11:57Z</time>
      </trkpt>
      <trkpt lat="44.45641" lon="3.93008">
        <ele>590.3</ele>
        <time>2013-05-10T15:12:03Z</time>
      </trkpt>
      <trkpt lat="44.45633" lon="3.93006">
        <ele>590.4</ele>
        <time>2013-05-10T15:12:10Z</time>
      </trkpt>
      <trkpt lat="44.45625" lon="3.93006">
        <ele>590.6</ele>
        <time>2013-05-10T15:12:18Z</time>
      </trkpt>
      <trkpt lat="44.45621" lon="3.93015">
        <ele>590.8</ele>
        <time>2013-05-10T15:12:27Z</time>
      </trkpt>
      <trkpt lat="44.45619" lon="3.93016">
        <ele>590.8</ele>
        <time>2013-05-10T15:12:28Z</time>
      </trkpt>
      <trkpt lat="44.45607" lon="3.93027">
        <ele>591</ele>
        <time>2013-05-10T15:12:40Z</time>
      </trkpt>
      <trkpt lat="44.45603" lon="3.93031">
        <ele>591</ele>
        <time>2013-05-10T15:12:52Z</time>
      </trkpt>
      <trkpt lat="44.45596" lon="3.93035">
        <ele>591</ele>
        <time>2013-05-10T15:12:54Z</time>
      </trkpt>
      <trkpt lat="44.45588" lon="3.93041">
        <ele>591.2</ele>
        <time>2013-05-10T15:13:06Z</time>
      </trkpt>
      <trkpt lat="44.45583" lon="3.93047">
        <ele>591.2</ele>
        <time>2013-05-10T15:13:09Z</time>
      </trkpt>
      <trkpt lat="44.45575" lon="3.93052">
        <ele>591.3</ele>
        <time>2013-05-10T15:13:15Z</time>
      </trkpt>
      <trkpt lat="44.45569" lon="3.93061">
        <ele>591.3</ele>
        <time>2013-05-10T15:13:20Z</time>
      </trkpt>
      <trkpt lat="44.45563" lon="3.93067">
        <ele>591.4</ele>
        <time>2013-05-10T15:13:25Z</time>
      </trkpt>
      <trkpt lat="44.45557" lon="3.93075">
        <ele>591.5</ele>
        <time>2013-05-10T15:13:29Z</time>
      </trkpt>
      <trkpt lat="44.45556" lon="3.93076">
        <ele>591.5</ele>
        <time>2013-05-10T15:13:30Z</time>
      </trkpt>
      <trkpt lat="44.45545" lon="3.93089">
        <ele>591.5</ele>
        <time>2013-05-10T15:13:40Z</time>
      </trkpt>
      <trkpt lat="44.45537" lon="3.93094">
        <ele>591.4</ele>
        <time>2013-05-10T15:13:45Z</time>
      </trkpt>
      <trkpt lat="44.45532" lon="3.93102">
        <ele>591.5</ele>
        <time>2013-05-10T15:13:51Z</time>
      </trkpt>
      <trkpt lat="44.45524" lon="3.93108">
        <ele>591.6</ele>
        <time>2013-05-10T15:14:01Z</time>
      </trkpt>
      <trkpt lat="44.45519" lon="3.93117">
        <ele>591.8</ele>
        <time>2013-05-10T15:14:12Z</time>
      </trkpt>
      <trkpt lat="44.45517" lon="3.93129">
        <ele>591.8</ele>
        <time>2013-05-10T15:14:22Z</time>
      </trkpt>
      <trkpt lat="44.45508" lon="3.93132">
        <ele>591.8</ele>
        <time>2013-05-10T15:14:28Z</time>
      </trkpt>
      <trkpt lat="44.45506" lon="3.93143">
        <ele>591.9</ele>
        <time>2013-05-10T15:14:42Z</time>
      </trkpt>
      <trkpt lat="44.45507" lon="3.93144">
        <ele>591.9</ele>
        <time>2013-05-10T15:14:43Z</time>
      </trkpt>
      <trkpt lat="44.45505" lon="3.93164">
        <ele>591.9</ele>
        <time>2013-05-10T15:14:52Z</time>
      </trkpt>
      <trkpt lat="44.45505" lon="3.93175">
        <ele>591.9</ele>
        <time>2013-05-10T15:14:58Z</time>
      </trkpt>
      <trkpt lat="44.45506" lon="3.93187">
        <ele>592.1</ele>
        <time>2013-05-10T15:15:10Z</time>
      </trkpt>
      <trkpt lat="44.45501" lon="3.93197">
        <ele>592.1</ele>
        <time>2013-05-10T15:15:20Z</time>
      </trkpt>
      <trkpt lat="44.45493" lon="3.932">
        <ele>592.4</ele>
        <time>2013-05-10T15:15:27Z</time>
      </trkpt>
      <trkpt lat="44.45484" lon="3.93202">
        <ele>592.5</ele>
        <time>2013-05-10T15:15:31Z</time>
      </trkpt>
      <trkpt lat="44.45478" lon="3.93205">
        <ele>592.5</ele>
        <time>2013-05-10T15:15:34Z</time>
      </trkpt>
      <trkpt lat="44.4547" lon="3.93207">
        <ele>592.4</ele>
        <time>2013-05-10T15:15:39Z</time>
      </trkpt>
      <trkpt lat="44.45461" lon="3.93206">
        <ele>592.4</ele>
        <time>2013-05-10T15:15:46Z</time>
      </trkpt>
      <trkpt lat="44.4546" lon="3.93206">
        <ele>592.4</ele>
        <time>2013-05-10T15:15:47Z</time>
      </trkpt>
      <trkpt lat="44.45451" lon="3.93213">
        <ele>592.7</ele>
        <time>2013-05-10T15:16:32Z</time>
      </trkpt>
      <trkpt lat="44.45443" lon="3.93206">
        <ele>592.5</ele>
        <time>2013-05-10T15:16:33Z</time>
      </trkpt>
      <trkpt lat="44.45437" lon="3.93198">
        <ele>592.5</ele>
        <time>2013-05-10T15:16:39Z</time>
      </trkpt>
      <trkpt lat="44.4543" lon="3.93195">
        <ele>592.7</ele>
        <time>2013-05-10T15:17:01Z</time>
      </trkpt>
      <trkpt lat="44.45428" lon="3.93195">
        <ele>592.7</ele>
        <time>2013-05-10T15:17:02Z</time>
      </trkpt>
      <trkpt lat="44.45416" lon="3.93184">
        <ele>592.8</ele>
        <time>2013-05-10T15:17:13Z</time>
      </trkpt>
      <trkpt lat="44.45409" lon="3.93179">
        <ele>592.9</ele>
        <time>2013-05-10T15:17:19Z</time>
      </trkpt>
      <trkpt lat="44.45402" lon="3.93175">
        <ele>593.1</ele>
        <time>2013-05-10T15:17:25Z</time>
      </trkpt>
      <trkpt lat="44.45395" lon="3.93169">
        <ele>593.3</ele>
        <time>2013-05-10T15:17:30Z</time>
      </trkpt>
      <trkpt lat="44.45388" lon="3.93164">
        <ele>593.7</ele>
        <time>2013-05-10T15:17:36Z</time>
      </trkpt>
      <trkpt lat="44.45385" lon="3.93152">
        <ele>594</ele>
        <time>2013-05-10T15:17:41Z</time>
      </trkpt>
      <trkpt lat="44.45378" lon="3.93158">
        <ele>594.6</ele>
        <time>2013-05-10T15:18:07Z</time>
      </trkpt>
      <trkpt lat="44.45377" lon="3.93159">
        <ele>594.6</ele>
        <time>2013-05-10T15:18:08Z</time>
      </trkpt>
      <trkpt lat="44.45363" lon="3.9316">
        <ele>595.1</ele>
        <time>2013-05-10T15:18:24Z</time>
      </trkpt>
      <trkpt lat="44.45354" lon="3.93158">
        <ele>595.1</ele>
        <time>2013-05-10T15:18:27Z</time>
      </trkpt>
      <trkpt lat="44.45346" lon="3.93162">
        <ele>595.2</ele>
        <time>2013-05-10T15:18:33Z</time>
      </trkpt>
      <trkpt lat="44.45338" lon="3.93168">
        <ele>595.3</ele>
        <time>2013-05-10T15:18:43Z</time>
      </trkpt>
      <trkpt lat="44.4533" lon="3.93169">
        <ele>595.4</ele>
        <time>2013-05-10T15:18:52Z</time>
      </trkpt>
      <trkpt lat="44.45323" lon="3.93164">
        <ele>595.4</ele>
        <time>2013-05-10T15:18:57Z</time>
      </trkpt>
      <trkpt lat="44.45315" lon="3.93161">
        <ele>595.4</ele>
        <time>2013-05-10T15:19:03Z</time>
      </trkpt>
      <trkpt lat="44.45307" lon="3.93158">
        <ele>595.5</ele>
        <time>2013-05-10T15:19:12Z</time>
      </trkpt>
      <trkpt lat="44.45306" lon="3.93158">
        <ele>595.5</ele>
        <time>2013-05-10T15:19:13Z</time>
      </trkpt>
      <trkpt lat="44.45293" lon="3.93154">
        <ele>595.5</ele>
        <time>2013-05-10T15:19:20Z</time>
      </trkpt>
      <trkpt lat="44.45286" lon="3.9315">
        <ele>595.5</ele>
        <time>2013-05-10T15:19:24Z</time>
      </trkpt>
      <trkpt lat="44.45277" lon="3.93148">
        <ele>595.6</ele>
        <time>2013-05-10T15:19:29Z</time>
      </trkpt>
      <trkpt lat="44.45269" lon="3.93147">
        <ele>595.6</ele>
        <time>2013-05-10T15:19:38Z</time>
      </trkpt>
      <trkpt lat="44.45261" lon="3.93148">
        <ele>595.6</ele>
        <time>2013-05-10T15:19:45Z</time>
      </trkpt>
      <trkpt lat="44.45253" lon="3.93151">
        <ele>595.6</ele>
        <time>2013-05-10T15:19:50Z</time>
      </trkpt>
      <trkpt lat="44.45247" lon="3.93158">
        <ele>595.4</ele>
        <time>2013-05-10T15:20:23Z</time>
      </trkpt>
      <trkpt lat="44.45245" lon="3.93158">
        <ele>595.4</ele>
        <time>2013-05-10T15:20:24Z</time>
      </trkpt>
      <trkpt lat="44.45231" lon="3.93164">
        <ele>595.4</ele>
        <time>2013-05-10T15:20:35Z</time>
      </trkpt>
      <trkpt lat="44.45224" lon="3.93169">
        <ele>595.4</ele>
        <time>2013-05-10T15:20:43Z</time>
      </trkpt>
      <trkpt lat="44.45217" lon="3.93175">
        <ele>595.4</ele>
        <time>2013-05-10T15:20:50Z</time>
      </trkpt>
      <trkpt lat="44.45213" lon="3.93184">
        <ele>595.4</ele>
        <time>2013-05-10T15:20:56Z</time>
      </trkpt>
      <trkpt lat="44.45205" lon="3.93184">
        <ele>595.3</ele>
        <time>2013-05-10T15:21:00Z</time>
      </trkpt>
      <trkpt lat="44.45197" lon="3.93186">
        <ele>595.2</ele>
        <time>2013-05-10T15:21:06Z</time>
      </trkpt>
      <trkpt lat="44.4519" lon="3.93193">
        <ele>595.1</ele>
        <time>2013-05-10T15:21:14Z</time>
      </trkpt>
      <trkpt lat="44.45183" lon="3.93196">
        <ele>595</ele>
        <time>2013-05-10T15:21:19Z</time>
      </trkpt>
      <trkpt lat="44.45176" lon="3.93201">
        <ele>594.8</ele>
        <time>2013-05-10T15:21:23Z</time>
      </trkpt>
      <trkpt lat="44.45168" lon="3.93206">
        <ele>594.7</ele>
        <time>2013-05-10T15:21:28Z</time>
      </trkpt>
      <trkpt lat="44.45166" lon="3.93206">
        <ele>594.7</ele>
        <time>2013-05-10T15:21:29Z</time>
      </trkpt>
      <trkpt lat="44.45152" lon="3.93213">
        <ele>594.3</ele>
        <time>2013-05-10T15:21:43Z</time>
      </trkpt>
      <trkpt lat="44.45144" lon="3.93213">
        <ele>594.2</ele>
        <time>2013-05-10T15:21:50Z</time>
      </trkpt>
      <trkpt lat="44.45136" lon="3.93212">
        <ele>594.1</ele>
        <time>2013-05-10T15:21:55Z</time>
      </trkpt>
      <trkpt lat="44.45131" lon="3.93202">
        <ele>593.6</ele>
        <time>2013-05-10T15:22:23Z</time>
      </trkpt>
      <trkpt lat="44.45124" lon="3.93208">
        <ele>593.6</ele>
        <time>2013-05-10T15:22:30Z</time>
      </trkpt>
      <trkpt lat="44.45123" lon="3.9321">
        <ele>593.6</ele>
        <time>2013-05-10T15:22:31Z</time>
      </trkpt>
      <trkpt lat="44.4511" lon="3.932">
        <ele>593.4</ele>
        <time>2013-05-10T15:22:42Z</time>
      </trkpt>
      <trkpt lat="44.45103" lon="3.93193">
        <ele>593</ele>
        <time>2013-05-10T15:22:47Z</time>
      </trkpt>
      <trkpt lat="44.45106" lon="3.93188">
        <ele>592.9</ele>
        <time>2013-05-10T15:22:52Z</time>
      </trkpt>
      <trkpt lat="44.45066" lon="3.9314">
        <ele>590.8</ele>
        <time>2013-05-10T15:23:46Z</time>
      </trkpt>
      <trkpt lat="44.45063" lon="3.93139">
        <ele>590.8</ele>
        <time>2013-05-10T15:23:49Z</time>
      </trkpt>
      <trkpt lat="44.45054" lon="3.93139">
        <ele>590.8</ele>
        <time>2013-05-10T15:23:50Z</time>
      </trkpt>
      <trkpt lat="44.45046" lon="3.93139">
        <ele>590.8</ele>
        <time>2013-05-10T15:23:52Z</time>
      </trkpt>
      <trkpt lat="44.45038" lon="3.93133">
        <ele>590.7</ele>
        <time>2013-05-10T15:23:58Z</time>
      </trkpt>
      <trkpt lat="44.45032" lon="3.93126">
        <ele>589.4</ele>
        <time>2013-05-10T15:24:04Z</time>
      </trkpt>
      <trkpt lat="44.45024" lon="3.9312">
        <ele>588</ele>
        <time>2013-05-10T15:24:09Z</time>
      </trkpt>
      <trkpt lat="44.45017" lon="3.9312">
        <ele>587.8</ele>
        <time>2013-05-10T15:24:13Z</time>
      </trkpt>
      <trkpt lat="44.45008" lon="3.93118">
        <ele>587.1</ele>
        <time>2013-05-10T15:24:20Z</time>
      </trkpt>
      <trkpt lat="44.45004" lon="3.93115">
        <ele>586.5</ele>
        <time>2013-05-10T15:24:31Z</time>
      </trkpt>
      <trkpt lat="44.44997" lon="3.93111">
        <ele>585.3</ele>
        <time>2013-05-10T15:24:33Z</time>
      </trkpt>
      <trkpt lat="44.44989" lon="3.93105">
        <ele>584</ele>
        <time>2013-05-10T15:24:38Z</time>
      </trkpt>
      <trkpt lat="44.44982" lon="3.93099">
        <ele>583.5</ele>
        <time>2013-05-10T15:24:43Z</time>
      </trkpt>
      <trkpt lat="44.44977" lon="3.93092">
        <ele>582.3</ele>
        <time>2013-05-10T15:24:52Z</time>
      </trkpt>
      <trkpt lat="44.44975" lon="3.93091">
        <ele>582.2</ele>
        <time>2013-05-10T15:24:53Z</time>
      </trkpt>
      <trkpt lat="44.44965" lon="3.93076">
        <ele>576.9</ele>
        <time>2013-05-10T15:25:08Z</time>
      </trkpt>
      <trkpt lat="44.44959" lon="3.93069">
        <ele>575.8</ele>
        <time>2013-05-10T15:25:13Z</time>
      </trkpt>
      <trkpt lat="44.44952" lon="3.93061">
        <ele>574.2</ele>
        <time>2013-05-10T15:25:20Z</time>
      </trkpt>
      <trkpt lat="44.44945" lon="3.93063">
        <ele>573.2</ele>
        <time>2013-05-10T15:25:40Z</time>
      </trkpt>
      <trkpt lat="44.44936" lon="3.93065">
        <ele>572.7</ele>
        <time>2013-05-10T15:25:50Z</time>
      </trkpt>
      <trkpt lat="44.4493" lon="3.93071">
        <ele>572.2</ele>
        <time>2013-05-10T15:26:11Z</time>
      </trkpt>
      <trkpt lat="44.44928" lon="3.93073">
        <ele>572.1</ele>
        <time>2013-05-10T15:26:12Z</time>
      </trkpt>
      <trkpt lat="44.44915" lon="3.93066">
        <ele>571.9</ele>
        <time>2013-05-10T15:26:23Z</time>
      </trkpt>
      <trkpt lat="44.44906" lon="3.93062">
        <ele>571.9</ele>
        <time>2013-05-10T15:26:32Z</time>
      </trkpt>
      <trkpt lat="44.44899" lon="3.93056">
        <ele>571.8</ele>
        <time>2013-05-10T15:26:38Z</time>
      </trkpt>
      <trkpt lat="44.44892" lon="3.93062">
        <ele>571.7</ele>
        <time>2013-05-10T15:26:44Z</time>
      </trkpt>
      <trkpt lat="44.44887" lon="3.93071">
        <ele>571.5</ele>
        <time>2013-05-10T15:26:53Z</time>
      </trkpt>
      <trkpt lat="44.44882" lon="3.93081">
        <ele>571.4</ele>
        <time>2013-05-10T15:26:59Z</time>
      </trkpt>
      <trkpt lat="44.44879" lon="3.93087">
        <ele>571.3</ele>
        <time>2013-05-10T15:27:04Z</time>
      </trkpt>
      <trkpt lat="44.4489" lon="3.93073">
        <ele>571</ele>
        <time>2013-05-10T15:27:16Z</time>
      </trkpt>
      <trkpt lat="44.44881" lon="3.93072">
        <ele>570.9</ele>
        <time>2013-05-10T15:27:20Z</time>
      </trkpt>
      <trkpt lat="44.44874" lon="3.93069">
        <ele>570.9</ele>
        <time>2013-05-10T15:27:23Z</time>
      </trkpt>
      <trkpt lat="44.44865" lon="3.93068">
        <ele>570.9</ele>
        <time>2013-05-10T15:27:32Z</time>
      </trkpt>
      <trkpt lat="44.44856" lon="3.93066">
        <ele>570.8</ele>
        <time>2013-05-10T15:27:40Z</time>
      </trkpt>
      <trkpt lat="44.44848" lon="3.93067">
        <ele>570.8</ele>
        <time>2013-05-10T15:27:46Z</time>
      </trkpt>
      <trkpt lat="44.44839" lon="3.93065">
        <ele>570.8</ele>
        <time>2013-05-10T15:27:54Z</time>
      </trkpt>
      <trkpt lat="44.44832" lon="3.93067">
        <ele>568.8</ele>
        <time>2013-05-10T15:28:17Z</time>
      </trkpt>
      <trkpt lat="44.44831" lon="3.9307">
        <ele>568.8</ele>
        <time>2013-05-10T15:28:18Z</time>
      </trkpt>
      <trkpt lat="44.44816" lon="3.93069">
        <ele>567.3</ele>
        <time>2013-05-10T15:28:30Z</time>
      </trkpt>
      <trkpt lat="44.44808" lon="3.93065">
        <ele>566.9</ele>
        <time>2013-05-10T15:28:35Z</time>
      </trkpt>
      <trkpt lat="44.44801" lon="3.93066">
        <ele>566.5</ele>
        <time>2013-05-10T15:28:40Z</time>
      </trkpt>
      <trkpt lat="44.44793" lon="3.93063">
        <ele>566.2</ele>
        <time>2013-05-10T15:28:45Z</time>
      </trkpt>
      <trkpt lat="44.44785" lon="3.93059">
        <ele>566</ele>
        <time>2013-05-10T15:28:52Z</time>
      </trkpt>
      <trkpt lat="44.44777" lon="3.9306">
        <ele>565.7</ele>
        <time>2013-05-10T15:28:59Z</time>
      </trkpt>
      <trkpt lat="44.44769" lon="3.93058">
        <ele>565.8</ele>
        <time>2013-05-10T15:29:05Z</time>
      </trkpt>
      <trkpt lat="44.44761" lon="3.93059">
        <ele>565.9</ele>
        <time>2013-05-10T15:29:11Z</time>
      </trkpt>
      <trkpt lat="44.44753" lon="3.93055">
        <ele>566</ele>
        <time>2013-05-10T15:29:19Z</time>
      </trkpt>
      <trkpt lat="44.44752" lon="3.93055">
        <ele>566</ele>
        <time>2013-05-10T15:29:20Z</time>
      </trkpt>
      <trkpt lat="44.44737" lon="3.93054">
        <ele>566.3</ele>
        <time>2013-05-10T15:29:34Z</time>
      </trkpt>
      <trkpt lat="44.44729" lon="3.93052">
        <ele>566.3</ele>
        <time>2013-05-10T15:29:39Z</time>
      </trkpt>
      <trkpt lat="44.44721" lon="3.9305">
        <ele>566.2</ele>
        <time>2013-05-10T15:29:43Z</time>
      </trkpt>
      <trkpt lat="44.44713" lon="3.93051">
        <ele>566.3</ele>
        <time>2013-05-10T15:29:48Z</time>
      </trkpt>
      <trkpt lat="44.44706" lon="3.93045">
        <ele>566.4</ele>
        <time>2013-05-10T15:29:52Z</time>
      </trkpt>
      <trkpt lat="44.44699" lon="3.93045">
        <ele>566.5</ele>
        <time>2013-05-10T15:29:57Z</time>
      </trkpt>
      <trkpt lat="44.44692" lon="3.93045">
        <ele>566.6</ele>
        <time>2013-05-10T15:30:03Z</time>
      </trkpt>
      <trkpt lat="44.44684" lon="3.93042">
        <ele>566.9</ele>
        <time>2013-05-10T15:30:14Z</time>
      </trkpt>
      <trkpt lat="44.44676" lon="3.93039">
        <ele>567.1</ele>
        <time>2013-05-10T15:30:20Z</time>
      </trkpt>
      <trkpt lat="44.44674" lon="3.93038">
        <ele>567.1</ele>
        <time>2013-05-10T15:30:21Z</time>
      </trkpt>
      <trkpt lat="44.44662" lon="3.93026">
        <ele>567.1</ele>
        <time>2013-05-10T15:30:35Z</time>
      </trkpt>
      <trkpt lat="44.4466" lon="3.93014">
        <ele>566.8</ele>
        <time>2013-05-10T15:30:39Z</time>
      </trkpt>
      <trkpt lat="44.44655" lon="3.93004">
        <ele>566.9</ele>
        <time>2013-05-10T15:30:45Z</time>
      </trkpt>
      <trkpt lat="44.44649" lon="3.92995">
        <ele>567</ele>
        <time>2013-05-10T15:30:50Z</time>
      </trkpt>
      <trkpt lat="44.44647" lon="3.92989">
        <ele>567</ele>
        <time>2013-05-10T15:30:53Z</time>
      </trkpt>
      <trkpt lat="44.4461" lon="3.92993">
        <ele>568.1</ele>
        <time>2013-05-10T15:31:42Z</time>
      </trkpt>
      <trkpt lat="44.44602" lon="3.92989">
        <ele>570.1</ele>
        <time>2013-05-10T15:31:45Z</time>
      </trkpt>
      <trkpt lat="44.44596" lon="3.92983">
        <ele>569.2</ele>
        <time>2013-05-10T15:31:51Z</time>
      </trkpt>
      <trkpt lat="44.44587" lon="3.92983">
        <ele>569.2</ele>
        <time>2013-05-10T15:31:57Z</time>
      </trkpt>
      <trkpt lat="44.4458" lon="3.92976">
        <ele>568.6</ele>
        <time>2013-05-10T15:32:03Z</time>
      </trkpt>
      <trkpt lat="44.44572" lon="3.92972">
        <ele>564.2</ele>
        <time>2013-05-10T15:32:10Z</time>
      </trkpt>
      <trkpt lat="44.44565" lon="3.92965">
        <ele>560.6</ele>
        <time>2013-05-10T15:32:16Z</time>
      </trkpt>
      <trkpt lat="44.44558" lon="3.92961">
        <ele>553.9</ele>
        <time>2013-05-10T15:32:26Z</time>
      </trkpt>
      <trkpt lat="44.44554" lon="3.92973">
        <ele>544</ele>
        <time>2013-05-10T15:32:38Z</time>
      </trkpt>
      <trkpt lat="44.44545" lon="3.92974">
        <ele>543.1</ele>
        <time>2013-05-10T15:32:49Z</time>
      </trkpt>
      <trkpt lat="44.44545" lon="3.92974">
        <ele>543.1</ele>
        <time>2013-05-10T15:32:50Z</time>
      </trkpt>
      <trkpt lat="44.44529" lon="3.92981">
        <ele>544.9</ele>
        <time>2013-05-10T15:33:10Z</time>
      </trkpt>
      <trkpt lat="44.44521" lon="3.92982">
        <ele>546.2</ele>
        <time>2013-05-10T15:33:14Z</time>
      </trkpt>
      <trkpt lat="44.44514" lon="3.92986">
        <ele>546.5</ele>
        <time>2013-05-10T15:33:19Z</time>
      </trkpt>
      <trkpt lat="44.44507" lon="3.92993">
        <ele>547.4</ele>
        <time>2013-05-10T15:33:26Z</time>
      </trkpt>
      <trkpt lat="44.44502" lon="3.93001">
        <ele>547.2</ele>
        <time>2013-05-10T15:33:32Z</time>
      </trkpt>
      <trkpt lat="44.44497" lon="3.9301">
        <ele>547.2</ele>
        <time>2013-05-10T15:33:42Z</time>
      </trkpt>
      <trkpt lat="44.44489" lon="3.93015">
        <ele>546.9</ele>
        <time>2013-05-10T15:33:49Z</time>
      </trkpt>
      <trkpt lat="44.44481" lon="3.93015">
        <ele>546.6</ele>
        <time>2013-05-10T15:33:57Z</time>
      </trkpt>
      <trkpt lat="44.4448" lon="3.93016">
        <ele>546.5</ele>
        <time>2013-05-10T15:33:58Z</time>
      </trkpt>
      <trkpt lat="44.44478" lon="3.93033">
        <ele>546.3</ele>
        <time>2013-05-10T15:34:02Z</time>
      </trkpt>
      <trkpt lat="44.44475" lon="3.9304">
        <ele>546</ele>
        <time>2013-05-10T15:34:09Z</time>
      </trkpt>
      <trkpt lat="44.4447" lon="3.93046">
        <ele>545.8</ele>
        <time>2013-05-10T15:34:12Z</time>
      </trkpt>
      <trkpt lat="44.44464" lon="3.93055">
        <ele>545.5</ele>
        <time>2013-05-10T15:34:17Z</time>
      </trkpt>
      <trkpt lat="44.44458" lon="3.93063">
        <ele>545.2</ele>
        <time>2013-05-10T15:34:22Z</time>
      </trkpt>
      <trkpt lat="44.44454" lon="3.93074">
        <ele>544.9</ele>
        <time>2013-05-10T15:34:27Z</time>
      </trkpt>
      <trkpt lat="44.44452" lon="3.93086">
        <ele>544.6</ele>
        <time>2013-05-10T15:34:32Z</time>
      </trkpt>
      <trkpt lat="44.4445" lon="3.93097">
        <ele>544.3</ele>
        <time>2013-05-10T15:34:37Z</time>
      </trkpt>
      <trkpt lat="44.44449" lon="3.93108">
        <ele>544.1</ele>
        <time>2013-05-10T15:34:42Z</time>
      </trkpt>
      <trkpt lat="44.44448" lon="3.93118">
        <ele>543.8</ele>
        <time>2013-05-10T15:34:46Z</time>
      </trkpt>
      <trkpt lat="44.44452" lon="3.93128">
        <ele>543.5</ele>
        <time>2013-05-10T15:34:52Z</time>
      </trkpt>
      <trkpt lat="44.44451" lon="3.93139">
        <ele>543</ele>
        <time>2013-05-10T15:34:58Z</time>
      </trkpt>
      <trkpt lat="44.4445" lon="3.93141">
        <ele>543</ele>
        <time>2013-05-10T15:34:59Z</time>
      </trkpt>
      <trkpt lat="44.44444" lon="3.93161">
        <ele>542.1</ele>
        <time>2013-05-10T15:35:16Z</time>
      </trkpt>
      <trkpt lat="44.44442" lon="3.93171">
        <ele>541.9</ele>
        <time>2013-05-10T15:35:21Z</time>
      </trkpt>
      <trkpt lat="44.44439" lon="3.93183">
        <ele>541.6</ele>
        <time>2013-05-10T15:35:29Z</time>
      </trkpt>
      <trkpt lat="44.44434" lon="3.93193">
        <ele>541.4</ele>
        <time>2013-05-10T15:35:34Z</time>
      </trkpt>
      <trkpt lat="44.44428" lon="3.93201">
        <ele>541.2</ele>
        <time>2013-05-10T15:35:38Z</time>
      </trkpt>
      <trkpt lat="44.44424" lon="3.93209">
        <ele>541.1</ele>
        <time>2013-05-10T15:35:42Z</time>
      </trkpt>
      <trkpt lat="44.44417" lon="3.93218">
        <ele>541.1</ele>
        <time>2013-05-10T15:35:46Z</time>
      </trkpt>
      <trkpt lat="44.44417" lon="3.93229">
        <ele>540.9</ele>
        <time>2013-05-10T15:35:53Z</time>
      </trkpt>
      <trkpt lat="44.44424" lon="3.93235">
        <ele>540.9</ele>
        <time>2013-05-10T15:35:59Z</time>
      </trkpt>
      <trkpt lat="44.44425" lon="3.93237">
        <ele>540.9</ele>
        <time>2013-05-10T15:36:00Z</time>
      </trkpt>
      <trkpt lat="44.44423" lon="3.93258">
        <ele>540.5</ele>
        <time>2013-05-10T15:36:12Z</time>
      </trkpt>
      <trkpt lat="44.44418" lon="3.93268">
        <ele>540.4</ele>
        <time>2013-05-10T15:36:18Z</time>
      </trkpt>
      <trkpt lat="44.44413" lon="3.93278">
        <ele>540.5</ele>
        <time>2013-05-10T15:36:25Z</time>
      </trkpt>
      <trkpt lat="44.44405" lon="3.93275">
        <ele>540.6</ele>
        <time>2013-05-10T15:36:35Z</time>
      </trkpt>
      <trkpt lat="44.44398" lon="3.93275">
        <ele>540.8</ele>
        <time>2013-05-10T15:36:41Z</time>
      </trkpt>
      <trkpt lat="44.4439" lon="3.93271">
        <ele>540.9</ele>
        <time>2013-05-10T15:36:47Z</time>
      </trkpt>
      <trkpt lat="44.44384" lon="3.93267">
        <ele>540.9</ele>
        <time>2013-05-10T15:36:50Z</time>
      </trkpt>
      <trkpt lat="44.44377" lon="3.93263">
        <ele>540.8</ele>
        <time>2013-05-10T15:36:52Z</time>
      </trkpt>
      <trkpt lat="44.4437" lon="3.93256">
        <ele>540.8</ele>
        <time>2013-05-10T15:36:56Z</time>
      </trkpt>
      <trkpt lat="44.44362" lon="3.93258">
        <ele>540.9</ele>
        <time>2013-05-10T15:37:09Z</time>
      </trkpt>
      <trkpt lat="44.44361" lon="3.93258">
        <ele>541</ele>
        <time>2013-05-10T15:37:10Z</time>
      </trkpt>
      <trkpt lat="44.4435" lon="3.93246">
        <ele>540.8</ele>
        <time>2013-05-10T15:37:26Z</time>
      </trkpt>
      <trkpt lat="44.44342" lon="3.93247">
        <ele>540.6</ele>
        <time>2013-05-10T15:37:31Z</time>
      </trkpt>
      <trkpt lat="44.44335" lon="3.93245">
        <ele>540.5</ele>
        <time>2013-05-10T15:37:37Z</time>
      </trkpt>
      <trkpt lat="44.44326" lon="3.93242">
        <ele>540.5</ele>
        <time>2013-05-10T15:37:44Z</time>
      </trkpt>
      <trkpt lat="44.4432" lon="3.93235">
        <ele>540.4</ele>
        <time>2013-05-10T15:37:55Z</time>
      </trkpt>
      <trkpt lat="44.44312" lon="3.93232">
        <ele>540.3</ele>
        <time>2013-05-10T15:38:03Z</time>
      </trkpt>
      <trkpt lat="44.44304" lon="3.93235">
        <ele>539.9</ele>
        <time>2013-05-10T15:38:22Z</time>
      </trkpt>
      <trkpt lat="44.44296" lon="3.9323">
        <ele>539.8</ele>
        <time>2013-05-10T15:38:23Z</time>
      </trkpt>
      <trkpt lat="44.44293" lon="3.93225">
        <ele>539.4</ele>
        <time>2013-05-10T15:38:37Z</time>
      </trkpt>
      <trkpt lat="44.44286" lon="3.9322">
        <ele>539.3</ele>
        <time>2013-05-10T15:38:38Z</time>
      </trkpt>
      <trkpt lat="44.44278" lon="3.93215">
        <ele>539.2</ele>
        <time>2013-05-10T15:38:41Z</time>
      </trkpt>
      <trkpt lat="44.44287" lon="3.93215">
        <ele>538.6</ele>
        <time>2013-05-10T15:38:55Z</time>
      </trkpt>
      <trkpt lat="44.44278" lon="3.93217">
        <ele>538.1</ele>
        <time>2013-05-10T15:39:09Z</time>
      </trkpt>
      <trkpt lat="44.44284" lon="3.93211">
        <ele>537.9</ele>
        <time>2013-05-10T15:39:25Z</time>
      </trkpt>
      <trkpt lat="44.44285" lon="3.93209">
        <ele>537.8</ele>
        <time>2013-05-10T15:39:26Z</time>
      </trkpt>
      <trkpt lat="44.44286" lon="3.93193">
        <ele>537.7</ele>
        <time>2013-05-10T15:39:39Z</time>
      </trkpt>
      <trkpt lat="44.44279" lon="3.9319">
        <ele>537.8</ele>
        <time>2013-05-10T15:39:40Z</time>
      </trkpt>
      <trkpt lat="44.44273" lon="3.93181">
        <ele>537.8</ele>
        <time>2013-05-10T15:39:44Z</time>
      </trkpt>
      <trkpt lat="44.44268" lon="3.93176">
        <ele>537.7</ele>
        <time>2013-05-10T15:39:46Z</time>
      </trkpt>
      <trkpt lat="44.44263" lon="3.93167">
        <ele>537.5</ele>
        <time>2013-05-10T15:39:50Z</time>
      </trkpt>
      <trkpt lat="44.44258" lon="3.93159">
        <ele>537</ele>
        <time>2013-05-10T15:39:56Z</time>
      </trkpt>
      <trkpt lat="44.4425" lon="3.9316">
        <ele>536.2</ele>
        <time>2013-05-10T15:40:16Z</time>
      </trkpt>
      <trkpt lat="44.44243" lon="3.93166">
        <ele>536.3</ele>
        <time>2013-05-10T15:40:23Z</time>
      </trkpt>
      <trkpt lat="44.44234" lon="3.93168">
        <ele>536.3</ele>
        <time>2013-05-10T15:40:32Z</time>
      </trkpt>
      <trkpt lat="44.44232" lon="3.93169">
        <ele>536.3</ele>
        <time>2013-05-10T15:40:33Z</time>
      </trkpt>
      <trkpt lat="44.44238" lon="3.93189">
        <ele>536.1</ele>
        <time>2013-05-10T15:40:55Z</time>
      </trkpt>
      <trkpt lat="44.44241" lon="3.932">
        <ele>536.3</ele>
        <time>2013-05-10T15:41:00Z</time>
      </trkpt>
      <trkpt lat="44.44233" lon="3.93198">
        <ele>536.4</ele>
        <time>2013-05-10T15:41:06Z</time>
      </trkpt>
      <trkpt lat="44.44225" lon="3.93197">
        <ele>536.4</ele>
        <time>2013-05-10T15:41:14Z</time>
      </trkpt>
      <trkpt lat="44.44224" lon="3.93194">
        <ele>536.4</ele>
        <time>2013-05-10T15:41:16Z</time>
      </trkpt>
      <trkpt lat="44.44209" lon="3.93183">
        <ele>536.3</ele>
        <time>2013-05-10T15:41:17Z</time>
      </trkpt>
      <trkpt lat="44.44204" lon="3.93178">
        <ele>536.2</ele>
        <time>2013-05-10T15:41:19Z</time>
      </trkpt>
      <trkpt lat="44.44201" lon="3.93168">
        <ele>536.3</ele>
        <time>2013-05-10T15:41:23Z</time>
      </trkpt>
      <trkpt lat="44.44193" lon="3.93163">
        <ele>536.2</ele>
        <time>2013-05-10T15:41:24Z</time>
      </trkpt>
      <trkpt lat="44.44186" lon="3.93159">
        <ele>536.3</ele>
        <time>2013-05-10T15:41:26Z</time>
      </trkpt>
      <trkpt lat="44.44191" lon="3.93167">
        <ele>536.2</ele>
        <time>2013-05-10T15:41:28Z</time>
      </trkpt>
      <trkpt lat="44.44188" lon="3.93177">
        <ele>536.2</ele>
        <time>2013-05-10T15:41:34Z</time>
      </trkpt>
      <trkpt lat="44.44187" lon="3.9318">
        <ele>536.2</ele>
        <time>2013-05-10T15:41:35Z</time>
      </trkpt>
      <trkpt lat="44.44171" lon="3.93177">
        <ele>536.3</ele>
        <time>2013-05-10T15:41:49Z</time>
      </trkpt>
      <trkpt lat="44.44163" lon="3.93176">
        <ele>536.2</ele>
        <time>2013-05-10T15:41:53Z</time>
      </trkpt>
      <trkpt lat="44.44156" lon="3.93175">
        <ele>536.1</ele>
        <time>2013-05-10T15:42:00Z</time>
      </trkpt>
      <trkpt lat="44.44149" lon="3.9318">
        <ele>536</ele>
        <time>2013-05-10T15:42:06Z</time>
      </trkpt>
      <trkpt lat="44.44141" lon="3.93186">
        <ele>536</ele>
        <time>2013-05-10T15:42:14Z</time>
      </trkpt>
      <trkpt lat="44.44133" lon="3.93184">
        <ele>536</ele>
        <time>2013-05-10T15:42:21Z</time>
      </trkpt>
      <trkpt lat="44.44127" lon="3.93188">
        <ele>536</ele>
        <time>2013-05-10T15:42:38Z</time>
      </trkpt>
      <trkpt lat="44.44124" lon="3.93189">
        <ele>536.1</ele>
        <time>2013-05-10T15:42:39Z</time>
      </trkpt>
      <trkpt lat="44.44111" lon="3.93183">
        <ele>536</ele>
        <time>2013-05-10T15:42:46Z</time>
      </trkpt>
      <trkpt lat="44.44102" lon="3.93184">
        <ele>536.3</ele>
        <time>2013-05-10T15:42:54Z</time>
      </trkpt>
      <trkpt lat="44.44094" lon="3.93185">
        <ele>536.2</ele>
        <time>2013-05-10T15:43:05Z</time>
      </trkpt>
      <trkpt lat="44.44086" lon="3.93185">
        <ele>536</ele>
        <time>2013-05-10T15:43:10Z</time>
      </trkpt>
      <trkpt lat="44.44077" lon="3.93186">
        <ele>535.8</ele>
        <time>2013-05-10T15:43:16Z</time>
      </trkpt>
      <trkpt lat="44.44069" lon="3.93191">
        <ele>535.7</ele>
        <time>2013-05-10T15:43:22Z</time>
      </trkpt>
      <trkpt lat="44.44061" lon="3.93189">
        <ele>535.6</ele>
        <time>2013-05-10T15:43:31Z</time>
      </trkpt>
      <trkpt lat="44.44052" lon="3.93191">
        <ele>535</ele>
        <time>2013-05-10T15:43:38Z</time>
      </trkpt>
      <trkpt lat="44.44044" lon="3.93187">
        <ele>534.5</ele>
        <time>2013-05-10T15:43:48Z</time>
      </trkpt>
      <trkpt lat="44.44043" lon="3.93186">
        <ele>534.5</ele>
        <time>2013-05-10T15:43:49Z</time>
      </trkpt>
      <trkpt lat="44.4403" lon="3.93198">
        <ele>533.8</ele>
        <time>2013-05-10T15:44:04Z</time>
      </trkpt>
      <trkpt lat="44.44022" lon="3.93196">
        <ele>534</ele>
        <time>2013-05-10T15:44:14Z</time>
      </trkpt>
      <trkpt lat="44.44027" lon="3.93204">
        <ele>534.7</ele>
        <time>2013-05-10T15:44:37Z</time>
      </trkpt>
      <trkpt lat="44.44019" lon="3.93207">
        <ele>535.3</ele>
        <time>2013-05-10T15:44:47Z</time>
      </trkpt>
      <trkpt lat="44.44011" lon="3.93209">
        <ele>535.4</ele>
        <time>2013-05-10T15:44:51Z</time>
      </trkpt>
      <trkpt lat="44.44009" lon="3.9321">
        <ele>535.4</ele>
        <time>2013-05-10T15:44:52Z</time>
      </trkpt>
      <trkpt lat="44.43997" lon="3.93223">
        <ele>535.5</ele>
        <time>2013-05-10T15:45:08Z</time>
      </trkpt>
      <trkpt lat="44.43989" lon="3.93226">
        <ele>535.2</ele>
        <time>2013-05-10T15:45:14Z</time>
      </trkpt>
      <trkpt lat="44.43981" lon="3.93227">
        <ele>535</ele>
        <time>2013-05-10T15:45:17Z</time>
      </trkpt>
      <trkpt lat="44.43976" lon="3.93227">
        <ele>534.9</ele>
        <time>2013-05-10T15:45:19Z</time>
      </trkpt>
      <trkpt lat="44.43967" lon="3.93226">
        <ele>534.7</ele>
        <time>2013-05-10T15:45:21Z</time>
      </trkpt>
      <trkpt lat="44.43961" lon="3.93231">
        <ele>534.7</ele>
        <time>2013-05-10T15:45:24Z</time>
      </trkpt>
      <trkpt lat="44.43953" lon="3.93233">
        <ele>534.6</ele>
        <time>2013-05-10T15:45:28Z</time>
      </trkpt>
      <trkpt lat="44.43946" lon="3.93226">
        <ele>534.7</ele>
        <time>2013-05-10T15:45:31Z</time>
      </trkpt>
      <trkpt lat="44.43938" lon="3.9322">
        <ele>534.8</ele>
        <time>2013-05-10T15:45:36Z</time>
      </trkpt>
      <trkpt lat="44.4393" lon="3.93222">
        <ele>534.9</ele>
        <time>2013-05-10T15:45:46Z</time>
      </trkpt>
      <trkpt lat="44.43922" lon="3.93227">
        <ele>535.3</ele>
        <time>2013-05-10T15:45:57Z</time>
      </trkpt>
      <trkpt lat="44.43921" lon="3.93228">
        <ele>535.3</ele>
        <time>2013-05-10T15:45:58Z</time>
      </trkpt>
      <trkpt lat="44.43909" lon="3.93219">
        <ele>535.6</ele>
        <time>2013-05-10T15:46:07Z</time>
      </trkpt>
      <trkpt lat="44.43902" lon="3.93215">
        <ele>535.8</ele>
        <time>2013-05-10T15:46:11Z</time>
      </trkpt>
      <trkpt lat="44.43894" lon="3.93212">
        <ele>535.8</ele>
        <time>2013-05-10T15:46:17Z</time>
      </trkpt>
      <trkpt lat="44.43887" lon="3.9321">
        <ele>535.9</ele>
        <time>2013-05-10T15:46:24Z</time>
      </trkpt>
      <trkpt lat="44.43879" lon="3.93205">
        <ele>536</ele>
        <time>2013-05-10T15:46:28Z</time>
      </trkpt>
      <trkpt lat="44.43884" lon="3.93209">
        <ele>536.1</ele>
        <time>2013-05-10T15:46:31Z</time>
      </trkpt>
      <trkpt lat="44.43891" lon="3.93216">
        <ele>536.1</ele>
        <time>2013-05-10T15:46:33Z</time>
      </trkpt>
      <trkpt lat="44.43899" lon="3.93222">
        <ele>536.1</ele>
        <time>2013-05-10T15:46:36Z</time>
      </trkpt>
      <trkpt lat="44.43897" lon="3.93211">
        <ele>536.1</ele>
        <time>2013-05-10T15:46:47Z</time>
      </trkpt>
      <trkpt lat="44.43888" lon="3.93209">
        <ele>536</ele>
        <time>2013-05-10T15:46:58Z</time>
      </trkpt>
      <trkpt lat="44.43886" lon="3.93209">
        <ele>536</ele>
        <time>2013-05-10T15:46:59Z</time>
      </trkpt>
      <trkpt lat="44.43885" lon="3.93208">
        <ele>535.8</ele>
        <time>2013-05-10T15:47:47Z</time>
      </trkpt>
      <trkpt lat="44.4389" lon="3.93212">
        <ele>535.8</ele>
        <time>2013-05-10T15:47:48Z</time>
      </trkpt>
      <trkpt lat="44.43898" lon="3.93219">
        <ele>535.7</ele>
        <time>2013-05-10T15:47:51Z</time>
      </trkpt>
      <trkpt lat="44.43892" lon="3.93217">
        <ele>535.5</ele>
        <time>2013-05-10T15:48:13Z</time>
      </trkpt>
      <trkpt lat="44.43888" lon="3.93216">
        <ele>535.5</ele>
        <time>2013-05-10T15:48:14Z</time>
      </trkpt>
      <trkpt lat="44.43897" lon="3.93202">
        <ele>535.8</ele>
        <time>2013-05-10T15:49:27Z</time>
      </trkpt>
      <trkpt lat="44.43897" lon="3.932">
        <ele>535.9</ele>
        <time>2013-05-10T15:49:28Z</time>
      </trkpt>
      <trkpt lat="44.4389" lon="3.93193">
        <ele>536</ele>
        <time>2013-05-10T15:49:47Z</time>
      </trkpt>
      <trkpt lat="44.43894" lon="3.93199">
        <ele>536</ele>
        <time>2013-05-10T15:49:53Z</time>
      </trkpt>
      <trkpt lat="44.43901" lon="3.93206">
        <ele>536</ele>
        <time>2013-05-10T15:49:55Z</time>
      </trkpt>
      <trkpt lat="44.43898" lon="3.93196">
        <ele>536.1</ele>
        <time>2013-05-10T15:50:13Z</time>
      </trkpt>
      <trkpt lat="44.43893" lon="3.93189">
        <ele>536.1</ele>
        <time>2013-05-10T15:50:27Z</time>
      </trkpt>
      <trkpt lat="44.43891" lon="3.93194">
        <ele>536.3</ele>
        <time>2013-05-10T15:50:32Z</time>
      </trkpt>
      <trkpt lat="44.43899" lon="3.93204">
        <ele>536.3</ele>
        <time>2013-05-10T15:50:34Z</time>
      </trkpt>
      <trkpt lat="44.43907" lon="3.93208">
        <ele>536.3</ele>
        <time>2013-05-10T15:50:40Z</time>
      </trkpt>
      <trkpt lat="44.43908" lon="3.93219">
        <ele>536.4</ele>
        <time>2013-05-10T15:50:50Z</time>
      </trkpt>
      <trkpt lat="44.43904" lon="3.9323">
        <ele>536.4</ele>
        <time>2013-05-10T15:50:57Z</time>
      </trkpt>
      <trkpt lat="44.43896" lon="3.93228">
        <ele>536.5</ele>
        <time>2013-05-10T15:51:00Z</time>
      </trkpt>
      <trkpt lat="44.43888" lon="3.93228">
        <ele>536.7</ele>
        <time>2013-05-10T15:51:04Z</time>
      </trkpt>
      <trkpt lat="44.43879" lon="3.93225">
        <ele>536.9</ele>
        <time>2013-05-10T15:51:11Z</time>
      </trkpt>
      <trkpt lat="44.43877" lon="3.93237">
        <ele>537.2</ele>
        <time>2013-05-10T15:51:26Z</time>
      </trkpt>
      <trkpt lat="44.43869" lon="3.93241">
        <ele>537.2</ele>
        <time>2013-05-10T15:51:36Z</time>
      </trkpt>
      <trkpt lat="44.43868" lon="3.93241">
        <ele>537.2</ele>
        <time>2013-05-10T15:51:37Z</time>
      </trkpt>
      <trkpt lat="44.43857" lon="3.93245">
        <ele>537.1</ele>
        <time>2013-05-10T15:51:43Z</time>
      </trkpt>
      <trkpt lat="44.43848" lon="3.93247">
        <ele>537.1</ele>
        <time>2013-05-10T15:51:48Z</time>
      </trkpt>
      <trkpt lat="44.43841" lon="3.93246">
        <ele>537.1</ele>
        <time>2013-05-10T15:51:56Z</time>
      </trkpt>
      <trkpt lat="44.43833" lon="3.93244">
        <ele>537.2</ele>
        <time>2013-05-10T15:52:01Z</time>
      </trkpt>
      <trkpt lat="44.43826" lon="3.93242">
        <ele>537.2</ele>
        <time>2013-05-10T15:52:04Z</time>
      </trkpt>
      <trkpt lat="44.43821" lon="3.9324">
        <ele>537.2</ele>
        <time>2013-05-10T15:52:05Z</time>
      </trkpt>
      <trkpt lat="44.43816" lon="3.93238">
        <ele>537.2</ele>
        <time>2013-05-10T15:52:06Z</time>
      </trkpt>
      <trkpt lat="44.43809" lon="3.93243">
        <ele>537.4</ele>
        <time>2013-05-10T15:52:16Z</time>
      </trkpt>
      <trkpt lat="44.43803" lon="3.93245">
        <ele>537.4</ele>
        <time>2013-05-10T15:52:31Z</time>
      </trkpt>
      <trkpt lat="44.43758" lon="3.93273">
        <ele>537.1</ele>
        <time>2013-05-10T15:53:15Z</time>
      </trkpt>
      <trkpt lat="44.43767" lon="3.93283">
        <ele>537</ele>
        <time>2013-05-10T15:53:16Z</time>
      </trkpt>
      <trkpt lat="44.4377" lon="3.9329">
        <ele>536.9</ele>
        <time>2013-05-10T15:53:17Z</time>
      </trkpt>
      <trkpt lat="44.43776" lon="3.93297">
        <ele>536.8</ele>
        <time>2013-05-10T15:53:18Z</time>
      </trkpt>
      <trkpt lat="44.43779" lon="3.93306">
        <ele>536.6</ele>
        <time>2013-05-10T15:53:20Z</time>
      </trkpt>
      <trkpt lat="44.43781" lon="3.93316">
        <ele>536.4</ele>
        <time>2013-05-10T15:53:23Z</time>
      </trkpt>
      <trkpt lat="44.43776" lon="3.93325">
        <ele>536.3</ele>
        <time>2013-05-10T15:53:30Z</time>
      </trkpt>
      <trkpt lat="44.43768" lon="3.9333">
        <ele>536.1</ele>
        <time>2013-05-10T15:53:39Z</time>
      </trkpt>
      <trkpt lat="44.43768" lon="3.93332">
        <ele>536.1</ele>
        <time>2013-05-10T15:53:41Z</time>
      </trkpt>
      <trkpt lat="44.43741" lon="3.93358">
        <ele>535.9</ele>
        <time>2013-05-10T15:54:17Z</time>
      </trkpt>
      <trkpt lat="44.43737" lon="3.93348">
        <ele>536.1</ele>
        <time>2013-05-10T15:54:27Z</time>
      </trkpt>
      <trkpt lat="44.43729" lon="3.93346">
        <ele>536.1</ele>
        <time>2013-05-10T15:54:31Z</time>
      </trkpt>
      <trkpt lat="44.43723" lon="3.93345">
        <ele>536</ele>
        <time>2013-05-10T15:54:36Z</time>
      </trkpt>
      <trkpt lat="44.43716" lon="3.9334">
        <ele>536.1</ele>
        <time>2013-05-10T15:54:38Z</time>
      </trkpt>
      <trkpt lat="44.43712" lon="3.93336">
        <ele>536.1</ele>
        <time>2013-05-10T15:54:40Z</time>
      </trkpt>
      <trkpt lat="44.43704" lon="3.9333">
        <ele>536.2</ele>
        <time>2013-05-10T15:54:43Z</time>
      </trkpt>
      <trkpt lat="44.43695" lon="3.93333">
        <ele>536.2</ele>
        <time>2013-05-10T15:54:57Z</time>
      </trkpt>
      <trkpt lat="44.43687" lon="3.9333">
        <ele>536.3</ele>
        <time>2013-05-10T15:55:00Z</time>
      </trkpt>
      <trkpt lat="44.43684" lon="3.93327">
        <ele>536.4</ele>
        <time>2013-05-10T15:55:02Z</time>
      </trkpt>
      <trkpt lat="44.43679" lon="3.93324">
        <ele>536.4</ele>
        <time>2013-05-10T15:55:03Z</time>
      </trkpt>
      <trkpt lat="44.43673" lon="3.93321">
        <ele>536.4</ele>
        <time>2013-05-10T15:55:04Z</time>
      </trkpt>
      <trkpt lat="44.43668" lon="3.93317">
        <ele>536.5</ele>
        <time>2013-05-10T15:55:05Z</time>
      </trkpt>
      <trkpt lat="44.43661" lon="3.93309">
        <ele>536.5</ele>
        <time>2013-05-10T15:55:07Z</time>
      </trkpt>
      <trkpt lat="44.43659" lon="3.93321">
        <ele>536.5</ele>
        <time>2013-05-10T15:55:17Z</time>
      </trkpt>
      <trkpt lat="44.43658" lon="3.93322">
        <ele>536.5</ele>
        <time>2013-05-10T15:55:18Z</time>
      </trkpt>
      <trkpt lat="44.43643" lon="3.93324">
        <ele>536.8</ele>
        <time>2013-05-10T15:55:35Z</time>
      </trkpt>
      <trkpt lat="44.43639" lon="3.93326">
        <ele>536.9</ele>
        <time>2013-05-10T15:55:44Z</time>
      </trkpt>
      <trkpt lat="44.43631" lon="3.93323">
        <ele>536.8</ele>
        <time>2013-05-10T15:55:47Z</time>
      </trkpt>
      <trkpt lat="44.43624" lon="3.9333">
        <ele>537.1</ele>
        <time>2013-05-10T15:56:01Z</time>
      </trkpt>
      <trkpt lat="44.43623" lon="3.93331">
        <ele>537.2</ele>
        <time>2013-05-10T15:56:04Z</time>
      </trkpt>
      <trkpt lat="44.43641" lon="3.9334">
        <ele>536.5</ele>
        <time>2013-05-10T15:56:05Z</time>
      </trkpt>
      <trkpt lat="44.43632" lon="3.93336">
        <ele>535.4</ele>
        <time>2013-05-10T15:56:11Z</time>
      </trkpt>
      <trkpt lat="44.43624" lon="3.93334">
        <ele>535</ele>
        <time>2013-05-10T15:56:17Z</time>
      </trkpt>
      <trkpt lat="44.43615" lon="3.93331">
        <ele>534.5</ele>
        <time>2013-05-10T15:56:22Z</time>
      </trkpt>
      <trkpt lat="44.43615" lon="3.93332">
        <ele>534.5</ele>
        <time>2013-05-10T15:56:23Z</time>
      </trkpt>
      <trkpt lat="44.43604" lon="3.93328">
        <ele>534.1</ele>
        <time>2013-05-10T15:56:35Z</time>
      </trkpt>
      <trkpt lat="44.43597" lon="3.9333">
        <ele>534</ele>
        <time>2013-05-10T15:56:45Z</time>
      </trkpt>
      <trkpt lat="44.43591" lon="3.93326">
        <ele>533.9</ele>
        <time>2013-05-10T15:56:49Z</time>
      </trkpt>
      <trkpt lat="44.43584" lon="3.93325">
        <ele>533.9</ele>
        <time>2013-05-10T15:56:51Z</time>
      </trkpt>
      <trkpt lat="44.43576" lon="3.93325">
        <ele>534</ele>
        <time>2013-05-10T15:56:53Z</time>
      </trkpt>
      <trkpt lat="44.43568" lon="3.93322">
        <ele>534.4</ele>
        <time>2013-05-10T15:57:00Z</time>
      </trkpt>
      <trkpt lat="44.43562" lon="3.93323">
        <ele>534.6</ele>
        <time>2013-05-10T15:57:07Z</time>
      </trkpt>
      <trkpt lat="44.43557" lon="3.93322">
        <ele>535.1</ele>
        <time>2013-05-10T15:57:19Z</time>
      </trkpt>
      <trkpt lat="44.43552" lon="3.93319">
        <ele>537.2</ele>
        <time>2013-05-10T15:58:39Z</time>
      </trkpt>
      <trkpt lat="44.43549" lon="3.93315">
        <ele>537.2</ele>
        <time>2013-05-10T15:58:40Z</time>
      </trkpt>
      <trkpt lat="44.43563" lon="3.93327">
        <ele>537.7</ele>
        <time>2013-05-10T15:59:08Z</time>
      </trkpt>
      <trkpt lat="44.43559" lon="3.93318">
        <ele>537.7</ele>
        <time>2013-05-10T15:59:32Z</time>
      </trkpt>
      <trkpt lat="44.43552" lon="3.93314">
        <ele>537.4</ele>
        <time>2013-05-10T15:59:53Z</time>
      </trkpt>
      <trkpt lat="44.43549" lon="3.93313">
        <ele>537.4</ele>
        <time>2013-05-10T15:59:54Z</time>
      </trkpt>
      <trkpt lat="44.43537" lon="3.93309">
        <ele>536.9</ele>
        <time>2013-05-10T16:00:02Z</time>
      </trkpt>
      <trkpt lat="44.43543" lon="3.933">
        <ele>536.5</ele>
        <time>2013-05-10T16:00:13Z</time>
      </trkpt>
      <trkpt lat="44.43552" lon="3.933">
        <ele>536.8</ele>
        <time>2013-05-10T16:00:20Z</time>
      </trkpt>
      <trkpt lat="44.43556" lon="3.93289">
        <ele>536</ele>
        <time>2013-05-10T16:00:37Z</time>
      </trkpt>
      <trkpt lat="44.43562" lon="3.93283">
        <ele>536.1</ele>
        <time>2013-05-10T16:00:44Z</time>
      </trkpt>
      <trkpt lat="44.43561" lon="3.93273">
        <ele>536.1</ele>
        <time>2013-05-10T16:00:49Z</time>
      </trkpt>
      <trkpt lat="44.43569" lon="3.93275">
        <ele>536.6</ele>
        <time>2013-05-10T16:00:54Z</time>
      </trkpt>
      <trkpt lat="44.43571" lon="3.93276">
        <ele>536.7</ele>
        <time>2013-05-10T16:00:55Z</time>
      </trkpt>
      <trkpt lat="44.43578" lon="3.93263">
        <ele>537.3</ele>
        <time>2013-05-10T16:01:05Z</time>
      </trkpt>
      <trkpt lat="44.43573" lon="3.93256">
        <ele>537.3</ele>
        <time>2013-05-10T16:01:11Z</time>
      </trkpt>
      <trkpt lat="44.43566" lon="3.93252">
        <ele>537.2</ele>
        <time>2013-05-10T16:01:13Z</time>
      </trkpt>
      <trkpt lat="44.43573" lon="3.9326">
        <ele>537</ele>
        <time>2013-05-10T16:01:22Z</time>
      </trkpt>
      <trkpt lat="44.43569" lon="3.93271">
        <ele>536.6</ele>
        <time>2013-05-10T16:01:31Z</time>
      </trkpt>
      <trkpt lat="44.43562" lon="3.93274">
        <ele>536.3</ele>
        <time>2013-05-10T16:01:39Z</time>
      </trkpt>
      <trkpt lat="44.43554" lon="3.93271">
        <ele>536.3</ele>
        <time>2013-05-10T16:01:41Z</time>
      </trkpt>
      <trkpt lat="44.43548" lon="3.93266">
        <ele>536</ele>
        <time>2013-05-10T16:01:46Z</time>
      </trkpt>
      <trkpt lat="44.4355" lon="3.93277">
        <ele>535.9</ele>
        <time>2013-05-10T16:01:54Z</time>
      </trkpt>
      <trkpt lat="44.43552" lon="3.93286">
        <ele>535.7</ele>
        <time>2013-05-10T16:01:59Z</time>
      </trkpt>
      <trkpt lat="44.43553" lon="3.9329">
        <ele>535.6</ele>
        <time>2013-05-10T16:02:00Z</time>
      </trkpt>
      <trkpt lat="44.43541" lon="3.93287">
        <ele>535.9</ele>
        <time>2013-05-10T16:02:05Z</time>
      </trkpt>
      <trkpt lat="44.43535" lon="3.93283">
        <ele>535.9</ele>
        <time>2013-05-10T16:02:07Z</time>
      </trkpt>
      <trkpt lat="44.43526" lon="3.93281">
        <ele>535.9</ele>
        <time>2013-05-10T16:02:10Z</time>
      </trkpt>
      <trkpt lat="44.43519" lon="3.9328">
        <ele>536</ele>
        <time>2013-05-10T16:02:14Z</time>
      </trkpt>
      <trkpt lat="44.43511" lon="3.93276">
        <ele>536.3</ele>
        <time>2013-05-10T16:02:17Z</time>
      </trkpt>
      <trkpt lat="44.43504" lon="3.93281">
        <ele>536.8</ele>
        <time>2013-05-10T16:02:23Z</time>
      </trkpt>
      <trkpt lat="44.4351" lon="3.93271">
        <ele>537.1</ele>
        <time>2013-05-10T16:02:35Z</time>
      </trkpt>
      <trkpt lat="44.43509" lon="3.93259">
        <ele>537</ele>
        <time>2013-05-10T16:02:42Z</time>
      </trkpt>
      <trkpt lat="44.43508" lon="3.93247">
        <ele>537.6</ele>
        <time>2013-05-10T16:02:53Z</time>
      </trkpt>
      <trkpt lat="44.43515" lon="3.93239">
        <ele>537.7</ele>
        <time>2013-05-10T16:03:02Z</time>
      </trkpt>
      <trkpt lat="44.43517" lon="3.93238">
        <ele>537.8</ele>
        <time>2013-05-10T16:03:03Z</time>
      </trkpt>
      <trkpt lat="44.43511" lon="3.93218">
        <ele>538.4</ele>
        <time>2013-05-10T16:03:16Z</time>
      </trkpt>
      <trkpt lat="44.43509" lon="3.93206">
        <ele>538.9</ele>
        <time>2013-05-10T16:03:23Z</time>
      </trkpt>
      <trkpt lat="44.43515" lon="3.93201">
        <ele>539.6</ele>
        <time>2013-05-10T16:03:30Z</time>
      </trkpt>
      <trkpt lat="44.43522" lon="3.93197">
        <ele>539.9</ele>
        <time>2013-05-10T16:03:32Z</time>
      </trkpt>
      <trkpt lat="44.43515" lon="3.93205">
        <ele>540.7</ele>
        <time>2013-05-10T16:03:49Z</time>
      </trkpt>
      <trkpt lat="44.43511" lon="3.93214">
        <ele>541.2</ele>
        <time>2013-05-10T16:03:58Z</time>
      </trkpt>
      <trkpt lat="44.43504" lon="3.93221">
        <ele>541.5</ele>
        <time>2013-05-10T16:04:05Z</time>
      </trkpt>
      <trkpt lat="44.43504" lon="3.93223">
        <ele>541.6</ele>
        <time>2013-05-10T16:04:06Z</time>
      </trkpt>
      <trkpt lat="44.43501" lon="3.93243">
        <ele>541.7</ele>
        <time>2013-05-10T16:04:21Z</time>
      </trkpt>
      <trkpt lat="44.43493" lon="3.93249">
        <ele>541.7</ele>
        <time>2013-05-10T16:04:32Z</time>
      </trkpt>
      <trkpt lat="44.43491" lon="3.9326">
        <ele>542.2</ele>
        <time>2013-05-10T16:04:43Z</time>
      </trkpt>
      <trkpt lat="44.43489" lon="3.93271">
        <ele>542.6</ele>
        <time>2013-05-10T16:04:51Z</time>
      </trkpt>
      <trkpt lat="44.43482" lon="3.93275">
        <ele>543.1</ele>
        <time>2013-05-10T16:04:56Z</time>
      </trkpt>
      <trkpt lat="44.43474" lon="3.93275">
        <ele>544.3</ele>
        <time>2013-05-10T16:05:03Z</time>
      </trkpt>
      <trkpt lat="44.43468" lon="3.93271">
        <ele>544.8</ele>
        <time>2013-05-10T16:05:08Z</time>
      </trkpt>
      <trkpt lat="44.43466" lon="3.9327">
        <ele>544.9</ele>
        <time>2013-05-10T16:05:09Z</time>
      </trkpt>
      <trkpt lat="44.43451" lon="3.93263">
        <ele>546.8</ele>
        <time>2013-05-10T16:05:47Z</time>
      </trkpt>
      <trkpt lat="44.43447" lon="3.93258">
        <ele>546.8</ele>
        <time>2013-05-10T16:05:49Z</time>
      </trkpt>
      <trkpt lat="44.43443" lon="3.93255">
        <ele>547</ele>
        <time>2013-05-10T16:05:50Z</time>
      </trkpt>
      <trkpt lat="44.43439" lon="3.9325">
        <ele>547</ele>
        <time>2013-05-10T16:05:51Z</time>
      </trkpt>
      <trkpt lat="44.43433" lon="3.93243">
        <ele>547</ele>
        <time>2013-05-10T16:05:53Z</time>
      </trkpt>
      <trkpt lat="44.43428" lon="3.93239">
        <ele>547</ele>
        <time>2013-05-10T16:05:54Z</time>
      </trkpt>
      <trkpt lat="44.43421" lon="3.93232">
        <ele>547</ele>
        <time>2013-05-10T16:05:56Z</time>
      </trkpt>
      <trkpt lat="44.43418" lon="3.9322">
        <ele>546.8</ele>
        <time>2013-05-10T16:06:02Z</time>
      </trkpt>
      <trkpt lat="44.43416" lon="3.9321">
        <ele>546.9</ele>
        <time>2013-05-10T16:06:10Z</time>
      </trkpt>
      <trkpt lat="44.43415" lon="3.93207">
        <ele>546.9</ele>
        <time>2013-05-10T16:06:11Z</time>
      </trkpt>
      <trkpt lat="44.4341" lon="3.93193">
        <ele>547.4</ele>
        <time>2013-05-10T16:06:21Z</time>
      </trkpt>
      <trkpt lat="44.43415" lon="3.93183">
        <ele>547.9</ele>
        <time>2013-05-10T16:06:28Z</time>
      </trkpt>
      <trkpt lat="44.43408" lon="3.93177">
        <ele>548.1</ele>
        <time>2013-05-10T16:06:30Z</time>
      </trkpt>
      <trkpt lat="44.4341" lon="3.93165">
        <ele>549</ele>
        <time>2013-05-10T16:06:42Z</time>
      </trkpt>
      <trkpt lat="44.43409" lon="3.93153">
        <ele>549.4</ele>
        <time>2013-05-10T16:06:53Z</time>
      </trkpt>
      <trkpt lat="44.43416" lon="3.93147">
        <ele>550</ele>
        <time>2013-05-10T16:07:01Z</time>
      </trkpt>
      <trkpt lat="44.43413" lon="3.93137">
        <ele>550.6</ele>
        <time>2013-05-10T16:07:15Z</time>
      </trkpt>
      <trkpt lat="44.43407" lon="3.93132">
        <ele>550.7</ele>
        <time>2013-05-10T16:07:16Z</time>
      </trkpt>
      <trkpt lat="44.43401" lon="3.93128">
        <ele>550.7</ele>
        <time>2013-05-10T16:07:17Z</time>
      </trkpt>
      <trkpt lat="44.43394" lon="3.93124">
        <ele>550.9</ele>
        <time>2013-05-10T16:07:25Z</time>
      </trkpt>
      <trkpt lat="44.43396" lon="3.93113">
        <ele>552.2</ele>
        <time>2013-05-10T16:07:49Z</time>
      </trkpt>
      <trkpt lat="44.43401" lon="3.93104">
        <ele>553.1</ele>
        <time>2013-05-10T16:07:57Z</time>
      </trkpt>
      <trkpt lat="44.43407" lon="3.93104">
        <ele>554.2</ele>
        <time>2013-05-10T16:08:19Z</time>
      </trkpt>
      <trkpt lat="44.43412" lon="3.93106">
        <ele>554.4</ele>
        <time>2013-05-10T16:08:20Z</time>
      </trkpt>
      <trkpt lat="44.43422" lon="3.93108">
        <ele>554.9</ele>
        <time>2013-05-10T16:08:30Z</time>
      </trkpt>
      <trkpt lat="44.43424" lon="3.93119">
        <ele>556.9</ele>
        <time>2013-05-10T16:08:54Z</time>
      </trkpt>
      <trkpt lat="44.4343" lon="3.93126">
        <ele>557.3</ele>
        <time>2013-05-10T16:09:02Z</time>
      </trkpt>
      <trkpt lat="44.43439" lon="3.93126">
        <ele>557.3</ele>
        <time>2013-05-10T16:09:08Z</time>
      </trkpt>
      <trkpt lat="44.43443" lon="3.93128">
        <ele>555.5</ele>
        <time>2013-05-10T16:09:13Z</time>
      </trkpt>
    </trkseg>
  </trk>
</gpx>